<?xml version="1.0" encoding="UTF-8" standalone="no" ?>
<gpx xmlns="http://www.topografix.com/GPX/1/1" xmlns:xsi="http://www.w3.org/2001/XMLSchema-instance" xsi:schemaLocation="http://www.topografix.com/GPX/1/1 http://www.topografix.com/GPX/1/1/gpx.xsd" version="1.1" creator="VisuGPX - https://www.visugpx.com">
  <metadata>
    <name>Course à pied dans l'après-midi</name>
  </metadata>
  <trk>
    <name><![CDATA[Course à pied dans l'après-midi_1]]></name>
    <trkseg>
      <trkpt lat="43.45862" lon="1.62209">
        <ele>197</ele>
        <time>2024-01-20T15:00:23Z</time>
      </trkpt>
      <trkpt lat="43.4586" lon="1.6221">
        <ele>197</ele>
        <time>2024-01-20T15:00:24Z</time>
      </trkpt>
      <trkpt lat="43.4586" lon="1.6221">
        <ele>197</ele>
        <time>2024-01-20T15:00:25Z</time>
      </trkpt>
      <trkpt lat="43.45857" lon="1.62212">
        <ele>197</ele>
        <time>2024-01-20T15:00:26Z</time>
      </trkpt>
      <trkpt lat="43.45855" lon="1.62213">
        <ele>196</ele>
        <time>2024-01-20T15:00:27Z</time>
      </trkpt>
      <trkpt lat="43.45852" lon="1.62215">
        <ele>196</ele>
        <time>2024-01-20T15:00:28Z</time>
      </trkpt>
      <trkpt lat="43.4585" lon="1.62215">
        <ele>196</ele>
        <time>2024-01-20T15:00:29Z</time>
      </trkpt>
      <trkpt lat="43.45847" lon="1.62217">
        <ele>196</ele>
        <time>2024-01-20T15:00:30Z</time>
      </trkpt>
      <trkpt lat="43.45845" lon="1.62218">
        <ele>196</ele>
        <time>2024-01-20T15:00:31Z</time>
      </trkpt>
      <trkpt lat="43.45843" lon="1.62219">
        <ele>196</ele>
        <time>2024-01-20T15:00:32Z</time>
      </trkpt>
      <trkpt lat="43.45841" lon="1.6222">
        <ele>196</ele>
        <time>2024-01-20T15:00:33Z</time>
      </trkpt>
      <trkpt lat="43.45838" lon="1.62221">
        <ele>196</ele>
        <time>2024-01-20T15:00:34Z</time>
      </trkpt>
      <trkpt lat="43.45836" lon="1.62222">
        <ele>196</ele>
        <time>2024-01-20T15:00:35Z</time>
      </trkpt>
      <trkpt lat="43.45834" lon="1.62223">
        <ele>196</ele>
        <time>2024-01-20T15:00:36Z</time>
      </trkpt>
      <trkpt lat="43.45832" lon="1.62224">
        <ele>196</ele>
        <time>2024-01-20T15:00:37Z</time>
      </trkpt>
      <trkpt lat="43.45829" lon="1.62225">
        <ele>196</ele>
        <time>2024-01-20T15:00:38Z</time>
      </trkpt>
      <trkpt lat="43.45827" lon="1.62227">
        <ele>196</ele>
        <time>2024-01-20T15:00:39Z</time>
      </trkpt>
      <trkpt lat="43.45825" lon="1.62228">
        <ele>196</ele>
        <time>2024-01-20T15:00:40Z</time>
      </trkpt>
      <trkpt lat="43.45822" lon="1.6223">
        <ele>196</ele>
        <time>2024-01-20T15:00:41Z</time>
      </trkpt>
      <trkpt lat="43.4582" lon="1.6223">
        <ele>196</ele>
        <time>2024-01-20T15:00:42Z</time>
      </trkpt>
      <trkpt lat="43.45818" lon="1.62231">
        <ele>196</ele>
        <time>2024-01-20T15:00:43Z</time>
      </trkpt>
      <trkpt lat="43.45815" lon="1.62233">
        <ele>196</ele>
        <time>2024-01-20T15:00:44Z</time>
      </trkpt>
      <trkpt lat="43.45814" lon="1.62233">
        <ele>196</ele>
        <time>2024-01-20T15:00:45Z</time>
      </trkpt>
      <trkpt lat="43.45811" lon="1.62235">
        <ele>196</ele>
        <time>2024-01-20T15:00:46Z</time>
      </trkpt>
      <trkpt lat="43.4581" lon="1.62236">
        <ele>196</ele>
        <time>2024-01-20T15:00:47Z</time>
      </trkpt>
      <trkpt lat="43.45808" lon="1.62236">
        <ele>196</ele>
        <time>2024-01-20T15:00:48Z</time>
      </trkpt>
      <trkpt lat="43.45807" lon="1.62237">
        <ele>195</ele>
        <time>2024-01-20T15:00:49Z</time>
      </trkpt>
      <trkpt lat="43.45807" lon="1.62237">
        <ele>195</ele>
        <time>2024-01-20T15:00:50Z</time>
      </trkpt>
      <trkpt lat="43.45803" lon="1.62239">
        <ele>195</ele>
        <time>2024-01-20T15:00:51Z</time>
      </trkpt>
      <trkpt lat="43.45803" lon="1.62239">
        <ele>195</ele>
        <time>2024-01-20T15:00:52Z</time>
      </trkpt>
      <trkpt lat="43.458" lon="1.62241">
        <ele>195</ele>
        <time>2024-01-20T15:00:53Z</time>
      </trkpt>
      <trkpt lat="43.458" lon="1.62241">
        <ele>195</ele>
        <time>2024-01-20T15:00:54Z</time>
      </trkpt>
      <trkpt lat="43.45797" lon="1.62242">
        <ele>195</ele>
        <time>2024-01-20T15:00:55Z</time>
      </trkpt>
      <trkpt lat="43.45797" lon="1.62242">
        <ele>195</ele>
        <time>2024-01-20T15:00:56Z</time>
      </trkpt>
      <trkpt lat="43.45794" lon="1.62244">
        <ele>195</ele>
        <time>2024-01-20T15:00:57Z</time>
      </trkpt>
      <trkpt lat="43.45793" lon="1.62245">
        <ele>195</ele>
        <time>2024-01-20T15:00:58Z</time>
      </trkpt>
      <trkpt lat="43.45793" lon="1.62245">
        <ele>194</ele>
        <time>2024-01-20T15:00:59Z</time>
      </trkpt>
      <trkpt lat="43.4579" lon="1.62247">
        <ele>194</ele>
        <time>2024-01-20T15:01:00Z</time>
      </trkpt>
      <trkpt lat="43.4579" lon="1.62247">
        <ele>194</ele>
        <time>2024-01-20T15:01:01Z</time>
      </trkpt>
      <trkpt lat="43.45788" lon="1.62249">
        <ele>194</ele>
        <time>2024-01-20T15:01:02Z</time>
      </trkpt>
      <trkpt lat="43.45784" lon="1.6225">
        <ele>193</ele>
        <time>2024-01-20T15:01:03Z</time>
      </trkpt>
      <trkpt lat="43.45782" lon="1.62251">
        <ele>192</ele>
        <time>2024-01-20T15:01:04Z</time>
      </trkpt>
      <trkpt lat="43.4578" lon="1.62252">
        <ele>193</ele>
        <time>2024-01-20T15:01:05Z</time>
      </trkpt>
      <trkpt lat="43.45778" lon="1.62254">
        <ele>193</ele>
        <time>2024-01-20T15:01:06Z</time>
      </trkpt>
      <trkpt lat="43.45776" lon="1.62255">
        <ele>193</ele>
        <time>2024-01-20T15:01:07Z</time>
      </trkpt>
      <trkpt lat="43.45775" lon="1.62256">
        <ele>193</ele>
        <time>2024-01-20T15:01:08Z</time>
      </trkpt>
      <trkpt lat="43.45773" lon="1.62257">
        <ele>193</ele>
        <time>2024-01-20T15:01:09Z</time>
      </trkpt>
      <trkpt lat="43.45771" lon="1.62257">
        <ele>192</ele>
        <time>2024-01-20T15:01:10Z</time>
      </trkpt>
      <trkpt lat="43.45771" lon="1.62257">
        <ele>192</ele>
        <time>2024-01-20T15:01:11Z</time>
      </trkpt>
      <trkpt lat="43.45768" lon="1.62259">
        <ele>192</ele>
        <time>2024-01-20T15:01:12Z</time>
      </trkpt>
      <trkpt lat="43.45768" lon="1.62259">
        <ele>192</ele>
        <time>2024-01-20T15:01:13Z</time>
      </trkpt>
      <trkpt lat="43.45766" lon="1.62259">
        <ele>192</ele>
        <time>2024-01-20T15:01:14Z</time>
      </trkpt>
      <trkpt lat="43.45766" lon="1.62259">
        <ele>192</ele>
        <time>2024-01-20T15:01:15Z</time>
      </trkpt>
      <trkpt lat="43.45763" lon="1.6226">
        <ele>192</ele>
        <time>2024-01-20T15:01:16Z</time>
      </trkpt>
      <trkpt lat="43.45763" lon="1.6226">
        <ele>191</ele>
        <time>2024-01-20T15:01:17Z</time>
      </trkpt>
      <trkpt lat="43.45761" lon="1.62262">
        <ele>191</ele>
        <time>2024-01-20T15:01:18Z</time>
      </trkpt>
      <trkpt lat="43.45758" lon="1.62262">
        <ele>191</ele>
        <time>2024-01-20T15:01:20Z</time>
      </trkpt>
      <trkpt lat="43.45758" lon="1.62262">
        <ele>191</ele>
        <time>2024-01-20T15:01:21Z</time>
      </trkpt>
      <trkpt lat="43.45756" lon="1.62263">
        <ele>191</ele>
        <time>2024-01-20T15:01:22Z</time>
      </trkpt>
      <trkpt lat="43.45756" lon="1.62263">
        <ele>191</ele>
        <time>2024-01-20T15:01:23Z</time>
      </trkpt>
      <trkpt lat="43.45753" lon="1.62265">
        <ele>191</ele>
        <time>2024-01-20T15:01:24Z</time>
      </trkpt>
      <trkpt lat="43.45753" lon="1.62265">
        <ele>190</ele>
        <time>2024-01-20T15:01:25Z</time>
      </trkpt>
      <trkpt lat="43.4575" lon="1.62267">
        <ele>190</ele>
        <time>2024-01-20T15:01:26Z</time>
      </trkpt>
      <trkpt lat="43.45748" lon="1.62268">
        <ele>190</ele>
        <time>2024-01-20T15:01:27Z</time>
      </trkpt>
      <trkpt lat="43.45747" lon="1.62269">
        <ele>190</ele>
        <time>2024-01-20T15:01:28Z</time>
      </trkpt>
      <trkpt lat="43.45744" lon="1.6227">
        <ele>190</ele>
        <time>2024-01-20T15:01:29Z</time>
      </trkpt>
      <trkpt lat="43.45743" lon="1.62271">
        <ele>189</ele>
        <time>2024-01-20T15:01:30Z</time>
      </trkpt>
      <trkpt lat="43.45743" lon="1.62271">
        <ele>189</ele>
        <time>2024-01-20T15:01:31Z</time>
      </trkpt>
      <trkpt lat="43.45739" lon="1.62273">
        <ele>189</ele>
        <time>2024-01-20T15:01:32Z</time>
      </trkpt>
      <trkpt lat="43.45739" lon="1.62273">
        <ele>189</ele>
        <time>2024-01-20T15:01:33Z</time>
      </trkpt>
      <trkpt lat="43.45737" lon="1.62273">
        <ele>189</ele>
        <time>2024-01-20T15:01:34Z</time>
      </trkpt>
      <trkpt lat="43.45737" lon="1.62273">
        <ele>189</ele>
        <time>2024-01-20T15:01:35Z</time>
      </trkpt>
      <trkpt lat="43.45737" lon="1.62273">
        <ele>189</ele>
        <time>2024-01-20T15:01:36Z</time>
      </trkpt>
      <trkpt lat="43.45737" lon="1.62273">
        <ele>189</ele>
        <time>2024-01-20T15:01:37Z</time>
      </trkpt>
      <trkpt lat="43.45735" lon="1.62273">
        <ele>189</ele>
        <time>2024-01-20T15:01:38Z</time>
      </trkpt>
      <trkpt lat="43.45735" lon="1.62273">
        <ele>189</ele>
        <time>2024-01-20T15:01:39Z</time>
      </trkpt>
      <trkpt lat="43.45735" lon="1.62273">
        <ele>189</ele>
        <time>2024-01-20T15:01:40Z</time>
      </trkpt>
      <trkpt lat="43.45733" lon="1.62274">
        <ele>189</ele>
        <time>2024-01-20T15:01:41Z</time>
      </trkpt>
      <trkpt lat="43.45733" lon="1.62274">
        <ele>189</ele>
        <time>2024-01-20T15:01:42Z</time>
      </trkpt>
      <trkpt lat="43.45733" lon="1.62274">
        <ele>189</ele>
        <time>2024-01-20T15:01:43Z</time>
      </trkpt>
      <trkpt lat="43.45733" lon="1.62274">
        <ele>189</ele>
        <time>2024-01-20T15:01:44Z</time>
      </trkpt>
      <trkpt lat="43.45733" lon="1.62274">
        <ele>189</ele>
        <time>2024-01-20T15:01:45Z</time>
      </trkpt>
      <trkpt lat="43.45733" lon="1.62274">
        <ele>189</ele>
        <time>2024-01-20T15:01:46Z</time>
      </trkpt>
      <trkpt lat="43.45732" lon="1.62275">
        <ele>188</ele>
        <time>2024-01-20T15:01:47Z</time>
      </trkpt>
      <trkpt lat="43.45732" lon="1.62275">
        <ele>188</ele>
        <time>2024-01-20T15:01:48Z</time>
      </trkpt>
      <trkpt lat="43.45732" lon="1.62275">
        <ele>188</ele>
        <time>2024-01-20T15:01:49Z</time>
      </trkpt>
      <trkpt lat="43.45731" lon="1.62278">
        <ele>188</ele>
        <time>2024-01-20T15:01:50Z</time>
      </trkpt>
      <trkpt lat="43.45731" lon="1.62278">
        <ele>188</ele>
        <time>2024-01-20T15:01:51Z</time>
      </trkpt>
      <trkpt lat="43.45731" lon="1.62278">
        <ele>188</ele>
        <time>2024-01-20T15:01:52Z</time>
      </trkpt>
      <trkpt lat="43.45728" lon="1.62279">
        <ele>188</ele>
        <time>2024-01-20T15:01:53Z</time>
      </trkpt>
      <trkpt lat="43.45728" lon="1.62279">
        <ele>188</ele>
        <time>2024-01-20T15:01:54Z</time>
      </trkpt>
      <trkpt lat="43.45726" lon="1.62279">
        <ele>188</ele>
        <time>2024-01-20T15:01:55Z</time>
      </trkpt>
      <trkpt lat="43.45726" lon="1.62279">
        <ele>188</ele>
        <time>2024-01-20T15:01:56Z</time>
      </trkpt>
      <trkpt lat="43.45724" lon="1.62279">
        <ele>188</ele>
        <time>2024-01-20T15:01:57Z</time>
      </trkpt>
      <trkpt lat="43.45724" lon="1.62279">
        <ele>188</ele>
        <time>2024-01-20T15:01:58Z</time>
      </trkpt>
      <trkpt lat="43.45724" lon="1.62279">
        <ele>188</ele>
        <time>2024-01-20T15:01:59Z</time>
      </trkpt>
      <trkpt lat="43.45724" lon="1.62279">
        <ele>188</ele>
        <time>2024-01-20T15:02:00Z</time>
      </trkpt>
      <trkpt lat="43.45724" lon="1.62279">
        <ele>188</ele>
        <time>2024-01-20T15:02:01Z</time>
      </trkpt>
      <trkpt lat="43.45722" lon="1.6228">
        <ele>188</ele>
        <time>2024-01-20T15:02:02Z</time>
      </trkpt>
      <trkpt lat="43.45722" lon="1.6228">
        <ele>188</ele>
        <time>2024-01-20T15:02:04Z</time>
      </trkpt>
      <trkpt lat="43.45722" lon="1.6228">
        <ele>188</ele>
        <time>2024-01-20T15:02:05Z</time>
      </trkpt>
      <trkpt lat="43.45721" lon="1.62282">
        <ele>188</ele>
        <time>2024-01-20T15:02:06Z</time>
      </trkpt>
      <trkpt lat="43.45721" lon="1.62282">
        <ele>188</ele>
        <time>2024-01-20T15:02:07Z</time>
      </trkpt>
      <trkpt lat="43.45721" lon="1.62282">
        <ele>188</ele>
        <time>2024-01-20T15:02:08Z</time>
      </trkpt>
      <trkpt lat="43.45718" lon="1.62283">
        <ele>188</ele>
        <time>2024-01-20T15:02:09Z</time>
      </trkpt>
      <trkpt lat="43.45718" lon="1.62283">
        <ele>188</ele>
        <time>2024-01-20T15:02:11Z</time>
      </trkpt>
      <trkpt lat="43.45716" lon="1.62284">
        <ele>188</ele>
        <time>2024-01-20T15:02:12Z</time>
      </trkpt>
      <trkpt lat="43.45716" lon="1.62284">
        <ele>188</ele>
        <time>2024-01-20T15:02:13Z</time>
      </trkpt>
      <trkpt lat="43.45714" lon="1.62286">
        <ele>188</ele>
        <time>2024-01-20T15:02:14Z</time>
      </trkpt>
      <trkpt lat="43.45714" lon="1.62286">
        <ele>188</ele>
        <time>2024-01-20T15:02:15Z</time>
      </trkpt>
      <trkpt lat="43.45712" lon="1.62287">
        <ele>188</ele>
        <time>2024-01-20T15:02:17Z</time>
      </trkpt>
      <trkpt lat="43.45712" lon="1.62287">
        <ele>188</ele>
        <time>2024-01-20T15:02:18Z</time>
      </trkpt>
      <trkpt lat="43.4571" lon="1.62288">
        <ele>188</ele>
        <time>2024-01-20T15:02:19Z</time>
      </trkpt>
      <trkpt lat="43.4571" lon="1.62288">
        <ele>188</ele>
        <time>2024-01-20T15:02:20Z</time>
      </trkpt>
      <trkpt lat="43.45707" lon="1.62288">
        <ele>188</ele>
        <time>2024-01-20T15:02:21Z</time>
      </trkpt>
      <trkpt lat="43.45707" lon="1.62288">
        <ele>188</ele>
        <time>2024-01-20T15:02:22Z</time>
      </trkpt>
      <trkpt lat="43.45705" lon="1.62288">
        <ele>188</ele>
        <time>2024-01-20T15:02:23Z</time>
      </trkpt>
      <trkpt lat="43.45705" lon="1.62288">
        <ele>188</ele>
        <time>2024-01-20T15:02:24Z</time>
      </trkpt>
      <trkpt lat="43.45705" lon="1.62288">
        <ele>188</ele>
        <time>2024-01-20T15:02:25Z</time>
      </trkpt>
      <trkpt lat="43.45703" lon="1.62289">
        <ele>188</ele>
        <time>2024-01-20T15:02:26Z</time>
      </trkpt>
      <trkpt lat="43.45703" lon="1.62289">
        <ele>188</ele>
        <time>2024-01-20T15:02:27Z</time>
      </trkpt>
      <trkpt lat="43.45703" lon="1.62289">
        <ele>187</ele>
        <time>2024-01-20T15:02:28Z</time>
      </trkpt>
      <trkpt lat="43.45703" lon="1.62289">
        <ele>187</ele>
        <time>2024-01-20T15:02:29Z</time>
      </trkpt>
      <trkpt lat="43.45701" lon="1.6229">
        <ele>187</ele>
        <time>2024-01-20T15:02:30Z</time>
      </trkpt>
      <trkpt lat="43.45701" lon="1.6229">
        <ele>187</ele>
        <time>2024-01-20T15:02:32Z</time>
      </trkpt>
      <trkpt lat="43.45699" lon="1.62292">
        <ele>187</ele>
        <time>2024-01-20T15:02:33Z</time>
      </trkpt>
      <trkpt lat="43.45699" lon="1.62292">
        <ele>187</ele>
        <time>2024-01-20T15:02:34Z</time>
      </trkpt>
      <trkpt lat="43.45698" lon="1.62294">
        <ele>187</ele>
        <time>2024-01-20T15:02:36Z</time>
      </trkpt>
      <trkpt lat="43.45698" lon="1.62294">
        <ele>187</ele>
        <time>2024-01-20T15:02:37Z</time>
      </trkpt>
      <trkpt lat="43.45698" lon="1.62294">
        <ele>187</ele>
        <time>2024-01-20T15:02:38Z</time>
      </trkpt>
      <trkpt lat="43.45696" lon="1.62294">
        <ele>187</ele>
        <time>2024-01-20T15:02:39Z</time>
      </trkpt>
      <trkpt lat="43.45696" lon="1.62294">
        <ele>187</ele>
        <time>2024-01-20T15:02:40Z</time>
      </trkpt>
      <trkpt lat="43.45694" lon="1.62295">
        <ele>187</ele>
        <time>2024-01-20T15:02:41Z</time>
      </trkpt>
      <trkpt lat="43.45694" lon="1.62295">
        <ele>186</ele>
        <time>2024-01-20T15:02:42Z</time>
      </trkpt>
      <trkpt lat="43.45691" lon="1.62296">
        <ele>186</ele>
        <time>2024-01-20T15:02:43Z</time>
      </trkpt>
      <trkpt lat="43.45691" lon="1.62296">
        <ele>186</ele>
        <time>2024-01-20T15:02:44Z</time>
      </trkpt>
      <trkpt lat="43.45688" lon="1.62298">
        <ele>185</ele>
        <time>2024-01-20T15:02:45Z</time>
      </trkpt>
      <trkpt lat="43.45688" lon="1.62298">
        <ele>185</ele>
        <time>2024-01-20T15:02:46Z</time>
      </trkpt>
      <trkpt lat="43.45686" lon="1.62299">
        <ele>185</ele>
        <time>2024-01-20T15:02:47Z</time>
      </trkpt>
      <trkpt lat="43.45686" lon="1.62299">
        <ele>185</ele>
        <time>2024-01-20T15:02:48Z</time>
      </trkpt>
      <trkpt lat="43.45685" lon="1.62301">
        <ele>185</ele>
        <time>2024-01-20T15:02:49Z</time>
      </trkpt>
      <trkpt lat="43.45683" lon="1.62302">
        <ele>185</ele>
        <time>2024-01-20T15:02:51Z</time>
      </trkpt>
      <trkpt lat="43.45683" lon="1.62302">
        <ele>185</ele>
        <time>2024-01-20T15:02:52Z</time>
      </trkpt>
      <trkpt lat="43.45682" lon="1.62304">
        <ele>185</ele>
        <time>2024-01-20T15:02:53Z</time>
      </trkpt>
      <trkpt lat="43.4568" lon="1.62306">
        <ele>184</ele>
        <time>2024-01-20T15:02:55Z</time>
      </trkpt>
      <trkpt lat="43.4568" lon="1.62306">
        <ele>184</ele>
        <time>2024-01-20T15:02:56Z</time>
      </trkpt>
      <trkpt lat="43.45678" lon="1.62308">
        <ele>184</ele>
        <time>2024-01-20T15:02:57Z</time>
      </trkpt>
      <trkpt lat="43.45677" lon="1.62309">
        <ele>184</ele>
        <time>2024-01-20T15:02:58Z</time>
      </trkpt>
      <trkpt lat="43.45675" lon="1.6231">
        <ele>184</ele>
        <time>2024-01-20T15:02:59Z</time>
      </trkpt>
      <trkpt lat="43.45673" lon="1.62311">
        <ele>184</ele>
        <time>2024-01-20T15:03:00Z</time>
      </trkpt>
      <trkpt lat="43.45672" lon="1.62313">
        <ele>184</ele>
        <time>2024-01-20T15:03:01Z</time>
      </trkpt>
      <trkpt lat="43.45672" lon="1.62313">
        <ele>184</ele>
        <time>2024-01-20T15:03:02Z</time>
      </trkpt>
      <trkpt lat="43.45669" lon="1.62316">
        <ele>183</ele>
        <time>2024-01-20T15:03:03Z</time>
      </trkpt>
      <trkpt lat="43.45668" lon="1.62317">
        <ele>183</ele>
        <time>2024-01-20T15:03:04Z</time>
      </trkpt>
      <trkpt lat="43.45666" lon="1.62319">
        <ele>183</ele>
        <time>2024-01-20T15:03:05Z</time>
      </trkpt>
      <trkpt lat="43.45664" lon="1.6232">
        <ele>183</ele>
        <time>2024-01-20T15:03:06Z</time>
      </trkpt>
      <trkpt lat="43.45661" lon="1.62322">
        <ele>182</ele>
        <time>2024-01-20T15:03:07Z</time>
      </trkpt>
      <trkpt lat="43.45658" lon="1.62323">
        <ele>182</ele>
        <time>2024-01-20T15:03:08Z</time>
      </trkpt>
      <trkpt lat="43.45656" lon="1.62324">
        <ele>182</ele>
        <time>2024-01-20T15:03:09Z</time>
      </trkpt>
      <trkpt lat="43.45651" lon="1.62327">
        <ele>182</ele>
        <time>2024-01-20T15:03:10Z</time>
      </trkpt>
      <trkpt lat="43.45651" lon="1.62327">
        <ele>182</ele>
        <time>2024-01-20T15:03:11Z</time>
      </trkpt>
      <trkpt lat="43.45649" lon="1.62329">
        <ele>182</ele>
        <time>2024-01-20T15:03:12Z</time>
      </trkpt>
      <trkpt lat="43.45646" lon="1.6233">
        <ele>182</ele>
        <time>2024-01-20T15:03:13Z</time>
      </trkpt>
      <trkpt lat="43.45644" lon="1.62331">
        <ele>181</ele>
        <time>2024-01-20T15:03:14Z</time>
      </trkpt>
      <trkpt lat="43.45642" lon="1.62332">
        <ele>181</ele>
        <time>2024-01-20T15:03:15Z</time>
      </trkpt>
      <trkpt lat="43.4564" lon="1.62332">
        <ele>180</ele>
        <time>2024-01-20T15:03:16Z</time>
      </trkpt>
      <trkpt lat="43.45638" lon="1.62333">
        <ele>180</ele>
        <time>2024-01-20T15:03:17Z</time>
      </trkpt>
      <trkpt lat="43.45633" lon="1.62335">
        <ele>180</ele>
        <time>2024-01-20T15:03:18Z</time>
      </trkpt>
      <trkpt lat="43.45632" lon="1.62335">
        <ele>180</ele>
        <time>2024-01-20T15:03:19Z</time>
      </trkpt>
      <trkpt lat="43.45628" lon="1.62338">
        <ele>180</ele>
        <time>2024-01-20T15:03:20Z</time>
      </trkpt>
      <trkpt lat="43.45626" lon="1.62339">
        <ele>179</ele>
        <time>2024-01-20T15:03:21Z</time>
      </trkpt>
      <trkpt lat="43.45623" lon="1.62341">
        <ele>178</ele>
        <time>2024-01-20T15:03:22Z</time>
      </trkpt>
      <trkpt lat="43.4562" lon="1.62342">
        <ele>178</ele>
        <time>2024-01-20T15:03:23Z</time>
      </trkpt>
      <trkpt lat="43.45617" lon="1.62343">
        <ele>178</ele>
        <time>2024-01-20T15:03:24Z</time>
      </trkpt>
      <trkpt lat="43.45614" lon="1.62344">
        <ele>178</ele>
        <time>2024-01-20T15:03:25Z</time>
      </trkpt>
      <trkpt lat="43.45612" lon="1.62344">
        <ele>177</ele>
        <time>2024-01-20T15:03:26Z</time>
      </trkpt>
      <trkpt lat="43.4561" lon="1.62345">
        <ele>177</ele>
        <time>2024-01-20T15:03:27Z</time>
      </trkpt>
      <trkpt lat="43.45607" lon="1.62347">
        <ele>177</ele>
        <time>2024-01-20T15:03:28Z</time>
      </trkpt>
      <trkpt lat="43.45605" lon="1.62348">
        <ele>177</ele>
        <time>2024-01-20T15:03:29Z</time>
      </trkpt>
      <trkpt lat="43.45602" lon="1.62349">
        <ele>177</ele>
        <time>2024-01-20T15:03:30Z</time>
      </trkpt>
      <trkpt lat="43.456" lon="1.62349">
        <ele>176</ele>
        <time>2024-01-20T15:03:31Z</time>
      </trkpt>
      <trkpt lat="43.45598" lon="1.6235">
        <ele>176</ele>
        <time>2024-01-20T15:03:32Z</time>
      </trkpt>
      <trkpt lat="43.45598" lon="1.6235">
        <ele>176</ele>
        <time>2024-01-20T15:03:33Z</time>
      </trkpt>
      <trkpt lat="43.45596" lon="1.62352">
        <ele>176</ele>
        <time>2024-01-20T15:03:34Z</time>
      </trkpt>
      <trkpt lat="43.45594" lon="1.62353">
        <ele>176</ele>
        <time>2024-01-20T15:03:35Z</time>
      </trkpt>
      <trkpt lat="43.45592" lon="1.62354">
        <ele>176</ele>
        <time>2024-01-20T15:03:36Z</time>
      </trkpt>
      <trkpt lat="43.4559" lon="1.62356">
        <ele>176</ele>
        <time>2024-01-20T15:03:37Z</time>
      </trkpt>
      <trkpt lat="43.45588" lon="1.62357">
        <ele>176</ele>
        <time>2024-01-20T15:03:38Z</time>
      </trkpt>
      <trkpt lat="43.45585" lon="1.62359">
        <ele>176</ele>
        <time>2024-01-20T15:03:39Z</time>
      </trkpt>
      <trkpt lat="43.45584" lon="1.6236">
        <ele>175</ele>
        <time>2024-01-20T15:03:40Z</time>
      </trkpt>
      <trkpt lat="43.45581" lon="1.62362">
        <ele>175</ele>
        <time>2024-01-20T15:03:41Z</time>
      </trkpt>
      <trkpt lat="43.4558" lon="1.62363">
        <ele>175</ele>
        <time>2024-01-20T15:03:42Z</time>
      </trkpt>
      <trkpt lat="43.45578" lon="1.62364">
        <ele>175</ele>
        <time>2024-01-20T15:03:43Z</time>
      </trkpt>
      <trkpt lat="43.45576" lon="1.62365">
        <ele>175</ele>
        <time>2024-01-20T15:03:44Z</time>
      </trkpt>
      <trkpt lat="43.45574" lon="1.62366">
        <ele>175</ele>
        <time>2024-01-20T15:03:45Z</time>
      </trkpt>
      <trkpt lat="43.45572" lon="1.62367">
        <ele>175</ele>
        <time>2024-01-20T15:03:46Z</time>
      </trkpt>
      <trkpt lat="43.4557" lon="1.62369">
        <ele>175</ele>
        <time>2024-01-20T15:03:47Z</time>
      </trkpt>
      <trkpt lat="43.45567" lon="1.6237">
        <ele>175</ele>
        <time>2024-01-20T15:03:48Z</time>
      </trkpt>
      <trkpt lat="43.45565" lon="1.62371">
        <ele>174</ele>
        <time>2024-01-20T15:03:49Z</time>
      </trkpt>
      <trkpt lat="43.45563" lon="1.62373">
        <ele>174</ele>
        <time>2024-01-20T15:03:50Z</time>
      </trkpt>
      <trkpt lat="43.45559" lon="1.62375">
        <ele>174</ele>
        <time>2024-01-20T15:03:51Z</time>
      </trkpt>
      <trkpt lat="43.45558" lon="1.62375">
        <ele>174</ele>
        <time>2024-01-20T15:03:52Z</time>
      </trkpt>
      <trkpt lat="43.45555" lon="1.62376">
        <ele>174</ele>
        <time>2024-01-20T15:03:53Z</time>
      </trkpt>
      <trkpt lat="43.45553" lon="1.62378">
        <ele>174</ele>
        <time>2024-01-20T15:03:54Z</time>
      </trkpt>
      <trkpt lat="43.45551" lon="1.62379">
        <ele>173</ele>
        <time>2024-01-20T15:03:55Z</time>
      </trkpt>
      <trkpt lat="43.45549" lon="1.6238">
        <ele>173</ele>
        <time>2024-01-20T15:03:56Z</time>
      </trkpt>
      <trkpt lat="43.45546" lon="1.62381">
        <ele>173</ele>
        <time>2024-01-20T15:03:57Z</time>
      </trkpt>
      <trkpt lat="43.45544" lon="1.62382">
        <ele>173</ele>
        <time>2024-01-20T15:03:58Z</time>
      </trkpt>
      <trkpt lat="43.4554" lon="1.62384">
        <ele>173</ele>
        <time>2024-01-20T15:03:59Z</time>
      </trkpt>
      <trkpt lat="43.45539" lon="1.62384">
        <ele>172</ele>
        <time>2024-01-20T15:04:00Z</time>
      </trkpt>
      <trkpt lat="43.45536" lon="1.62385">
        <ele>172</ele>
        <time>2024-01-20T15:04:01Z</time>
      </trkpt>
      <trkpt lat="43.45534" lon="1.62386">
        <ele>172</ele>
        <time>2024-01-20T15:04:02Z</time>
      </trkpt>
      <trkpt lat="43.45532" lon="1.62387">
        <ele>172</ele>
        <time>2024-01-20T15:04:03Z</time>
      </trkpt>
      <trkpt lat="43.45529" lon="1.62388">
        <ele>172</ele>
        <time>2024-01-20T15:04:04Z</time>
      </trkpt>
      <trkpt lat="43.45527" lon="1.62389">
        <ele>172</ele>
        <time>2024-01-20T15:04:05Z</time>
      </trkpt>
      <trkpt lat="43.45525" lon="1.6239">
        <ele>172</ele>
        <time>2024-01-20T15:04:06Z</time>
      </trkpt>
      <trkpt lat="43.45525" lon="1.6239">
        <ele>172</ele>
        <time>2024-01-20T15:04:07Z</time>
      </trkpt>
      <trkpt lat="43.45522" lon="1.62392">
        <ele>172</ele>
        <time>2024-01-20T15:04:08Z</time>
      </trkpt>
      <trkpt lat="43.4552" lon="1.62393">
        <ele>171</ele>
        <time>2024-01-20T15:04:09Z</time>
      </trkpt>
      <trkpt lat="43.45516" lon="1.62394">
        <ele>171</ele>
        <time>2024-01-20T15:04:10Z</time>
      </trkpt>
      <trkpt lat="43.45515" lon="1.62395">
        <ele>171</ele>
        <time>2024-01-20T15:04:11Z</time>
      </trkpt>
      <trkpt lat="43.45513" lon="1.62396">
        <ele>171</ele>
        <time>2024-01-20T15:04:12Z</time>
      </trkpt>
      <trkpt lat="43.45511" lon="1.62398">
        <ele>171</ele>
        <time>2024-01-20T15:04:13Z</time>
      </trkpt>
      <trkpt lat="43.45509" lon="1.62399">
        <ele>171</ele>
        <time>2024-01-20T15:04:14Z</time>
      </trkpt>
      <trkpt lat="43.45507" lon="1.624">
        <ele>171</ele>
        <time>2024-01-20T15:04:15Z</time>
      </trkpt>
      <trkpt lat="43.45507" lon="1.624">
        <ele>171</ele>
        <time>2024-01-20T15:04:16Z</time>
      </trkpt>
      <trkpt lat="43.45504" lon="1.62403">
        <ele>170</ele>
        <time>2024-01-20T15:04:17Z</time>
      </trkpt>
      <trkpt lat="43.45502" lon="1.62404">
        <ele>170</ele>
        <time>2024-01-20T15:04:18Z</time>
      </trkpt>
      <trkpt lat="43.45501" lon="1.62405">
        <ele>170</ele>
        <time>2024-01-20T15:04:19Z</time>
      </trkpt>
      <trkpt lat="43.45499" lon="1.62406">
        <ele>170</ele>
        <time>2024-01-20T15:04:20Z</time>
      </trkpt>
      <trkpt lat="43.45497" lon="1.62407">
        <ele>170</ele>
        <time>2024-01-20T15:04:21Z</time>
      </trkpt>
      <trkpt lat="43.45493" lon="1.62409">
        <ele>170</ele>
        <time>2024-01-20T15:04:22Z</time>
      </trkpt>
      <trkpt lat="43.45492" lon="1.6241">
        <ele>170</ele>
        <time>2024-01-20T15:04:23Z</time>
      </trkpt>
      <trkpt lat="43.45489" lon="1.62411">
        <ele>170</ele>
        <time>2024-01-20T15:04:24Z</time>
      </trkpt>
      <trkpt lat="43.45487" lon="1.62411">
        <ele>170</ele>
        <time>2024-01-20T15:04:25Z</time>
      </trkpt>
      <trkpt lat="43.45484" lon="1.62411">
        <ele>171</ele>
        <time>2024-01-20T15:04:26Z</time>
      </trkpt>
      <trkpt lat="43.45482" lon="1.62412">
        <ele>171</ele>
        <time>2024-01-20T15:04:27Z</time>
      </trkpt>
      <trkpt lat="43.45479" lon="1.62412">
        <ele>172</ele>
        <time>2024-01-20T15:04:28Z</time>
      </trkpt>
      <trkpt lat="43.45475" lon="1.62414">
        <ele>172</ele>
        <time>2024-01-20T15:04:29Z</time>
      </trkpt>
      <trkpt lat="43.45474" lon="1.62414">
        <ele>172</ele>
        <time>2024-01-20T15:04:30Z</time>
      </trkpt>
      <trkpt lat="43.45471" lon="1.62416">
        <ele>172</ele>
        <time>2024-01-20T15:04:31Z</time>
      </trkpt>
      <trkpt lat="43.45468" lon="1.62418">
        <ele>172</ele>
        <time>2024-01-20T15:04:32Z</time>
      </trkpt>
      <trkpt lat="43.45466" lon="1.6242">
        <ele>173</ele>
        <time>2024-01-20T15:04:33Z</time>
      </trkpt>
      <trkpt lat="43.45463" lon="1.62422">
        <ele>173</ele>
        <time>2024-01-20T15:04:34Z</time>
      </trkpt>
      <trkpt lat="43.45461" lon="1.62424">
        <ele>172</ele>
        <time>2024-01-20T15:04:35Z</time>
      </trkpt>
      <trkpt lat="43.45459" lon="1.62427">
        <ele>172</ele>
        <time>2024-01-20T15:04:36Z</time>
      </trkpt>
      <trkpt lat="43.45456" lon="1.62429">
        <ele>172</ele>
        <time>2024-01-20T15:04:37Z</time>
      </trkpt>
      <trkpt lat="43.45454" lon="1.62431">
        <ele>171</ele>
        <time>2024-01-20T15:04:38Z</time>
      </trkpt>
      <trkpt lat="43.45451" lon="1.62433">
        <ele>171</ele>
        <time>2024-01-20T15:04:39Z</time>
      </trkpt>
      <trkpt lat="43.45447" lon="1.62435">
        <ele>171</ele>
        <time>2024-01-20T15:04:40Z</time>
      </trkpt>
      <trkpt lat="43.45446" lon="1.62436">
        <ele>171</ele>
        <time>2024-01-20T15:04:41Z</time>
      </trkpt>
      <trkpt lat="43.45443" lon="1.62438">
        <ele>171</ele>
        <time>2024-01-20T15:04:42Z</time>
      </trkpt>
      <trkpt lat="43.45441" lon="1.62441">
        <ele>171</ele>
        <time>2024-01-20T15:04:43Z</time>
      </trkpt>
      <trkpt lat="43.45438" lon="1.62443">
        <ele>170</ele>
        <time>2024-01-20T15:04:44Z</time>
      </trkpt>
      <trkpt lat="43.45436" lon="1.62445">
        <ele>170</ele>
        <time>2024-01-20T15:04:45Z</time>
      </trkpt>
      <trkpt lat="43.45434" lon="1.62447">
        <ele>170</ele>
        <time>2024-01-20T15:04:46Z</time>
      </trkpt>
      <trkpt lat="43.45431" lon="1.62449">
        <ele>170</ele>
        <time>2024-01-20T15:04:47Z</time>
      </trkpt>
      <trkpt lat="43.45427" lon="1.62453">
        <ele>170</ele>
        <time>2024-01-20T15:04:48Z</time>
      </trkpt>
      <trkpt lat="43.45426" lon="1.62454">
        <ele>170</ele>
        <time>2024-01-20T15:04:49Z</time>
      </trkpt>
      <trkpt lat="43.45424" lon="1.62456">
        <ele>170</ele>
        <time>2024-01-20T15:04:50Z</time>
      </trkpt>
      <trkpt lat="43.45421" lon="1.62458">
        <ele>168</ele>
        <time>2024-01-20T15:04:51Z</time>
      </trkpt>
      <trkpt lat="43.45419" lon="1.6246">
        <ele>168</ele>
        <time>2024-01-20T15:04:52Z</time>
      </trkpt>
      <trkpt lat="43.45417" lon="1.62462">
        <ele>168</ele>
        <time>2024-01-20T15:04:53Z</time>
      </trkpt>
      <trkpt lat="43.45415" lon="1.62463">
        <ele>167</ele>
        <time>2024-01-20T15:04:54Z</time>
      </trkpt>
      <trkpt lat="43.45412" lon="1.62465">
        <ele>167</ele>
        <time>2024-01-20T15:04:55Z</time>
      </trkpt>
      <trkpt lat="43.4541" lon="1.62467">
        <ele>167</ele>
        <time>2024-01-20T15:04:56Z</time>
      </trkpt>
      <trkpt lat="43.45407" lon="1.62469">
        <ele>166</ele>
        <time>2024-01-20T15:04:57Z</time>
      </trkpt>
      <trkpt lat="43.45403" lon="1.62472">
        <ele>166</ele>
        <time>2024-01-20T15:04:58Z</time>
      </trkpt>
      <trkpt lat="43.45402" lon="1.62472">
        <ele>166</ele>
        <time>2024-01-20T15:04:59Z</time>
      </trkpt>
      <trkpt lat="43.454" lon="1.62474">
        <ele>166</ele>
        <time>2024-01-20T15:05:00Z</time>
      </trkpt>
      <trkpt lat="43.45397" lon="1.62476">
        <ele>166</ele>
        <time>2024-01-20T15:05:01Z</time>
      </trkpt>
      <trkpt lat="43.45395" lon="1.62478">
        <ele>165</ele>
        <time>2024-01-20T15:05:02Z</time>
      </trkpt>
      <trkpt lat="43.45393" lon="1.6248">
        <ele>166</ele>
        <time>2024-01-20T15:05:03Z</time>
      </trkpt>
      <trkpt lat="43.4539" lon="1.62482">
        <ele>166</ele>
        <time>2024-01-20T15:05:04Z</time>
      </trkpt>
      <trkpt lat="43.45388" lon="1.62484">
        <ele>166</ele>
        <time>2024-01-20T15:05:05Z</time>
      </trkpt>
      <trkpt lat="43.45386" lon="1.62486">
        <ele>165</ele>
        <time>2024-01-20T15:05:06Z</time>
      </trkpt>
      <trkpt lat="43.45383" lon="1.62488">
        <ele>165</ele>
        <time>2024-01-20T15:05:07Z</time>
      </trkpt>
      <trkpt lat="43.45381" lon="1.62489">
        <ele>165</ele>
        <time>2024-01-20T15:05:08Z</time>
      </trkpt>
      <trkpt lat="43.45379" lon="1.62491">
        <ele>165</ele>
        <time>2024-01-20T15:05:09Z</time>
      </trkpt>
      <trkpt lat="43.45377" lon="1.62493">
        <ele>164</ele>
        <time>2024-01-20T15:05:10Z</time>
      </trkpt>
      <trkpt lat="43.45375" lon="1.62495">
        <ele>164</ele>
        <time>2024-01-20T15:05:11Z</time>
      </trkpt>
      <trkpt lat="43.45372" lon="1.62497">
        <ele>163</ele>
        <time>2024-01-20T15:05:12Z</time>
      </trkpt>
      <trkpt lat="43.4537" lon="1.62498">
        <ele>163</ele>
        <time>2024-01-20T15:05:13Z</time>
      </trkpt>
      <trkpt lat="43.45368" lon="1.625">
        <ele>163</ele>
        <time>2024-01-20T15:05:14Z</time>
      </trkpt>
      <trkpt lat="43.45365" lon="1.62502">
        <ele>163</ele>
        <time>2024-01-20T15:05:15Z</time>
      </trkpt>
      <trkpt lat="43.45362" lon="1.62505">
        <ele>163</ele>
        <time>2024-01-20T15:05:16Z</time>
      </trkpt>
      <trkpt lat="43.45361" lon="1.62506">
        <ele>162</ele>
        <time>2024-01-20T15:05:17Z</time>
      </trkpt>
      <trkpt lat="43.45358" lon="1.62508">
        <ele>162</ele>
        <time>2024-01-20T15:05:18Z</time>
      </trkpt>
      <trkpt lat="43.45357" lon="1.62509">
        <ele>162</ele>
        <time>2024-01-20T15:05:19Z</time>
      </trkpt>
      <trkpt lat="43.45355" lon="1.62511">
        <ele>161</ele>
        <time>2024-01-20T15:05:20Z</time>
      </trkpt>
      <trkpt lat="43.45353" lon="1.62513">
        <ele>161</ele>
        <time>2024-01-20T15:05:21Z</time>
      </trkpt>
      <trkpt lat="43.45351" lon="1.62514">
        <ele>161</ele>
        <time>2024-01-20T15:05:22Z</time>
      </trkpt>
      <trkpt lat="43.45348" lon="1.62516">
        <ele>160</ele>
        <time>2024-01-20T15:05:23Z</time>
      </trkpt>
      <trkpt lat="43.45346" lon="1.62518">
        <ele>160</ele>
        <time>2024-01-20T15:05:24Z</time>
      </trkpt>
      <trkpt lat="43.45343" lon="1.6252">
        <ele>160</ele>
        <time>2024-01-20T15:05:25Z</time>
      </trkpt>
      <trkpt lat="43.45339" lon="1.62522">
        <ele>160</ele>
        <time>2024-01-20T15:05:26Z</time>
      </trkpt>
      <trkpt lat="43.45338" lon="1.62523">
        <ele>159</ele>
        <time>2024-01-20T15:05:27Z</time>
      </trkpt>
      <trkpt lat="43.45336" lon="1.62524">
        <ele>159</ele>
        <time>2024-01-20T15:05:28Z</time>
      </trkpt>
      <trkpt lat="43.45333" lon="1.62526">
        <ele>158</ele>
        <time>2024-01-20T15:05:29Z</time>
      </trkpt>
      <trkpt lat="43.45331" lon="1.62527">
        <ele>158</ele>
        <time>2024-01-20T15:05:30Z</time>
      </trkpt>
      <trkpt lat="43.45329" lon="1.62529">
        <ele>157</ele>
        <time>2024-01-20T15:05:31Z</time>
      </trkpt>
      <trkpt lat="43.45328" lon="1.62531">
        <ele>157</ele>
        <time>2024-01-20T15:05:32Z</time>
      </trkpt>
      <trkpt lat="43.45325" lon="1.62533">
        <ele>157</ele>
        <time>2024-01-20T15:05:33Z</time>
      </trkpt>
      <trkpt lat="43.45322" lon="1.62535">
        <ele>156</ele>
        <time>2024-01-20T15:05:34Z</time>
      </trkpt>
      <trkpt lat="43.45318" lon="1.62537">
        <ele>156</ele>
        <time>2024-01-20T15:05:35Z</time>
      </trkpt>
      <trkpt lat="43.45317" lon="1.62538">
        <ele>156</ele>
        <time>2024-01-20T15:05:36Z</time>
      </trkpt>
      <trkpt lat="43.45315" lon="1.6254">
        <ele>156</ele>
        <time>2024-01-20T15:05:37Z</time>
      </trkpt>
      <trkpt lat="43.45312" lon="1.62542">
        <ele>155</ele>
        <time>2024-01-20T15:05:38Z</time>
      </trkpt>
      <trkpt lat="43.4531" lon="1.62544">
        <ele>154</ele>
        <time>2024-01-20T15:05:39Z</time>
      </trkpt>
      <trkpt lat="43.45308" lon="1.62546">
        <ele>154</ele>
        <time>2024-01-20T15:05:40Z</time>
      </trkpt>
      <trkpt lat="43.45306" lon="1.62548">
        <ele>154</ele>
        <time>2024-01-20T15:05:41Z</time>
      </trkpt>
      <trkpt lat="43.45304" lon="1.6255">
        <ele>154</ele>
        <time>2024-01-20T15:05:42Z</time>
      </trkpt>
      <trkpt lat="43.45302" lon="1.62553">
        <ele>154</ele>
        <time>2024-01-20T15:05:43Z</time>
      </trkpt>
      <trkpt lat="43.453" lon="1.62556">
        <ele>153</ele>
        <time>2024-01-20T15:05:44Z</time>
      </trkpt>
      <trkpt lat="43.45297" lon="1.62559">
        <ele>153</ele>
        <time>2024-01-20T15:05:45Z</time>
      </trkpt>
      <trkpt lat="43.45296" lon="1.6256">
        <ele>152</ele>
        <time>2024-01-20T15:05:46Z</time>
      </trkpt>
      <trkpt lat="43.45293" lon="1.62562">
        <ele>152</ele>
        <time>2024-01-20T15:05:47Z</time>
      </trkpt>
      <trkpt lat="43.45291" lon="1.62565">
        <ele>152</ele>
        <time>2024-01-20T15:05:48Z</time>
      </trkpt>
      <trkpt lat="43.45288" lon="1.62567">
        <ele>152</ele>
        <time>2024-01-20T15:05:49Z</time>
      </trkpt>
      <trkpt lat="43.45286" lon="1.62569">
        <ele>151</ele>
        <time>2024-01-20T15:05:50Z</time>
      </trkpt>
      <trkpt lat="43.45283" lon="1.62571">
        <ele>151</ele>
        <time>2024-01-20T15:05:51Z</time>
      </trkpt>
      <trkpt lat="43.45281" lon="1.62574">
        <ele>151</ele>
        <time>2024-01-20T15:05:52Z</time>
      </trkpt>
      <trkpt lat="43.45278" lon="1.62577">
        <ele>151</ele>
        <time>2024-01-20T15:05:53Z</time>
      </trkpt>
      <trkpt lat="43.45276" lon="1.62578">
        <ele>151</ele>
        <time>2024-01-20T15:05:54Z</time>
      </trkpt>
      <trkpt lat="43.45274" lon="1.62579">
        <ele>151</ele>
        <time>2024-01-20T15:05:55Z</time>
      </trkpt>
      <trkpt lat="43.45272" lon="1.62581">
        <ele>151</ele>
        <time>2024-01-20T15:05:56Z</time>
      </trkpt>
      <trkpt lat="43.4527" lon="1.62583">
        <ele>151</ele>
        <time>2024-01-20T15:05:57Z</time>
      </trkpt>
      <trkpt lat="43.45267" lon="1.62585">
        <ele>151</ele>
        <time>2024-01-20T15:05:58Z</time>
      </trkpt>
      <trkpt lat="43.45264" lon="1.62587">
        <ele>151</ele>
        <time>2024-01-20T15:05:59Z</time>
      </trkpt>
      <trkpt lat="43.45262" lon="1.62589">
        <ele>150</ele>
        <time>2024-01-20T15:06:00Z</time>
      </trkpt>
      <trkpt lat="43.45259" lon="1.6259">
        <ele>150</ele>
        <time>2024-01-20T15:06:01Z</time>
      </trkpt>
      <trkpt lat="43.45257" lon="1.62592">
        <ele>150</ele>
        <time>2024-01-20T15:06:02Z</time>
      </trkpt>
      <trkpt lat="43.45254" lon="1.62594">
        <ele>149</ele>
        <time>2024-01-20T15:06:03Z</time>
      </trkpt>
      <trkpt lat="43.4525" lon="1.62596">
        <ele>149</ele>
        <time>2024-01-20T15:06:04Z</time>
      </trkpt>
      <trkpt lat="43.45249" lon="1.62597">
        <ele>149</ele>
        <time>2024-01-20T15:06:05Z</time>
      </trkpt>
      <trkpt lat="43.45247" lon="1.62597">
        <ele>149</ele>
        <time>2024-01-20T15:06:06Z</time>
      </trkpt>
      <trkpt lat="43.45243" lon="1.62598">
        <ele>149</ele>
        <time>2024-01-20T15:06:07Z</time>
      </trkpt>
      <trkpt lat="43.4524" lon="1.62598">
        <ele>149</ele>
        <time>2024-01-20T15:06:08Z</time>
      </trkpt>
      <trkpt lat="43.45237" lon="1.62598">
        <ele>148</ele>
        <time>2024-01-20T15:06:09Z</time>
      </trkpt>
      <trkpt lat="43.45234" lon="1.62598">
        <ele>148</ele>
        <time>2024-01-20T15:06:10Z</time>
      </trkpt>
      <trkpt lat="43.45229" lon="1.62597">
        <ele>148</ele>
        <time>2024-01-20T15:06:11Z</time>
      </trkpt>
      <trkpt lat="43.45227" lon="1.62597">
        <ele>148</ele>
        <time>2024-01-20T15:06:12Z</time>
      </trkpt>
      <trkpt lat="43.45224" lon="1.62596">
        <ele>147</ele>
        <time>2024-01-20T15:06:13Z</time>
      </trkpt>
      <trkpt lat="43.45221" lon="1.62595">
        <ele>147</ele>
        <time>2024-01-20T15:06:14Z</time>
      </trkpt>
      <trkpt lat="43.45218" lon="1.62594">
        <ele>147</ele>
        <time>2024-01-20T15:06:15Z</time>
      </trkpt>
      <trkpt lat="43.45215" lon="1.62593">
        <ele>146</ele>
        <time>2024-01-20T15:06:16Z</time>
      </trkpt>
      <trkpt lat="43.45212" lon="1.62592">
        <ele>146</ele>
        <time>2024-01-20T15:06:17Z</time>
      </trkpt>
      <trkpt lat="43.4521" lon="1.62591">
        <ele>146</ele>
        <time>2024-01-20T15:06:18Z</time>
      </trkpt>
      <trkpt lat="43.45207" lon="1.6259">
        <ele>146</ele>
        <time>2024-01-20T15:06:19Z</time>
      </trkpt>
      <trkpt lat="43.45204" lon="1.6259">
        <ele>146</ele>
        <time>2024-01-20T15:06:20Z</time>
      </trkpt>
      <trkpt lat="43.45201" lon="1.62589">
        <ele>146</ele>
        <time>2024-01-20T15:06:21Z</time>
      </trkpt>
      <trkpt lat="43.45199" lon="1.62589">
        <ele>146</ele>
        <time>2024-01-20T15:06:22Z</time>
      </trkpt>
      <trkpt lat="43.45197" lon="1.6259">
        <ele>146</ele>
        <time>2024-01-20T15:06:23Z</time>
      </trkpt>
      <trkpt lat="43.45196" lon="1.62592">
        <ele>146</ele>
        <time>2024-01-20T15:06:24Z</time>
      </trkpt>
      <trkpt lat="43.45195" lon="1.62595">
        <ele>146</ele>
        <time>2024-01-20T15:06:25Z</time>
      </trkpt>
      <trkpt lat="43.45194" lon="1.62599">
        <ele>146</ele>
        <time>2024-01-20T15:06:26Z</time>
      </trkpt>
      <trkpt lat="43.45193" lon="1.62602">
        <ele>146</ele>
        <time>2024-01-20T15:06:27Z</time>
      </trkpt>
      <trkpt lat="43.45192" lon="1.62605">
        <ele>146</ele>
        <time>2024-01-20T15:06:28Z</time>
      </trkpt>
      <trkpt lat="43.45191" lon="1.62609">
        <ele>146</ele>
        <time>2024-01-20T15:06:29Z</time>
      </trkpt>
      <trkpt lat="43.4519" lon="1.62611">
        <ele>146</ele>
        <time>2024-01-20T15:06:30Z</time>
      </trkpt>
      <trkpt lat="43.45189" lon="1.62613">
        <ele>146</ele>
        <time>2024-01-20T15:06:31Z</time>
      </trkpt>
      <trkpt lat="43.45188" lon="1.62616">
        <ele>146</ele>
        <time>2024-01-20T15:06:32Z</time>
      </trkpt>
      <trkpt lat="43.45187" lon="1.62619">
        <ele>146</ele>
        <time>2024-01-20T15:06:33Z</time>
      </trkpt>
      <trkpt lat="43.45186" lon="1.62624">
        <ele>146</ele>
        <time>2024-01-20T15:06:34Z</time>
      </trkpt>
      <trkpt lat="43.45185" lon="1.62626">
        <ele>145</ele>
        <time>2024-01-20T15:06:35Z</time>
      </trkpt>
      <trkpt lat="43.45185" lon="1.6263">
        <ele>145</ele>
        <time>2024-01-20T15:06:36Z</time>
      </trkpt>
      <trkpt lat="43.45185" lon="1.62633">
        <ele>145</ele>
        <time>2024-01-20T15:06:37Z</time>
      </trkpt>
      <trkpt lat="43.45184" lon="1.62636">
        <ele>145</ele>
        <time>2024-01-20T15:06:38Z</time>
      </trkpt>
      <trkpt lat="43.45185" lon="1.62639">
        <ele>145</ele>
        <time>2024-01-20T15:06:39Z</time>
      </trkpt>
      <trkpt lat="43.45186" lon="1.62642">
        <ele>145</ele>
        <time>2024-01-20T15:06:40Z</time>
      </trkpt>
      <trkpt lat="43.45187" lon="1.62644">
        <ele>145</ele>
        <time>2024-01-20T15:06:41Z</time>
      </trkpt>
      <trkpt lat="43.45189" lon="1.62646">
        <ele>145</ele>
        <time>2024-01-20T15:06:42Z</time>
      </trkpt>
      <trkpt lat="43.45191" lon="1.62648">
        <ele>145</ele>
        <time>2024-01-20T15:06:43Z</time>
      </trkpt>
      <trkpt lat="43.45193" lon="1.6265">
        <ele>145</ele>
        <time>2024-01-20T15:06:44Z</time>
      </trkpt>
      <trkpt lat="43.45196" lon="1.62652">
        <ele>145</ele>
        <time>2024-01-20T15:06:45Z</time>
      </trkpt>
      <trkpt lat="43.45198" lon="1.62655">
        <ele>145</ele>
        <time>2024-01-20T15:06:46Z</time>
      </trkpt>
      <trkpt lat="43.45199" lon="1.62658">
        <ele>145</ele>
        <time>2024-01-20T15:06:47Z</time>
      </trkpt>
      <trkpt lat="43.45201" lon="1.6266">
        <ele>145</ele>
        <time>2024-01-20T15:06:48Z</time>
      </trkpt>
      <trkpt lat="43.45203" lon="1.62664">
        <ele>145</ele>
        <time>2024-01-20T15:06:49Z</time>
      </trkpt>
      <trkpt lat="43.45204" lon="1.62666">
        <ele>145</ele>
        <time>2024-01-20T15:06:50Z</time>
      </trkpt>
      <trkpt lat="43.45205" lon="1.62668">
        <ele>145</ele>
        <time>2024-01-20T15:06:51Z</time>
      </trkpt>
      <trkpt lat="43.45207" lon="1.62671">
        <ele>145</ele>
        <time>2024-01-20T15:06:52Z</time>
      </trkpt>
      <trkpt lat="43.45208" lon="1.62674">
        <ele>146</ele>
        <time>2024-01-20T15:06:53Z</time>
      </trkpt>
      <trkpt lat="43.45209" lon="1.62677">
        <ele>146</ele>
        <time>2024-01-20T15:06:54Z</time>
      </trkpt>
      <trkpt lat="43.4521" lon="1.6268">
        <ele>146</ele>
        <time>2024-01-20T15:06:55Z</time>
      </trkpt>
      <trkpt lat="43.45212" lon="1.62683">
        <ele>146</ele>
        <time>2024-01-20T15:06:56Z</time>
      </trkpt>
      <trkpt lat="43.45213" lon="1.62687">
        <ele>146</ele>
        <time>2024-01-20T15:06:57Z</time>
      </trkpt>
      <trkpt lat="43.45214" lon="1.6269">
        <ele>146</ele>
        <time>2024-01-20T15:06:58Z</time>
      </trkpt>
      <trkpt lat="43.45215" lon="1.62694">
        <ele>146</ele>
        <time>2024-01-20T15:06:59Z</time>
      </trkpt>
      <trkpt lat="43.45216" lon="1.62697">
        <ele>146</ele>
        <time>2024-01-20T15:07:00Z</time>
      </trkpt>
      <trkpt lat="43.45218" lon="1.62702">
        <ele>146</ele>
        <time>2024-01-20T15:07:01Z</time>
      </trkpt>
      <trkpt lat="43.45219" lon="1.62704">
        <ele>146</ele>
        <time>2024-01-20T15:07:02Z</time>
      </trkpt>
      <trkpt lat="43.4522" lon="1.62707">
        <ele>146</ele>
        <time>2024-01-20T15:07:03Z</time>
      </trkpt>
      <trkpt lat="43.45222" lon="1.6271">
        <ele>146</ele>
        <time>2024-01-20T15:07:04Z</time>
      </trkpt>
      <trkpt lat="43.45223" lon="1.62713">
        <ele>147</ele>
        <time>2024-01-20T15:07:05Z</time>
      </trkpt>
      <trkpt lat="43.45225" lon="1.62715">
        <ele>147</ele>
        <time>2024-01-20T15:07:06Z</time>
      </trkpt>
      <trkpt lat="43.45226" lon="1.62718">
        <ele>147</ele>
        <time>2024-01-20T15:07:07Z</time>
      </trkpt>
      <trkpt lat="43.45228" lon="1.6272">
        <ele>147</ele>
        <time>2024-01-20T15:07:08Z</time>
      </trkpt>
      <trkpt lat="43.4523" lon="1.62724">
        <ele>147</ele>
        <time>2024-01-20T15:07:09Z</time>
      </trkpt>
      <trkpt lat="43.45231" lon="1.62725">
        <ele>147</ele>
        <time>2024-01-20T15:07:10Z</time>
      </trkpt>
      <trkpt lat="43.45234" lon="1.6273">
        <ele>147</ele>
        <time>2024-01-20T15:07:11Z</time>
      </trkpt>
      <trkpt lat="43.45234" lon="1.62731">
        <ele>147</ele>
        <time>2024-01-20T15:07:12Z</time>
      </trkpt>
      <trkpt lat="43.45236" lon="1.62734">
        <ele>147</ele>
        <time>2024-01-20T15:07:13Z</time>
      </trkpt>
      <trkpt lat="43.45239" lon="1.62737">
        <ele>147</ele>
        <time>2024-01-20T15:07:14Z</time>
      </trkpt>
      <trkpt lat="43.45241" lon="1.62739">
        <ele>146</ele>
        <time>2024-01-20T15:07:15Z</time>
      </trkpt>
      <trkpt lat="43.45242" lon="1.62742">
        <ele>146</ele>
        <time>2024-01-20T15:07:16Z</time>
      </trkpt>
      <trkpt lat="43.45244" lon="1.62744">
        <ele>146</ele>
        <time>2024-01-20T15:07:17Z</time>
      </trkpt>
      <trkpt lat="43.45246" lon="1.62746">
        <ele>146</ele>
        <time>2024-01-20T15:07:18Z</time>
      </trkpt>
      <trkpt lat="43.45248" lon="1.62748">
        <ele>146</ele>
        <time>2024-01-20T15:07:19Z</time>
      </trkpt>
      <trkpt lat="43.45252" lon="1.62751">
        <ele>146</ele>
        <time>2024-01-20T15:07:20Z</time>
      </trkpt>
      <trkpt lat="43.45253" lon="1.62752">
        <ele>146</ele>
        <time>2024-01-20T15:07:21Z</time>
      </trkpt>
      <trkpt lat="43.45255" lon="1.62754">
        <ele>146</ele>
        <time>2024-01-20T15:07:22Z</time>
      </trkpt>
      <trkpt lat="43.45257" lon="1.62756">
        <ele>146</ele>
        <time>2024-01-20T15:07:23Z</time>
      </trkpt>
      <trkpt lat="43.45259" lon="1.62759">
        <ele>147</ele>
        <time>2024-01-20T15:07:24Z</time>
      </trkpt>
      <trkpt lat="43.45261" lon="1.62761">
        <ele>147</ele>
        <time>2024-01-20T15:07:25Z</time>
      </trkpt>
      <trkpt lat="43.45263" lon="1.62764">
        <ele>147</ele>
        <time>2024-01-20T15:07:26Z</time>
      </trkpt>
      <trkpt lat="43.45264" lon="1.62766">
        <ele>147</ele>
        <time>2024-01-20T15:07:27Z</time>
      </trkpt>
      <trkpt lat="43.45267" lon="1.62767">
        <ele>147</ele>
        <time>2024-01-20T15:07:28Z</time>
      </trkpt>
      <trkpt lat="43.45269" lon="1.62769">
        <ele>147</ele>
        <time>2024-01-20T15:07:29Z</time>
      </trkpt>
      <trkpt lat="43.45271" lon="1.62771">
        <ele>147</ele>
        <time>2024-01-20T15:07:30Z</time>
      </trkpt>
      <trkpt lat="43.45273" lon="1.62773">
        <ele>147</ele>
        <time>2024-01-20T15:07:31Z</time>
      </trkpt>
      <trkpt lat="43.45276" lon="1.62776">
        <ele>147</ele>
        <time>2024-01-20T15:07:32Z</time>
      </trkpt>
      <trkpt lat="43.45278" lon="1.62778">
        <ele>147</ele>
        <time>2024-01-20T15:07:33Z</time>
      </trkpt>
      <trkpt lat="43.4528" lon="1.6278">
        <ele>147</ele>
        <time>2024-01-20T15:07:34Z</time>
      </trkpt>
      <trkpt lat="43.45282" lon="1.62783">
        <ele>147</ele>
        <time>2024-01-20T15:07:35Z</time>
      </trkpt>
      <trkpt lat="43.45286" lon="1.62786">
        <ele>147</ele>
        <time>2024-01-20T15:07:36Z</time>
      </trkpt>
      <trkpt lat="43.45287" lon="1.62787">
        <ele>147</ele>
        <time>2024-01-20T15:07:37Z</time>
      </trkpt>
      <trkpt lat="43.45289" lon="1.6279">
        <ele>147</ele>
        <time>2024-01-20T15:07:38Z</time>
      </trkpt>
      <trkpt lat="43.45291" lon="1.62793">
        <ele>147</ele>
        <time>2024-01-20T15:07:39Z</time>
      </trkpt>
      <trkpt lat="43.45292" lon="1.62794">
        <ele>148</ele>
        <time>2024-01-20T15:07:40Z</time>
      </trkpt>
      <trkpt lat="43.45295" lon="1.62796">
        <ele>148</ele>
        <time>2024-01-20T15:07:41Z</time>
      </trkpt>
      <trkpt lat="43.45297" lon="1.62798">
        <ele>148</ele>
        <time>2024-01-20T15:07:42Z</time>
      </trkpt>
      <trkpt lat="43.45299" lon="1.628">
        <ele>148</ele>
        <time>2024-01-20T15:07:43Z</time>
      </trkpt>
      <trkpt lat="43.45301" lon="1.62802">
        <ele>148</ele>
        <time>2024-01-20T15:07:44Z</time>
      </trkpt>
      <trkpt lat="43.45303" lon="1.62804">
        <ele>148</ele>
        <time>2024-01-20T15:07:45Z</time>
      </trkpt>
      <trkpt lat="43.45306" lon="1.62807">
        <ele>148</ele>
        <time>2024-01-20T15:07:46Z</time>
      </trkpt>
      <trkpt lat="43.45309" lon="1.6281">
        <ele>148</ele>
        <time>2024-01-20T15:07:47Z</time>
      </trkpt>
      <trkpt lat="43.4531" lon="1.62811">
        <ele>149</ele>
        <time>2024-01-20T15:07:48Z</time>
      </trkpt>
      <trkpt lat="43.45313" lon="1.62814">
        <ele>149</ele>
        <time>2024-01-20T15:07:49Z</time>
      </trkpt>
      <trkpt lat="43.45314" lon="1.62815">
        <ele>149</ele>
        <time>2024-01-20T15:07:50Z</time>
      </trkpt>
      <trkpt lat="43.45316" lon="1.62817">
        <ele>149</ele>
        <time>2024-01-20T15:07:51Z</time>
      </trkpt>
      <trkpt lat="43.45318" lon="1.62819">
        <ele>149</ele>
        <time>2024-01-20T15:07:52Z</time>
      </trkpt>
      <trkpt lat="43.4532" lon="1.62821">
        <ele>149</ele>
        <time>2024-01-20T15:07:53Z</time>
      </trkpt>
      <trkpt lat="43.45322" lon="1.62823">
        <ele>148</ele>
        <time>2024-01-20T15:07:54Z</time>
      </trkpt>
      <trkpt lat="43.45324" lon="1.62825">
        <ele>148</ele>
        <time>2024-01-20T15:07:55Z</time>
      </trkpt>
      <trkpt lat="43.45327" lon="1.62827">
        <ele>148</ele>
        <time>2024-01-20T15:07:56Z</time>
      </trkpt>
      <trkpt lat="43.45328" lon="1.62828">
        <ele>149</ele>
        <time>2024-01-20T15:07:57Z</time>
      </trkpt>
      <trkpt lat="43.4533" lon="1.62831">
        <ele>149</ele>
        <time>2024-01-20T15:07:58Z</time>
      </trkpt>
      <trkpt lat="43.45331" lon="1.62832">
        <ele>149</ele>
        <time>2024-01-20T15:07:59Z</time>
      </trkpt>
      <trkpt lat="43.45335" lon="1.62836">
        <ele>149</ele>
        <time>2024-01-20T15:08:00Z</time>
      </trkpt>
      <trkpt lat="43.45335" lon="1.62836">
        <ele>149</ele>
        <time>2024-01-20T15:08:01Z</time>
      </trkpt>
      <trkpt lat="43.45337" lon="1.62838">
        <ele>149</ele>
        <time>2024-01-20T15:08:02Z</time>
      </trkpt>
      <trkpt lat="43.45338" lon="1.62839">
        <ele>149</ele>
        <time>2024-01-20T15:08:03Z</time>
      </trkpt>
      <trkpt lat="43.45338" lon="1.62839">
        <ele>149</ele>
        <time>2024-01-20T15:08:04Z</time>
      </trkpt>
      <trkpt lat="43.45341" lon="1.62842">
        <ele>149</ele>
        <time>2024-01-20T15:08:05Z</time>
      </trkpt>
      <trkpt lat="43.45343" lon="1.62844">
        <ele>149</ele>
        <time>2024-01-20T15:08:06Z</time>
      </trkpt>
      <trkpt lat="43.45345" lon="1.62845">
        <ele>149</ele>
        <time>2024-01-20T15:08:07Z</time>
      </trkpt>
      <trkpt lat="43.45347" lon="1.62846">
        <ele>150</ele>
        <time>2024-01-20T15:08:08Z</time>
      </trkpt>
      <trkpt lat="43.4535" lon="1.62849">
        <ele>150</ele>
        <time>2024-01-20T15:08:09Z</time>
      </trkpt>
      <trkpt lat="43.45351" lon="1.6285">
        <ele>150</ele>
        <time>2024-01-20T15:08:10Z</time>
      </trkpt>
      <trkpt lat="43.45353" lon="1.62852">
        <ele>150</ele>
        <time>2024-01-20T15:08:11Z</time>
      </trkpt>
      <trkpt lat="43.45356" lon="1.62853">
        <ele>150</ele>
        <time>2024-01-20T15:08:12Z</time>
      </trkpt>
      <trkpt lat="43.45358" lon="1.62855">
        <ele>150</ele>
        <time>2024-01-20T15:08:13Z</time>
      </trkpt>
      <trkpt lat="43.4536" lon="1.62856">
        <ele>150</ele>
        <time>2024-01-20T15:08:14Z</time>
      </trkpt>
      <trkpt lat="43.45362" lon="1.62858">
        <ele>150</ele>
        <time>2024-01-20T15:08:15Z</time>
      </trkpt>
      <trkpt lat="43.45364" lon="1.6286">
        <ele>151</ele>
        <time>2024-01-20T15:08:16Z</time>
      </trkpt>
      <trkpt lat="43.45367" lon="1.62863">
        <ele>151</ele>
        <time>2024-01-20T15:08:17Z</time>
      </trkpt>
      <trkpt lat="43.45369" lon="1.62864">
        <ele>151</ele>
        <time>2024-01-20T15:08:18Z</time>
      </trkpt>
      <trkpt lat="43.45371" lon="1.62866">
        <ele>151</ele>
        <time>2024-01-20T15:08:19Z</time>
      </trkpt>
      <trkpt lat="43.45374" lon="1.62868">
        <ele>151</ele>
        <time>2024-01-20T15:08:20Z</time>
      </trkpt>
      <trkpt lat="43.45376" lon="1.6287">
        <ele>151</ele>
        <time>2024-01-20T15:08:21Z</time>
      </trkpt>
      <trkpt lat="43.45378" lon="1.62872">
        <ele>151</ele>
        <time>2024-01-20T15:08:22Z</time>
      </trkpt>
      <trkpt lat="43.45381" lon="1.62874">
        <ele>152</ele>
        <time>2024-01-20T15:08:23Z</time>
      </trkpt>
      <trkpt lat="43.45383" lon="1.62876">
        <ele>152</ele>
        <time>2024-01-20T15:08:24Z</time>
      </trkpt>
      <trkpt lat="43.45385" lon="1.62878">
        <ele>152</ele>
        <time>2024-01-20T15:08:25Z</time>
      </trkpt>
      <trkpt lat="43.45387" lon="1.62881">
        <ele>152</ele>
        <time>2024-01-20T15:08:26Z</time>
      </trkpt>
      <trkpt lat="43.4539" lon="1.62884">
        <ele>152</ele>
        <time>2024-01-20T15:08:27Z</time>
      </trkpt>
      <trkpt lat="43.45392" lon="1.62885">
        <ele>152</ele>
        <time>2024-01-20T15:08:28Z</time>
      </trkpt>
      <trkpt lat="43.45393" lon="1.62887">
        <ele>152</ele>
        <time>2024-01-20T15:08:29Z</time>
      </trkpt>
      <trkpt lat="43.45395" lon="1.6289">
        <ele>153</ele>
        <time>2024-01-20T15:08:30Z</time>
      </trkpt>
      <trkpt lat="43.45397" lon="1.62892">
        <ele>153</ele>
        <time>2024-01-20T15:08:31Z</time>
      </trkpt>
      <trkpt lat="43.45399" lon="1.62894">
        <ele>153</ele>
        <time>2024-01-20T15:08:32Z</time>
      </trkpt>
      <trkpt lat="43.45401" lon="1.62897">
        <ele>153</ele>
        <time>2024-01-20T15:08:33Z</time>
      </trkpt>
      <trkpt lat="43.45402" lon="1.62899">
        <ele>153</ele>
        <time>2024-01-20T15:08:34Z</time>
      </trkpt>
      <trkpt lat="43.45404" lon="1.62901">
        <ele>153</ele>
        <time>2024-01-20T15:08:35Z</time>
      </trkpt>
      <trkpt lat="43.45406" lon="1.62904">
        <ele>153</ele>
        <time>2024-01-20T15:08:36Z</time>
      </trkpt>
      <trkpt lat="43.45408" lon="1.62906">
        <ele>153</ele>
        <time>2024-01-20T15:08:37Z</time>
      </trkpt>
      <trkpt lat="43.45409" lon="1.62908">
        <ele>153</ele>
        <time>2024-01-20T15:08:38Z</time>
      </trkpt>
      <trkpt lat="43.45411" lon="1.6291">
        <ele>154</ele>
        <time>2024-01-20T15:08:39Z</time>
      </trkpt>
      <trkpt lat="43.45413" lon="1.62912">
        <ele>154</ele>
        <time>2024-01-20T15:08:40Z</time>
      </trkpt>
      <trkpt lat="43.45415" lon="1.62914">
        <ele>154</ele>
        <time>2024-01-20T15:08:41Z</time>
      </trkpt>
      <trkpt lat="43.45417" lon="1.62917">
        <ele>154</ele>
        <time>2024-01-20T15:08:42Z</time>
      </trkpt>
      <trkpt lat="43.45419" lon="1.62919">
        <ele>154</ele>
        <time>2024-01-20T15:08:43Z</time>
      </trkpt>
      <trkpt lat="43.4542" lon="1.62921">
        <ele>155</ele>
        <time>2024-01-20T15:08:44Z</time>
      </trkpt>
      <trkpt lat="43.45422" lon="1.62923">
        <ele>155</ele>
        <time>2024-01-20T15:08:45Z</time>
      </trkpt>
      <trkpt lat="43.45424" lon="1.62926">
        <ele>155</ele>
        <time>2024-01-20T15:08:46Z</time>
      </trkpt>
      <trkpt lat="43.45426" lon="1.62928">
        <ele>155</ele>
        <time>2024-01-20T15:08:47Z</time>
      </trkpt>
      <trkpt lat="43.45428" lon="1.62933">
        <ele>155</ele>
        <time>2024-01-20T15:08:48Z</time>
      </trkpt>
      <trkpt lat="43.45429" lon="1.62935">
        <ele>155</ele>
        <time>2024-01-20T15:08:49Z</time>
      </trkpt>
      <trkpt lat="43.45428" lon="1.6294">
        <ele>155</ele>
        <time>2024-01-20T15:08:50Z</time>
      </trkpt>
      <trkpt lat="43.45428" lon="1.62942">
        <ele>156</ele>
        <time>2024-01-20T15:08:51Z</time>
      </trkpt>
      <trkpt lat="43.45427" lon="1.62945">
        <ele>156</ele>
        <time>2024-01-20T15:08:52Z</time>
      </trkpt>
      <trkpt lat="43.45427" lon="1.62948">
        <ele>156</ele>
        <time>2024-01-20T15:08:53Z</time>
      </trkpt>
      <trkpt lat="43.45426" lon="1.62951">
        <ele>156</ele>
        <time>2024-01-20T15:08:54Z</time>
      </trkpt>
      <trkpt lat="43.45425" lon="1.62955">
        <ele>156</ele>
        <time>2024-01-20T15:08:55Z</time>
      </trkpt>
      <trkpt lat="43.45424" lon="1.62957">
        <ele>156</ele>
        <time>2024-01-20T15:08:56Z</time>
      </trkpt>
      <trkpt lat="43.45424" lon="1.6296">
        <ele>156</ele>
        <time>2024-01-20T15:08:57Z</time>
      </trkpt>
      <trkpt lat="43.45423" lon="1.62963">
        <ele>157</ele>
        <time>2024-01-20T15:08:58Z</time>
      </trkpt>
      <trkpt lat="43.45422" lon="1.62967">
        <ele>157</ele>
        <time>2024-01-20T15:08:59Z</time>
      </trkpt>
      <trkpt lat="43.45421" lon="1.62968">
        <ele>158</ele>
        <time>2024-01-20T15:09:00Z</time>
      </trkpt>
      <trkpt lat="43.45421" lon="1.62971">
        <ele>158</ele>
        <time>2024-01-20T15:09:01Z</time>
      </trkpt>
      <trkpt lat="43.4542" lon="1.62974">
        <ele>158</ele>
        <time>2024-01-20T15:09:02Z</time>
      </trkpt>
      <trkpt lat="43.45419" lon="1.62978">
        <ele>158</ele>
        <time>2024-01-20T15:09:03Z</time>
      </trkpt>
      <trkpt lat="43.45418" lon="1.6298">
        <ele>159</ele>
        <time>2024-01-20T15:09:04Z</time>
      </trkpt>
      <trkpt lat="43.45417" lon="1.62982">
        <ele>159</ele>
        <time>2024-01-20T15:09:05Z</time>
      </trkpt>
      <trkpt lat="43.45416" lon="1.62985">
        <ele>159</ele>
        <time>2024-01-20T15:09:06Z</time>
      </trkpt>
      <trkpt lat="43.45415" lon="1.62988">
        <ele>160</ele>
        <time>2024-01-20T15:09:07Z</time>
      </trkpt>
      <trkpt lat="43.45414" lon="1.62991">
        <ele>160</ele>
        <time>2024-01-20T15:09:08Z</time>
      </trkpt>
      <trkpt lat="43.45412" lon="1.62995">
        <ele>160</ele>
        <time>2024-01-20T15:09:09Z</time>
      </trkpt>
      <trkpt lat="43.45411" lon="1.62997">
        <ele>160</ele>
        <time>2024-01-20T15:09:10Z</time>
      </trkpt>
      <trkpt lat="43.45409" lon="1.63001">
        <ele>160</ele>
        <time>2024-01-20T15:09:11Z</time>
      </trkpt>
      <trkpt lat="43.45409" lon="1.63002">
        <ele>160</ele>
        <time>2024-01-20T15:09:12Z</time>
      </trkpt>
      <trkpt lat="43.45407" lon="1.63005">
        <ele>160</ele>
        <time>2024-01-20T15:09:13Z</time>
      </trkpt>
      <trkpt lat="43.45405" lon="1.63009">
        <ele>160</ele>
        <time>2024-01-20T15:09:14Z</time>
      </trkpt>
      <trkpt lat="43.45405" lon="1.63011">
        <ele>160</ele>
        <time>2024-01-20T15:09:15Z</time>
      </trkpt>
      <trkpt lat="43.45403" lon="1.63014">
        <ele>160</ele>
        <time>2024-01-20T15:09:16Z</time>
      </trkpt>
      <trkpt lat="43.45402" lon="1.63016">
        <ele>161</ele>
        <time>2024-01-20T15:09:17Z</time>
      </trkpt>
      <trkpt lat="43.454" lon="1.63019">
        <ele>161</ele>
        <time>2024-01-20T15:09:18Z</time>
      </trkpt>
      <trkpt lat="43.45399" lon="1.63022">
        <ele>161</ele>
        <time>2024-01-20T15:09:19Z</time>
      </trkpt>
      <trkpt lat="43.45398" lon="1.63024">
        <ele>161</ele>
        <time>2024-01-20T15:09:20Z</time>
      </trkpt>
      <trkpt lat="43.45396" lon="1.63027">
        <ele>161</ele>
        <time>2024-01-20T15:09:21Z</time>
      </trkpt>
      <trkpt lat="43.45395" lon="1.6303">
        <ele>161</ele>
        <time>2024-01-20T15:09:22Z</time>
      </trkpt>
      <trkpt lat="43.45393" lon="1.63033">
        <ele>161</ele>
        <time>2024-01-20T15:09:23Z</time>
      </trkpt>
      <trkpt lat="43.45392" lon="1.63036">
        <ele>161</ele>
        <time>2024-01-20T15:09:24Z</time>
      </trkpt>
      <trkpt lat="43.45391" lon="1.63038">
        <ele>161</ele>
        <time>2024-01-20T15:09:25Z</time>
      </trkpt>
      <trkpt lat="43.45389" lon="1.63041">
        <ele>161</ele>
        <time>2024-01-20T15:09:26Z</time>
      </trkpt>
      <trkpt lat="43.45388" lon="1.63044">
        <ele>161</ele>
        <time>2024-01-20T15:09:27Z</time>
      </trkpt>
      <trkpt lat="43.45386" lon="1.63047">
        <ele>161</ele>
        <time>2024-01-20T15:09:28Z</time>
      </trkpt>
      <trkpt lat="43.45384" lon="1.63051">
        <ele>161</ele>
        <time>2024-01-20T15:09:29Z</time>
      </trkpt>
      <trkpt lat="43.45384" lon="1.63053">
        <ele>161</ele>
        <time>2024-01-20T15:09:30Z</time>
      </trkpt>
      <trkpt lat="43.45382" lon="1.63056">
        <ele>161</ele>
        <time>2024-01-20T15:09:31Z</time>
      </trkpt>
      <trkpt lat="43.45381" lon="1.63058">
        <ele>161</ele>
        <time>2024-01-20T15:09:32Z</time>
      </trkpt>
      <trkpt lat="43.45379" lon="1.63063">
        <ele>161</ele>
        <time>2024-01-20T15:09:33Z</time>
      </trkpt>
      <trkpt lat="43.45378" lon="1.63064">
        <ele>161</ele>
        <time>2024-01-20T15:09:34Z</time>
      </trkpt>
      <trkpt lat="43.45377" lon="1.63067">
        <ele>161</ele>
        <time>2024-01-20T15:09:35Z</time>
      </trkpt>
      <trkpt lat="43.45375" lon="1.6307">
        <ele>161</ele>
        <time>2024-01-20T15:09:36Z</time>
      </trkpt>
      <trkpt lat="43.45374" lon="1.63073">
        <ele>161</ele>
        <time>2024-01-20T15:09:37Z</time>
      </trkpt>
      <trkpt lat="43.45373" lon="1.63076">
        <ele>161</ele>
        <time>2024-01-20T15:09:38Z</time>
      </trkpt>
      <trkpt lat="43.45372" lon="1.63078">
        <ele>161</ele>
        <time>2024-01-20T15:09:39Z</time>
      </trkpt>
      <trkpt lat="43.4537" lon="1.63081">
        <ele>161</ele>
        <time>2024-01-20T15:09:40Z</time>
      </trkpt>
      <trkpt lat="43.45369" lon="1.63084">
        <ele>161</ele>
        <time>2024-01-20T15:09:41Z</time>
      </trkpt>
      <trkpt lat="43.45368" lon="1.63086">
        <ele>161</ele>
        <time>2024-01-20T15:09:42Z</time>
      </trkpt>
      <trkpt lat="43.45366" lon="1.63089">
        <ele>161</ele>
        <time>2024-01-20T15:09:43Z</time>
      </trkpt>
      <trkpt lat="43.45365" lon="1.63092">
        <ele>161</ele>
        <time>2024-01-20T15:09:44Z</time>
      </trkpt>
      <trkpt lat="43.45364" lon="1.63095">
        <ele>162</ele>
        <time>2024-01-20T15:09:45Z</time>
      </trkpt>
      <trkpt lat="43.45363" lon="1.63097">
        <ele>162</ele>
        <time>2024-01-20T15:09:46Z</time>
      </trkpt>
      <trkpt lat="43.45361" lon="1.631">
        <ele>162</ele>
        <time>2024-01-20T15:09:47Z</time>
      </trkpt>
      <trkpt lat="43.4536" lon="1.63103">
        <ele>162</ele>
        <time>2024-01-20T15:09:48Z</time>
      </trkpt>
      <trkpt lat="43.45359" lon="1.63105">
        <ele>162</ele>
        <time>2024-01-20T15:09:49Z</time>
      </trkpt>
      <trkpt lat="43.45357" lon="1.63109">
        <ele>162</ele>
        <time>2024-01-20T15:09:50Z</time>
      </trkpt>
      <trkpt lat="43.45356" lon="1.63111">
        <ele>162</ele>
        <time>2024-01-20T15:09:51Z</time>
      </trkpt>
      <trkpt lat="43.45354" lon="1.63115">
        <ele>162</ele>
        <time>2024-01-20T15:09:52Z</time>
      </trkpt>
      <trkpt lat="43.45353" lon="1.63116">
        <ele>162</ele>
        <time>2024-01-20T15:09:53Z</time>
      </trkpt>
      <trkpt lat="43.45352" lon="1.63119">
        <ele>162</ele>
        <time>2024-01-20T15:09:54Z</time>
      </trkpt>
      <trkpt lat="43.45351" lon="1.63122">
        <ele>162</ele>
        <time>2024-01-20T15:09:55Z</time>
      </trkpt>
      <trkpt lat="43.45349" lon="1.63125">
        <ele>162</ele>
        <time>2024-01-20T15:09:56Z</time>
      </trkpt>
      <trkpt lat="43.45348" lon="1.63128">
        <ele>162</ele>
        <time>2024-01-20T15:09:57Z</time>
      </trkpt>
      <trkpt lat="43.45347" lon="1.6313">
        <ele>162</ele>
        <time>2024-01-20T15:09:58Z</time>
      </trkpt>
      <trkpt lat="43.45346" lon="1.63133">
        <ele>162</ele>
        <time>2024-01-20T15:09:59Z</time>
      </trkpt>
      <trkpt lat="43.45344" lon="1.63136">
        <ele>163</ele>
        <time>2024-01-20T15:10:00Z</time>
      </trkpt>
      <trkpt lat="43.45343" lon="1.63138">
        <ele>163</ele>
        <time>2024-01-20T15:10:01Z</time>
      </trkpt>
      <trkpt lat="43.45342" lon="1.63141">
        <ele>163</ele>
        <time>2024-01-20T15:10:02Z</time>
      </trkpt>
      <trkpt lat="43.45341" lon="1.63144">
        <ele>163</ele>
        <time>2024-01-20T15:10:03Z</time>
      </trkpt>
      <trkpt lat="43.45339" lon="1.63147">
        <ele>163</ele>
        <time>2024-01-20T15:10:04Z</time>
      </trkpt>
      <trkpt lat="43.45338" lon="1.63149">
        <ele>163</ele>
        <time>2024-01-20T15:10:05Z</time>
      </trkpt>
      <trkpt lat="43.45337" lon="1.63152">
        <ele>163</ele>
        <time>2024-01-20T15:10:06Z</time>
      </trkpt>
      <trkpt lat="43.45336" lon="1.63155">
        <ele>163</ele>
        <time>2024-01-20T15:10:07Z</time>
      </trkpt>
      <trkpt lat="43.45334" lon="1.63157">
        <ele>163</ele>
        <time>2024-01-20T15:10:08Z</time>
      </trkpt>
      <trkpt lat="43.45333" lon="1.6316">
        <ele>163</ele>
        <time>2024-01-20T15:10:09Z</time>
      </trkpt>
      <trkpt lat="43.45332" lon="1.63162">
        <ele>163</ele>
        <time>2024-01-20T15:10:10Z</time>
      </trkpt>
      <trkpt lat="43.4533" lon="1.63167">
        <ele>163</ele>
        <time>2024-01-20T15:10:11Z</time>
      </trkpt>
      <trkpt lat="43.45329" lon="1.63168">
        <ele>163</ele>
        <time>2024-01-20T15:10:12Z</time>
      </trkpt>
      <trkpt lat="43.45328" lon="1.63171">
        <ele>163</ele>
        <time>2024-01-20T15:10:13Z</time>
      </trkpt>
      <trkpt lat="43.45326" lon="1.63173">
        <ele>164</ele>
        <time>2024-01-20T15:10:14Z</time>
      </trkpt>
      <trkpt lat="43.45325" lon="1.63176">
        <ele>164</ele>
        <time>2024-01-20T15:10:15Z</time>
      </trkpt>
      <trkpt lat="43.45324" lon="1.63178">
        <ele>164</ele>
        <time>2024-01-20T15:10:16Z</time>
      </trkpt>
      <trkpt lat="43.45323" lon="1.63181">
        <ele>164</ele>
        <time>2024-01-20T15:10:17Z</time>
      </trkpt>
      <trkpt lat="43.45321" lon="1.63183">
        <ele>164</ele>
        <time>2024-01-20T15:10:18Z</time>
      </trkpt>
      <trkpt lat="43.4532" lon="1.63186">
        <ele>164</ele>
        <time>2024-01-20T15:10:19Z</time>
      </trkpt>
      <trkpt lat="43.45319" lon="1.63188">
        <ele>164</ele>
        <time>2024-01-20T15:10:20Z</time>
      </trkpt>
      <trkpt lat="43.45318" lon="1.63191">
        <ele>164</ele>
        <time>2024-01-20T15:10:21Z</time>
      </trkpt>
      <trkpt lat="43.45317" lon="1.63194">
        <ele>164</ele>
        <time>2024-01-20T15:10:22Z</time>
      </trkpt>
      <trkpt lat="43.45316" lon="1.63197">
        <ele>164</ele>
        <time>2024-01-20T15:10:23Z</time>
      </trkpt>
      <trkpt lat="43.45315" lon="1.63199">
        <ele>164</ele>
        <time>2024-01-20T15:10:24Z</time>
      </trkpt>
      <trkpt lat="43.45314" lon="1.63202">
        <ele>164</ele>
        <time>2024-01-20T15:10:25Z</time>
      </trkpt>
      <trkpt lat="43.45313" lon="1.63205">
        <ele>165</ele>
        <time>2024-01-20T15:10:26Z</time>
      </trkpt>
      <trkpt lat="43.45312" lon="1.63208">
        <ele>165</ele>
        <time>2024-01-20T15:10:27Z</time>
      </trkpt>
      <trkpt lat="43.45311" lon="1.63211">
        <ele>165</ele>
        <time>2024-01-20T15:10:28Z</time>
      </trkpt>
      <trkpt lat="43.4531" lon="1.63213">
        <ele>165</ele>
        <time>2024-01-20T15:10:29Z</time>
      </trkpt>
      <trkpt lat="43.45309" lon="1.63217">
        <ele>165</ele>
        <time>2024-01-20T15:10:30Z</time>
      </trkpt>
      <trkpt lat="43.45308" lon="1.63219">
        <ele>165</ele>
        <time>2024-01-20T15:10:31Z</time>
      </trkpt>
      <trkpt lat="43.45307" lon="1.63221">
        <ele>165</ele>
        <time>2024-01-20T15:10:32Z</time>
      </trkpt>
      <trkpt lat="43.45306" lon="1.63224">
        <ele>165</ele>
        <time>2024-01-20T15:10:33Z</time>
      </trkpt>
      <trkpt lat="43.45304" lon="1.63228">
        <ele>165</ele>
        <time>2024-01-20T15:10:34Z</time>
      </trkpt>
      <trkpt lat="43.45303" lon="1.63229">
        <ele>165</ele>
        <time>2024-01-20T15:10:35Z</time>
      </trkpt>
      <trkpt lat="43.45302" lon="1.63231">
        <ele>165</ele>
        <time>2024-01-20T15:10:36Z</time>
      </trkpt>
      <trkpt lat="43.45301" lon="1.63234">
        <ele>165</ele>
        <time>2024-01-20T15:10:37Z</time>
      </trkpt>
      <trkpt lat="43.453" lon="1.63236">
        <ele>165</ele>
        <time>2024-01-20T15:10:38Z</time>
      </trkpt>
      <trkpt lat="43.45298" lon="1.63239">
        <ele>165</ele>
        <time>2024-01-20T15:10:39Z</time>
      </trkpt>
      <trkpt lat="43.45297" lon="1.63241">
        <ele>166</ele>
        <time>2024-01-20T15:10:40Z</time>
      </trkpt>
      <trkpt lat="43.45296" lon="1.63244">
        <ele>166</ele>
        <time>2024-01-20T15:10:41Z</time>
      </trkpt>
      <trkpt lat="43.45296" lon="1.63247">
        <ele>166</ele>
        <time>2024-01-20T15:10:42Z</time>
      </trkpt>
      <trkpt lat="43.45294" lon="1.6325">
        <ele>166</ele>
        <time>2024-01-20T15:10:43Z</time>
      </trkpt>
      <trkpt lat="43.45293" lon="1.63253">
        <ele>166</ele>
        <time>2024-01-20T15:10:44Z</time>
      </trkpt>
      <trkpt lat="43.45291" lon="1.63255">
        <ele>166</ele>
        <time>2024-01-20T15:10:45Z</time>
      </trkpt>
      <trkpt lat="43.4529" lon="1.63259">
        <ele>166</ele>
        <time>2024-01-20T15:10:46Z</time>
      </trkpt>
      <trkpt lat="43.45288" lon="1.63262">
        <ele>166</ele>
        <time>2024-01-20T15:10:47Z</time>
      </trkpt>
      <trkpt lat="43.45287" lon="1.63264">
        <ele>166</ele>
        <time>2024-01-20T15:10:48Z</time>
      </trkpt>
      <trkpt lat="43.45285" lon="1.63268">
        <ele>166</ele>
        <time>2024-01-20T15:10:49Z</time>
      </trkpt>
      <trkpt lat="43.45285" lon="1.63269">
        <ele>166</ele>
        <time>2024-01-20T15:10:50Z</time>
      </trkpt>
      <trkpt lat="43.45283" lon="1.63272">
        <ele>166</ele>
        <time>2024-01-20T15:10:51Z</time>
      </trkpt>
      <trkpt lat="43.45282" lon="1.63275">
        <ele>166</ele>
        <time>2024-01-20T15:10:52Z</time>
      </trkpt>
      <trkpt lat="43.45281" lon="1.63278">
        <ele>166</ele>
        <time>2024-01-20T15:10:53Z</time>
      </trkpt>
      <trkpt lat="43.4528" lon="1.6328">
        <ele>166</ele>
        <time>2024-01-20T15:10:54Z</time>
      </trkpt>
      <trkpt lat="43.45278" lon="1.63284">
        <ele>166</ele>
        <time>2024-01-20T15:10:55Z</time>
      </trkpt>
      <trkpt lat="43.45277" lon="1.63285">
        <ele>166</ele>
        <time>2024-01-20T15:10:56Z</time>
      </trkpt>
      <trkpt lat="43.45276" lon="1.63288">
        <ele>166</ele>
        <time>2024-01-20T15:10:57Z</time>
      </trkpt>
      <trkpt lat="43.45275" lon="1.63291">
        <ele>167</ele>
        <time>2024-01-20T15:10:58Z</time>
      </trkpt>
      <trkpt lat="43.45273" lon="1.63294">
        <ele>167</ele>
        <time>2024-01-20T15:10:59Z</time>
      </trkpt>
      <trkpt lat="43.45272" lon="1.63296">
        <ele>167</ele>
        <time>2024-01-20T15:11:00Z</time>
      </trkpt>
      <trkpt lat="43.45271" lon="1.63299">
        <ele>167</ele>
        <time>2024-01-20T15:11:01Z</time>
      </trkpt>
      <trkpt lat="43.45269" lon="1.63302">
        <ele>167</ele>
        <time>2024-01-20T15:11:02Z</time>
      </trkpt>
      <trkpt lat="43.45268" lon="1.63305">
        <ele>167</ele>
        <time>2024-01-20T15:11:03Z</time>
      </trkpt>
      <trkpt lat="43.45266" lon="1.63307">
        <ele>167</ele>
        <time>2024-01-20T15:11:04Z</time>
      </trkpt>
      <trkpt lat="43.45265" lon="1.6331">
        <ele>167</ele>
        <time>2024-01-20T15:11:05Z</time>
      </trkpt>
      <trkpt lat="43.45263" lon="1.63313">
        <ele>167</ele>
        <time>2024-01-20T15:11:06Z</time>
      </trkpt>
      <trkpt lat="43.45262" lon="1.63316">
        <ele>167</ele>
        <time>2024-01-20T15:11:07Z</time>
      </trkpt>
      <trkpt lat="43.4526" lon="1.63319">
        <ele>167</ele>
        <time>2024-01-20T15:11:08Z</time>
      </trkpt>
      <trkpt lat="43.45259" lon="1.63321">
        <ele>167</ele>
        <time>2024-01-20T15:11:09Z</time>
      </trkpt>
      <trkpt lat="43.45257" lon="1.63325">
        <ele>167</ele>
        <time>2024-01-20T15:11:10Z</time>
      </trkpt>
      <trkpt lat="43.45256" lon="1.63326">
        <ele>168</ele>
        <time>2024-01-20T15:11:11Z</time>
      </trkpt>
      <trkpt lat="43.45254" lon="1.63329">
        <ele>168</ele>
        <time>2024-01-20T15:11:12Z</time>
      </trkpt>
      <trkpt lat="43.45253" lon="1.63331">
        <ele>168</ele>
        <time>2024-01-20T15:11:13Z</time>
      </trkpt>
      <trkpt lat="43.45251" lon="1.63334">
        <ele>168</ele>
        <time>2024-01-20T15:11:14Z</time>
      </trkpt>
      <trkpt lat="43.4525" lon="1.63336">
        <ele>168</ele>
        <time>2024-01-20T15:11:15Z</time>
      </trkpt>
      <trkpt lat="43.45248" lon="1.6334">
        <ele>168</ele>
        <time>2024-01-20T15:11:16Z</time>
      </trkpt>
      <trkpt lat="43.45248" lon="1.63342">
        <ele>168</ele>
        <time>2024-01-20T15:11:17Z</time>
      </trkpt>
      <trkpt lat="43.45246" lon="1.63345">
        <ele>168</ele>
        <time>2024-01-20T15:11:18Z</time>
      </trkpt>
      <trkpt lat="43.45245" lon="1.63347">
        <ele>168</ele>
        <time>2024-01-20T15:11:19Z</time>
      </trkpt>
      <trkpt lat="43.45244" lon="1.6335">
        <ele>168</ele>
        <time>2024-01-20T15:11:20Z</time>
      </trkpt>
      <trkpt lat="43.45242" lon="1.63353">
        <ele>168</ele>
        <time>2024-01-20T15:11:21Z</time>
      </trkpt>
      <trkpt lat="43.4524" lon="1.63356">
        <ele>168</ele>
        <time>2024-01-20T15:11:22Z</time>
      </trkpt>
      <trkpt lat="43.45239" lon="1.63358">
        <ele>168</ele>
        <time>2024-01-20T15:11:23Z</time>
      </trkpt>
      <trkpt lat="43.45237" lon="1.63361">
        <ele>169</ele>
        <time>2024-01-20T15:11:24Z</time>
      </trkpt>
      <trkpt lat="43.45236" lon="1.63364">
        <ele>169</ele>
        <time>2024-01-20T15:11:25Z</time>
      </trkpt>
      <trkpt lat="43.45234" lon="1.63366">
        <ele>169</ele>
        <time>2024-01-20T15:11:26Z</time>
      </trkpt>
      <trkpt lat="43.45232" lon="1.6337">
        <ele>169</ele>
        <time>2024-01-20T15:11:27Z</time>
      </trkpt>
      <trkpt lat="43.45231" lon="1.63371">
        <ele>169</ele>
        <time>2024-01-20T15:11:28Z</time>
      </trkpt>
      <trkpt lat="43.4523" lon="1.63373">
        <ele>169</ele>
        <time>2024-01-20T15:11:29Z</time>
      </trkpt>
      <trkpt lat="43.45229" lon="1.63376">
        <ele>169</ele>
        <time>2024-01-20T15:11:30Z</time>
      </trkpt>
      <trkpt lat="43.45227" lon="1.63378">
        <ele>169</ele>
        <time>2024-01-20T15:11:31Z</time>
      </trkpt>
      <trkpt lat="43.45226" lon="1.63381">
        <ele>169</ele>
        <time>2024-01-20T15:11:32Z</time>
      </trkpt>
      <trkpt lat="43.45224" lon="1.63384">
        <ele>170</ele>
        <time>2024-01-20T15:11:33Z</time>
      </trkpt>
      <trkpt lat="43.45223" lon="1.63386">
        <ele>170</ele>
        <time>2024-01-20T15:11:34Z</time>
      </trkpt>
      <trkpt lat="43.45221" lon="1.63389">
        <ele>170</ele>
        <time>2024-01-20T15:11:35Z</time>
      </trkpt>
      <trkpt lat="43.4522" lon="1.63392">
        <ele>170</ele>
        <time>2024-01-20T15:11:36Z</time>
      </trkpt>
      <trkpt lat="43.45218" lon="1.63395">
        <ele>170</ele>
        <time>2024-01-20T15:11:37Z</time>
      </trkpt>
      <trkpt lat="43.45217" lon="1.63397">
        <ele>170</ele>
        <time>2024-01-20T15:11:38Z</time>
      </trkpt>
      <trkpt lat="43.45216" lon="1.63399">
        <ele>170</ele>
        <time>2024-01-20T15:11:39Z</time>
      </trkpt>
      <trkpt lat="43.45215" lon="1.63402">
        <ele>170</ele>
        <time>2024-01-20T15:11:40Z</time>
      </trkpt>
      <trkpt lat="43.45214" lon="1.63404">
        <ele>170</ele>
        <time>2024-01-20T15:11:41Z</time>
      </trkpt>
      <trkpt lat="43.45212" lon="1.63407">
        <ele>170</ele>
        <time>2024-01-20T15:11:42Z</time>
      </trkpt>
      <trkpt lat="43.45211" lon="1.63409">
        <ele>170</ele>
        <time>2024-01-20T15:11:43Z</time>
      </trkpt>
      <trkpt lat="43.45209" lon="1.63412">
        <ele>170</ele>
        <time>2024-01-20T15:11:44Z</time>
      </trkpt>
      <trkpt lat="43.45208" lon="1.63414">
        <ele>170</ele>
        <time>2024-01-20T15:11:45Z</time>
      </trkpt>
      <trkpt lat="43.45206" lon="1.63418">
        <ele>170</ele>
        <time>2024-01-20T15:11:46Z</time>
      </trkpt>
      <trkpt lat="43.45206" lon="1.6342">
        <ele>170</ele>
        <time>2024-01-20T15:11:47Z</time>
      </trkpt>
      <trkpt lat="43.45204" lon="1.63422">
        <ele>170</ele>
        <time>2024-01-20T15:11:48Z</time>
      </trkpt>
      <trkpt lat="43.45203" lon="1.63425">
        <ele>170</ele>
        <time>2024-01-20T15:11:49Z</time>
      </trkpt>
      <trkpt lat="43.45202" lon="1.63428">
        <ele>170</ele>
        <time>2024-01-20T15:11:50Z</time>
      </trkpt>
      <trkpt lat="43.452" lon="1.63431">
        <ele>170</ele>
        <time>2024-01-20T15:11:51Z</time>
      </trkpt>
      <trkpt lat="43.45199" lon="1.63433">
        <ele>170</ele>
        <time>2024-01-20T15:11:52Z</time>
      </trkpt>
      <trkpt lat="43.45197" lon="1.63436">
        <ele>170</ele>
        <time>2024-01-20T15:11:53Z</time>
      </trkpt>
      <trkpt lat="43.45196" lon="1.63439">
        <ele>170</ele>
        <time>2024-01-20T15:11:54Z</time>
      </trkpt>
      <trkpt lat="43.45195" lon="1.63441">
        <ele>170</ele>
        <time>2024-01-20T15:11:55Z</time>
      </trkpt>
      <trkpt lat="43.45193" lon="1.63444">
        <ele>170</ele>
        <time>2024-01-20T15:11:56Z</time>
      </trkpt>
      <trkpt lat="43.45192" lon="1.63446">
        <ele>170</ele>
        <time>2024-01-20T15:11:57Z</time>
      </trkpt>
      <trkpt lat="43.45191" lon="1.63449">
        <ele>170</ele>
        <time>2024-01-20T15:11:58Z</time>
      </trkpt>
      <trkpt lat="43.45189" lon="1.63453">
        <ele>170</ele>
        <time>2024-01-20T15:11:59Z</time>
      </trkpt>
      <trkpt lat="43.45188" lon="1.63454">
        <ele>171</ele>
        <time>2024-01-20T15:12:00Z</time>
      </trkpt>
      <trkpt lat="43.45187" lon="1.63457">
        <ele>171</ele>
        <time>2024-01-20T15:12:01Z</time>
      </trkpt>
      <trkpt lat="43.45186" lon="1.63459">
        <ele>171</ele>
        <time>2024-01-20T15:12:02Z</time>
      </trkpt>
      <trkpt lat="43.45184" lon="1.63462">
        <ele>171</ele>
        <time>2024-01-20T15:12:03Z</time>
      </trkpt>
      <trkpt lat="43.45183" lon="1.63465">
        <ele>171</ele>
        <time>2024-01-20T15:12:04Z</time>
      </trkpt>
      <trkpt lat="43.45181" lon="1.63469">
        <ele>171</ele>
        <time>2024-01-20T15:12:05Z</time>
      </trkpt>
      <trkpt lat="43.45181" lon="1.6347">
        <ele>171</ele>
        <time>2024-01-20T15:12:06Z</time>
      </trkpt>
      <trkpt lat="43.4518" lon="1.63473">
        <ele>171</ele>
        <time>2024-01-20T15:12:07Z</time>
      </trkpt>
      <trkpt lat="43.45179" lon="1.63475">
        <ele>171</ele>
        <time>2024-01-20T15:12:08Z</time>
      </trkpt>
      <trkpt lat="43.45177" lon="1.63478">
        <ele>171</ele>
        <time>2024-01-20T15:12:09Z</time>
      </trkpt>
      <trkpt lat="43.45176" lon="1.63481">
        <ele>171</ele>
        <time>2024-01-20T15:12:10Z</time>
      </trkpt>
      <trkpt lat="43.45175" lon="1.63484">
        <ele>171</ele>
        <time>2024-01-20T15:12:11Z</time>
      </trkpt>
      <trkpt lat="43.45174" lon="1.63487">
        <ele>171</ele>
        <time>2024-01-20T15:12:12Z</time>
      </trkpt>
      <trkpt lat="43.45173" lon="1.63489">
        <ele>171</ele>
        <time>2024-01-20T15:12:13Z</time>
      </trkpt>
      <trkpt lat="43.45172" lon="1.63492">
        <ele>171</ele>
        <time>2024-01-20T15:12:14Z</time>
      </trkpt>
      <trkpt lat="43.45171" lon="1.63495">
        <ele>171</ele>
        <time>2024-01-20T15:12:15Z</time>
      </trkpt>
      <trkpt lat="43.45169" lon="1.63498">
        <ele>171</ele>
        <time>2024-01-20T15:12:16Z</time>
      </trkpt>
      <trkpt lat="43.45168" lon="1.63501">
        <ele>171</ele>
        <time>2024-01-20T15:12:17Z</time>
      </trkpt>
      <trkpt lat="43.45167" lon="1.63504">
        <ele>171</ele>
        <time>2024-01-20T15:12:18Z</time>
      </trkpt>
      <trkpt lat="43.45166" lon="1.63506">
        <ele>172</ele>
        <time>2024-01-20T15:12:19Z</time>
      </trkpt>
      <trkpt lat="43.45165" lon="1.63511">
        <ele>172</ele>
        <time>2024-01-20T15:12:20Z</time>
      </trkpt>
      <trkpt lat="43.45164" lon="1.63512">
        <ele>172</ele>
        <time>2024-01-20T15:12:21Z</time>
      </trkpt>
      <trkpt lat="43.45163" lon="1.63516">
        <ele>172</ele>
        <time>2024-01-20T15:12:22Z</time>
      </trkpt>
      <trkpt lat="43.45162" lon="1.63517">
        <ele>172</ele>
        <time>2024-01-20T15:12:23Z</time>
      </trkpt>
      <trkpt lat="43.4516" lon="1.63522">
        <ele>172</ele>
        <time>2024-01-20T15:12:24Z</time>
      </trkpt>
      <trkpt lat="43.45159" lon="1.63523">
        <ele>172</ele>
        <time>2024-01-20T15:12:25Z</time>
      </trkpt>
      <trkpt lat="43.45158" lon="1.63526">
        <ele>172</ele>
        <time>2024-01-20T15:12:26Z</time>
      </trkpt>
      <trkpt lat="43.45156" lon="1.63529">
        <ele>173</ele>
        <time>2024-01-20T15:12:27Z</time>
      </trkpt>
      <trkpt lat="43.45155" lon="1.63531">
        <ele>173</ele>
        <time>2024-01-20T15:12:28Z</time>
      </trkpt>
      <trkpt lat="43.45154" lon="1.63534">
        <ele>173</ele>
        <time>2024-01-20T15:12:29Z</time>
      </trkpt>
      <trkpt lat="43.45153" lon="1.63537">
        <ele>173</ele>
        <time>2024-01-20T15:12:30Z</time>
      </trkpt>
      <trkpt lat="43.45152" lon="1.6354">
        <ele>173</ele>
        <time>2024-01-20T15:12:31Z</time>
      </trkpt>
      <trkpt lat="43.45151" lon="1.63543">
        <ele>173</ele>
        <time>2024-01-20T15:12:32Z</time>
      </trkpt>
      <trkpt lat="43.4515" lon="1.63546">
        <ele>173</ele>
        <time>2024-01-20T15:12:33Z</time>
      </trkpt>
      <trkpt lat="43.45148" lon="1.63549">
        <ele>173</ele>
        <time>2024-01-20T15:12:34Z</time>
      </trkpt>
      <trkpt lat="43.45147" lon="1.63552">
        <ele>174</ele>
        <time>2024-01-20T15:12:35Z</time>
      </trkpt>
      <trkpt lat="43.45146" lon="1.63554">
        <ele>174</ele>
        <time>2024-01-20T15:12:36Z</time>
      </trkpt>
      <trkpt lat="43.45145" lon="1.63557">
        <ele>174</ele>
        <time>2024-01-20T15:12:37Z</time>
      </trkpt>
      <trkpt lat="43.45144" lon="1.6356">
        <ele>174</ele>
        <time>2024-01-20T15:12:38Z</time>
      </trkpt>
      <trkpt lat="43.45143" lon="1.63563">
        <ele>174</ele>
        <time>2024-01-20T15:12:39Z</time>
      </trkpt>
      <trkpt lat="43.45142" lon="1.63566">
        <ele>174</ele>
        <time>2024-01-20T15:12:40Z</time>
      </trkpt>
      <trkpt lat="43.4514" lon="1.6357">
        <ele>174</ele>
        <time>2024-01-20T15:12:41Z</time>
      </trkpt>
      <trkpt lat="43.4514" lon="1.63572">
        <ele>175</ele>
        <time>2024-01-20T15:12:42Z</time>
      </trkpt>
      <trkpt lat="43.45138" lon="1.63576">
        <ele>175</ele>
        <time>2024-01-20T15:12:43Z</time>
      </trkpt>
      <trkpt lat="43.45137" lon="1.63577">
        <ele>175</ele>
        <time>2024-01-20T15:12:44Z</time>
      </trkpt>
      <trkpt lat="43.45136" lon="1.6358">
        <ele>175</ele>
        <time>2024-01-20T15:12:45Z</time>
      </trkpt>
      <trkpt lat="43.45135" lon="1.63583">
        <ele>175</ele>
        <time>2024-01-20T15:12:46Z</time>
      </trkpt>
      <trkpt lat="43.45134" lon="1.63586">
        <ele>175</ele>
        <time>2024-01-20T15:12:47Z</time>
      </trkpt>
      <trkpt lat="43.45133" lon="1.63588">
        <ele>175</ele>
        <time>2024-01-20T15:12:48Z</time>
      </trkpt>
      <trkpt lat="43.45132" lon="1.63591">
        <ele>176</ele>
        <time>2024-01-20T15:12:49Z</time>
      </trkpt>
      <trkpt lat="43.45131" lon="1.63594">
        <ele>176</ele>
        <time>2024-01-20T15:12:50Z</time>
      </trkpt>
      <trkpt lat="43.45131" lon="1.63594">
        <ele>176</ele>
        <time>2024-01-20T15:12:51Z</time>
      </trkpt>
      <trkpt lat="43.4513" lon="1.63598">
        <ele>176</ele>
        <time>2024-01-20T15:12:52Z</time>
      </trkpt>
      <trkpt lat="43.4513" lon="1.63598">
        <ele>176</ele>
        <time>2024-01-20T15:12:53Z</time>
      </trkpt>
      <trkpt lat="43.45129" lon="1.63602">
        <ele>176</ele>
        <time>2024-01-20T15:12:54Z</time>
      </trkpt>
      <trkpt lat="43.45129" lon="1.63602">
        <ele>176</ele>
        <time>2024-01-20T15:12:55Z</time>
      </trkpt>
      <trkpt lat="43.45129" lon="1.63606">
        <ele>176</ele>
        <time>2024-01-20T15:12:56Z</time>
      </trkpt>
      <trkpt lat="43.45129" lon="1.63606">
        <ele>176</ele>
        <time>2024-01-20T15:12:57Z</time>
      </trkpt>
      <trkpt lat="43.4513" lon="1.63609">
        <ele>176</ele>
        <time>2024-01-20T15:12:58Z</time>
      </trkpt>
      <trkpt lat="43.4513" lon="1.63609">
        <ele>176</ele>
        <time>2024-01-20T15:12:59Z</time>
      </trkpt>
      <trkpt lat="43.45131" lon="1.63612">
        <ele>177</ele>
        <time>2024-01-20T15:13:00Z</time>
      </trkpt>
      <trkpt lat="43.45131" lon="1.63612">
        <ele>177</ele>
        <time>2024-01-20T15:13:01Z</time>
      </trkpt>
      <trkpt lat="43.45132" lon="1.63615">
        <ele>177</ele>
        <time>2024-01-20T15:13:02Z</time>
      </trkpt>
      <trkpt lat="43.45132" lon="1.63615">
        <ele>177</ele>
        <time>2024-01-20T15:13:03Z</time>
      </trkpt>
      <trkpt lat="43.45133" lon="1.63617">
        <ele>177</ele>
        <time>2024-01-20T15:13:04Z</time>
      </trkpt>
      <trkpt lat="43.45133" lon="1.63617">
        <ele>178</ele>
        <time>2024-01-20T15:13:05Z</time>
      </trkpt>
      <trkpt lat="43.45133" lon="1.63621">
        <ele>178</ele>
        <time>2024-01-20T15:13:06Z</time>
      </trkpt>
      <trkpt lat="43.45133" lon="1.63621">
        <ele>178</ele>
        <time>2024-01-20T15:13:07Z</time>
      </trkpt>
      <trkpt lat="43.45134" lon="1.63624">
        <ele>178</ele>
        <time>2024-01-20T15:13:08Z</time>
      </trkpt>
      <trkpt lat="43.45134" lon="1.63624">
        <ele>179</ele>
        <time>2024-01-20T15:13:09Z</time>
      </trkpt>
      <trkpt lat="43.45133" lon="1.63627">
        <ele>180</ele>
        <time>2024-01-20T15:13:10Z</time>
      </trkpt>
      <trkpt lat="43.45133" lon="1.63627">
        <ele>180</ele>
        <time>2024-01-20T15:13:11Z</time>
      </trkpt>
      <trkpt lat="43.45133" lon="1.63631">
        <ele>180</ele>
        <time>2024-01-20T15:13:12Z</time>
      </trkpt>
      <trkpt lat="43.45133" lon="1.63631">
        <ele>180</ele>
        <time>2024-01-20T15:13:13Z</time>
      </trkpt>
      <trkpt lat="43.45132" lon="1.63634">
        <ele>180</ele>
        <time>2024-01-20T15:13:14Z</time>
      </trkpt>
      <trkpt lat="43.45132" lon="1.63634">
        <ele>180</ele>
        <time>2024-01-20T15:13:15Z</time>
      </trkpt>
      <trkpt lat="43.45132" lon="1.63638">
        <ele>180</ele>
        <time>2024-01-20T15:13:16Z</time>
      </trkpt>
      <trkpt lat="43.45132" lon="1.63638">
        <ele>180</ele>
        <time>2024-01-20T15:13:17Z</time>
      </trkpt>
      <trkpt lat="43.45132" lon="1.63642">
        <ele>181</ele>
        <time>2024-01-20T15:13:18Z</time>
      </trkpt>
      <trkpt lat="43.45132" lon="1.63642">
        <ele>181</ele>
        <time>2024-01-20T15:13:19Z</time>
      </trkpt>
      <trkpt lat="43.45132" lon="1.63646">
        <ele>181</ele>
        <time>2024-01-20T15:13:20Z</time>
      </trkpt>
      <trkpt lat="43.45131" lon="1.63649">
        <ele>181</ele>
        <time>2024-01-20T15:13:22Z</time>
      </trkpt>
      <trkpt lat="43.45131" lon="1.63649">
        <ele>181</ele>
        <time>2024-01-20T15:13:23Z</time>
      </trkpt>
      <trkpt lat="43.45131" lon="1.63653">
        <ele>181</ele>
        <time>2024-01-20T15:13:24Z</time>
      </trkpt>
      <trkpt lat="43.45131" lon="1.63653">
        <ele>181</ele>
        <time>2024-01-20T15:13:25Z</time>
      </trkpt>
      <trkpt lat="43.45131" lon="1.63657">
        <ele>181</ele>
        <time>2024-01-20T15:13:26Z</time>
      </trkpt>
      <trkpt lat="43.45131" lon="1.63657">
        <ele>181</ele>
        <time>2024-01-20T15:13:27Z</time>
      </trkpt>
      <trkpt lat="43.4513" lon="1.6366">
        <ele>181</ele>
        <time>2024-01-20T15:13:28Z</time>
      </trkpt>
      <trkpt lat="43.4513" lon="1.6366">
        <ele>181</ele>
        <time>2024-01-20T15:13:29Z</time>
      </trkpt>
      <trkpt lat="43.4513" lon="1.63664">
        <ele>182</ele>
        <time>2024-01-20T15:13:30Z</time>
      </trkpt>
      <trkpt lat="43.4513" lon="1.63664">
        <ele>182</ele>
        <time>2024-01-20T15:13:31Z</time>
      </trkpt>
      <trkpt lat="43.4513" lon="1.63668">
        <ele>182</ele>
        <time>2024-01-20T15:13:32Z</time>
      </trkpt>
      <trkpt lat="43.4513" lon="1.63668">
        <ele>182</ele>
        <time>2024-01-20T15:13:33Z</time>
      </trkpt>
      <trkpt lat="43.45129" lon="1.63672">
        <ele>182</ele>
        <time>2024-01-20T15:13:34Z</time>
      </trkpt>
      <trkpt lat="43.45129" lon="1.63672">
        <ele>183</ele>
        <time>2024-01-20T15:13:35Z</time>
      </trkpt>
      <trkpt lat="43.45129" lon="1.63676">
        <ele>183</ele>
        <time>2024-01-20T15:13:36Z</time>
      </trkpt>
      <trkpt lat="43.45129" lon="1.63676">
        <ele>183</ele>
        <time>2024-01-20T15:13:37Z</time>
      </trkpt>
      <trkpt lat="43.45129" lon="1.6368">
        <ele>183</ele>
        <time>2024-01-20T15:13:38Z</time>
      </trkpt>
      <trkpt lat="43.45129" lon="1.6368">
        <ele>183</ele>
        <time>2024-01-20T15:13:39Z</time>
      </trkpt>
      <trkpt lat="43.45129" lon="1.63684">
        <ele>183</ele>
        <time>2024-01-20T15:13:40Z</time>
      </trkpt>
      <trkpt lat="43.45129" lon="1.63684">
        <ele>184</ele>
        <time>2024-01-20T15:13:41Z</time>
      </trkpt>
      <trkpt lat="43.45129" lon="1.63688">
        <ele>184</ele>
        <time>2024-01-20T15:13:42Z</time>
      </trkpt>
      <trkpt lat="43.45129" lon="1.63688">
        <ele>184</ele>
        <time>2024-01-20T15:13:43Z</time>
      </trkpt>
      <trkpt lat="43.45129" lon="1.63691">
        <ele>184</ele>
        <time>2024-01-20T15:13:44Z</time>
      </trkpt>
      <trkpt lat="43.45129" lon="1.63691">
        <ele>184</ele>
        <time>2024-01-20T15:13:45Z</time>
      </trkpt>
      <trkpt lat="43.45129" lon="1.63695">
        <ele>184</ele>
        <time>2024-01-20T15:13:46Z</time>
      </trkpt>
      <trkpt lat="43.45129" lon="1.63695">
        <ele>184</ele>
        <time>2024-01-20T15:13:47Z</time>
      </trkpt>
      <trkpt lat="43.45128" lon="1.63698">
        <ele>185</ele>
        <time>2024-01-20T15:13:48Z</time>
      </trkpt>
      <trkpt lat="43.45128" lon="1.63698">
        <ele>185</ele>
        <time>2024-01-20T15:13:49Z</time>
      </trkpt>
      <trkpt lat="43.45128" lon="1.63702">
        <ele>185</ele>
        <time>2024-01-20T15:13:50Z</time>
      </trkpt>
      <trkpt lat="43.45128" lon="1.63702">
        <ele>186</ele>
        <time>2024-01-20T15:13:51Z</time>
      </trkpt>
      <trkpt lat="43.45128" lon="1.63705">
        <ele>186</ele>
        <time>2024-01-20T15:13:52Z</time>
      </trkpt>
      <trkpt lat="43.45128" lon="1.63705">
        <ele>186</ele>
        <time>2024-01-20T15:13:53Z</time>
      </trkpt>
      <trkpt lat="43.45127" lon="1.63709">
        <ele>186</ele>
        <time>2024-01-20T15:13:54Z</time>
      </trkpt>
      <trkpt lat="43.45127" lon="1.63709">
        <ele>186</ele>
        <time>2024-01-20T15:13:55Z</time>
      </trkpt>
      <trkpt lat="43.45127" lon="1.63712">
        <ele>186</ele>
        <time>2024-01-20T15:13:56Z</time>
      </trkpt>
      <trkpt lat="43.45127" lon="1.63712">
        <ele>186</ele>
        <time>2024-01-20T15:13:57Z</time>
      </trkpt>
      <trkpt lat="43.45126" lon="1.63716">
        <ele>186</ele>
        <time>2024-01-20T15:13:58Z</time>
      </trkpt>
      <trkpt lat="43.45126" lon="1.6372">
        <ele>187</ele>
        <time>2024-01-20T15:14:00Z</time>
      </trkpt>
      <trkpt lat="43.45126" lon="1.6372">
        <ele>187</ele>
        <time>2024-01-20T15:14:01Z</time>
      </trkpt>
      <trkpt lat="43.45126" lon="1.63723">
        <ele>188</ele>
        <time>2024-01-20T15:14:02Z</time>
      </trkpt>
      <trkpt lat="43.45126" lon="1.63723">
        <ele>188</ele>
        <time>2024-01-20T15:14:03Z</time>
      </trkpt>
      <trkpt lat="43.45126" lon="1.63727">
        <ele>188</ele>
        <time>2024-01-20T15:14:04Z</time>
      </trkpt>
      <trkpt lat="43.45126" lon="1.63727">
        <ele>188</ele>
        <time>2024-01-20T15:14:05Z</time>
      </trkpt>
      <trkpt lat="43.45125" lon="1.6373">
        <ele>188</ele>
        <time>2024-01-20T15:14:06Z</time>
      </trkpt>
      <trkpt lat="43.45125" lon="1.6373">
        <ele>188</ele>
        <time>2024-01-20T15:14:07Z</time>
      </trkpt>
      <trkpt lat="43.45124" lon="1.63734">
        <ele>189</ele>
        <time>2024-01-20T15:14:08Z</time>
      </trkpt>
      <trkpt lat="43.45124" lon="1.63734">
        <ele>189</ele>
        <time>2024-01-20T15:14:09Z</time>
      </trkpt>
      <trkpt lat="43.45123" lon="1.63738">
        <ele>189</ele>
        <time>2024-01-20T15:14:10Z</time>
      </trkpt>
      <trkpt lat="43.45123" lon="1.63738">
        <ele>189</ele>
        <time>2024-01-20T15:14:11Z</time>
      </trkpt>
      <trkpt lat="43.45122" lon="1.63741">
        <ele>189</ele>
        <time>2024-01-20T15:14:12Z</time>
      </trkpt>
      <trkpt lat="43.45122" lon="1.63741">
        <ele>189</ele>
        <time>2024-01-20T15:14:13Z</time>
      </trkpt>
      <trkpt lat="43.45121" lon="1.63744">
        <ele>190</ele>
        <time>2024-01-20T15:14:14Z</time>
      </trkpt>
      <trkpt lat="43.45121" lon="1.63744">
        <ele>190</ele>
        <time>2024-01-20T15:14:15Z</time>
      </trkpt>
      <trkpt lat="43.45121" lon="1.63747">
        <ele>190</ele>
        <time>2024-01-20T15:14:16Z</time>
      </trkpt>
      <trkpt lat="43.45121" lon="1.63751">
        <ele>190</ele>
        <time>2024-01-20T15:14:18Z</time>
      </trkpt>
      <trkpt lat="43.45121" lon="1.63751">
        <ele>191</ele>
        <time>2024-01-20T15:14:19Z</time>
      </trkpt>
      <trkpt lat="43.4512" lon="1.63754">
        <ele>191</ele>
        <time>2024-01-20T15:14:20Z</time>
      </trkpt>
      <trkpt lat="43.4512" lon="1.63754">
        <ele>191</ele>
        <time>2024-01-20T15:14:21Z</time>
      </trkpt>
      <trkpt lat="43.45119" lon="1.63758">
        <ele>191</ele>
        <time>2024-01-20T15:14:22Z</time>
      </trkpt>
      <trkpt lat="43.45119" lon="1.63758">
        <ele>191</ele>
        <time>2024-01-20T15:14:23Z</time>
      </trkpt>
      <trkpt lat="43.45119" lon="1.63762">
        <ele>191</ele>
        <time>2024-01-20T15:14:24Z</time>
      </trkpt>
      <trkpt lat="43.45119" lon="1.63762">
        <ele>192</ele>
        <time>2024-01-20T15:14:25Z</time>
      </trkpt>
      <trkpt lat="43.45118" lon="1.63765">
        <ele>192</ele>
        <time>2024-01-20T15:14:26Z</time>
      </trkpt>
      <trkpt lat="43.45118" lon="1.63765">
        <ele>192</ele>
        <time>2024-01-20T15:14:27Z</time>
      </trkpt>
      <trkpt lat="43.45117" lon="1.63769">
        <ele>192</ele>
        <time>2024-01-20T15:14:28Z</time>
      </trkpt>
      <trkpt lat="43.45117" lon="1.63769">
        <ele>192</ele>
        <time>2024-01-20T15:14:29Z</time>
      </trkpt>
      <trkpt lat="43.45117" lon="1.63773">
        <ele>192</ele>
        <time>2024-01-20T15:14:30Z</time>
      </trkpt>
      <trkpt lat="43.45117" lon="1.63773">
        <ele>192</ele>
        <time>2024-01-20T15:14:31Z</time>
      </trkpt>
      <trkpt lat="43.45117" lon="1.63777">
        <ele>192</ele>
        <time>2024-01-20T15:14:32Z</time>
      </trkpt>
      <trkpt lat="43.45117" lon="1.63777">
        <ele>192</ele>
        <time>2024-01-20T15:14:33Z</time>
      </trkpt>
      <trkpt lat="43.45116" lon="1.63781">
        <ele>192</ele>
        <time>2024-01-20T15:14:34Z</time>
      </trkpt>
      <trkpt lat="43.45116" lon="1.63781">
        <ele>192</ele>
        <time>2024-01-20T15:14:35Z</time>
      </trkpt>
      <trkpt lat="43.45115" lon="1.63785">
        <ele>192</ele>
        <time>2024-01-20T15:14:36Z</time>
      </trkpt>
      <trkpt lat="43.45115" lon="1.63785">
        <ele>193</ele>
        <time>2024-01-20T15:14:37Z</time>
      </trkpt>
      <trkpt lat="43.45115" lon="1.63788">
        <ele>193</ele>
        <time>2024-01-20T15:14:38Z</time>
      </trkpt>
      <trkpt lat="43.45115" lon="1.63788">
        <ele>193</ele>
        <time>2024-01-20T15:14:39Z</time>
      </trkpt>
      <trkpt lat="43.45114" lon="1.63792">
        <ele>193</ele>
        <time>2024-01-20T15:14:40Z</time>
      </trkpt>
      <trkpt lat="43.45114" lon="1.63792">
        <ele>193</ele>
        <time>2024-01-20T15:14:41Z</time>
      </trkpt>
      <trkpt lat="43.45114" lon="1.63795">
        <ele>193</ele>
        <time>2024-01-20T15:14:42Z</time>
      </trkpt>
      <trkpt lat="43.45114" lon="1.63795">
        <ele>194</ele>
        <time>2024-01-20T15:14:43Z</time>
      </trkpt>
      <trkpt lat="43.45114" lon="1.63799">
        <ele>194</ele>
        <time>2024-01-20T15:14:44Z</time>
      </trkpt>
      <trkpt lat="43.45114" lon="1.63802">
        <ele>194</ele>
        <time>2024-01-20T15:14:46Z</time>
      </trkpt>
      <trkpt lat="43.45114" lon="1.63802">
        <ele>194</ele>
        <time>2024-01-20T15:14:47Z</time>
      </trkpt>
      <trkpt lat="43.45114" lon="1.63806">
        <ele>194</ele>
        <time>2024-01-20T15:14:48Z</time>
      </trkpt>
      <trkpt lat="43.45114" lon="1.63806">
        <ele>194</ele>
        <time>2024-01-20T15:14:49Z</time>
      </trkpt>
      <trkpt lat="43.45114" lon="1.6381">
        <ele>194</ele>
        <time>2024-01-20T15:14:50Z</time>
      </trkpt>
      <trkpt lat="43.45114" lon="1.6381">
        <ele>195</ele>
        <time>2024-01-20T15:14:51Z</time>
      </trkpt>
      <trkpt lat="43.45114" lon="1.63813">
        <ele>195</ele>
        <time>2024-01-20T15:14:52Z</time>
      </trkpt>
      <trkpt lat="43.45114" lon="1.63813">
        <ele>195</ele>
        <time>2024-01-20T15:14:53Z</time>
      </trkpt>
      <trkpt lat="43.45115" lon="1.63817">
        <ele>195</ele>
        <time>2024-01-20T15:14:54Z</time>
      </trkpt>
      <trkpt lat="43.45115" lon="1.63817">
        <ele>195</ele>
        <time>2024-01-20T15:14:55Z</time>
      </trkpt>
      <trkpt lat="43.45115" lon="1.63821">
        <ele>195</ele>
        <time>2024-01-20T15:14:56Z</time>
      </trkpt>
      <trkpt lat="43.45115" lon="1.63821">
        <ele>195</ele>
        <time>2024-01-20T15:14:57Z</time>
      </trkpt>
      <trkpt lat="43.45115" lon="1.63824">
        <ele>195</ele>
        <time>2024-01-20T15:14:58Z</time>
      </trkpt>
      <trkpt lat="43.45116" lon="1.63827">
        <ele>196</ele>
        <time>2024-01-20T15:14:59Z</time>
      </trkpt>
      <trkpt lat="43.45116" lon="1.63827">
        <ele>197</ele>
        <time>2024-01-20T15:15:00Z</time>
      </trkpt>
      <trkpt lat="43.45116" lon="1.63827">
        <ele>197</ele>
        <time>2024-01-20T15:15:01Z</time>
      </trkpt>
      <trkpt lat="43.45117" lon="1.6383">
        <ele>197</ele>
        <time>2024-01-20T15:15:02Z</time>
      </trkpt>
      <trkpt lat="43.45117" lon="1.6383">
        <ele>197</ele>
        <time>2024-01-20T15:15:03Z</time>
      </trkpt>
      <trkpt lat="43.45118" lon="1.63833">
        <ele>197</ele>
        <time>2024-01-20T15:15:04Z</time>
      </trkpt>
      <trkpt lat="43.45118" lon="1.63833">
        <ele>197</ele>
        <time>2024-01-20T15:15:05Z</time>
      </trkpt>
      <trkpt lat="43.4512" lon="1.63835">
        <ele>197</ele>
        <time>2024-01-20T15:15:06Z</time>
      </trkpt>
      <trkpt lat="43.4512" lon="1.63835">
        <ele>198</ele>
        <time>2024-01-20T15:15:07Z</time>
      </trkpt>
      <trkpt lat="43.45122" lon="1.63837">
        <ele>198</ele>
        <time>2024-01-20T15:15:08Z</time>
      </trkpt>
      <trkpt lat="43.45122" lon="1.63837">
        <ele>198</ele>
        <time>2024-01-20T15:15:09Z</time>
      </trkpt>
      <trkpt lat="43.45124" lon="1.6384">
        <ele>198</ele>
        <time>2024-01-20T15:15:10Z</time>
      </trkpt>
      <trkpt lat="43.45124" lon="1.6384">
        <ele>199</ele>
        <time>2024-01-20T15:15:11Z</time>
      </trkpt>
      <trkpt lat="43.45126" lon="1.63842">
        <ele>199</ele>
        <time>2024-01-20T15:15:12Z</time>
      </trkpt>
      <trkpt lat="43.45127" lon="1.63844">
        <ele>200</ele>
        <time>2024-01-20T15:15:14Z</time>
      </trkpt>
      <trkpt lat="43.45129" lon="1.63846">
        <ele>200</ele>
        <time>2024-01-20T15:15:16Z</time>
      </trkpt>
      <trkpt lat="43.45129" lon="1.63846">
        <ele>200</ele>
        <time>2024-01-20T15:15:17Z</time>
      </trkpt>
      <trkpt lat="43.45131" lon="1.63847">
        <ele>200</ele>
        <time>2024-01-20T15:15:18Z</time>
      </trkpt>
      <trkpt lat="43.45131" lon="1.63847">
        <ele>200</ele>
        <time>2024-01-20T15:15:19Z</time>
      </trkpt>
      <trkpt lat="43.45134" lon="1.6385">
        <ele>201</ele>
        <time>2024-01-20T15:15:20Z</time>
      </trkpt>
      <trkpt lat="43.45134" lon="1.6385">
        <ele>201</ele>
        <time>2024-01-20T15:15:21Z</time>
      </trkpt>
      <trkpt lat="43.45136" lon="1.63852">
        <ele>201</ele>
        <time>2024-01-20T15:15:22Z</time>
      </trkpt>
      <trkpt lat="43.45138" lon="1.63855">
        <ele>201</ele>
        <time>2024-01-20T15:15:24Z</time>
      </trkpt>
      <trkpt lat="43.45138" lon="1.63855">
        <ele>201</ele>
        <time>2024-01-20T15:15:25Z</time>
      </trkpt>
      <trkpt lat="43.4514" lon="1.63858">
        <ele>202</ele>
        <time>2024-01-20T15:15:26Z</time>
      </trkpt>
      <trkpt lat="43.4514" lon="1.63858">
        <ele>202</ele>
        <time>2024-01-20T15:15:27Z</time>
      </trkpt>
      <trkpt lat="43.45141" lon="1.63862">
        <ele>202</ele>
        <time>2024-01-20T15:15:28Z</time>
      </trkpt>
      <trkpt lat="43.45141" lon="1.63864">
        <ele>202</ele>
        <time>2024-01-20T15:15:29Z</time>
      </trkpt>
      <trkpt lat="43.4514" lon="1.63869">
        <ele>202</ele>
        <time>2024-01-20T15:15:30Z</time>
      </trkpt>
      <trkpt lat="43.4514" lon="1.63871">
        <ele>202</ele>
        <time>2024-01-20T15:15:31Z</time>
      </trkpt>
      <trkpt lat="43.45139" lon="1.63874">
        <ele>202</ele>
        <time>2024-01-20T15:15:32Z</time>
      </trkpt>
      <trkpt lat="43.45138" lon="1.63877">
        <ele>203</ele>
        <time>2024-01-20T15:15:33Z</time>
      </trkpt>
      <trkpt lat="43.45136" lon="1.63881">
        <ele>203</ele>
        <time>2024-01-20T15:15:34Z</time>
      </trkpt>
      <trkpt lat="43.45135" lon="1.63883">
        <ele>203</ele>
        <time>2024-01-20T15:15:35Z</time>
      </trkpt>
      <trkpt lat="43.45134" lon="1.63885">
        <ele>203</ele>
        <time>2024-01-20T15:15:36Z</time>
      </trkpt>
      <trkpt lat="43.45131" lon="1.63889">
        <ele>203</ele>
        <time>2024-01-20T15:15:37Z</time>
      </trkpt>
      <trkpt lat="43.4513" lon="1.63891">
        <ele>203</ele>
        <time>2024-01-20T15:15:38Z</time>
      </trkpt>
      <trkpt lat="43.45128" lon="1.63895">
        <ele>203</ele>
        <time>2024-01-20T15:15:39Z</time>
      </trkpt>
      <trkpt lat="43.45127" lon="1.63896">
        <ele>203</ele>
        <time>2024-01-20T15:15:40Z</time>
      </trkpt>
      <trkpt lat="43.45126" lon="1.63899">
        <ele>203</ele>
        <time>2024-01-20T15:15:41Z</time>
      </trkpt>
      <trkpt lat="43.45125" lon="1.63902">
        <ele>203</ele>
        <time>2024-01-20T15:15:42Z</time>
      </trkpt>
      <trkpt lat="43.45123" lon="1.63905">
        <ele>203</ele>
        <time>2024-01-20T15:15:43Z</time>
      </trkpt>
      <trkpt lat="43.45122" lon="1.63908">
        <ele>203</ele>
        <time>2024-01-20T15:15:44Z</time>
      </trkpt>
      <trkpt lat="43.45121" lon="1.63911">
        <ele>203</ele>
        <time>2024-01-20T15:15:45Z</time>
      </trkpt>
      <trkpt lat="43.4512" lon="1.63914">
        <ele>203</ele>
        <time>2024-01-20T15:15:46Z</time>
      </trkpt>
      <trkpt lat="43.45119" lon="1.63917">
        <ele>204</ele>
        <time>2024-01-20T15:15:47Z</time>
      </trkpt>
      <trkpt lat="43.45118" lon="1.6392">
        <ele>204</ele>
        <time>2024-01-20T15:15:48Z</time>
      </trkpt>
      <trkpt lat="43.45118" lon="1.63923">
        <ele>204</ele>
        <time>2024-01-20T15:15:49Z</time>
      </trkpt>
      <trkpt lat="43.45117" lon="1.63926">
        <ele>204</ele>
        <time>2024-01-20T15:15:50Z</time>
      </trkpt>
      <trkpt lat="43.45116" lon="1.63929">
        <ele>204</ele>
        <time>2024-01-20T15:15:51Z</time>
      </trkpt>
      <trkpt lat="43.45114" lon="1.63932">
        <ele>204</ele>
        <time>2024-01-20T15:15:52Z</time>
      </trkpt>
      <trkpt lat="43.45113" lon="1.63936">
        <ele>204</ele>
        <time>2024-01-20T15:15:53Z</time>
      </trkpt>
      <trkpt lat="43.45112" lon="1.63938">
        <ele>204</ele>
        <time>2024-01-20T15:15:54Z</time>
      </trkpt>
      <trkpt lat="43.45111" lon="1.63941">
        <ele>204</ele>
        <time>2024-01-20T15:15:55Z</time>
      </trkpt>
      <trkpt lat="43.45109" lon="1.63943">
        <ele>204</ele>
        <time>2024-01-20T15:15:56Z</time>
      </trkpt>
      <trkpt lat="43.45107" lon="1.63947">
        <ele>204</ele>
        <time>2024-01-20T15:15:57Z</time>
      </trkpt>
      <trkpt lat="43.45106" lon="1.63948">
        <ele>204</ele>
        <time>2024-01-20T15:15:58Z</time>
      </trkpt>
      <trkpt lat="43.45104" lon="1.63952">
        <ele>204</ele>
        <time>2024-01-20T15:15:59Z</time>
      </trkpt>
      <trkpt lat="43.45103" lon="1.63954">
        <ele>205</ele>
        <time>2024-01-20T15:16:00Z</time>
      </trkpt>
      <trkpt lat="43.45101" lon="1.63956">
        <ele>205</ele>
        <time>2024-01-20T15:16:01Z</time>
      </trkpt>
      <trkpt lat="43.45099" lon="1.63959">
        <ele>205</ele>
        <time>2024-01-20T15:16:02Z</time>
      </trkpt>
      <trkpt lat="43.45098" lon="1.63962">
        <ele>205</ele>
        <time>2024-01-20T15:16:03Z</time>
      </trkpt>
      <trkpt lat="43.45096" lon="1.63965">
        <ele>205</ele>
        <time>2024-01-20T15:16:04Z</time>
      </trkpt>
      <trkpt lat="43.45094" lon="1.63968">
        <ele>205</ele>
        <time>2024-01-20T15:16:05Z</time>
      </trkpt>
      <trkpt lat="43.45091" lon="1.63971">
        <ele>205</ele>
        <time>2024-01-20T15:16:06Z</time>
      </trkpt>
      <trkpt lat="43.45091" lon="1.63973">
        <ele>205</ele>
        <time>2024-01-20T15:16:07Z</time>
      </trkpt>
      <trkpt lat="43.45089" lon="1.63976">
        <ele>205</ele>
        <time>2024-01-20T15:16:08Z</time>
      </trkpt>
      <trkpt lat="43.45087" lon="1.63978">
        <ele>205</ele>
        <time>2024-01-20T15:16:09Z</time>
      </trkpt>
      <trkpt lat="43.45085" lon="1.63981">
        <ele>205</ele>
        <time>2024-01-20T15:16:10Z</time>
      </trkpt>
      <trkpt lat="43.45083" lon="1.63984">
        <ele>205</ele>
        <time>2024-01-20T15:16:11Z</time>
      </trkpt>
      <trkpt lat="43.45081" lon="1.63988">
        <ele>205</ele>
        <time>2024-01-20T15:16:12Z</time>
      </trkpt>
      <trkpt lat="43.4508" lon="1.63989">
        <ele>205</ele>
        <time>2024-01-20T15:16:13Z</time>
      </trkpt>
      <trkpt lat="43.45078" lon="1.63992">
        <ele>205</ele>
        <time>2024-01-20T15:16:14Z</time>
      </trkpt>
      <trkpt lat="43.45076" lon="1.63995">
        <ele>205</ele>
        <time>2024-01-20T15:16:15Z</time>
      </trkpt>
      <trkpt lat="43.45073" lon="1.64">
        <ele>205</ele>
        <time>2024-01-20T15:16:16Z</time>
      </trkpt>
      <trkpt lat="43.45072" lon="1.64002">
        <ele>204</ele>
        <time>2024-01-20T15:16:17Z</time>
      </trkpt>
      <trkpt lat="43.4507" lon="1.64005">
        <ele>204</ele>
        <time>2024-01-20T15:16:18Z</time>
      </trkpt>
      <trkpt lat="43.45068" lon="1.64007">
        <ele>204</ele>
        <time>2024-01-20T15:16:19Z</time>
      </trkpt>
      <trkpt lat="43.45066" lon="1.6401">
        <ele>204</ele>
        <time>2024-01-20T15:16:20Z</time>
      </trkpt>
      <trkpt lat="43.45064" lon="1.64013">
        <ele>204</ele>
        <time>2024-01-20T15:16:21Z</time>
      </trkpt>
      <trkpt lat="43.45062" lon="1.64016">
        <ele>203</ele>
        <time>2024-01-20T15:16:22Z</time>
      </trkpt>
      <trkpt lat="43.45061" lon="1.64018">
        <ele>203</ele>
        <time>2024-01-20T15:16:23Z</time>
      </trkpt>
      <trkpt lat="43.45059" lon="1.64021">
        <ele>203</ele>
        <time>2024-01-20T15:16:24Z</time>
      </trkpt>
      <trkpt lat="43.45057" lon="1.64024">
        <ele>203</ele>
        <time>2024-01-20T15:16:25Z</time>
      </trkpt>
      <trkpt lat="43.45055" lon="1.64027">
        <ele>202</ele>
        <time>2024-01-20T15:16:26Z</time>
      </trkpt>
      <trkpt lat="43.45053" lon="1.64031">
        <ele>202</ele>
        <time>2024-01-20T15:16:27Z</time>
      </trkpt>
      <trkpt lat="43.45052" lon="1.64034">
        <ele>201</ele>
        <time>2024-01-20T15:16:28Z</time>
      </trkpt>
      <trkpt lat="43.4505" lon="1.64039">
        <ele>201</ele>
        <time>2024-01-20T15:16:29Z</time>
      </trkpt>
      <trkpt lat="43.45049" lon="1.6404">
        <ele>200</ele>
        <time>2024-01-20T15:16:30Z</time>
      </trkpt>
      <trkpt lat="43.45047" lon="1.64045">
        <ele>200</ele>
        <time>2024-01-20T15:16:31Z</time>
      </trkpt>
      <trkpt lat="43.45046" lon="1.64047">
        <ele>201</ele>
        <time>2024-01-20T15:16:32Z</time>
      </trkpt>
      <trkpt lat="43.45045" lon="1.6405">
        <ele>201</ele>
        <time>2024-01-20T15:16:33Z</time>
      </trkpt>
      <trkpt lat="43.45043" lon="1.64055">
        <ele>201</ele>
        <time>2024-01-20T15:16:34Z</time>
      </trkpt>
      <trkpt lat="43.45042" lon="1.64056">
        <ele>201</ele>
        <time>2024-01-20T15:16:35Z</time>
      </trkpt>
      <trkpt lat="43.45041" lon="1.64059">
        <ele>201</ele>
        <time>2024-01-20T15:16:36Z</time>
      </trkpt>
      <trkpt lat="43.4504" lon="1.64062">
        <ele>201</ele>
        <time>2024-01-20T15:16:37Z</time>
      </trkpt>
      <trkpt lat="43.45038" lon="1.64065">
        <ele>201</ele>
        <time>2024-01-20T15:16:38Z</time>
      </trkpt>
      <trkpt lat="43.45036" lon="1.64068">
        <ele>201</ele>
        <time>2024-01-20T15:16:39Z</time>
      </trkpt>
      <trkpt lat="43.45035" lon="1.64071">
        <ele>201</ele>
        <time>2024-01-20T15:16:40Z</time>
      </trkpt>
      <trkpt lat="43.45033" lon="1.64074">
        <ele>201</ele>
        <time>2024-01-20T15:16:41Z</time>
      </trkpt>
      <trkpt lat="43.45031" lon="1.64077">
        <ele>201</ele>
        <time>2024-01-20T15:16:42Z</time>
      </trkpt>
      <trkpt lat="43.45029" lon="1.64079">
        <ele>201</ele>
        <time>2024-01-20T15:16:43Z</time>
      </trkpt>
      <trkpt lat="43.45027" lon="1.64082">
        <ele>201</ele>
        <time>2024-01-20T15:16:44Z</time>
      </trkpt>
      <trkpt lat="43.45026" lon="1.64084">
        <ele>201</ele>
        <time>2024-01-20T15:16:45Z</time>
      </trkpt>
      <trkpt lat="43.45024" lon="1.64087">
        <ele>201</ele>
        <time>2024-01-20T15:16:46Z</time>
      </trkpt>
      <trkpt lat="43.45022" lon="1.64089">
        <ele>201</ele>
        <time>2024-01-20T15:16:47Z</time>
      </trkpt>
      <trkpt lat="43.45019" lon="1.64091">
        <ele>201</ele>
        <time>2024-01-20T15:16:48Z</time>
      </trkpt>
      <trkpt lat="43.45017" lon="1.64093">
        <ele>201</ele>
        <time>2024-01-20T15:16:49Z</time>
      </trkpt>
      <trkpt lat="43.45014" lon="1.64097">
        <ele>201</ele>
        <time>2024-01-20T15:16:50Z</time>
      </trkpt>
      <trkpt lat="43.45014" lon="1.64098">
        <ele>201</ele>
        <time>2024-01-20T15:16:51Z</time>
      </trkpt>
      <trkpt lat="43.45012" lon="1.641">
        <ele>201</ele>
        <time>2024-01-20T15:16:52Z</time>
      </trkpt>
      <trkpt lat="43.45009" lon="1.64103">
        <ele>201</ele>
        <time>2024-01-20T15:16:53Z</time>
      </trkpt>
      <trkpt lat="43.45008" lon="1.64104">
        <ele>201</ele>
        <time>2024-01-20T15:16:54Z</time>
      </trkpt>
      <trkpt lat="43.45006" lon="1.64108">
        <ele>201</ele>
        <time>2024-01-20T15:16:55Z</time>
      </trkpt>
      <trkpt lat="43.45005" lon="1.6411">
        <ele>201</ele>
        <time>2024-01-20T15:16:56Z</time>
      </trkpt>
      <trkpt lat="43.45003" lon="1.64112">
        <ele>201</ele>
        <time>2024-01-20T15:16:57Z</time>
      </trkpt>
      <trkpt lat="43.45002" lon="1.64114">
        <ele>201</ele>
        <time>2024-01-20T15:16:58Z</time>
      </trkpt>
      <trkpt lat="43.45" lon="1.64117">
        <ele>201</ele>
        <time>2024-01-20T15:16:59Z</time>
      </trkpt>
      <trkpt lat="43.44999" lon="1.6412">
        <ele>201</ele>
        <time>2024-01-20T15:17:00Z</time>
      </trkpt>
      <trkpt lat="43.44997" lon="1.64122">
        <ele>201</ele>
        <time>2024-01-20T15:17:01Z</time>
      </trkpt>
      <trkpt lat="43.44996" lon="1.64125">
        <ele>202</ele>
        <time>2024-01-20T15:17:02Z</time>
      </trkpt>
      <trkpt lat="43.44994" lon="1.64128">
        <ele>202</ele>
        <time>2024-01-20T15:17:03Z</time>
      </trkpt>
      <trkpt lat="43.44993" lon="1.6413">
        <ele>202</ele>
        <time>2024-01-20T15:17:04Z</time>
      </trkpt>
      <trkpt lat="43.44992" lon="1.64133">
        <ele>202</ele>
        <time>2024-01-20T15:17:05Z</time>
      </trkpt>
      <trkpt lat="43.44991" lon="1.64136">
        <ele>202</ele>
        <time>2024-01-20T15:17:06Z</time>
      </trkpt>
      <trkpt lat="43.4499" lon="1.64138">
        <ele>202</ele>
        <time>2024-01-20T15:17:07Z</time>
      </trkpt>
      <trkpt lat="43.44989" lon="1.64141">
        <ele>202</ele>
        <time>2024-01-20T15:17:08Z</time>
      </trkpt>
      <trkpt lat="43.44987" lon="1.64145">
        <ele>202</ele>
        <time>2024-01-20T15:17:09Z</time>
      </trkpt>
      <trkpt lat="43.44986" lon="1.64147">
        <ele>202</ele>
        <time>2024-01-20T15:17:10Z</time>
      </trkpt>
      <trkpt lat="43.44985" lon="1.6415">
        <ele>202</ele>
        <time>2024-01-20T15:17:11Z</time>
      </trkpt>
      <trkpt lat="43.44984" lon="1.64153">
        <ele>202</ele>
        <time>2024-01-20T15:17:12Z</time>
      </trkpt>
      <trkpt lat="43.44983" lon="1.64156">
        <ele>202</ele>
        <time>2024-01-20T15:17:13Z</time>
      </trkpt>
      <trkpt lat="43.44982" lon="1.6416">
        <ele>202</ele>
        <time>2024-01-20T15:17:14Z</time>
      </trkpt>
      <trkpt lat="43.44981" lon="1.64161">
        <ele>203</ele>
        <time>2024-01-20T15:17:15Z</time>
      </trkpt>
      <trkpt lat="43.4498" lon="1.64166">
        <ele>203</ele>
        <time>2024-01-20T15:17:16Z</time>
      </trkpt>
      <trkpt lat="43.44979" lon="1.64168">
        <ele>203</ele>
        <time>2024-01-20T15:17:17Z</time>
      </trkpt>
      <trkpt lat="43.44978" lon="1.64171">
        <ele>203</ele>
        <time>2024-01-20T15:17:18Z</time>
      </trkpt>
      <trkpt lat="43.44977" lon="1.64174">
        <ele>203</ele>
        <time>2024-01-20T15:17:19Z</time>
      </trkpt>
      <trkpt lat="43.44976" lon="1.64177">
        <ele>203</ele>
        <time>2024-01-20T15:17:20Z</time>
      </trkpt>
      <trkpt lat="43.44975" lon="1.6418">
        <ele>203</ele>
        <time>2024-01-20T15:17:21Z</time>
      </trkpt>
      <trkpt lat="43.44974" lon="1.64184">
        <ele>203</ele>
        <time>2024-01-20T15:17:22Z</time>
      </trkpt>
      <trkpt lat="43.44973" lon="1.64189">
        <ele>203</ele>
        <time>2024-01-20T15:17:23Z</time>
      </trkpt>
      <trkpt lat="43.44972" lon="1.6419">
        <ele>203</ele>
        <time>2024-01-20T15:17:24Z</time>
      </trkpt>
      <trkpt lat="43.44971" lon="1.64194">
        <ele>203</ele>
        <time>2024-01-20T15:17:25Z</time>
      </trkpt>
      <trkpt lat="43.4497" lon="1.64197">
        <ele>203</ele>
        <time>2024-01-20T15:17:26Z</time>
      </trkpt>
      <trkpt lat="43.4497" lon="1.642">
        <ele>203</ele>
        <time>2024-01-20T15:17:27Z</time>
      </trkpt>
      <trkpt lat="43.44968" lon="1.64205">
        <ele>203</ele>
        <time>2024-01-20T15:17:28Z</time>
      </trkpt>
      <trkpt lat="43.44968" lon="1.64206">
        <ele>203</ele>
        <time>2024-01-20T15:17:29Z</time>
      </trkpt>
      <trkpt lat="43.44967" lon="1.64209">
        <ele>203</ele>
        <time>2024-01-20T15:17:30Z</time>
      </trkpt>
      <trkpt lat="43.44966" lon="1.64212">
        <ele>203</ele>
        <time>2024-01-20T15:17:31Z</time>
      </trkpt>
      <trkpt lat="43.44965" lon="1.64215">
        <ele>203</ele>
        <time>2024-01-20T15:17:32Z</time>
      </trkpt>
      <trkpt lat="43.44964" lon="1.64218">
        <ele>203</ele>
        <time>2024-01-20T15:17:33Z</time>
      </trkpt>
      <trkpt lat="43.44963" lon="1.64223">
        <ele>203</ele>
        <time>2024-01-20T15:17:34Z</time>
      </trkpt>
      <trkpt lat="43.44963" lon="1.64225">
        <ele>203</ele>
        <time>2024-01-20T15:17:35Z</time>
      </trkpt>
      <trkpt lat="43.44962" lon="1.6423">
        <ele>203</ele>
        <time>2024-01-20T15:17:36Z</time>
      </trkpt>
      <trkpt lat="43.44962" lon="1.64232">
        <ele>203</ele>
        <time>2024-01-20T15:17:37Z</time>
      </trkpt>
      <trkpt lat="43.44963" lon="1.64234">
        <ele>203</ele>
        <time>2024-01-20T15:17:38Z</time>
      </trkpt>
      <trkpt lat="43.44964" lon="1.64236">
        <ele>203</ele>
        <time>2024-01-20T15:17:39Z</time>
      </trkpt>
      <trkpt lat="43.44965" lon="1.64238">
        <ele>203</ele>
        <time>2024-01-20T15:17:40Z</time>
      </trkpt>
      <trkpt lat="43.44967" lon="1.6424">
        <ele>203</ele>
        <time>2024-01-20T15:17:41Z</time>
      </trkpt>
      <trkpt lat="43.44969" lon="1.64241">
        <ele>203</ele>
        <time>2024-01-20T15:17:42Z</time>
      </trkpt>
      <trkpt lat="43.44971" lon="1.64242">
        <ele>203</ele>
        <time>2024-01-20T15:17:43Z</time>
      </trkpt>
      <trkpt lat="43.44973" lon="1.64243">
        <ele>203</ele>
        <time>2024-01-20T15:17:44Z</time>
      </trkpt>
      <trkpt lat="43.44975" lon="1.64244">
        <ele>203</ele>
        <time>2024-01-20T15:17:45Z</time>
      </trkpt>
      <trkpt lat="43.44978" lon="1.64245">
        <ele>203</ele>
        <time>2024-01-20T15:17:46Z</time>
      </trkpt>
      <trkpt lat="43.4498" lon="1.64246">
        <ele>203</ele>
        <time>2024-01-20T15:17:47Z</time>
      </trkpt>
      <trkpt lat="43.44982" lon="1.64248">
        <ele>204</ele>
        <time>2024-01-20T15:17:48Z</time>
      </trkpt>
      <trkpt lat="43.44984" lon="1.64249">
        <ele>204</ele>
        <time>2024-01-20T15:17:49Z</time>
      </trkpt>
      <trkpt lat="43.44986" lon="1.6425">
        <ele>205</ele>
        <time>2024-01-20T15:17:50Z</time>
      </trkpt>
      <trkpt lat="43.44988" lon="1.64251">
        <ele>205</ele>
        <time>2024-01-20T15:17:51Z</time>
      </trkpt>
      <trkpt lat="43.4499" lon="1.64252">
        <ele>205</ele>
        <time>2024-01-20T15:17:52Z</time>
      </trkpt>
      <trkpt lat="43.44992" lon="1.64253">
        <ele>206</ele>
        <time>2024-01-20T15:17:53Z</time>
      </trkpt>
      <trkpt lat="43.44994" lon="1.64254">
        <ele>206</ele>
        <time>2024-01-20T15:17:54Z</time>
      </trkpt>
      <trkpt lat="43.44996" lon="1.64255">
        <ele>206</ele>
        <time>2024-01-20T15:17:55Z</time>
      </trkpt>
      <trkpt lat="43.44998" lon="1.64256">
        <ele>206</ele>
        <time>2024-01-20T15:17:56Z</time>
      </trkpt>
      <trkpt lat="43.45" lon="1.64257">
        <ele>206</ele>
        <time>2024-01-20T15:17:57Z</time>
      </trkpt>
      <trkpt lat="43.45002" lon="1.64258">
        <ele>206</ele>
        <time>2024-01-20T15:17:58Z</time>
      </trkpt>
      <trkpt lat="43.45004" lon="1.64259">
        <ele>207</ele>
        <time>2024-01-20T15:17:59Z</time>
      </trkpt>
      <trkpt lat="43.45006" lon="1.6426">
        <ele>207</ele>
        <time>2024-01-20T15:18:00Z</time>
      </trkpt>
      <trkpt lat="43.45008" lon="1.64261">
        <ele>207</ele>
        <time>2024-01-20T15:18:01Z</time>
      </trkpt>
      <trkpt lat="43.4501" lon="1.64262">
        <ele>207</ele>
        <time>2024-01-20T15:18:02Z</time>
      </trkpt>
      <trkpt lat="43.45012" lon="1.64263">
        <ele>207</ele>
        <time>2024-01-20T15:18:03Z</time>
      </trkpt>
      <trkpt lat="43.45014" lon="1.64263">
        <ele>208</ele>
        <time>2024-01-20T15:18:04Z</time>
      </trkpt>
      <trkpt lat="43.45016" lon="1.64264">
        <ele>208</ele>
        <time>2024-01-20T15:18:05Z</time>
      </trkpt>
      <trkpt lat="43.45018" lon="1.64265">
        <ele>208</ele>
        <time>2024-01-20T15:18:06Z</time>
      </trkpt>
      <trkpt lat="43.45019" lon="1.64266">
        <ele>208</ele>
        <time>2024-01-20T15:18:07Z</time>
      </trkpt>
      <trkpt lat="43.45021" lon="1.64268">
        <ele>208</ele>
        <time>2024-01-20T15:18:08Z</time>
      </trkpt>
      <trkpt lat="43.45023" lon="1.64269">
        <ele>208</ele>
        <time>2024-01-20T15:18:09Z</time>
      </trkpt>
      <trkpt lat="43.45025" lon="1.6427">
        <ele>208</ele>
        <time>2024-01-20T15:18:10Z</time>
      </trkpt>
      <trkpt lat="43.45027" lon="1.64271">
        <ele>209</ele>
        <time>2024-01-20T15:18:11Z</time>
      </trkpt>
      <trkpt lat="43.45029" lon="1.64272">
        <ele>209</ele>
        <time>2024-01-20T15:18:12Z</time>
      </trkpt>
      <trkpt lat="43.45031" lon="1.64272">
        <ele>210</ele>
        <time>2024-01-20T15:18:13Z</time>
      </trkpt>
      <trkpt lat="43.45033" lon="1.64274">
        <ele>210</ele>
        <time>2024-01-20T15:18:14Z</time>
      </trkpt>
      <trkpt lat="43.45036" lon="1.64275">
        <ele>210</ele>
        <time>2024-01-20T15:18:15Z</time>
      </trkpt>
      <trkpt lat="43.45036" lon="1.64276">
        <ele>210</ele>
        <time>2024-01-20T15:18:16Z</time>
      </trkpt>
      <trkpt lat="43.45038" lon="1.64277">
        <ele>210</ele>
        <time>2024-01-20T15:18:17Z</time>
      </trkpt>
      <trkpt lat="43.4504" lon="1.64279">
        <ele>210</ele>
        <time>2024-01-20T15:18:18Z</time>
      </trkpt>
      <trkpt lat="43.45042" lon="1.6428">
        <ele>210</ele>
        <time>2024-01-20T15:18:19Z</time>
      </trkpt>
      <trkpt lat="43.45044" lon="1.64281">
        <ele>210</ele>
        <time>2024-01-20T15:18:20Z</time>
      </trkpt>
      <trkpt lat="43.45047" lon="1.64284">
        <ele>210</ele>
        <time>2024-01-20T15:18:21Z</time>
      </trkpt>
      <trkpt lat="43.45048" lon="1.64284">
        <ele>210</ele>
        <time>2024-01-20T15:18:22Z</time>
      </trkpt>
      <trkpt lat="43.4505" lon="1.64286">
        <ele>210</ele>
        <time>2024-01-20T15:18:23Z</time>
      </trkpt>
      <trkpt lat="43.45052" lon="1.64288">
        <ele>210</ele>
        <time>2024-01-20T15:18:24Z</time>
      </trkpt>
      <trkpt lat="43.45055" lon="1.64291">
        <ele>210</ele>
        <time>2024-01-20T15:18:25Z</time>
      </trkpt>
      <trkpt lat="43.45055" lon="1.64292">
        <ele>211</ele>
        <time>2024-01-20T15:18:26Z</time>
      </trkpt>
      <trkpt lat="43.45057" lon="1.64294">
        <ele>211</ele>
        <time>2024-01-20T15:18:27Z</time>
      </trkpt>
      <trkpt lat="43.45059" lon="1.64296">
        <ele>212</ele>
        <time>2024-01-20T15:18:28Z</time>
      </trkpt>
      <trkpt lat="43.4506" lon="1.64298">
        <ele>212</ele>
        <time>2024-01-20T15:18:29Z</time>
      </trkpt>
      <trkpt lat="43.45062" lon="1.64301">
        <ele>212</ele>
        <time>2024-01-20T15:18:30Z</time>
      </trkpt>
      <trkpt lat="43.45063" lon="1.64303">
        <ele>212</ele>
        <time>2024-01-20T15:18:31Z</time>
      </trkpt>
      <trkpt lat="43.45064" lon="1.64305">
        <ele>212</ele>
        <time>2024-01-20T15:18:32Z</time>
      </trkpt>
      <trkpt lat="43.45066" lon="1.64307">
        <ele>212</ele>
        <time>2024-01-20T15:18:33Z</time>
      </trkpt>
      <trkpt lat="43.45067" lon="1.6431">
        <ele>213</ele>
        <time>2024-01-20T15:18:34Z</time>
      </trkpt>
      <trkpt lat="43.45069" lon="1.64312">
        <ele>213</ele>
        <time>2024-01-20T15:18:35Z</time>
      </trkpt>
      <trkpt lat="43.4507" lon="1.64315">
        <ele>213</ele>
        <time>2024-01-20T15:18:36Z</time>
      </trkpt>
      <trkpt lat="43.45071" lon="1.64318">
        <ele>213</ele>
        <time>2024-01-20T15:18:37Z</time>
      </trkpt>
      <trkpt lat="43.45073" lon="1.6432">
        <ele>213</ele>
        <time>2024-01-20T15:18:38Z</time>
      </trkpt>
      <trkpt lat="43.45074" lon="1.64323">
        <ele>213</ele>
        <time>2024-01-20T15:18:39Z</time>
      </trkpt>
      <trkpt lat="43.45075" lon="1.64326">
        <ele>214</ele>
        <time>2024-01-20T15:18:40Z</time>
      </trkpt>
      <trkpt lat="43.45076" lon="1.64328">
        <ele>214</ele>
        <time>2024-01-20T15:18:41Z</time>
      </trkpt>
      <trkpt lat="43.45077" lon="1.64331">
        <ele>214</ele>
        <time>2024-01-20T15:18:42Z</time>
      </trkpt>
      <trkpt lat="43.45078" lon="1.64334">
        <ele>214</ele>
        <time>2024-01-20T15:18:43Z</time>
      </trkpt>
      <trkpt lat="43.4508" lon="1.64337">
        <ele>214</ele>
        <time>2024-01-20T15:18:44Z</time>
      </trkpt>
      <trkpt lat="43.4508" lon="1.6434">
        <ele>214</ele>
        <time>2024-01-20T15:18:45Z</time>
      </trkpt>
      <trkpt lat="43.45082" lon="1.64343">
        <ele>214</ele>
        <time>2024-01-20T15:18:46Z</time>
      </trkpt>
      <trkpt lat="43.45083" lon="1.64346">
        <ele>214</ele>
        <time>2024-01-20T15:18:47Z</time>
      </trkpt>
      <trkpt lat="43.45083" lon="1.64349">
        <ele>214</ele>
        <time>2024-01-20T15:18:48Z</time>
      </trkpt>
      <trkpt lat="43.45084" lon="1.64352">
        <ele>214</ele>
        <time>2024-01-20T15:18:49Z</time>
      </trkpt>
      <trkpt lat="43.45086" lon="1.64357">
        <ele>214</ele>
        <time>2024-01-20T15:18:50Z</time>
      </trkpt>
      <trkpt lat="43.45087" lon="1.64358">
        <ele>214</ele>
        <time>2024-01-20T15:18:51Z</time>
      </trkpt>
      <trkpt lat="43.45088" lon="1.64361">
        <ele>214</ele>
        <time>2024-01-20T15:18:52Z</time>
      </trkpt>
      <trkpt lat="43.45089" lon="1.64364">
        <ele>214</ele>
        <time>2024-01-20T15:18:53Z</time>
      </trkpt>
      <trkpt lat="43.45091" lon="1.64367">
        <ele>214</ele>
        <time>2024-01-20T15:18:54Z</time>
      </trkpt>
      <trkpt lat="43.45092" lon="1.6437">
        <ele>214</ele>
        <time>2024-01-20T15:18:55Z</time>
      </trkpt>
      <trkpt lat="43.45093" lon="1.64373">
        <ele>214</ele>
        <time>2024-01-20T15:18:56Z</time>
      </trkpt>
      <trkpt lat="43.45094" lon="1.64378">
        <ele>214</ele>
        <time>2024-01-20T15:18:57Z</time>
      </trkpt>
      <trkpt lat="43.45094" lon="1.64379">
        <ele>214</ele>
        <time>2024-01-20T15:18:58Z</time>
      </trkpt>
      <trkpt lat="43.45095" lon="1.64382">
        <ele>214</ele>
        <time>2024-01-20T15:18:59Z</time>
      </trkpt>
      <trkpt lat="43.45096" lon="1.64385">
        <ele>214</ele>
        <time>2024-01-20T15:19:00Z</time>
      </trkpt>
      <trkpt lat="43.45097" lon="1.64388">
        <ele>214</ele>
        <time>2024-01-20T15:19:01Z</time>
      </trkpt>
      <trkpt lat="43.45098" lon="1.64391">
        <ele>214</ele>
        <time>2024-01-20T15:19:02Z</time>
      </trkpt>
      <trkpt lat="43.45099" lon="1.64396">
        <ele>214</ele>
        <time>2024-01-20T15:19:03Z</time>
      </trkpt>
      <trkpt lat="43.451" lon="1.64397">
        <ele>214</ele>
        <time>2024-01-20T15:19:04Z</time>
      </trkpt>
      <trkpt lat="43.45101" lon="1.644">
        <ele>214</ele>
        <time>2024-01-20T15:19:05Z</time>
      </trkpt>
      <trkpt lat="43.45102" lon="1.64403">
        <ele>214</ele>
        <time>2024-01-20T15:19:06Z</time>
      </trkpt>
      <trkpt lat="43.45102" lon="1.64406">
        <ele>214</ele>
        <time>2024-01-20T15:19:07Z</time>
      </trkpt>
      <trkpt lat="43.45103" lon="1.64409">
        <ele>214</ele>
        <time>2024-01-20T15:19:08Z</time>
      </trkpt>
      <trkpt lat="43.45104" lon="1.64412">
        <ele>214</ele>
        <time>2024-01-20T15:19:09Z</time>
      </trkpt>
      <trkpt lat="43.45105" lon="1.64415">
        <ele>214</ele>
        <time>2024-01-20T15:19:10Z</time>
      </trkpt>
      <trkpt lat="43.45106" lon="1.64418">
        <ele>214</ele>
        <time>2024-01-20T15:19:11Z</time>
      </trkpt>
      <trkpt lat="43.45107" lon="1.64421">
        <ele>214</ele>
        <time>2024-01-20T15:19:12Z</time>
      </trkpt>
      <trkpt lat="43.45108" lon="1.64424">
        <ele>214</ele>
        <time>2024-01-20T15:19:13Z</time>
      </trkpt>
      <trkpt lat="43.45109" lon="1.64427">
        <ele>214</ele>
        <time>2024-01-20T15:19:14Z</time>
      </trkpt>
      <trkpt lat="43.4511" lon="1.6443">
        <ele>214</ele>
        <time>2024-01-20T15:19:15Z</time>
      </trkpt>
      <trkpt lat="43.45111" lon="1.64434">
        <ele>214</ele>
        <time>2024-01-20T15:19:16Z</time>
      </trkpt>
      <trkpt lat="43.45111" lon="1.64436">
        <ele>214</ele>
        <time>2024-01-20T15:19:17Z</time>
      </trkpt>
      <trkpt lat="43.45112" lon="1.6444">
        <ele>214</ele>
        <time>2024-01-20T15:19:18Z</time>
      </trkpt>
      <trkpt lat="43.45113" lon="1.64442">
        <ele>214</ele>
        <time>2024-01-20T15:19:19Z</time>
      </trkpt>
      <trkpt lat="43.45114" lon="1.64445">
        <ele>214</ele>
        <time>2024-01-20T15:19:20Z</time>
      </trkpt>
      <trkpt lat="43.45115" lon="1.64448">
        <ele>214</ele>
        <time>2024-01-20T15:19:21Z</time>
      </trkpt>
      <trkpt lat="43.45116" lon="1.64453">
        <ele>214</ele>
        <time>2024-01-20T15:19:22Z</time>
      </trkpt>
      <trkpt lat="43.45117" lon="1.64454">
        <ele>214</ele>
        <time>2024-01-20T15:19:23Z</time>
      </trkpt>
      <trkpt lat="43.45117" lon="1.64457">
        <ele>214</ele>
        <time>2024-01-20T15:19:24Z</time>
      </trkpt>
      <trkpt lat="43.45119" lon="1.64461">
        <ele>214</ele>
        <time>2024-01-20T15:19:25Z</time>
      </trkpt>
      <trkpt lat="43.4512" lon="1.64462">
        <ele>214</ele>
        <time>2024-01-20T15:19:26Z</time>
      </trkpt>
      <trkpt lat="43.45121" lon="1.64467">
        <ele>214</ele>
        <time>2024-01-20T15:19:27Z</time>
      </trkpt>
      <trkpt lat="43.45122" lon="1.64468">
        <ele>215</ele>
        <time>2024-01-20T15:19:28Z</time>
      </trkpt>
      <trkpt lat="43.45123" lon="1.64471">
        <ele>215</ele>
        <time>2024-01-20T15:19:29Z</time>
      </trkpt>
      <trkpt lat="43.45124" lon="1.64474">
        <ele>215</ele>
        <time>2024-01-20T15:19:30Z</time>
      </trkpt>
      <trkpt lat="43.45125" lon="1.64477">
        <ele>215</ele>
        <time>2024-01-20T15:19:31Z</time>
      </trkpt>
      <trkpt lat="43.45126" lon="1.6448">
        <ele>215</ele>
        <time>2024-01-20T15:19:32Z</time>
      </trkpt>
      <trkpt lat="43.45127" lon="1.64483">
        <ele>215</ele>
        <time>2024-01-20T15:19:33Z</time>
      </trkpt>
      <trkpt lat="43.45128" lon="1.64487">
        <ele>215</ele>
        <time>2024-01-20T15:19:34Z</time>
      </trkpt>
      <trkpt lat="43.45129" lon="1.64488">
        <ele>215</ele>
        <time>2024-01-20T15:19:35Z</time>
      </trkpt>
      <trkpt lat="43.4513" lon="1.64491">
        <ele>215</ele>
        <time>2024-01-20T15:19:36Z</time>
      </trkpt>
      <trkpt lat="43.45131" lon="1.64493">
        <ele>215</ele>
        <time>2024-01-20T15:19:37Z</time>
      </trkpt>
      <trkpt lat="43.45132" lon="1.64496">
        <ele>214</ele>
        <time>2024-01-20T15:19:38Z</time>
      </trkpt>
      <trkpt lat="43.45134" lon="1.64499">
        <ele>214</ele>
        <time>2024-01-20T15:19:39Z</time>
      </trkpt>
      <trkpt lat="43.45135" lon="1.64502">
        <ele>214</ele>
        <time>2024-01-20T15:19:40Z</time>
      </trkpt>
      <trkpt lat="43.45137" lon="1.64506">
        <ele>214</ele>
        <time>2024-01-20T15:19:41Z</time>
      </trkpt>
      <trkpt lat="43.45138" lon="1.64508">
        <ele>214</ele>
        <time>2024-01-20T15:19:42Z</time>
      </trkpt>
      <trkpt lat="43.4514" lon="1.64511">
        <ele>214</ele>
        <time>2024-01-20T15:19:43Z</time>
      </trkpt>
      <trkpt lat="43.45141" lon="1.64513">
        <ele>214</ele>
        <time>2024-01-20T15:19:44Z</time>
      </trkpt>
      <trkpt lat="43.45143" lon="1.64515">
        <ele>213</ele>
        <time>2024-01-20T15:19:45Z</time>
      </trkpt>
      <trkpt lat="43.45146" lon="1.6452">
        <ele>213</ele>
        <time>2024-01-20T15:19:46Z</time>
      </trkpt>
      <trkpt lat="43.45148" lon="1.64523">
        <ele>213</ele>
        <time>2024-01-20T15:19:47Z</time>
      </trkpt>
      <trkpt lat="43.45148" lon="1.64523">
        <ele>213</ele>
        <time>2024-01-20T15:19:48Z</time>
      </trkpt>
      <trkpt lat="43.4515" lon="1.64525">
        <ele>213</ele>
        <time>2024-01-20T15:19:49Z</time>
      </trkpt>
      <trkpt lat="43.45152" lon="1.64528">
        <ele>213</ele>
        <time>2024-01-20T15:19:50Z</time>
      </trkpt>
      <trkpt lat="43.45153" lon="1.6453">
        <ele>212</ele>
        <time>2024-01-20T15:19:51Z</time>
      </trkpt>
      <trkpt lat="43.45155" lon="1.64533">
        <ele>212</ele>
        <time>2024-01-20T15:19:52Z</time>
      </trkpt>
      <trkpt lat="43.45157" lon="1.64536">
        <ele>212</ele>
        <time>2024-01-20T15:19:53Z</time>
      </trkpt>
      <trkpt lat="43.45158" lon="1.64539">
        <ele>212</ele>
        <time>2024-01-20T15:19:54Z</time>
      </trkpt>
      <trkpt lat="43.4516" lon="1.64541">
        <ele>212</ele>
        <time>2024-01-20T15:19:55Z</time>
      </trkpt>
      <trkpt lat="43.45162" lon="1.64544">
        <ele>212</ele>
        <time>2024-01-20T15:19:56Z</time>
      </trkpt>
      <trkpt lat="43.45164" lon="1.64546">
        <ele>212</ele>
        <time>2024-01-20T15:19:57Z</time>
      </trkpt>
      <trkpt lat="43.45166" lon="1.64549">
        <ele>212</ele>
        <time>2024-01-20T15:19:58Z</time>
      </trkpt>
      <trkpt lat="43.45168" lon="1.64551">
        <ele>212</ele>
        <time>2024-01-20T15:19:59Z</time>
      </trkpt>
      <trkpt lat="43.45171" lon="1.64554">
        <ele>212</ele>
        <time>2024-01-20T15:20:00Z</time>
      </trkpt>
      <trkpt lat="43.45172" lon="1.64555">
        <ele>211</ele>
        <time>2024-01-20T15:20:01Z</time>
      </trkpt>
      <trkpt lat="43.45174" lon="1.64557">
        <ele>211</ele>
        <time>2024-01-20T15:20:02Z</time>
      </trkpt>
      <trkpt lat="43.45176" lon="1.6456">
        <ele>211</ele>
        <time>2024-01-20T15:20:03Z</time>
      </trkpt>
      <trkpt lat="43.45178" lon="1.64562">
        <ele>211</ele>
        <time>2024-01-20T15:20:04Z</time>
      </trkpt>
      <trkpt lat="43.45181" lon="1.64565">
        <ele>211</ele>
        <time>2024-01-20T15:20:05Z</time>
      </trkpt>
      <trkpt lat="43.45182" lon="1.64566">
        <ele>211</ele>
        <time>2024-01-20T15:20:06Z</time>
      </trkpt>
      <trkpt lat="43.45184" lon="1.64568">
        <ele>211</ele>
        <time>2024-01-20T15:20:07Z</time>
      </trkpt>
      <trkpt lat="43.45186" lon="1.64569">
        <ele>210</ele>
        <time>2024-01-20T15:20:08Z</time>
      </trkpt>
      <trkpt lat="43.45189" lon="1.64571">
        <ele>210</ele>
        <time>2024-01-20T15:20:09Z</time>
      </trkpt>
      <trkpt lat="43.45191" lon="1.64573">
        <ele>210</ele>
        <time>2024-01-20T15:20:10Z</time>
      </trkpt>
      <trkpt lat="43.45194" lon="1.64575">
        <ele>210</ele>
        <time>2024-01-20T15:20:11Z</time>
      </trkpt>
      <trkpt lat="43.45196" lon="1.64577">
        <ele>210</ele>
        <time>2024-01-20T15:20:12Z</time>
      </trkpt>
      <trkpt lat="43.45198" lon="1.64579">
        <ele>210</ele>
        <time>2024-01-20T15:20:13Z</time>
      </trkpt>
      <trkpt lat="43.452" lon="1.64581">
        <ele>210</ele>
        <time>2024-01-20T15:20:14Z</time>
      </trkpt>
      <trkpt lat="43.45202" lon="1.64583">
        <ele>210</ele>
        <time>2024-01-20T15:20:15Z</time>
      </trkpt>
      <trkpt lat="43.45204" lon="1.64585">
        <ele>210</ele>
        <time>2024-01-20T15:20:16Z</time>
      </trkpt>
      <trkpt lat="43.45206" lon="1.64586">
        <ele>209</ele>
        <time>2024-01-20T15:20:17Z</time>
      </trkpt>
      <trkpt lat="43.45207" lon="1.64588">
        <ele>209</ele>
        <time>2024-01-20T15:20:18Z</time>
      </trkpt>
      <trkpt lat="43.4521" lon="1.64591">
        <ele>209</ele>
        <time>2024-01-20T15:20:20Z</time>
      </trkpt>
      <trkpt lat="43.45212" lon="1.64593">
        <ele>209</ele>
        <time>2024-01-20T15:20:21Z</time>
      </trkpt>
      <trkpt lat="43.45215" lon="1.64595">
        <ele>209</ele>
        <time>2024-01-20T15:20:22Z</time>
      </trkpt>
      <trkpt lat="43.45217" lon="1.64597">
        <ele>209</ele>
        <time>2024-01-20T15:20:23Z</time>
      </trkpt>
      <trkpt lat="43.45219" lon="1.64599">
        <ele>208</ele>
        <time>2024-01-20T15:20:24Z</time>
      </trkpt>
      <trkpt lat="43.45223" lon="1.64602">
        <ele>208</ele>
        <time>2024-01-20T15:20:25Z</time>
      </trkpt>
      <trkpt lat="43.45224" lon="1.64604">
        <ele>208</ele>
        <time>2024-01-20T15:20:26Z</time>
      </trkpt>
      <trkpt lat="43.45227" lon="1.64606">
        <ele>208</ele>
        <time>2024-01-20T15:20:27Z</time>
      </trkpt>
      <trkpt lat="43.45229" lon="1.64608">
        <ele>208</ele>
        <time>2024-01-20T15:20:28Z</time>
      </trkpt>
      <trkpt lat="43.45232" lon="1.6461">
        <ele>207</ele>
        <time>2024-01-20T15:20:29Z</time>
      </trkpt>
      <trkpt lat="43.45234" lon="1.64612">
        <ele>207</ele>
        <time>2024-01-20T15:20:30Z</time>
      </trkpt>
      <trkpt lat="43.45236" lon="1.64614">
        <ele>207</ele>
        <time>2024-01-20T15:20:31Z</time>
      </trkpt>
      <trkpt lat="43.45238" lon="1.64616">
        <ele>207</ele>
        <time>2024-01-20T15:20:32Z</time>
      </trkpt>
      <trkpt lat="43.45241" lon="1.64618">
        <ele>207</ele>
        <time>2024-01-20T15:20:33Z</time>
      </trkpt>
      <trkpt lat="43.45243" lon="1.6462">
        <ele>207</ele>
        <time>2024-01-20T15:20:34Z</time>
      </trkpt>
      <trkpt lat="43.45245" lon="1.64622">
        <ele>207</ele>
        <time>2024-01-20T15:20:35Z</time>
      </trkpt>
      <trkpt lat="43.45247" lon="1.64624">
        <ele>207</ele>
        <time>2024-01-20T15:20:36Z</time>
      </trkpt>
      <trkpt lat="43.4525" lon="1.64626">
        <ele>206</ele>
        <time>2024-01-20T15:20:37Z</time>
      </trkpt>
      <trkpt lat="43.45253" lon="1.64629">
        <ele>206</ele>
        <time>2024-01-20T15:20:38Z</time>
      </trkpt>
      <trkpt lat="43.45254" lon="1.6463">
        <ele>206</ele>
        <time>2024-01-20T15:20:39Z</time>
      </trkpt>
      <trkpt lat="43.45256" lon="1.64632">
        <ele>206</ele>
        <time>2024-01-20T15:20:40Z</time>
      </trkpt>
      <trkpt lat="43.45258" lon="1.64634">
        <ele>206</ele>
        <time>2024-01-20T15:20:41Z</time>
      </trkpt>
      <trkpt lat="43.4526" lon="1.64636">
        <ele>206</ele>
        <time>2024-01-20T15:20:42Z</time>
      </trkpt>
      <trkpt lat="43.45263" lon="1.64637">
        <ele>206</ele>
        <time>2024-01-20T15:20:43Z</time>
      </trkpt>
      <trkpt lat="43.45266" lon="1.6464">
        <ele>206</ele>
        <time>2024-01-20T15:20:44Z</time>
      </trkpt>
      <trkpt lat="43.45268" lon="1.64641">
        <ele>206</ele>
        <time>2024-01-20T15:20:45Z</time>
      </trkpt>
      <trkpt lat="43.4527" lon="1.64643">
        <ele>206</ele>
        <time>2024-01-20T15:20:46Z</time>
      </trkpt>
      <trkpt lat="43.45272" lon="1.64645">
        <ele>206</ele>
        <time>2024-01-20T15:20:47Z</time>
      </trkpt>
      <trkpt lat="43.45274" lon="1.64646">
        <ele>206</ele>
        <time>2024-01-20T15:20:48Z</time>
      </trkpt>
      <trkpt lat="43.45276" lon="1.64648">
        <ele>206</ele>
        <time>2024-01-20T15:20:49Z</time>
      </trkpt>
      <trkpt lat="43.45278" lon="1.6465">
        <ele>206</ele>
        <time>2024-01-20T15:20:50Z</time>
      </trkpt>
      <trkpt lat="43.4528" lon="1.64652">
        <ele>206</ele>
        <time>2024-01-20T15:20:51Z</time>
      </trkpt>
      <trkpt lat="43.45282" lon="1.64654">
        <ele>206</ele>
        <time>2024-01-20T15:20:52Z</time>
      </trkpt>
      <trkpt lat="43.45284" lon="1.64656">
        <ele>206</ele>
        <time>2024-01-20T15:20:53Z</time>
      </trkpt>
      <trkpt lat="43.45286" lon="1.64658">
        <ele>206</ele>
        <time>2024-01-20T15:20:54Z</time>
      </trkpt>
      <trkpt lat="43.45287" lon="1.6466">
        <ele>207</ele>
        <time>2024-01-20T15:20:55Z</time>
      </trkpt>
      <trkpt lat="43.45289" lon="1.64662">
        <ele>207</ele>
        <time>2024-01-20T15:20:56Z</time>
      </trkpt>
      <trkpt lat="43.45291" lon="1.64665">
        <ele>207</ele>
        <time>2024-01-20T15:20:57Z</time>
      </trkpt>
      <trkpt lat="43.45292" lon="1.64666">
        <ele>207</ele>
        <time>2024-01-20T15:20:58Z</time>
      </trkpt>
      <trkpt lat="43.45294" lon="1.64668">
        <ele>207</ele>
        <time>2024-01-20T15:20:59Z</time>
      </trkpt>
      <trkpt lat="43.45295" lon="1.6467">
        <ele>207</ele>
        <time>2024-01-20T15:21:00Z</time>
      </trkpt>
      <trkpt lat="43.45297" lon="1.64672">
        <ele>207</ele>
        <time>2024-01-20T15:21:01Z</time>
      </trkpt>
      <trkpt lat="43.45299" lon="1.64674">
        <ele>207</ele>
        <time>2024-01-20T15:21:02Z</time>
      </trkpt>
      <trkpt lat="43.453" lon="1.64676">
        <ele>208</ele>
        <time>2024-01-20T15:21:03Z</time>
      </trkpt>
      <trkpt lat="43.45302" lon="1.64678">
        <ele>208</ele>
        <time>2024-01-20T15:21:04Z</time>
      </trkpt>
      <trkpt lat="43.45305" lon="1.64682">
        <ele>208</ele>
        <time>2024-01-20T15:21:05Z</time>
      </trkpt>
      <trkpt lat="43.45305" lon="1.64683">
        <ele>208</ele>
        <time>2024-01-20T15:21:06Z</time>
      </trkpt>
      <trkpt lat="43.45307" lon="1.64685">
        <ele>208</ele>
        <time>2024-01-20T15:21:07Z</time>
      </trkpt>
      <trkpt lat="43.45308" lon="1.64687">
        <ele>208</ele>
        <time>2024-01-20T15:21:08Z</time>
      </trkpt>
      <trkpt lat="43.45309" lon="1.6469">
        <ele>209</ele>
        <time>2024-01-20T15:21:09Z</time>
      </trkpt>
      <trkpt lat="43.45311" lon="1.64692">
        <ele>209</ele>
        <time>2024-01-20T15:21:10Z</time>
      </trkpt>
      <trkpt lat="43.45312" lon="1.64694">
        <ele>209</ele>
        <time>2024-01-20T15:21:11Z</time>
      </trkpt>
      <trkpt lat="43.45314" lon="1.64696">
        <ele>209</ele>
        <time>2024-01-20T15:21:12Z</time>
      </trkpt>
      <trkpt lat="43.45315" lon="1.64698">
        <ele>210</ele>
        <time>2024-01-20T15:21:13Z</time>
      </trkpt>
      <trkpt lat="43.45317" lon="1.64701">
        <ele>210</ele>
        <time>2024-01-20T15:21:14Z</time>
      </trkpt>
      <trkpt lat="43.45318" lon="1.64703">
        <ele>210</ele>
        <time>2024-01-20T15:21:15Z</time>
      </trkpt>
      <trkpt lat="43.4532" lon="1.64707">
        <ele>210</ele>
        <time>2024-01-20T15:21:16Z</time>
      </trkpt>
      <trkpt lat="43.45321" lon="1.64708">
        <ele>210</ele>
        <time>2024-01-20T15:21:17Z</time>
      </trkpt>
      <trkpt lat="43.45323" lon="1.64711">
        <ele>210</ele>
        <time>2024-01-20T15:21:18Z</time>
      </trkpt>
      <trkpt lat="43.45324" lon="1.64713">
        <ele>210</ele>
        <time>2024-01-20T15:21:19Z</time>
      </trkpt>
      <trkpt lat="43.45326" lon="1.64716">
        <ele>211</ele>
        <time>2024-01-20T15:21:20Z</time>
      </trkpt>
      <trkpt lat="43.45327" lon="1.64718">
        <ele>211</ele>
        <time>2024-01-20T15:21:21Z</time>
      </trkpt>
      <trkpt lat="43.45329" lon="1.6472">
        <ele>211</ele>
        <time>2024-01-20T15:21:22Z</time>
      </trkpt>
      <trkpt lat="43.45332" lon="1.64725">
        <ele>211</ele>
        <time>2024-01-20T15:21:23Z</time>
      </trkpt>
      <trkpt lat="43.45332" lon="1.64725">
        <ele>211</ele>
        <time>2024-01-20T15:21:24Z</time>
      </trkpt>
      <trkpt lat="43.45334" lon="1.64727">
        <ele>211</ele>
        <time>2024-01-20T15:21:25Z</time>
      </trkpt>
      <trkpt lat="43.45335" lon="1.64729">
        <ele>211</ele>
        <time>2024-01-20T15:21:26Z</time>
      </trkpt>
      <trkpt lat="43.45338" lon="1.64733">
        <ele>211</ele>
        <time>2024-01-20T15:21:27Z</time>
      </trkpt>
      <trkpt lat="43.45338" lon="1.64734">
        <ele>212</ele>
        <time>2024-01-20T15:21:28Z</time>
      </trkpt>
      <trkpt lat="43.4534" lon="1.64737">
        <ele>212</ele>
        <time>2024-01-20T15:21:29Z</time>
      </trkpt>
      <trkpt lat="43.45342" lon="1.64739">
        <ele>212</ele>
        <time>2024-01-20T15:21:30Z</time>
      </trkpt>
      <trkpt lat="43.45344" lon="1.64742">
        <ele>212</ele>
        <time>2024-01-20T15:21:31Z</time>
      </trkpt>
      <trkpt lat="43.45345" lon="1.64744">
        <ele>212</ele>
        <time>2024-01-20T15:21:32Z</time>
      </trkpt>
      <trkpt lat="43.45347" lon="1.64747">
        <ele>213</ele>
        <time>2024-01-20T15:21:33Z</time>
      </trkpt>
      <trkpt lat="43.45349" lon="1.64749">
        <ele>213</ele>
        <time>2024-01-20T15:21:34Z</time>
      </trkpt>
      <trkpt lat="43.45351" lon="1.64753">
        <ele>213</ele>
        <time>2024-01-20T15:21:35Z</time>
      </trkpt>
      <trkpt lat="43.45352" lon="1.64754">
        <ele>213</ele>
        <time>2024-01-20T15:21:36Z</time>
      </trkpt>
      <trkpt lat="43.45354" lon="1.64756">
        <ele>213</ele>
        <time>2024-01-20T15:21:37Z</time>
      </trkpt>
      <trkpt lat="43.45356" lon="1.64758">
        <ele>213</ele>
        <time>2024-01-20T15:21:38Z</time>
      </trkpt>
      <trkpt lat="43.45358" lon="1.6476">
        <ele>213</ele>
        <time>2024-01-20T15:21:39Z</time>
      </trkpt>
      <trkpt lat="43.45359" lon="1.64761">
        <ele>213</ele>
        <time>2024-01-20T15:21:40Z</time>
      </trkpt>
      <trkpt lat="43.45361" lon="1.64763">
        <ele>213</ele>
        <time>2024-01-20T15:21:41Z</time>
      </trkpt>
      <trkpt lat="43.45363" lon="1.64763">
        <ele>213</ele>
        <time>2024-01-20T15:21:42Z</time>
      </trkpt>
      <trkpt lat="43.45366" lon="1.64763">
        <ele>213</ele>
        <time>2024-01-20T15:21:43Z</time>
      </trkpt>
      <trkpt lat="43.45368" lon="1.64763">
        <ele>214</ele>
        <time>2024-01-20T15:21:44Z</time>
      </trkpt>
      <trkpt lat="43.45371" lon="1.64764">
        <ele>214</ele>
        <time>2024-01-20T15:21:45Z</time>
      </trkpt>
      <trkpt lat="43.45374" lon="1.64764">
        <ele>214</ele>
        <time>2024-01-20T15:21:46Z</time>
      </trkpt>
      <trkpt lat="43.45376" lon="1.64765">
        <ele>214</ele>
        <time>2024-01-20T15:21:47Z</time>
      </trkpt>
      <trkpt lat="43.4538" lon="1.64766">
        <ele>214</ele>
        <time>2024-01-20T15:21:48Z</time>
      </trkpt>
      <trkpt lat="43.45381" lon="1.64767">
        <ele>214</ele>
        <time>2024-01-20T15:21:49Z</time>
      </trkpt>
      <trkpt lat="43.45384" lon="1.64767">
        <ele>214</ele>
        <time>2024-01-20T15:21:50Z</time>
      </trkpt>
      <trkpt lat="43.45387" lon="1.64768">
        <ele>214</ele>
        <time>2024-01-20T15:21:51Z</time>
      </trkpt>
      <trkpt lat="43.45389" lon="1.64769">
        <ele>214</ele>
        <time>2024-01-20T15:21:52Z</time>
      </trkpt>
      <trkpt lat="43.45392" lon="1.6477">
        <ele>214</ele>
        <time>2024-01-20T15:21:53Z</time>
      </trkpt>
      <trkpt lat="43.45396" lon="1.64771">
        <ele>214</ele>
        <time>2024-01-20T15:21:54Z</time>
      </trkpt>
      <trkpt lat="43.45398" lon="1.64772">
        <ele>214</ele>
        <time>2024-01-20T15:21:55Z</time>
      </trkpt>
      <trkpt lat="43.454" lon="1.64773">
        <ele>214</ele>
        <time>2024-01-20T15:21:56Z</time>
      </trkpt>
      <trkpt lat="43.45403" lon="1.64774">
        <ele>214</ele>
        <time>2024-01-20T15:21:57Z</time>
      </trkpt>
      <trkpt lat="43.45406" lon="1.64775">
        <ele>213</ele>
        <time>2024-01-20T15:21:58Z</time>
      </trkpt>
      <trkpt lat="43.45408" lon="1.64776">
        <ele>213</ele>
        <time>2024-01-20T15:21:59Z</time>
      </trkpt>
      <trkpt lat="43.45411" lon="1.64778">
        <ele>213</ele>
        <time>2024-01-20T15:22:00Z</time>
      </trkpt>
      <trkpt lat="43.45413" lon="1.64779">
        <ele>213</ele>
        <time>2024-01-20T15:22:01Z</time>
      </trkpt>
      <trkpt lat="43.45416" lon="1.6478">
        <ele>213</ele>
        <time>2024-01-20T15:22:02Z</time>
      </trkpt>
      <trkpt lat="43.45418" lon="1.64782">
        <ele>213</ele>
        <time>2024-01-20T15:22:03Z</time>
      </trkpt>
      <trkpt lat="43.4542" lon="1.64783">
        <ele>212</ele>
        <time>2024-01-20T15:22:04Z</time>
      </trkpt>
      <trkpt lat="43.45422" lon="1.64785">
        <ele>212</ele>
        <time>2024-01-20T15:22:05Z</time>
      </trkpt>
      <trkpt lat="43.45424" lon="1.64786">
        <ele>212</ele>
        <time>2024-01-20T15:22:06Z</time>
      </trkpt>
      <trkpt lat="43.45427" lon="1.64788">
        <ele>212</ele>
        <time>2024-01-20T15:22:07Z</time>
      </trkpt>
      <trkpt lat="43.45428" lon="1.64789">
        <ele>212</ele>
        <time>2024-01-20T15:22:08Z</time>
      </trkpt>
      <trkpt lat="43.4543" lon="1.6479">
        <ele>212</ele>
        <time>2024-01-20T15:22:09Z</time>
      </trkpt>
      <trkpt lat="43.45432" lon="1.64792">
        <ele>212</ele>
        <time>2024-01-20T15:22:10Z</time>
      </trkpt>
      <trkpt lat="43.45434" lon="1.64793">
        <ele>213</ele>
        <time>2024-01-20T15:22:11Z</time>
      </trkpt>
      <trkpt lat="43.45436" lon="1.64795">
        <ele>213</ele>
        <time>2024-01-20T15:22:12Z</time>
      </trkpt>
      <trkpt lat="43.45439" lon="1.64798">
        <ele>213</ele>
        <time>2024-01-20T15:22:13Z</time>
      </trkpt>
      <trkpt lat="43.4544" lon="1.64798">
        <ele>213</ele>
        <time>2024-01-20T15:22:14Z</time>
      </trkpt>
      <trkpt lat="43.45442" lon="1.648">
        <ele>213</ele>
        <time>2024-01-20T15:22:15Z</time>
      </trkpt>
      <trkpt lat="43.45443" lon="1.64802">
        <ele>213</ele>
        <time>2024-01-20T15:22:16Z</time>
      </trkpt>
      <trkpt lat="43.45445" lon="1.64804">
        <ele>212</ele>
        <time>2024-01-20T15:22:17Z</time>
      </trkpt>
      <trkpt lat="43.45448" lon="1.64806">
        <ele>212</ele>
        <time>2024-01-20T15:22:18Z</time>
      </trkpt>
      <trkpt lat="43.4545" lon="1.64808">
        <ele>211</ele>
        <time>2024-01-20T15:22:19Z</time>
      </trkpt>
      <trkpt lat="43.45453" lon="1.6481">
        <ele>210</ele>
        <time>2024-01-20T15:22:20Z</time>
      </trkpt>
      <trkpt lat="43.45456" lon="1.64812">
        <ele>209</ele>
        <time>2024-01-20T15:22:21Z</time>
      </trkpt>
      <trkpt lat="43.45459" lon="1.64814">
        <ele>208</ele>
        <time>2024-01-20T15:22:22Z</time>
      </trkpt>
      <trkpt lat="43.45462" lon="1.64816">
        <ele>208</ele>
        <time>2024-01-20T15:22:23Z</time>
      </trkpt>
      <trkpt lat="43.45466" lon="1.64818">
        <ele>208</ele>
        <time>2024-01-20T15:22:24Z</time>
      </trkpt>
      <trkpt lat="43.45469" lon="1.64821">
        <ele>208</ele>
        <time>2024-01-20T15:22:25Z</time>
      </trkpt>
      <trkpt lat="43.45471" lon="1.64822">
        <ele>207</ele>
        <time>2024-01-20T15:22:26Z</time>
      </trkpt>
      <trkpt lat="43.45473" lon="1.64824">
        <ele>207</ele>
        <time>2024-01-20T15:22:27Z</time>
      </trkpt>
      <trkpt lat="43.45476" lon="1.64827">
        <ele>207</ele>
        <time>2024-01-20T15:22:28Z</time>
      </trkpt>
      <trkpt lat="43.45479" lon="1.64829">
        <ele>206</ele>
        <time>2024-01-20T15:22:29Z</time>
      </trkpt>
      <trkpt lat="43.45481" lon="1.64831">
        <ele>206</ele>
        <time>2024-01-20T15:22:30Z</time>
      </trkpt>
      <trkpt lat="43.45485" lon="1.64833">
        <ele>205</ele>
        <time>2024-01-20T15:22:31Z</time>
      </trkpt>
      <trkpt lat="43.45489" lon="1.64837">
        <ele>205</ele>
        <time>2024-01-20T15:22:32Z</time>
      </trkpt>
      <trkpt lat="43.45491" lon="1.64838">
        <ele>204</ele>
        <time>2024-01-20T15:22:33Z</time>
      </trkpt>
      <trkpt lat="43.45493" lon="1.64841">
        <ele>204</ele>
        <time>2024-01-20T15:22:34Z</time>
      </trkpt>
      <trkpt lat="43.45496" lon="1.64844">
        <ele>204</ele>
        <time>2024-01-20T15:22:35Z</time>
      </trkpt>
      <trkpt lat="43.45498" lon="1.64846">
        <ele>203</ele>
        <time>2024-01-20T15:22:36Z</time>
      </trkpt>
      <trkpt lat="43.45501" lon="1.64849">
        <ele>202</ele>
        <time>2024-01-20T15:22:37Z</time>
      </trkpt>
      <trkpt lat="43.45505" lon="1.64851">
        <ele>202</ele>
        <time>2024-01-20T15:22:38Z</time>
      </trkpt>
      <trkpt lat="43.45508" lon="1.64854">
        <ele>202</ele>
        <time>2024-01-20T15:22:39Z</time>
      </trkpt>
      <trkpt lat="43.45512" lon="1.64858">
        <ele>202</ele>
        <time>2024-01-20T15:22:40Z</time>
      </trkpt>
      <trkpt lat="43.45514" lon="1.64859">
        <ele>201</ele>
        <time>2024-01-20T15:22:41Z</time>
      </trkpt>
      <trkpt lat="43.45518" lon="1.64861">
        <ele>201</ele>
        <time>2024-01-20T15:22:42Z</time>
      </trkpt>
      <trkpt lat="43.45521" lon="1.64862">
        <ele>201</ele>
        <time>2024-01-20T15:22:43Z</time>
      </trkpt>
      <trkpt lat="43.45524" lon="1.64863">
        <ele>200</ele>
        <time>2024-01-20T15:22:44Z</time>
      </trkpt>
      <trkpt lat="43.45527" lon="1.64864">
        <ele>200</ele>
        <time>2024-01-20T15:22:45Z</time>
      </trkpt>
      <trkpt lat="43.4553" lon="1.64864">
        <ele>200</ele>
        <time>2024-01-20T15:22:46Z</time>
      </trkpt>
      <trkpt lat="43.45533" lon="1.64864">
        <ele>200</ele>
        <time>2024-01-20T15:22:47Z</time>
      </trkpt>
      <trkpt lat="43.45535" lon="1.64863">
        <ele>199</ele>
        <time>2024-01-20T15:22:48Z</time>
      </trkpt>
      <trkpt lat="43.45538" lon="1.64862">
        <ele>199</ele>
        <time>2024-01-20T15:22:49Z</time>
      </trkpt>
      <trkpt lat="43.4554" lon="1.6486">
        <ele>199</ele>
        <time>2024-01-20T15:22:50Z</time>
      </trkpt>
      <trkpt lat="43.45544" lon="1.64858">
        <ele>199</ele>
        <time>2024-01-20T15:22:51Z</time>
      </trkpt>
      <trkpt lat="43.45545" lon="1.64857">
        <ele>198</ele>
        <time>2024-01-20T15:22:52Z</time>
      </trkpt>
      <trkpt lat="43.45548" lon="1.64854">
        <ele>198</ele>
        <time>2024-01-20T15:22:53Z</time>
      </trkpt>
      <trkpt lat="43.45551" lon="1.64852">
        <ele>198</ele>
        <time>2024-01-20T15:22:54Z</time>
      </trkpt>
      <trkpt lat="43.45554" lon="1.6485">
        <ele>198</ele>
        <time>2024-01-20T15:22:55Z</time>
      </trkpt>
      <trkpt lat="43.45558" lon="1.64849">
        <ele>198</ele>
        <time>2024-01-20T15:22:56Z</time>
      </trkpt>
      <trkpt lat="43.4556" lon="1.64848">
        <ele>199</ele>
        <time>2024-01-20T15:22:57Z</time>
      </trkpt>
      <trkpt lat="43.45564" lon="1.64847">
        <ele>198</ele>
        <time>2024-01-20T15:22:58Z</time>
      </trkpt>
      <trkpt lat="43.45567" lon="1.64846">
        <ele>198</ele>
        <time>2024-01-20T15:22:59Z</time>
      </trkpt>
      <trkpt lat="43.4557" lon="1.64846">
        <ele>197</ele>
        <time>2024-01-20T15:23:00Z</time>
      </trkpt>
      <trkpt lat="43.45573" lon="1.64846">
        <ele>197</ele>
        <time>2024-01-20T15:23:01Z</time>
      </trkpt>
      <trkpt lat="43.45577" lon="1.64845">
        <ele>197</ele>
        <time>2024-01-20T15:23:02Z</time>
      </trkpt>
      <trkpt lat="43.4558" lon="1.64845">
        <ele>196</ele>
        <time>2024-01-20T15:23:03Z</time>
      </trkpt>
      <trkpt lat="43.45585" lon="1.64845">
        <ele>196</ele>
        <time>2024-01-20T15:23:04Z</time>
      </trkpt>
      <trkpt lat="43.45586" lon="1.64846">
        <ele>195</ele>
        <time>2024-01-20T15:23:05Z</time>
      </trkpt>
      <trkpt lat="43.4559" lon="1.64847">
        <ele>194</ele>
        <time>2024-01-20T15:23:06Z</time>
      </trkpt>
      <trkpt lat="43.45592" lon="1.64848">
        <ele>194</ele>
        <time>2024-01-20T15:23:07Z</time>
      </trkpt>
      <trkpt lat="43.45595" lon="1.6485">
        <ele>194</ele>
        <time>2024-01-20T15:23:08Z</time>
      </trkpt>
      <trkpt lat="43.45598" lon="1.64851">
        <ele>194</ele>
        <time>2024-01-20T15:23:09Z</time>
      </trkpt>
      <trkpt lat="43.45603" lon="1.64853">
        <ele>194</ele>
        <time>2024-01-20T15:23:10Z</time>
      </trkpt>
      <trkpt lat="43.45605" lon="1.64854">
        <ele>194</ele>
        <time>2024-01-20T15:23:11Z</time>
      </trkpt>
      <trkpt lat="43.45609" lon="1.64855">
        <ele>194</ele>
        <time>2024-01-20T15:23:12Z</time>
      </trkpt>
      <trkpt lat="43.4561" lon="1.64855">
        <ele>193</ele>
        <time>2024-01-20T15:23:13Z</time>
      </trkpt>
      <trkpt lat="43.45614" lon="1.64857">
        <ele>193</ele>
        <time>2024-01-20T15:23:14Z</time>
      </trkpt>
      <trkpt lat="43.45616" lon="1.64858">
        <ele>192</ele>
        <time>2024-01-20T15:23:15Z</time>
      </trkpt>
      <trkpt lat="43.45619" lon="1.64859">
        <ele>191</ele>
        <time>2024-01-20T15:23:16Z</time>
      </trkpt>
      <trkpt lat="43.45622" lon="1.6486">
        <ele>191</ele>
        <time>2024-01-20T15:23:17Z</time>
      </trkpt>
      <trkpt lat="43.45624" lon="1.64862">
        <ele>190</ele>
        <time>2024-01-20T15:23:18Z</time>
      </trkpt>
      <trkpt lat="43.45627" lon="1.64863">
        <ele>190</ele>
        <time>2024-01-20T15:23:19Z</time>
      </trkpt>
      <trkpt lat="43.4563" lon="1.64864">
        <ele>190</ele>
        <time>2024-01-20T15:23:20Z</time>
      </trkpt>
      <trkpt lat="43.45634" lon="1.64865">
        <ele>190</ele>
        <time>2024-01-20T15:23:21Z</time>
      </trkpt>
      <trkpt lat="43.45636" lon="1.64865">
        <ele>190</ele>
        <time>2024-01-20T15:23:22Z</time>
      </trkpt>
      <trkpt lat="43.45639" lon="1.64866">
        <ele>189</ele>
        <time>2024-01-20T15:23:23Z</time>
      </trkpt>
      <trkpt lat="43.45642" lon="1.64866">
        <ele>189</ele>
        <time>2024-01-20T15:23:24Z</time>
      </trkpt>
      <trkpt lat="43.45645" lon="1.64867">
        <ele>189</ele>
        <time>2024-01-20T15:23:25Z</time>
      </trkpt>
      <trkpt lat="43.45649" lon="1.64868">
        <ele>189</ele>
        <time>2024-01-20T15:23:26Z</time>
      </trkpt>
      <trkpt lat="43.45652" lon="1.64869">
        <ele>188</ele>
        <time>2024-01-20T15:23:27Z</time>
      </trkpt>
      <trkpt lat="43.45656" lon="1.6487">
        <ele>188</ele>
        <time>2024-01-20T15:23:28Z</time>
      </trkpt>
      <trkpt lat="43.45659" lon="1.64872">
        <ele>188</ele>
        <time>2024-01-20T15:23:29Z</time>
      </trkpt>
      <trkpt lat="43.45662" lon="1.64873">
        <ele>188</ele>
        <time>2024-01-20T15:23:30Z</time>
      </trkpt>
      <trkpt lat="43.45666" lon="1.64873">
        <ele>187</ele>
        <time>2024-01-20T15:23:31Z</time>
      </trkpt>
      <trkpt lat="43.45669" lon="1.64874">
        <ele>186</ele>
        <time>2024-01-20T15:23:32Z</time>
      </trkpt>
      <trkpt lat="43.45672" lon="1.64874">
        <ele>186</ele>
        <time>2024-01-20T15:23:33Z</time>
      </trkpt>
      <trkpt lat="43.45676" lon="1.64875">
        <ele>186</ele>
        <time>2024-01-20T15:23:34Z</time>
      </trkpt>
      <trkpt lat="43.45681" lon="1.64876">
        <ele>186</ele>
        <time>2024-01-20T15:23:35Z</time>
      </trkpt>
      <trkpt lat="43.45682" lon="1.64876">
        <ele>186</ele>
        <time>2024-01-20T15:23:36Z</time>
      </trkpt>
      <trkpt lat="43.45685" lon="1.64877">
        <ele>186</ele>
        <time>2024-01-20T15:23:37Z</time>
      </trkpt>
      <trkpt lat="43.45688" lon="1.64878">
        <ele>186</ele>
        <time>2024-01-20T15:23:38Z</time>
      </trkpt>
      <trkpt lat="43.45691" lon="1.6488">
        <ele>186</ele>
        <time>2024-01-20T15:23:39Z</time>
      </trkpt>
      <trkpt lat="43.45694" lon="1.6488">
        <ele>186</ele>
        <time>2024-01-20T15:23:40Z</time>
      </trkpt>
      <trkpt lat="43.45696" lon="1.64881">
        <ele>185</ele>
        <time>2024-01-20T15:23:41Z</time>
      </trkpt>
      <trkpt lat="43.45699" lon="1.64881">
        <ele>185</ele>
        <time>2024-01-20T15:23:42Z</time>
      </trkpt>
      <trkpt lat="43.45701" lon="1.64882">
        <ele>185</ele>
        <time>2024-01-20T15:23:43Z</time>
      </trkpt>
      <trkpt lat="43.45705" lon="1.64883">
        <ele>185</ele>
        <time>2024-01-20T15:23:44Z</time>
      </trkpt>
      <trkpt lat="43.45706" lon="1.64884">
        <ele>185</ele>
        <time>2024-01-20T15:23:45Z</time>
      </trkpt>
      <trkpt lat="43.45708" lon="1.64887">
        <ele>185</ele>
        <time>2024-01-20T15:23:46Z</time>
      </trkpt>
      <trkpt lat="43.45709" lon="1.6489">
        <ele>185</ele>
        <time>2024-01-20T15:23:47Z</time>
      </trkpt>
      <trkpt lat="43.45709" lon="1.64896">
        <ele>185</ele>
        <time>2024-01-20T15:23:48Z</time>
      </trkpt>
      <trkpt lat="43.45709" lon="1.64898">
        <ele>186</ele>
        <time>2024-01-20T15:23:49Z</time>
      </trkpt>
      <trkpt lat="43.45709" lon="1.64902">
        <ele>186</ele>
        <time>2024-01-20T15:23:50Z</time>
      </trkpt>
      <trkpt lat="43.45709" lon="1.64905">
        <ele>186</ele>
        <time>2024-01-20T15:23:51Z</time>
      </trkpt>
      <trkpt lat="43.45709" lon="1.64909">
        <ele>186</ele>
        <time>2024-01-20T15:23:52Z</time>
      </trkpt>
      <trkpt lat="43.45708" lon="1.64912">
        <ele>186</ele>
        <time>2024-01-20T15:23:53Z</time>
      </trkpt>
      <trkpt lat="43.45708" lon="1.64915">
        <ele>186</ele>
        <time>2024-01-20T15:23:54Z</time>
      </trkpt>
      <trkpt lat="43.45708" lon="1.64919">
        <ele>186</ele>
        <time>2024-01-20T15:23:55Z</time>
      </trkpt>
      <trkpt lat="43.45708" lon="1.64922">
        <ele>186</ele>
        <time>2024-01-20T15:23:56Z</time>
      </trkpt>
      <trkpt lat="43.45708" lon="1.64926">
        <ele>186</ele>
        <time>2024-01-20T15:23:57Z</time>
      </trkpt>
      <trkpt lat="43.45708" lon="1.64929">
        <ele>186</ele>
        <time>2024-01-20T15:23:58Z</time>
      </trkpt>
      <trkpt lat="43.45707" lon="1.64935">
        <ele>186</ele>
        <time>2024-01-20T15:23:59Z</time>
      </trkpt>
      <trkpt lat="43.45706" lon="1.64936">
        <ele>186</ele>
        <time>2024-01-20T15:24:00Z</time>
      </trkpt>
      <trkpt lat="43.45706" lon="1.6494">
        <ele>186</ele>
        <time>2024-01-20T15:24:01Z</time>
      </trkpt>
      <trkpt lat="43.45705" lon="1.64943">
        <ele>186</ele>
        <time>2024-01-20T15:24:02Z</time>
      </trkpt>
      <trkpt lat="43.45704" lon="1.64946">
        <ele>186</ele>
        <time>2024-01-20T15:24:03Z</time>
      </trkpt>
      <trkpt lat="43.45703" lon="1.6495">
        <ele>186</ele>
        <time>2024-01-20T15:24:04Z</time>
      </trkpt>
      <trkpt lat="43.45703" lon="1.64951">
        <ele>186</ele>
        <time>2024-01-20T15:24:05Z</time>
      </trkpt>
      <trkpt lat="43.45702" lon="1.64954">
        <ele>186</ele>
        <time>2024-01-20T15:24:06Z</time>
      </trkpt>
      <trkpt lat="43.45702" lon="1.64957">
        <ele>186</ele>
        <time>2024-01-20T15:24:07Z</time>
      </trkpt>
      <trkpt lat="43.45701" lon="1.6496">
        <ele>186</ele>
        <time>2024-01-20T15:24:08Z</time>
      </trkpt>
      <trkpt lat="43.457" lon="1.64963">
        <ele>186</ele>
        <time>2024-01-20T15:24:09Z</time>
      </trkpt>
      <trkpt lat="43.457" lon="1.64963">
        <ele>186</ele>
        <time>2024-01-20T15:24:10Z</time>
      </trkpt>
      <trkpt lat="43.45699" lon="1.64967">
        <ele>186</ele>
        <time>2024-01-20T15:24:11Z</time>
      </trkpt>
      <trkpt lat="43.45699" lon="1.64967">
        <ele>187</ele>
        <time>2024-01-20T15:24:12Z</time>
      </trkpt>
      <trkpt lat="43.45698" lon="1.64972">
        <ele>187</ele>
        <time>2024-01-20T15:24:13Z</time>
      </trkpt>
      <trkpt lat="43.45698" lon="1.64972">
        <ele>187</ele>
        <time>2024-01-20T15:24:14Z</time>
      </trkpt>
      <trkpt lat="43.45697" lon="1.64976">
        <ele>187</ele>
        <time>2024-01-20T15:24:15Z</time>
      </trkpt>
      <trkpt lat="43.45696" lon="1.64979">
        <ele>187</ele>
        <time>2024-01-20T15:24:16Z</time>
      </trkpt>
      <trkpt lat="43.45695" lon="1.64982">
        <ele>187</ele>
        <time>2024-01-20T15:24:17Z</time>
      </trkpt>
      <trkpt lat="43.45695" lon="1.64985">
        <ele>187</ele>
        <time>2024-01-20T15:24:18Z</time>
      </trkpt>
      <trkpt lat="43.45694" lon="1.64988">
        <ele>187</ele>
        <time>2024-01-20T15:24:19Z</time>
      </trkpt>
      <trkpt lat="43.45693" lon="1.64991">
        <ele>187</ele>
        <time>2024-01-20T15:24:20Z</time>
      </trkpt>
      <trkpt lat="43.45693" lon="1.64994">
        <ele>187</ele>
        <time>2024-01-20T15:24:21Z</time>
      </trkpt>
      <trkpt lat="43.45692" lon="1.64997">
        <ele>188</ele>
        <time>2024-01-20T15:24:22Z</time>
      </trkpt>
      <trkpt lat="43.45692" lon="1.65">
        <ele>188</ele>
        <time>2024-01-20T15:24:23Z</time>
      </trkpt>
      <trkpt lat="43.45692" lon="1.65003">
        <ele>188</ele>
        <time>2024-01-20T15:24:24Z</time>
      </trkpt>
      <trkpt lat="43.45691" lon="1.65006">
        <ele>188</ele>
        <time>2024-01-20T15:24:25Z</time>
      </trkpt>
      <trkpt lat="43.45691" lon="1.6501">
        <ele>188</ele>
        <time>2024-01-20T15:24:26Z</time>
      </trkpt>
      <trkpt lat="43.45691" lon="1.65012">
        <ele>188</ele>
        <time>2024-01-20T15:24:27Z</time>
      </trkpt>
      <trkpt lat="43.45691" lon="1.65012">
        <ele>188</ele>
        <time>2024-01-20T15:24:28Z</time>
      </trkpt>
      <trkpt lat="43.45692" lon="1.65017">
        <ele>188</ele>
        <time>2024-01-20T15:24:29Z</time>
      </trkpt>
      <trkpt lat="43.45692" lon="1.65017">
        <ele>188</ele>
        <time>2024-01-20T15:24:30Z</time>
      </trkpt>
      <trkpt lat="43.45692" lon="1.65021">
        <ele>189</ele>
        <time>2024-01-20T15:24:31Z</time>
      </trkpt>
      <trkpt lat="43.45692" lon="1.65021">
        <ele>189</ele>
        <time>2024-01-20T15:24:32Z</time>
      </trkpt>
      <trkpt lat="43.45693" lon="1.65025">
        <ele>189</ele>
        <time>2024-01-20T15:24:33Z</time>
      </trkpt>
      <trkpt lat="43.45693" lon="1.65025">
        <ele>189</ele>
        <time>2024-01-20T15:24:34Z</time>
      </trkpt>
      <trkpt lat="43.45693" lon="1.65029">
        <ele>190</ele>
        <time>2024-01-20T15:24:35Z</time>
      </trkpt>
      <trkpt lat="43.45693" lon="1.65029">
        <ele>190</ele>
        <time>2024-01-20T15:24:36Z</time>
      </trkpt>
      <trkpt lat="43.45694" lon="1.65032">
        <ele>190</ele>
        <time>2024-01-20T15:24:37Z</time>
      </trkpt>
      <trkpt lat="43.45694" lon="1.65032">
        <ele>190</ele>
        <time>2024-01-20T15:24:38Z</time>
      </trkpt>
      <trkpt lat="43.45695" lon="1.65036">
        <ele>190</ele>
        <time>2024-01-20T15:24:39Z</time>
      </trkpt>
      <trkpt lat="43.45696" lon="1.6504">
        <ele>191</ele>
        <time>2024-01-20T15:24:40Z</time>
      </trkpt>
      <trkpt lat="43.45696" lon="1.6504">
        <ele>191</ele>
        <time>2024-01-20T15:24:41Z</time>
      </trkpt>
      <trkpt lat="43.45696" lon="1.6504">
        <ele>191</ele>
        <time>2024-01-20T15:24:42Z</time>
      </trkpt>
      <trkpt lat="43.45697" lon="1.65044">
        <ele>191</ele>
        <time>2024-01-20T15:24:43Z</time>
      </trkpt>
      <trkpt lat="43.45697" lon="1.65044">
        <ele>190</ele>
        <time>2024-01-20T15:24:44Z</time>
      </trkpt>
      <trkpt lat="43.45698" lon="1.65048">
        <ele>190</ele>
        <time>2024-01-20T15:24:45Z</time>
      </trkpt>
      <trkpt lat="43.45698" lon="1.65048">
        <ele>190</ele>
        <time>2024-01-20T15:24:46Z</time>
      </trkpt>
      <trkpt lat="43.45699" lon="1.65051">
        <ele>191</ele>
        <time>2024-01-20T15:24:47Z</time>
      </trkpt>
      <trkpt lat="43.45699" lon="1.65051">
        <ele>191</ele>
        <time>2024-01-20T15:24:48Z</time>
      </trkpt>
      <trkpt lat="43.457" lon="1.65055">
        <ele>191</ele>
        <time>2024-01-20T15:24:49Z</time>
      </trkpt>
      <trkpt lat="43.457" lon="1.65055">
        <ele>191</ele>
        <time>2024-01-20T15:24:50Z</time>
      </trkpt>
      <trkpt lat="43.45701" lon="1.65059">
        <ele>191</ele>
        <time>2024-01-20T15:24:51Z</time>
      </trkpt>
      <trkpt lat="43.45701" lon="1.65059">
        <ele>191</ele>
        <time>2024-01-20T15:24:52Z</time>
      </trkpt>
      <trkpt lat="43.45702" lon="1.65063">
        <ele>191</ele>
        <time>2024-01-20T15:24:53Z</time>
      </trkpt>
      <trkpt lat="43.45702" lon="1.65063">
        <ele>191</ele>
        <time>2024-01-20T15:24:54Z</time>
      </trkpt>
      <trkpt lat="43.45704" lon="1.65066">
        <ele>191</ele>
        <time>2024-01-20T15:24:55Z</time>
      </trkpt>
      <trkpt lat="43.45704" lon="1.65066">
        <ele>191</ele>
        <time>2024-01-20T15:24:56Z</time>
      </trkpt>
      <trkpt lat="43.45705" lon="1.6507">
        <ele>191</ele>
        <time>2024-01-20T15:24:57Z</time>
      </trkpt>
      <trkpt lat="43.45705" lon="1.6507">
        <ele>191</ele>
        <time>2024-01-20T15:24:58Z</time>
      </trkpt>
      <trkpt lat="43.45706" lon="1.65073">
        <ele>191</ele>
        <time>2024-01-20T15:24:59Z</time>
      </trkpt>
      <trkpt lat="43.45707" lon="1.65076">
        <ele>191</ele>
        <time>2024-01-20T15:25:01Z</time>
      </trkpt>
      <trkpt lat="43.45707" lon="1.65076">
        <ele>191</ele>
        <time>2024-01-20T15:25:02Z</time>
      </trkpt>
      <trkpt lat="43.45708" lon="1.6508">
        <ele>191</ele>
        <time>2024-01-20T15:25:03Z</time>
      </trkpt>
      <trkpt lat="43.45708" lon="1.6508">
        <ele>192</ele>
        <time>2024-01-20T15:25:04Z</time>
      </trkpt>
      <trkpt lat="43.45709" lon="1.65083">
        <ele>192</ele>
        <time>2024-01-20T15:25:05Z</time>
      </trkpt>
      <trkpt lat="43.45709" lon="1.65083">
        <ele>192</ele>
        <time>2024-01-20T15:25:06Z</time>
      </trkpt>
      <trkpt lat="43.4571" lon="1.65086">
        <ele>192</ele>
        <time>2024-01-20T15:25:07Z</time>
      </trkpt>
      <trkpt lat="43.4571" lon="1.65086">
        <ele>192</ele>
        <time>2024-01-20T15:25:08Z</time>
      </trkpt>
      <trkpt lat="43.45711" lon="1.65089">
        <ele>192</ele>
        <time>2024-01-20T15:25:09Z</time>
      </trkpt>
      <trkpt lat="43.45711" lon="1.65089">
        <ele>192</ele>
        <time>2024-01-20T15:25:10Z</time>
      </trkpt>
      <trkpt lat="43.45712" lon="1.65093">
        <ele>193</ele>
        <time>2024-01-20T15:25:11Z</time>
      </trkpt>
      <trkpt lat="43.45712" lon="1.65093">
        <ele>193</ele>
        <time>2024-01-20T15:25:12Z</time>
      </trkpt>
      <trkpt lat="43.45712" lon="1.65097">
        <ele>193</ele>
        <time>2024-01-20T15:25:13Z</time>
      </trkpt>
      <trkpt lat="43.45712" lon="1.65097">
        <ele>193</ele>
        <time>2024-01-20T15:25:14Z</time>
      </trkpt>
      <trkpt lat="43.45713" lon="1.651">
        <ele>193</ele>
        <time>2024-01-20T15:25:15Z</time>
      </trkpt>
      <trkpt lat="43.45713" lon="1.651">
        <ele>193</ele>
        <time>2024-01-20T15:25:16Z</time>
      </trkpt>
      <trkpt lat="43.45714" lon="1.65105">
        <ele>193</ele>
        <time>2024-01-20T15:25:17Z</time>
      </trkpt>
      <trkpt lat="43.45714" lon="1.65105">
        <ele>193</ele>
        <time>2024-01-20T15:25:18Z</time>
      </trkpt>
      <trkpt lat="43.45715" lon="1.65108">
        <ele>193</ele>
        <time>2024-01-20T15:25:19Z</time>
      </trkpt>
      <trkpt lat="43.45715" lon="1.65108">
        <ele>193</ele>
        <time>2024-01-20T15:25:20Z</time>
      </trkpt>
      <trkpt lat="43.45716" lon="1.65112">
        <ele>194</ele>
        <time>2024-01-20T15:25:21Z</time>
      </trkpt>
      <trkpt lat="43.45716" lon="1.65112">
        <ele>194</ele>
        <time>2024-01-20T15:25:22Z</time>
      </trkpt>
      <trkpt lat="43.45716" lon="1.65115">
        <ele>194</ele>
        <time>2024-01-20T15:25:23Z</time>
      </trkpt>
      <trkpt lat="43.45716" lon="1.65115">
        <ele>194</ele>
        <time>2024-01-20T15:25:24Z</time>
      </trkpt>
      <trkpt lat="43.45718" lon="1.65119">
        <ele>194</ele>
        <time>2024-01-20T15:25:25Z</time>
      </trkpt>
      <trkpt lat="43.45718" lon="1.65119">
        <ele>195</ele>
        <time>2024-01-20T15:25:26Z</time>
      </trkpt>
      <trkpt lat="43.45719" lon="1.65122">
        <ele>196</ele>
        <time>2024-01-20T15:25:27Z</time>
      </trkpt>
      <trkpt lat="43.45719" lon="1.65122">
        <ele>196</ele>
        <time>2024-01-20T15:25:28Z</time>
      </trkpt>
      <trkpt lat="43.45719" lon="1.65126">
        <ele>196</ele>
        <time>2024-01-20T15:25:29Z</time>
      </trkpt>
      <trkpt lat="43.45719" lon="1.65126">
        <ele>196</ele>
        <time>2024-01-20T15:25:30Z</time>
      </trkpt>
      <trkpt lat="43.45719" lon="1.6513">
        <ele>196</ele>
        <time>2024-01-20T15:25:31Z</time>
      </trkpt>
      <trkpt lat="43.45719" lon="1.6513">
        <ele>197</ele>
        <time>2024-01-20T15:25:32Z</time>
      </trkpt>
      <trkpt lat="43.45719" lon="1.65134">
        <ele>197</ele>
        <time>2024-01-20T15:25:33Z</time>
      </trkpt>
      <trkpt lat="43.45719" lon="1.65134">
        <ele>197</ele>
        <time>2024-01-20T15:25:34Z</time>
      </trkpt>
      <trkpt lat="43.4572" lon="1.65138">
        <ele>197</ele>
        <time>2024-01-20T15:25:35Z</time>
      </trkpt>
      <trkpt lat="43.4572" lon="1.65138">
        <ele>197</ele>
        <time>2024-01-20T15:25:36Z</time>
      </trkpt>
      <trkpt lat="43.4572" lon="1.65142">
        <ele>198</ele>
        <time>2024-01-20T15:25:37Z</time>
      </trkpt>
      <trkpt lat="43.45721" lon="1.65145">
        <ele>198</ele>
        <time>2024-01-20T15:25:39Z</time>
      </trkpt>
      <trkpt lat="43.45721" lon="1.65145">
        <ele>198</ele>
        <time>2024-01-20T15:25:40Z</time>
      </trkpt>
      <trkpt lat="43.45722" lon="1.65148">
        <ele>198</ele>
        <time>2024-01-20T15:25:41Z</time>
      </trkpt>
      <trkpt lat="43.45722" lon="1.65152">
        <ele>198</ele>
        <time>2024-01-20T15:25:43Z</time>
      </trkpt>
      <trkpt lat="43.45722" lon="1.65152">
        <ele>198</ele>
        <time>2024-01-20T15:25:44Z</time>
      </trkpt>
      <trkpt lat="43.45723" lon="1.65155">
        <ele>198</ele>
        <time>2024-01-20T15:25:45Z</time>
      </trkpt>
      <trkpt lat="43.45723" lon="1.65155">
        <ele>199</ele>
        <time>2024-01-20T15:25:46Z</time>
      </trkpt>
      <trkpt lat="43.45724" lon="1.65159">
        <ele>199</ele>
        <time>2024-01-20T15:25:47Z</time>
      </trkpt>
      <trkpt lat="43.45724" lon="1.65159">
        <ele>199</ele>
        <time>2024-01-20T15:25:48Z</time>
      </trkpt>
      <trkpt lat="43.45725" lon="1.65162">
        <ele>199</ele>
        <time>2024-01-20T15:25:49Z</time>
      </trkpt>
      <trkpt lat="43.45725" lon="1.65162">
        <ele>199</ele>
        <time>2024-01-20T15:25:50Z</time>
      </trkpt>
      <trkpt lat="43.45727" lon="1.65165">
        <ele>199</ele>
        <time>2024-01-20T15:25:51Z</time>
      </trkpt>
      <trkpt lat="43.45727" lon="1.65165">
        <ele>200</ele>
        <time>2024-01-20T15:25:52Z</time>
      </trkpt>
      <trkpt lat="43.45728" lon="1.65167">
        <ele>200</ele>
        <time>2024-01-20T15:25:53Z</time>
      </trkpt>
      <trkpt lat="43.45728" lon="1.65167">
        <ele>200</ele>
        <time>2024-01-20T15:25:54Z</time>
      </trkpt>
      <trkpt lat="43.4573" lon="1.6517">
        <ele>200</ele>
        <time>2024-01-20T15:25:55Z</time>
      </trkpt>
      <trkpt lat="43.4573" lon="1.6517">
        <ele>201</ele>
        <time>2024-01-20T15:25:56Z</time>
      </trkpt>
      <trkpt lat="43.45732" lon="1.65172">
        <ele>201</ele>
        <time>2024-01-20T15:25:57Z</time>
      </trkpt>
      <trkpt lat="43.45732" lon="1.65172">
        <ele>201</ele>
        <time>2024-01-20T15:25:58Z</time>
      </trkpt>
      <trkpt lat="43.45735" lon="1.65175">
        <ele>201</ele>
        <time>2024-01-20T15:25:59Z</time>
      </trkpt>
      <trkpt lat="43.45735" lon="1.65175">
        <ele>201</ele>
        <time>2024-01-20T15:26:00Z</time>
      </trkpt>
      <trkpt lat="43.45737" lon="1.65177">
        <ele>201</ele>
        <time>2024-01-20T15:26:01Z</time>
      </trkpt>
      <trkpt lat="43.45737" lon="1.65177">
        <ele>201</ele>
        <time>2024-01-20T15:26:02Z</time>
      </trkpt>
      <trkpt lat="43.45739" lon="1.65179">
        <ele>201</ele>
        <time>2024-01-20T15:26:03Z</time>
      </trkpt>
      <trkpt lat="43.45739" lon="1.65179">
        <ele>201</ele>
        <time>2024-01-20T15:26:04Z</time>
      </trkpt>
      <trkpt lat="43.45742" lon="1.65181">
        <ele>201</ele>
        <time>2024-01-20T15:26:05Z</time>
      </trkpt>
      <trkpt lat="43.45742" lon="1.65181">
        <ele>201</ele>
        <time>2024-01-20T15:26:06Z</time>
      </trkpt>
      <trkpt lat="43.45744" lon="1.65183">
        <ele>202</ele>
        <time>2024-01-20T15:26:07Z</time>
      </trkpt>
      <trkpt lat="43.45744" lon="1.65183">
        <ele>202</ele>
        <time>2024-01-20T15:26:08Z</time>
      </trkpt>
      <trkpt lat="43.45746" lon="1.65185">
        <ele>202</ele>
        <time>2024-01-20T15:26:09Z</time>
      </trkpt>
      <trkpt lat="43.45746" lon="1.65185">
        <ele>202</ele>
        <time>2024-01-20T15:26:10Z</time>
      </trkpt>
      <trkpt lat="43.45748" lon="1.65187">
        <ele>203</ele>
        <time>2024-01-20T15:26:11Z</time>
      </trkpt>
      <trkpt lat="43.45748" lon="1.65187">
        <ele>203</ele>
        <time>2024-01-20T15:26:12Z</time>
      </trkpt>
      <trkpt lat="43.45751" lon="1.65189">
        <ele>203</ele>
        <time>2024-01-20T15:26:13Z</time>
      </trkpt>
      <trkpt lat="43.45751" lon="1.65189">
        <ele>203</ele>
        <time>2024-01-20T15:26:14Z</time>
      </trkpt>
      <trkpt lat="43.45753" lon="1.6519">
        <ele>203</ele>
        <time>2024-01-20T15:26:15Z</time>
      </trkpt>
      <trkpt lat="43.45753" lon="1.6519">
        <ele>204</ele>
        <time>2024-01-20T15:26:16Z</time>
      </trkpt>
      <trkpt lat="43.45755" lon="1.65192">
        <ele>204</ele>
        <time>2024-01-20T15:26:17Z</time>
      </trkpt>
      <trkpt lat="43.45755" lon="1.65192">
        <ele>204</ele>
        <time>2024-01-20T15:26:18Z</time>
      </trkpt>
      <trkpt lat="43.45757" lon="1.65194">
        <ele>205</ele>
        <time>2024-01-20T15:26:19Z</time>
      </trkpt>
      <trkpt lat="43.45759" lon="1.65195">
        <ele>205</ele>
        <time>2024-01-20T15:26:20Z</time>
      </trkpt>
      <trkpt lat="43.45759" lon="1.65195">
        <ele>205</ele>
        <time>2024-01-20T15:26:21Z</time>
      </trkpt>
      <trkpt lat="43.45762" lon="1.65197">
        <ele>205</ele>
        <time>2024-01-20T15:26:22Z</time>
      </trkpt>
      <trkpt lat="43.45762" lon="1.65197">
        <ele>205</ele>
        <time>2024-01-20T15:26:23Z</time>
      </trkpt>
      <trkpt lat="43.45764" lon="1.65198">
        <ele>205</ele>
        <time>2024-01-20T15:26:24Z</time>
      </trkpt>
      <trkpt lat="43.45764" lon="1.65198">
        <ele>205</ele>
        <time>2024-01-20T15:26:25Z</time>
      </trkpt>
      <trkpt lat="43.45766" lon="1.65199">
        <ele>205</ele>
        <time>2024-01-20T15:26:26Z</time>
      </trkpt>
      <trkpt lat="43.45766" lon="1.65199">
        <ele>205</ele>
        <time>2024-01-20T15:26:27Z</time>
      </trkpt>
      <trkpt lat="43.45767" lon="1.65201">
        <ele>205</ele>
        <time>2024-01-20T15:26:28Z</time>
      </trkpt>
      <trkpt lat="43.45767" lon="1.65201">
        <ele>205</ele>
        <time>2024-01-20T15:26:29Z</time>
      </trkpt>
      <trkpt lat="43.45769" lon="1.65202">
        <ele>206</ele>
        <time>2024-01-20T15:26:30Z</time>
      </trkpt>
      <trkpt lat="43.45769" lon="1.65202">
        <ele>206</ele>
        <time>2024-01-20T15:26:31Z</time>
      </trkpt>
      <trkpt lat="43.45772" lon="1.65203">
        <ele>206</ele>
        <time>2024-01-20T15:26:32Z</time>
      </trkpt>
      <trkpt lat="43.45772" lon="1.65203">
        <ele>206</ele>
        <time>2024-01-20T15:26:33Z</time>
      </trkpt>
      <trkpt lat="43.45774" lon="1.65205">
        <ele>207</ele>
        <time>2024-01-20T15:26:34Z</time>
      </trkpt>
      <trkpt lat="43.45774" lon="1.65205">
        <ele>207</ele>
        <time>2024-01-20T15:26:35Z</time>
      </trkpt>
      <trkpt lat="43.45776" lon="1.65206">
        <ele>207</ele>
        <time>2024-01-20T15:26:36Z</time>
      </trkpt>
      <trkpt lat="43.45776" lon="1.65206">
        <ele>208</ele>
        <time>2024-01-20T15:26:37Z</time>
      </trkpt>
      <trkpt lat="43.45777" lon="1.65208">
        <ele>208</ele>
        <time>2024-01-20T15:26:38Z</time>
      </trkpt>
      <trkpt lat="43.45779" lon="1.65209">
        <ele>208</ele>
        <time>2024-01-20T15:26:40Z</time>
      </trkpt>
      <trkpt lat="43.45779" lon="1.65209">
        <ele>209</ele>
        <time>2024-01-20T15:26:41Z</time>
      </trkpt>
      <trkpt lat="43.45782" lon="1.6521">
        <ele>209</ele>
        <time>2024-01-20T15:26:42Z</time>
      </trkpt>
      <trkpt lat="43.45782" lon="1.6521">
        <ele>209</ele>
        <time>2024-01-20T15:26:43Z</time>
      </trkpt>
      <trkpt lat="43.45784" lon="1.65212">
        <ele>210</ele>
        <time>2024-01-20T15:26:44Z</time>
      </trkpt>
      <trkpt lat="43.45784" lon="1.65212">
        <ele>210</ele>
        <time>2024-01-20T15:26:45Z</time>
      </trkpt>
      <trkpt lat="43.45786" lon="1.65213">
        <ele>210</ele>
        <time>2024-01-20T15:26:46Z</time>
      </trkpt>
      <trkpt lat="43.45789" lon="1.65215">
        <ele>210</ele>
        <time>2024-01-20T15:26:48Z</time>
      </trkpt>
      <trkpt lat="43.45789" lon="1.65215">
        <ele>211</ele>
        <time>2024-01-20T15:26:49Z</time>
      </trkpt>
      <trkpt lat="43.45791" lon="1.65216">
        <ele>211</ele>
        <time>2024-01-20T15:26:50Z</time>
      </trkpt>
      <trkpt lat="43.45791" lon="1.65216">
        <ele>211</ele>
        <time>2024-01-20T15:26:51Z</time>
      </trkpt>
      <trkpt lat="43.45794" lon="1.65217">
        <ele>211</ele>
        <time>2024-01-20T15:26:52Z</time>
      </trkpt>
      <trkpt lat="43.45794" lon="1.65217">
        <ele>211</ele>
        <time>2024-01-20T15:26:53Z</time>
      </trkpt>
      <trkpt lat="43.45797" lon="1.65219">
        <ele>211</ele>
        <time>2024-01-20T15:26:54Z</time>
      </trkpt>
      <trkpt lat="43.45797" lon="1.65219">
        <ele>211</ele>
        <time>2024-01-20T15:26:55Z</time>
      </trkpt>
      <trkpt lat="43.45799" lon="1.65219">
        <ele>211</ele>
        <time>2024-01-20T15:26:56Z</time>
      </trkpt>
      <trkpt lat="43.45799" lon="1.65219">
        <ele>211</ele>
        <time>2024-01-20T15:26:57Z</time>
      </trkpt>
      <trkpt lat="43.45803" lon="1.65222">
        <ele>211</ele>
        <time>2024-01-20T15:26:58Z</time>
      </trkpt>
      <trkpt lat="43.45804" lon="1.65222">
        <ele>212</ele>
        <time>2024-01-20T15:26:59Z</time>
      </trkpt>
      <trkpt lat="43.45807" lon="1.65223">
        <ele>212</ele>
        <time>2024-01-20T15:27:00Z</time>
      </trkpt>
      <trkpt lat="43.4581" lon="1.65225">
        <ele>212</ele>
        <time>2024-01-20T15:27:01Z</time>
      </trkpt>
      <trkpt lat="43.45812" lon="1.65226">
        <ele>211</ele>
        <time>2024-01-20T15:27:02Z</time>
      </trkpt>
      <trkpt lat="43.45815" lon="1.65228">
        <ele>211</ele>
        <time>2024-01-20T15:27:03Z</time>
      </trkpt>
      <trkpt lat="43.45817" lon="1.65228">
        <ele>212</ele>
        <time>2024-01-20T15:27:04Z</time>
      </trkpt>
      <trkpt lat="43.4582" lon="1.6523">
        <ele>212</ele>
        <time>2024-01-20T15:27:05Z</time>
      </trkpt>
      <trkpt lat="43.45822" lon="1.65231">
        <ele>212</ele>
        <time>2024-01-20T15:27:06Z</time>
      </trkpt>
      <trkpt lat="43.45822" lon="1.65231">
        <ele>212</ele>
        <time>2024-01-20T15:27:07Z</time>
      </trkpt>
      <trkpt lat="43.45824" lon="1.65233">
        <ele>212</ele>
        <time>2024-01-20T15:27:08Z</time>
      </trkpt>
      <trkpt lat="43.45824" lon="1.65233">
        <ele>212</ele>
        <time>2024-01-20T15:27:09Z</time>
      </trkpt>
      <trkpt lat="43.45827" lon="1.65234">
        <ele>212</ele>
        <time>2024-01-20T15:27:10Z</time>
      </trkpt>
      <trkpt lat="43.45829" lon="1.65235">
        <ele>212</ele>
        <time>2024-01-20T15:27:11Z</time>
      </trkpt>
      <trkpt lat="43.45831" lon="1.65236">
        <ele>212</ele>
        <time>2024-01-20T15:27:12Z</time>
      </trkpt>
      <trkpt lat="43.45833" lon="1.65238">
        <ele>212</ele>
        <time>2024-01-20T15:27:13Z</time>
      </trkpt>
      <trkpt lat="43.45835" lon="1.65239">
        <ele>212</ele>
        <time>2024-01-20T15:27:14Z</time>
      </trkpt>
      <trkpt lat="43.45837" lon="1.6524">
        <ele>212</ele>
        <time>2024-01-20T15:27:15Z</time>
      </trkpt>
      <trkpt lat="43.45839" lon="1.65241">
        <ele>212</ele>
        <time>2024-01-20T15:27:16Z</time>
      </trkpt>
      <trkpt lat="43.45842" lon="1.65245">
        <ele>211</ele>
        <time>2024-01-20T15:27:18Z</time>
      </trkpt>
      <trkpt lat="43.45843" lon="1.65246">
        <ele>211</ele>
        <time>2024-01-20T15:27:19Z</time>
      </trkpt>
      <trkpt lat="43.45845" lon="1.65247">
        <ele>211</ele>
        <time>2024-01-20T15:27:20Z</time>
      </trkpt>
      <trkpt lat="43.45846" lon="1.65249">
        <ele>211</ele>
        <time>2024-01-20T15:27:21Z</time>
      </trkpt>
      <trkpt lat="43.4585" lon="1.65252">
        <ele>211</ele>
        <time>2024-01-20T15:27:22Z</time>
      </trkpt>
      <trkpt lat="43.45851" lon="1.65252">
        <ele>211</ele>
        <time>2024-01-20T15:27:23Z</time>
      </trkpt>
      <trkpt lat="43.45852" lon="1.65255">
        <ele>211</ele>
        <time>2024-01-20T15:27:24Z</time>
      </trkpt>
      <trkpt lat="43.45854" lon="1.65257">
        <ele>211</ele>
        <time>2024-01-20T15:27:25Z</time>
      </trkpt>
      <trkpt lat="43.45856" lon="1.65259">
        <ele>211</ele>
        <time>2024-01-20T15:27:26Z</time>
      </trkpt>
      <trkpt lat="43.45857" lon="1.65262">
        <ele>211</ele>
        <time>2024-01-20T15:27:27Z</time>
      </trkpt>
      <trkpt lat="43.45859" lon="1.65264">
        <ele>211</ele>
        <time>2024-01-20T15:27:28Z</time>
      </trkpt>
      <trkpt lat="43.45862" lon="1.65268">
        <ele>211</ele>
        <time>2024-01-20T15:27:29Z</time>
      </trkpt>
      <trkpt lat="43.45863" lon="1.65269">
        <ele>211</ele>
        <time>2024-01-20T15:27:30Z</time>
      </trkpt>
      <trkpt lat="43.45865" lon="1.65272">
        <ele>211</ele>
        <time>2024-01-20T15:27:31Z</time>
      </trkpt>
      <trkpt lat="43.45867" lon="1.65274">
        <ele>211</ele>
        <time>2024-01-20T15:27:32Z</time>
      </trkpt>
      <trkpt lat="43.45869" lon="1.65276">
        <ele>210</ele>
        <time>2024-01-20T15:27:33Z</time>
      </trkpt>
      <trkpt lat="43.45871" lon="1.65278">
        <ele>210</ele>
        <time>2024-01-20T15:27:34Z</time>
      </trkpt>
      <trkpt lat="43.45873" lon="1.65281">
        <ele>210</ele>
        <time>2024-01-20T15:27:35Z</time>
      </trkpt>
      <trkpt lat="43.45877" lon="1.65285">
        <ele>210</ele>
        <time>2024-01-20T15:27:36Z</time>
      </trkpt>
      <trkpt lat="43.45878" lon="1.65286">
        <ele>210</ele>
        <time>2024-01-20T15:27:37Z</time>
      </trkpt>
      <trkpt lat="43.4588" lon="1.65289">
        <ele>210</ele>
        <time>2024-01-20T15:27:38Z</time>
      </trkpt>
      <trkpt lat="43.45881" lon="1.65292">
        <ele>210</ele>
        <time>2024-01-20T15:27:39Z</time>
      </trkpt>
      <trkpt lat="43.45883" lon="1.65294">
        <ele>210</ele>
        <time>2024-01-20T15:27:40Z</time>
      </trkpt>
      <trkpt lat="43.45885" lon="1.65297">
        <ele>210</ele>
        <time>2024-01-20T15:27:41Z</time>
      </trkpt>
      <trkpt lat="43.45887" lon="1.653">
        <ele>210</ele>
        <time>2024-01-20T15:27:42Z</time>
      </trkpt>
      <trkpt lat="43.45889" lon="1.65303">
        <ele>210</ele>
        <time>2024-01-20T15:27:43Z</time>
      </trkpt>
      <trkpt lat="43.45891" lon="1.65305">
        <ele>210</ele>
        <time>2024-01-20T15:27:44Z</time>
      </trkpt>
      <trkpt lat="43.45894" lon="1.65308">
        <ele>210</ele>
        <time>2024-01-20T15:27:45Z</time>
      </trkpt>
      <trkpt lat="43.45896" lon="1.65311">
        <ele>210</ele>
        <time>2024-01-20T15:27:46Z</time>
      </trkpt>
      <trkpt lat="43.45898" lon="1.65313">
        <ele>210</ele>
        <time>2024-01-20T15:27:47Z</time>
      </trkpt>
      <trkpt lat="43.45899" lon="1.65316">
        <ele>210</ele>
        <time>2024-01-20T15:27:48Z</time>
      </trkpt>
      <trkpt lat="43.45901" lon="1.65319">
        <ele>210</ele>
        <time>2024-01-20T15:27:49Z</time>
      </trkpt>
      <trkpt lat="43.45902" lon="1.65321">
        <ele>210</ele>
        <time>2024-01-20T15:27:50Z</time>
      </trkpt>
      <trkpt lat="43.45903" lon="1.65323">
        <ele>210</ele>
        <time>2024-01-20T15:27:51Z</time>
      </trkpt>
      <trkpt lat="43.45905" lon="1.65325">
        <ele>210</ele>
        <time>2024-01-20T15:27:52Z</time>
      </trkpt>
      <trkpt lat="43.45906" lon="1.65327">
        <ele>210</ele>
        <time>2024-01-20T15:27:53Z</time>
      </trkpt>
      <trkpt lat="43.45908" lon="1.65329">
        <ele>210</ele>
        <time>2024-01-20T15:27:54Z</time>
      </trkpt>
      <trkpt lat="43.4591" lon="1.65333">
        <ele>210</ele>
        <time>2024-01-20T15:27:55Z</time>
      </trkpt>
      <trkpt lat="43.45911" lon="1.65334">
        <ele>210</ele>
        <time>2024-01-20T15:27:56Z</time>
      </trkpt>
      <trkpt lat="43.45913" lon="1.65336">
        <ele>210</ele>
        <time>2024-01-20T15:27:57Z</time>
      </trkpt>
      <trkpt lat="43.45914" lon="1.65338">
        <ele>209</ele>
        <time>2024-01-20T15:27:58Z</time>
      </trkpt>
      <trkpt lat="43.45917" lon="1.65341">
        <ele>209</ele>
        <time>2024-01-20T15:27:59Z</time>
      </trkpt>
      <trkpt lat="43.45917" lon="1.65342">
        <ele>209</ele>
        <time>2024-01-20T15:28:00Z</time>
      </trkpt>
      <trkpt lat="43.45919" lon="1.65345">
        <ele>209</ele>
        <time>2024-01-20T15:28:01Z</time>
      </trkpt>
      <trkpt lat="43.45921" lon="1.65349">
        <ele>209</ele>
        <time>2024-01-20T15:28:02Z</time>
      </trkpt>
      <trkpt lat="43.45922" lon="1.65352">
        <ele>209</ele>
        <time>2024-01-20T15:28:03Z</time>
      </trkpt>
      <trkpt lat="43.45924" lon="1.65356">
        <ele>209</ele>
        <time>2024-01-20T15:28:04Z</time>
      </trkpt>
      <trkpt lat="43.45925" lon="1.65359">
        <ele>209</ele>
        <time>2024-01-20T15:28:05Z</time>
      </trkpt>
      <trkpt lat="43.45927" lon="1.65362">
        <ele>209</ele>
        <time>2024-01-20T15:28:06Z</time>
      </trkpt>
      <trkpt lat="43.45929" lon="1.65366">
        <ele>209</ele>
        <time>2024-01-20T15:28:07Z</time>
      </trkpt>
      <trkpt lat="43.45932" lon="1.65369">
        <ele>209</ele>
        <time>2024-01-20T15:28:08Z</time>
      </trkpt>
      <trkpt lat="43.45934" lon="1.65373">
        <ele>209</ele>
        <time>2024-01-20T15:28:09Z</time>
      </trkpt>
      <trkpt lat="43.45935" lon="1.65376">
        <ele>208</ele>
        <time>2024-01-20T15:28:10Z</time>
      </trkpt>
      <trkpt lat="43.45937" lon="1.65379">
        <ele>208</ele>
        <time>2024-01-20T15:28:11Z</time>
      </trkpt>
      <trkpt lat="43.45939" lon="1.65383">
        <ele>207</ele>
        <time>2024-01-20T15:28:12Z</time>
      </trkpt>
      <trkpt lat="43.45941" lon="1.65386">
        <ele>207</ele>
        <time>2024-01-20T15:28:13Z</time>
      </trkpt>
      <trkpt lat="43.45944" lon="1.65391">
        <ele>207</ele>
        <time>2024-01-20T15:28:14Z</time>
      </trkpt>
      <trkpt lat="43.45945" lon="1.65392">
        <ele>205</ele>
        <time>2024-01-20T15:28:15Z</time>
      </trkpt>
      <trkpt lat="43.45948" lon="1.65397">
        <ele>205</ele>
        <time>2024-01-20T15:28:16Z</time>
      </trkpt>
      <trkpt lat="43.45949" lon="1.65398">
        <ele>204</ele>
        <time>2024-01-20T15:28:17Z</time>
      </trkpt>
      <trkpt lat="43.45952" lon="1.65403">
        <ele>204</ele>
        <time>2024-01-20T15:28:18Z</time>
      </trkpt>
      <trkpt lat="43.45953" lon="1.65404">
        <ele>202</ele>
        <time>2024-01-20T15:28:19Z</time>
      </trkpt>
      <trkpt lat="43.45955" lon="1.65408">
        <ele>202</ele>
        <time>2024-01-20T15:28:20Z</time>
      </trkpt>
      <trkpt lat="43.45956" lon="1.65411">
        <ele>203</ele>
        <time>2024-01-20T15:28:21Z</time>
      </trkpt>
      <trkpt lat="43.45958" lon="1.65414">
        <ele>203</ele>
        <time>2024-01-20T15:28:22Z</time>
      </trkpt>
      <trkpt lat="43.45961" lon="1.65417">
        <ele>202</ele>
        <time>2024-01-20T15:28:23Z</time>
      </trkpt>
      <trkpt lat="43.45963" lon="1.65421">
        <ele>202</ele>
        <time>2024-01-20T15:28:24Z</time>
      </trkpt>
      <trkpt lat="43.45965" lon="1.65425">
        <ele>201</ele>
        <time>2024-01-20T15:28:25Z</time>
      </trkpt>
      <trkpt lat="43.45968" lon="1.65429">
        <ele>200</ele>
        <time>2024-01-20T15:28:26Z</time>
      </trkpt>
      <trkpt lat="43.4597" lon="1.65432">
        <ele>200</ele>
        <time>2024-01-20T15:28:27Z</time>
      </trkpt>
      <trkpt lat="43.45972" lon="1.65436">
        <ele>199</ele>
        <time>2024-01-20T15:28:28Z</time>
      </trkpt>
      <trkpt lat="43.45974" lon="1.6544">
        <ele>198</ele>
        <time>2024-01-20T15:28:29Z</time>
      </trkpt>
      <trkpt lat="43.45976" lon="1.65443">
        <ele>198</ele>
        <time>2024-01-20T15:28:30Z</time>
      </trkpt>
      <trkpt lat="43.45978" lon="1.65447">
        <ele>198</ele>
        <time>2024-01-20T15:28:31Z</time>
      </trkpt>
      <trkpt lat="43.4598" lon="1.6545">
        <ele>198</ele>
        <time>2024-01-20T15:28:32Z</time>
      </trkpt>
      <trkpt lat="43.45982" lon="1.65454">
        <ele>198</ele>
        <time>2024-01-20T15:28:33Z</time>
      </trkpt>
      <trkpt lat="43.45984" lon="1.65457">
        <ele>198</ele>
        <time>2024-01-20T15:28:34Z</time>
      </trkpt>
      <trkpt lat="43.45985" lon="1.6546">
        <ele>198</ele>
        <time>2024-01-20T15:28:35Z</time>
      </trkpt>
      <trkpt lat="43.45987" lon="1.65464">
        <ele>197</ele>
        <time>2024-01-20T15:28:36Z</time>
      </trkpt>
      <trkpt lat="43.45989" lon="1.65467">
        <ele>198</ele>
        <time>2024-01-20T15:28:37Z</time>
      </trkpt>
      <trkpt lat="43.45991" lon="1.6547">
        <ele>198</ele>
        <time>2024-01-20T15:28:38Z</time>
      </trkpt>
      <trkpt lat="43.45992" lon="1.65473">
        <ele>197</ele>
        <time>2024-01-20T15:28:39Z</time>
      </trkpt>
      <trkpt lat="43.45994" lon="1.65477">
        <ele>197</ele>
        <time>2024-01-20T15:28:40Z</time>
      </trkpt>
      <trkpt lat="43.45997" lon="1.65481">
        <ele>197</ele>
        <time>2024-01-20T15:28:41Z</time>
      </trkpt>
      <trkpt lat="43.45998" lon="1.65483">
        <ele>196</ele>
        <time>2024-01-20T15:28:42Z</time>
      </trkpt>
      <trkpt lat="43.46" lon="1.65486">
        <ele>195</ele>
        <time>2024-01-20T15:28:43Z</time>
      </trkpt>
      <trkpt lat="43.46002" lon="1.6549">
        <ele>195</ele>
        <time>2024-01-20T15:28:44Z</time>
      </trkpt>
      <trkpt lat="43.46003" lon="1.65492">
        <ele>195</ele>
        <time>2024-01-20T15:28:45Z</time>
      </trkpt>
      <trkpt lat="43.46005" lon="1.65495">
        <ele>195</ele>
        <time>2024-01-20T15:28:46Z</time>
      </trkpt>
      <trkpt lat="43.46007" lon="1.65498">
        <ele>195</ele>
        <time>2024-01-20T15:28:47Z</time>
      </trkpt>
      <trkpt lat="43.46008" lon="1.65501">
        <ele>195</ele>
        <time>2024-01-20T15:28:48Z</time>
      </trkpt>
      <trkpt lat="43.4601" lon="1.65504">
        <ele>194</ele>
        <time>2024-01-20T15:28:49Z</time>
      </trkpt>
      <trkpt lat="43.46011" lon="1.65507">
        <ele>194</ele>
        <time>2024-01-20T15:28:50Z</time>
      </trkpt>
      <trkpt lat="43.46013" lon="1.65509">
        <ele>194</ele>
        <time>2024-01-20T15:28:51Z</time>
      </trkpt>
      <trkpt lat="43.46015" lon="1.65512">
        <ele>194</ele>
        <time>2024-01-20T15:28:52Z</time>
      </trkpt>
      <trkpt lat="43.46017" lon="1.65515">
        <ele>194</ele>
        <time>2024-01-20T15:28:53Z</time>
      </trkpt>
      <trkpt lat="43.46018" lon="1.65518">
        <ele>194</ele>
        <time>2024-01-20T15:28:54Z</time>
      </trkpt>
      <trkpt lat="43.4602" lon="1.65521">
        <ele>194</ele>
        <time>2024-01-20T15:28:55Z</time>
      </trkpt>
      <trkpt lat="43.46022" lon="1.65524">
        <ele>194</ele>
        <time>2024-01-20T15:28:56Z</time>
      </trkpt>
      <trkpt lat="43.46024" lon="1.65527">
        <ele>194</ele>
        <time>2024-01-20T15:28:57Z</time>
      </trkpt>
      <trkpt lat="43.46026" lon="1.6553">
        <ele>193</ele>
        <time>2024-01-20T15:28:58Z</time>
      </trkpt>
      <trkpt lat="43.46028" lon="1.65533">
        <ele>193</ele>
        <time>2024-01-20T15:28:59Z</time>
      </trkpt>
      <trkpt lat="43.46031" lon="1.65535">
        <ele>193</ele>
        <time>2024-01-20T15:29:00Z</time>
      </trkpt>
      <trkpt lat="43.46033" lon="1.65538">
        <ele>193</ele>
        <time>2024-01-20T15:29:01Z</time>
      </trkpt>
      <trkpt lat="43.46035" lon="1.6554">
        <ele>193</ele>
        <time>2024-01-20T15:29:02Z</time>
      </trkpt>
      <trkpt lat="43.46037" lon="1.65542">
        <ele>192</ele>
        <time>2024-01-20T15:29:03Z</time>
      </trkpt>
      <trkpt lat="43.46039" lon="1.65544">
        <ele>192</ele>
        <time>2024-01-20T15:29:04Z</time>
      </trkpt>
      <trkpt lat="43.46042" lon="1.65545">
        <ele>192</ele>
        <time>2024-01-20T15:29:05Z</time>
      </trkpt>
      <trkpt lat="43.46044" lon="1.65546">
        <ele>192</ele>
        <time>2024-01-20T15:29:06Z</time>
      </trkpt>
      <trkpt lat="43.46048" lon="1.65546">
        <ele>192</ele>
        <time>2024-01-20T15:29:07Z</time>
      </trkpt>
      <trkpt lat="43.46049" lon="1.65546">
        <ele>192</ele>
        <time>2024-01-20T15:29:08Z</time>
      </trkpt>
      <trkpt lat="43.46053" lon="1.65546">
        <ele>192</ele>
        <time>2024-01-20T15:29:09Z</time>
      </trkpt>
      <trkpt lat="43.46055" lon="1.65546">
        <ele>192</ele>
        <time>2024-01-20T15:29:10Z</time>
      </trkpt>
      <trkpt lat="43.46059" lon="1.65546">
        <ele>192</ele>
        <time>2024-01-20T15:29:11Z</time>
      </trkpt>
      <trkpt lat="43.4606" lon="1.65546">
        <ele>192</ele>
        <time>2024-01-20T15:29:12Z</time>
      </trkpt>
      <trkpt lat="43.46062" lon="1.65546">
        <ele>192</ele>
        <time>2024-01-20T15:29:13Z</time>
      </trkpt>
      <trkpt lat="43.46064" lon="1.65547">
        <ele>192</ele>
        <time>2024-01-20T15:29:14Z</time>
      </trkpt>
      <trkpt lat="43.46067" lon="1.65547">
        <ele>192</ele>
        <time>2024-01-20T15:29:15Z</time>
      </trkpt>
      <trkpt lat="43.46069" lon="1.65547">
        <ele>192</ele>
        <time>2024-01-20T15:29:16Z</time>
      </trkpt>
      <trkpt lat="43.46071" lon="1.65548">
        <ele>192</ele>
        <time>2024-01-20T15:29:17Z</time>
      </trkpt>
      <trkpt lat="43.46073" lon="1.65548">
        <ele>192</ele>
        <time>2024-01-20T15:29:18Z</time>
      </trkpt>
      <trkpt lat="43.46076" lon="1.65549">
        <ele>192</ele>
        <time>2024-01-20T15:29:19Z</time>
      </trkpt>
      <trkpt lat="43.46078" lon="1.65549">
        <ele>192</ele>
        <time>2024-01-20T15:29:20Z</time>
      </trkpt>
      <trkpt lat="43.4608" lon="1.6555">
        <ele>192</ele>
        <time>2024-01-20T15:29:21Z</time>
      </trkpt>
      <trkpt lat="43.46082" lon="1.65551">
        <ele>192</ele>
        <time>2024-01-20T15:29:22Z</time>
      </trkpt>
      <trkpt lat="43.46085" lon="1.65552">
        <ele>192</ele>
        <time>2024-01-20T15:29:23Z</time>
      </trkpt>
      <trkpt lat="43.46087" lon="1.65553">
        <ele>192</ele>
        <time>2024-01-20T15:29:24Z</time>
      </trkpt>
      <trkpt lat="43.46089" lon="1.65555">
        <ele>192</ele>
        <time>2024-01-20T15:29:25Z</time>
      </trkpt>
      <trkpt lat="43.46091" lon="1.65556">
        <ele>193</ele>
        <time>2024-01-20T15:29:26Z</time>
      </trkpt>
      <trkpt lat="43.46093" lon="1.65558">
        <ele>193</ele>
        <time>2024-01-20T15:29:27Z</time>
      </trkpt>
      <trkpt lat="43.46096" lon="1.6556">
        <ele>193</ele>
        <time>2024-01-20T15:29:28Z</time>
      </trkpt>
      <trkpt lat="43.46097" lon="1.65561">
        <ele>193</ele>
        <time>2024-01-20T15:29:29Z</time>
      </trkpt>
      <trkpt lat="43.461" lon="1.65563">
        <ele>193</ele>
        <time>2024-01-20T15:29:30Z</time>
      </trkpt>
      <trkpt lat="43.461" lon="1.65564">
        <ele>194</ele>
        <time>2024-01-20T15:29:31Z</time>
      </trkpt>
      <trkpt lat="43.46102" lon="1.65565">
        <ele>194</ele>
        <time>2024-01-20T15:29:32Z</time>
      </trkpt>
      <trkpt lat="43.46104" lon="1.65567">
        <ele>194</ele>
        <time>2024-01-20T15:29:33Z</time>
      </trkpt>
      <trkpt lat="43.46106" lon="1.65568">
        <ele>195</ele>
        <time>2024-01-20T15:29:34Z</time>
      </trkpt>
      <trkpt lat="43.46108" lon="1.6557">
        <ele>195</ele>
        <time>2024-01-20T15:29:35Z</time>
      </trkpt>
      <trkpt lat="43.4611" lon="1.65571">
        <ele>195</ele>
        <time>2024-01-20T15:29:36Z</time>
      </trkpt>
      <trkpt lat="43.46112" lon="1.65573">
        <ele>195</ele>
        <time>2024-01-20T15:29:37Z</time>
      </trkpt>
      <trkpt lat="43.46115" lon="1.65575">
        <ele>195</ele>
        <time>2024-01-20T15:29:38Z</time>
      </trkpt>
      <trkpt lat="43.46117" lon="1.65577">
        <ele>196</ele>
        <time>2024-01-20T15:29:39Z</time>
      </trkpt>
      <trkpt lat="43.46119" lon="1.65578">
        <ele>196</ele>
        <time>2024-01-20T15:29:40Z</time>
      </trkpt>
      <trkpt lat="43.46121" lon="1.6558">
        <ele>196</ele>
        <time>2024-01-20T15:29:41Z</time>
      </trkpt>
      <trkpt lat="43.46123" lon="1.65582">
        <ele>196</ele>
        <time>2024-01-20T15:29:42Z</time>
      </trkpt>
      <trkpt lat="43.46125" lon="1.65583">
        <ele>196</ele>
        <time>2024-01-20T15:29:43Z</time>
      </trkpt>
      <trkpt lat="43.46127" lon="1.65585">
        <ele>196</ele>
        <time>2024-01-20T15:29:44Z</time>
      </trkpt>
      <trkpt lat="43.46129" lon="1.65586">
        <ele>196</ele>
        <time>2024-01-20T15:29:45Z</time>
      </trkpt>
      <trkpt lat="43.46131" lon="1.65587">
        <ele>196</ele>
        <time>2024-01-20T15:29:46Z</time>
      </trkpt>
      <trkpt lat="43.46133" lon="1.65589">
        <ele>196</ele>
        <time>2024-01-20T15:29:47Z</time>
      </trkpt>
      <trkpt lat="43.46135" lon="1.65591">
        <ele>196</ele>
        <time>2024-01-20T15:29:48Z</time>
      </trkpt>
      <trkpt lat="43.46137" lon="1.65592">
        <ele>196</ele>
        <time>2024-01-20T15:29:49Z</time>
      </trkpt>
      <trkpt lat="43.46139" lon="1.65594">
        <ele>197</ele>
        <time>2024-01-20T15:29:50Z</time>
      </trkpt>
      <trkpt lat="43.46141" lon="1.65595">
        <ele>197</ele>
        <time>2024-01-20T15:29:51Z</time>
      </trkpt>
      <trkpt lat="43.46143" lon="1.65597">
        <ele>197</ele>
        <time>2024-01-20T15:29:52Z</time>
      </trkpt>
      <trkpt lat="43.46144" lon="1.65598">
        <ele>197</ele>
        <time>2024-01-20T15:29:53Z</time>
      </trkpt>
      <trkpt lat="43.46146" lon="1.656">
        <ele>197</ele>
        <time>2024-01-20T15:29:54Z</time>
      </trkpt>
      <trkpt lat="43.46148" lon="1.65601">
        <ele>198</ele>
        <time>2024-01-20T15:29:55Z</time>
      </trkpt>
      <trkpt lat="43.4615" lon="1.65603">
        <ele>198</ele>
        <time>2024-01-20T15:29:56Z</time>
      </trkpt>
      <trkpt lat="43.46154" lon="1.65605">
        <ele>198</ele>
        <time>2024-01-20T15:29:57Z</time>
      </trkpt>
      <trkpt lat="43.46154" lon="1.65605">
        <ele>198</ele>
        <time>2024-01-20T15:29:58Z</time>
      </trkpt>
      <trkpt lat="43.46157" lon="1.65607">
        <ele>198</ele>
        <time>2024-01-20T15:29:59Z</time>
      </trkpt>
      <trkpt lat="43.46159" lon="1.65608">
        <ele>198</ele>
        <time>2024-01-20T15:30:00Z</time>
      </trkpt>
      <trkpt lat="43.46162" lon="1.6561">
        <ele>198</ele>
        <time>2024-01-20T15:30:01Z</time>
      </trkpt>
      <trkpt lat="43.46164" lon="1.65612">
        <ele>198</ele>
        <time>2024-01-20T15:30:02Z</time>
      </trkpt>
      <trkpt lat="43.46166" lon="1.65614">
        <ele>198</ele>
        <time>2024-01-20T15:30:03Z</time>
      </trkpt>
      <trkpt lat="43.4617" lon="1.65617">
        <ele>198</ele>
        <time>2024-01-20T15:30:04Z</time>
      </trkpt>
      <trkpt lat="43.46171" lon="1.65618">
        <ele>198</ele>
        <time>2024-01-20T15:30:05Z</time>
      </trkpt>
      <trkpt lat="43.46173" lon="1.6562">
        <ele>198</ele>
        <time>2024-01-20T15:30:06Z</time>
      </trkpt>
      <trkpt lat="43.46175" lon="1.65622">
        <ele>198</ele>
        <time>2024-01-20T15:30:07Z</time>
      </trkpt>
      <trkpt lat="43.46178" lon="1.65624">
        <ele>198</ele>
        <time>2024-01-20T15:30:08Z</time>
      </trkpt>
      <trkpt lat="43.46179" lon="1.65625">
        <ele>198</ele>
        <time>2024-01-20T15:30:09Z</time>
      </trkpt>
      <trkpt lat="43.46182" lon="1.65628">
        <ele>198</ele>
        <time>2024-01-20T15:30:10Z</time>
      </trkpt>
      <trkpt lat="43.46183" lon="1.65629">
        <ele>198</ele>
        <time>2024-01-20T15:30:11Z</time>
      </trkpt>
      <trkpt lat="43.46186" lon="1.65631">
        <ele>198</ele>
        <time>2024-01-20T15:30:12Z</time>
      </trkpt>
      <trkpt lat="43.46188" lon="1.65633">
        <ele>198</ele>
        <time>2024-01-20T15:30:13Z</time>
      </trkpt>
      <trkpt lat="43.4619" lon="1.65635">
        <ele>198</ele>
        <time>2024-01-20T15:30:14Z</time>
      </trkpt>
      <trkpt lat="43.46192" lon="1.65636">
        <ele>198</ele>
        <time>2024-01-20T15:30:15Z</time>
      </trkpt>
      <trkpt lat="43.46195" lon="1.65638">
        <ele>198</ele>
        <time>2024-01-20T15:30:16Z</time>
      </trkpt>
      <trkpt lat="43.46197" lon="1.6564">
        <ele>198</ele>
        <time>2024-01-20T15:30:17Z</time>
      </trkpt>
      <trkpt lat="43.46199" lon="1.65642">
        <ele>198</ele>
        <time>2024-01-20T15:30:18Z</time>
      </trkpt>
      <trkpt lat="43.46201" lon="1.65643">
        <ele>198</ele>
        <time>2024-01-20T15:30:19Z</time>
      </trkpt>
      <trkpt lat="43.46203" lon="1.65645">
        <ele>197</ele>
        <time>2024-01-20T15:30:20Z</time>
      </trkpt>
      <trkpt lat="43.46206" lon="1.65647">
        <ele>197</ele>
        <time>2024-01-20T15:30:21Z</time>
      </trkpt>
      <trkpt lat="43.46208" lon="1.65649">
        <ele>197</ele>
        <time>2024-01-20T15:30:22Z</time>
      </trkpt>
      <trkpt lat="43.4621" lon="1.65651">
        <ele>197</ele>
        <time>2024-01-20T15:30:23Z</time>
      </trkpt>
      <trkpt lat="43.46212" lon="1.65653">
        <ele>197</ele>
        <time>2024-01-20T15:30:24Z</time>
      </trkpt>
      <trkpt lat="43.46214" lon="1.65655">
        <ele>197</ele>
        <time>2024-01-20T15:30:25Z</time>
      </trkpt>
      <trkpt lat="43.46217" lon="1.65658">
        <ele>197</ele>
        <time>2024-01-20T15:30:26Z</time>
      </trkpt>
      <trkpt lat="43.46221" lon="1.65661">
        <ele>197</ele>
        <time>2024-01-20T15:30:27Z</time>
      </trkpt>
      <trkpt lat="43.46222" lon="1.65662">
        <ele>196</ele>
        <time>2024-01-20T15:30:28Z</time>
      </trkpt>
      <trkpt lat="43.46225" lon="1.65665">
        <ele>196</ele>
        <time>2024-01-20T15:30:29Z</time>
      </trkpt>
      <trkpt lat="43.46227" lon="1.65666">
        <ele>196</ele>
        <time>2024-01-20T15:30:30Z</time>
      </trkpt>
      <trkpt lat="43.46229" lon="1.65668">
        <ele>196</ele>
        <time>2024-01-20T15:30:31Z</time>
      </trkpt>
      <trkpt lat="43.46231" lon="1.6567">
        <ele>196</ele>
        <time>2024-01-20T15:30:32Z</time>
      </trkpt>
      <trkpt lat="43.46233" lon="1.65672">
        <ele>196</ele>
        <time>2024-01-20T15:30:33Z</time>
      </trkpt>
      <trkpt lat="43.46236" lon="1.65674">
        <ele>196</ele>
        <time>2024-01-20T15:30:34Z</time>
      </trkpt>
      <trkpt lat="43.46238" lon="1.65676">
        <ele>195</ele>
        <time>2024-01-20T15:30:35Z</time>
      </trkpt>
      <trkpt lat="43.4624" lon="1.65678">
        <ele>195</ele>
        <time>2024-01-20T15:30:36Z</time>
      </trkpt>
      <trkpt lat="43.46242" lon="1.6568">
        <ele>195</ele>
        <time>2024-01-20T15:30:37Z</time>
      </trkpt>
      <trkpt lat="43.46245" lon="1.65682">
        <ele>195</ele>
        <time>2024-01-20T15:30:38Z</time>
      </trkpt>
      <trkpt lat="43.46247" lon="1.65683">
        <ele>195</ele>
        <time>2024-01-20T15:30:39Z</time>
      </trkpt>
      <trkpt lat="43.4625" lon="1.65685">
        <ele>194</ele>
        <time>2024-01-20T15:30:40Z</time>
      </trkpt>
      <trkpt lat="43.46252" lon="1.65686">
        <ele>194</ele>
        <time>2024-01-20T15:30:41Z</time>
      </trkpt>
      <trkpt lat="43.46255" lon="1.65688">
        <ele>194</ele>
        <time>2024-01-20T15:30:42Z</time>
      </trkpt>
      <trkpt lat="43.46257" lon="1.6569">
        <ele>194</ele>
        <time>2024-01-20T15:30:43Z</time>
      </trkpt>
      <trkpt lat="43.46259" lon="1.65691">
        <ele>194</ele>
        <time>2024-01-20T15:30:44Z</time>
      </trkpt>
      <trkpt lat="43.46261" lon="1.65693">
        <ele>193</ele>
        <time>2024-01-20T15:30:45Z</time>
      </trkpt>
      <trkpt lat="43.46265" lon="1.65695">
        <ele>193</ele>
        <time>2024-01-20T15:30:46Z</time>
      </trkpt>
      <trkpt lat="43.46266" lon="1.65696">
        <ele>193</ele>
        <time>2024-01-20T15:30:47Z</time>
      </trkpt>
      <trkpt lat="43.46269" lon="1.65699">
        <ele>193</ele>
        <time>2024-01-20T15:30:48Z</time>
      </trkpt>
      <trkpt lat="43.4627" lon="1.657">
        <ele>192</ele>
        <time>2024-01-20T15:30:49Z</time>
      </trkpt>
      <trkpt lat="43.46273" lon="1.65702">
        <ele>192</ele>
        <time>2024-01-20T15:30:50Z</time>
      </trkpt>
      <trkpt lat="43.46275" lon="1.65704">
        <ele>192</ele>
        <time>2024-01-20T15:30:51Z</time>
      </trkpt>
      <trkpt lat="43.46277" lon="1.65705">
        <ele>192</ele>
        <time>2024-01-20T15:30:52Z</time>
      </trkpt>
      <trkpt lat="43.46279" lon="1.65707">
        <ele>191</ele>
        <time>2024-01-20T15:30:53Z</time>
      </trkpt>
      <trkpt lat="43.46282" lon="1.65709">
        <ele>191</ele>
        <time>2024-01-20T15:30:54Z</time>
      </trkpt>
      <trkpt lat="43.46284" lon="1.65711">
        <ele>191</ele>
        <time>2024-01-20T15:30:55Z</time>
      </trkpt>
      <trkpt lat="43.46286" lon="1.65713">
        <ele>191</ele>
        <time>2024-01-20T15:30:56Z</time>
      </trkpt>
      <trkpt lat="43.46288" lon="1.65715">
        <ele>191</ele>
        <time>2024-01-20T15:30:57Z</time>
      </trkpt>
      <trkpt lat="43.4629" lon="1.65716">
        <ele>191</ele>
        <time>2024-01-20T15:30:58Z</time>
      </trkpt>
      <trkpt lat="43.46292" lon="1.65718">
        <ele>191</ele>
        <time>2024-01-20T15:30:59Z</time>
      </trkpt>
      <trkpt lat="43.46295" lon="1.6572">
        <ele>191</ele>
        <time>2024-01-20T15:31:00Z</time>
      </trkpt>
      <trkpt lat="43.46297" lon="1.65721">
        <ele>190</ele>
        <time>2024-01-20T15:31:01Z</time>
      </trkpt>
      <trkpt lat="43.463" lon="1.65723">
        <ele>190</ele>
        <time>2024-01-20T15:31:02Z</time>
      </trkpt>
      <trkpt lat="43.46301" lon="1.65724">
        <ele>190</ele>
        <time>2024-01-20T15:31:03Z</time>
      </trkpt>
      <trkpt lat="43.46304" lon="1.65727">
        <ele>190</ele>
        <time>2024-01-20T15:31:04Z</time>
      </trkpt>
      <trkpt lat="43.46307" lon="1.6573">
        <ele>190</ele>
        <time>2024-01-20T15:31:05Z</time>
      </trkpt>
      <trkpt lat="43.46308" lon="1.65731">
        <ele>190</ele>
        <time>2024-01-20T15:31:06Z</time>
      </trkpt>
      <trkpt lat="43.46311" lon="1.65734">
        <ele>190</ele>
        <time>2024-01-20T15:31:07Z</time>
      </trkpt>
      <trkpt lat="43.46312" lon="1.65735">
        <ele>190</ele>
        <time>2024-01-20T15:31:08Z</time>
      </trkpt>
      <trkpt lat="43.46315" lon="1.65737">
        <ele>190</ele>
        <time>2024-01-20T15:31:09Z</time>
      </trkpt>
      <trkpt lat="43.46317" lon="1.65738">
        <ele>190</ele>
        <time>2024-01-20T15:31:10Z</time>
      </trkpt>
      <trkpt lat="43.46319" lon="1.65741">
        <ele>190</ele>
        <time>2024-01-20T15:31:11Z</time>
      </trkpt>
      <trkpt lat="43.46322" lon="1.65743">
        <ele>190</ele>
        <time>2024-01-20T15:31:12Z</time>
      </trkpt>
      <trkpt lat="43.46324" lon="1.65745">
        <ele>190</ele>
        <time>2024-01-20T15:31:13Z</time>
      </trkpt>
      <trkpt lat="43.46326" lon="1.65747">
        <ele>189</ele>
        <time>2024-01-20T15:31:14Z</time>
      </trkpt>
      <trkpt lat="43.46328" lon="1.6575">
        <ele>189</ele>
        <time>2024-01-20T15:31:15Z</time>
      </trkpt>
      <trkpt lat="43.4633" lon="1.65752">
        <ele>189</ele>
        <time>2024-01-20T15:31:16Z</time>
      </trkpt>
      <trkpt lat="43.46332" lon="1.65754">
        <ele>189</ele>
        <time>2024-01-20T15:31:17Z</time>
      </trkpt>
      <trkpt lat="43.46334" lon="1.65756">
        <ele>189</ele>
        <time>2024-01-20T15:31:18Z</time>
      </trkpt>
      <trkpt lat="43.46336" lon="1.65758">
        <ele>188</ele>
        <time>2024-01-20T15:31:19Z</time>
      </trkpt>
      <trkpt lat="43.46339" lon="1.6576">
        <ele>188</ele>
        <time>2024-01-20T15:31:20Z</time>
      </trkpt>
      <trkpt lat="43.46341" lon="1.65762">
        <ele>188</ele>
        <time>2024-01-20T15:31:21Z</time>
      </trkpt>
      <trkpt lat="43.46343" lon="1.65764">
        <ele>187</ele>
        <time>2024-01-20T15:31:22Z</time>
      </trkpt>
      <trkpt lat="43.46346" lon="1.65767">
        <ele>187</ele>
        <time>2024-01-20T15:31:23Z</time>
      </trkpt>
      <trkpt lat="43.46349" lon="1.6577">
        <ele>187</ele>
        <time>2024-01-20T15:31:24Z</time>
      </trkpt>
      <trkpt lat="43.4635" lon="1.65771">
        <ele>187</ele>
        <time>2024-01-20T15:31:25Z</time>
      </trkpt>
      <trkpt lat="43.46354" lon="1.65774">
        <ele>187</ele>
        <time>2024-01-20T15:31:26Z</time>
      </trkpt>
      <trkpt lat="43.46355" lon="1.65775">
        <ele>187</ele>
        <time>2024-01-20T15:31:27Z</time>
      </trkpt>
      <trkpt lat="43.46357" lon="1.65778">
        <ele>187</ele>
        <time>2024-01-20T15:31:28Z</time>
      </trkpt>
      <trkpt lat="43.46358" lon="1.6578">
        <ele>187</ele>
        <time>2024-01-20T15:31:29Z</time>
      </trkpt>
      <trkpt lat="43.46359" lon="1.65782">
        <ele>186</ele>
        <time>2024-01-20T15:31:30Z</time>
      </trkpt>
      <trkpt lat="43.46361" lon="1.65784">
        <ele>186</ele>
        <time>2024-01-20T15:31:31Z</time>
      </trkpt>
      <trkpt lat="43.46363" lon="1.65786">
        <ele>186</ele>
        <time>2024-01-20T15:31:32Z</time>
      </trkpt>
      <trkpt lat="43.46365" lon="1.65788">
        <ele>186</ele>
        <time>2024-01-20T15:31:33Z</time>
      </trkpt>
      <trkpt lat="43.46367" lon="1.6579">
        <ele>186</ele>
        <time>2024-01-20T15:31:34Z</time>
      </trkpt>
      <trkpt lat="43.46369" lon="1.65791">
        <ele>186</ele>
        <time>2024-01-20T15:31:35Z</time>
      </trkpt>
      <trkpt lat="43.46371" lon="1.65794">
        <ele>186</ele>
        <time>2024-01-20T15:31:36Z</time>
      </trkpt>
      <trkpt lat="43.46373" lon="1.65796">
        <ele>186</ele>
        <time>2024-01-20T15:31:37Z</time>
      </trkpt>
      <trkpt lat="43.46376" lon="1.65799">
        <ele>186</ele>
        <time>2024-01-20T15:31:38Z</time>
      </trkpt>
      <trkpt lat="43.46377" lon="1.658">
        <ele>186</ele>
        <time>2024-01-20T15:31:39Z</time>
      </trkpt>
      <trkpt lat="43.46379" lon="1.65801">
        <ele>187</ele>
        <time>2024-01-20T15:31:40Z</time>
      </trkpt>
      <trkpt lat="43.46381" lon="1.65803">
        <ele>187</ele>
        <time>2024-01-20T15:31:41Z</time>
      </trkpt>
      <trkpt lat="43.46383" lon="1.65805">
        <ele>187</ele>
        <time>2024-01-20T15:31:42Z</time>
      </trkpt>
      <trkpt lat="43.46386" lon="1.65807">
        <ele>187</ele>
        <time>2024-01-20T15:31:43Z</time>
      </trkpt>
      <trkpt lat="43.46387" lon="1.65808">
        <ele>187</ele>
        <time>2024-01-20T15:31:44Z</time>
      </trkpt>
      <trkpt lat="43.4639" lon="1.65809">
        <ele>187</ele>
        <time>2024-01-20T15:31:45Z</time>
      </trkpt>
      <trkpt lat="43.46394" lon="1.65811">
        <ele>187</ele>
        <time>2024-01-20T15:31:46Z</time>
      </trkpt>
      <trkpt lat="43.46395" lon="1.65812">
        <ele>187</ele>
        <time>2024-01-20T15:31:47Z</time>
      </trkpt>
      <trkpt lat="43.46398" lon="1.65814">
        <ele>187</ele>
        <time>2024-01-20T15:31:48Z</time>
      </trkpt>
      <trkpt lat="43.464" lon="1.65815">
        <ele>188</ele>
        <time>2024-01-20T15:31:49Z</time>
      </trkpt>
      <trkpt lat="43.46402" lon="1.65816">
        <ele>188</ele>
        <time>2024-01-20T15:31:50Z</time>
      </trkpt>
      <trkpt lat="43.46404" lon="1.65818">
        <ele>188</ele>
        <time>2024-01-20T15:31:51Z</time>
      </trkpt>
      <trkpt lat="43.46406" lon="1.65819">
        <ele>188</ele>
        <time>2024-01-20T15:31:52Z</time>
      </trkpt>
      <trkpt lat="43.46408" lon="1.65821">
        <ele>188</ele>
        <time>2024-01-20T15:31:53Z</time>
      </trkpt>
      <trkpt lat="43.46411" lon="1.65822">
        <ele>188</ele>
        <time>2024-01-20T15:31:54Z</time>
      </trkpt>
      <trkpt lat="43.46413" lon="1.65824">
        <ele>188</ele>
        <time>2024-01-20T15:31:55Z</time>
      </trkpt>
      <trkpt lat="43.46415" lon="1.65825">
        <ele>188</ele>
        <time>2024-01-20T15:31:56Z</time>
      </trkpt>
      <trkpt lat="43.46417" lon="1.65827">
        <ele>188</ele>
        <time>2024-01-20T15:31:57Z</time>
      </trkpt>
      <trkpt lat="43.46419" lon="1.65828">
        <ele>188</ele>
        <time>2024-01-20T15:31:58Z</time>
      </trkpt>
      <trkpt lat="43.46421" lon="1.65829">
        <ele>188</ele>
        <time>2024-01-20T15:31:59Z</time>
      </trkpt>
      <trkpt lat="43.46424" lon="1.6583">
        <ele>189</ele>
        <time>2024-01-20T15:32:00Z</time>
      </trkpt>
      <trkpt lat="43.46426" lon="1.65831">
        <ele>189</ele>
        <time>2024-01-20T15:32:01Z</time>
      </trkpt>
      <trkpt lat="43.46429" lon="1.65833">
        <ele>189</ele>
        <time>2024-01-20T15:32:02Z</time>
      </trkpt>
      <trkpt lat="43.4643" lon="1.65833">
        <ele>189</ele>
        <time>2024-01-20T15:32:03Z</time>
      </trkpt>
      <trkpt lat="43.46433" lon="1.65834">
        <ele>189</ele>
        <time>2024-01-20T15:32:04Z</time>
      </trkpt>
      <trkpt lat="43.46435" lon="1.65835">
        <ele>189</ele>
        <time>2024-01-20T15:32:05Z</time>
      </trkpt>
      <trkpt lat="43.46437" lon="1.65836">
        <ele>189</ele>
        <time>2024-01-20T15:32:06Z</time>
      </trkpt>
      <trkpt lat="43.46441" lon="1.65837">
        <ele>189</ele>
        <time>2024-01-20T15:32:07Z</time>
      </trkpt>
      <trkpt lat="43.46442" lon="1.65837">
        <ele>189</ele>
        <time>2024-01-20T15:32:08Z</time>
      </trkpt>
      <trkpt lat="43.46444" lon="1.65837">
        <ele>189</ele>
        <time>2024-01-20T15:32:09Z</time>
      </trkpt>
      <trkpt lat="43.46446" lon="1.65836">
        <ele>189</ele>
        <time>2024-01-20T15:32:10Z</time>
      </trkpt>
      <trkpt lat="43.46449" lon="1.65836">
        <ele>189</ele>
        <time>2024-01-20T15:32:11Z</time>
      </trkpt>
      <trkpt lat="43.46451" lon="1.65835">
        <ele>189</ele>
        <time>2024-01-20T15:32:12Z</time>
      </trkpt>
      <trkpt lat="43.46454" lon="1.65833">
        <ele>189</ele>
        <time>2024-01-20T15:32:13Z</time>
      </trkpt>
      <trkpt lat="43.46456" lon="1.65832">
        <ele>189</ele>
        <time>2024-01-20T15:32:14Z</time>
      </trkpt>
      <trkpt lat="43.46458" lon="1.6583">
        <ele>189</ele>
        <time>2024-01-20T15:32:15Z</time>
      </trkpt>
      <trkpt lat="43.4646" lon="1.65828">
        <ele>189</ele>
        <time>2024-01-20T15:32:16Z</time>
      </trkpt>
      <trkpt lat="43.46461" lon="1.65825">
        <ele>189</ele>
        <time>2024-01-20T15:32:17Z</time>
      </trkpt>
      <trkpt lat="43.46463" lon="1.65822">
        <ele>189</ele>
        <time>2024-01-20T15:32:18Z</time>
      </trkpt>
      <trkpt lat="43.46464" lon="1.65819">
        <ele>189</ele>
        <time>2024-01-20T15:32:19Z</time>
      </trkpt>
      <trkpt lat="43.46466" lon="1.65816">
        <ele>189</ele>
        <time>2024-01-20T15:32:20Z</time>
      </trkpt>
      <trkpt lat="43.46468" lon="1.65811">
        <ele>189</ele>
        <time>2024-01-20T15:32:21Z</time>
      </trkpt>
      <trkpt lat="43.46468" lon="1.6581">
        <ele>189</ele>
        <time>2024-01-20T15:32:22Z</time>
      </trkpt>
      <trkpt lat="43.4647" lon="1.65807">
        <ele>189</ele>
        <time>2024-01-20T15:32:23Z</time>
      </trkpt>
      <trkpt lat="43.46471" lon="1.65803">
        <ele>189</ele>
        <time>2024-01-20T15:32:24Z</time>
      </trkpt>
      <trkpt lat="43.46473" lon="1.65801">
        <ele>189</ele>
        <time>2024-01-20T15:32:25Z</time>
      </trkpt>
      <trkpt lat="43.46476" lon="1.65799">
        <ele>189</ele>
        <time>2024-01-20T15:32:26Z</time>
      </trkpt>
      <trkpt lat="43.46478" lon="1.65798">
        <ele>189</ele>
        <time>2024-01-20T15:32:27Z</time>
      </trkpt>
      <trkpt lat="43.4648" lon="1.65798">
        <ele>189</ele>
        <time>2024-01-20T15:32:28Z</time>
      </trkpt>
      <trkpt lat="43.4648" lon="1.65798">
        <ele>188</ele>
        <time>2024-01-20T15:32:29Z</time>
      </trkpt>
      <trkpt lat="43.46484" lon="1.65799">
        <ele>188</ele>
        <time>2024-01-20T15:32:30Z</time>
      </trkpt>
      <trkpt lat="43.46486" lon="1.65799">
        <ele>188</ele>
        <time>2024-01-20T15:32:31Z</time>
      </trkpt>
      <trkpt lat="43.46488" lon="1.65799">
        <ele>188</ele>
        <time>2024-01-20T15:32:32Z</time>
      </trkpt>
      <trkpt lat="43.4649" lon="1.65798">
        <ele>188</ele>
        <time>2024-01-20T15:32:33Z</time>
      </trkpt>
      <trkpt lat="43.46493" lon="1.65798">
        <ele>188</ele>
        <time>2024-01-20T15:32:34Z</time>
      </trkpt>
      <trkpt lat="43.46495" lon="1.65797">
        <ele>188</ele>
        <time>2024-01-20T15:32:35Z</time>
      </trkpt>
      <trkpt lat="43.46497" lon="1.65797">
        <ele>188</ele>
        <time>2024-01-20T15:32:36Z</time>
      </trkpt>
      <trkpt lat="43.465" lon="1.65797">
        <ele>188</ele>
        <time>2024-01-20T15:32:37Z</time>
      </trkpt>
      <trkpt lat="43.46502" lon="1.65798">
        <ele>188</ele>
        <time>2024-01-20T15:32:38Z</time>
      </trkpt>
      <trkpt lat="43.46505" lon="1.65797">
        <ele>188</ele>
        <time>2024-01-20T15:32:39Z</time>
      </trkpt>
      <trkpt lat="43.46507" lon="1.65797">
        <ele>188</ele>
        <time>2024-01-20T15:32:40Z</time>
      </trkpt>
      <trkpt lat="43.46509" lon="1.65797">
        <ele>187</ele>
        <time>2024-01-20T15:32:41Z</time>
      </trkpt>
      <trkpt lat="43.46511" lon="1.65796">
        <ele>187</ele>
        <time>2024-01-20T15:32:42Z</time>
      </trkpt>
      <trkpt lat="43.46514" lon="1.65796">
        <ele>187</ele>
        <time>2024-01-20T15:32:43Z</time>
      </trkpt>
      <trkpt lat="43.46517" lon="1.65796">
        <ele>187</ele>
        <time>2024-01-20T15:32:44Z</time>
      </trkpt>
      <trkpt lat="43.46519" lon="1.65796">
        <ele>187</ele>
        <time>2024-01-20T15:32:45Z</time>
      </trkpt>
      <trkpt lat="43.46521" lon="1.65795">
        <ele>187</ele>
        <time>2024-01-20T15:32:46Z</time>
      </trkpt>
      <trkpt lat="43.46524" lon="1.65795">
        <ele>187</ele>
        <time>2024-01-20T15:32:47Z</time>
      </trkpt>
      <trkpt lat="43.46527" lon="1.65794">
        <ele>187</ele>
        <time>2024-01-20T15:32:48Z</time>
      </trkpt>
      <trkpt lat="43.46529" lon="1.65794">
        <ele>187</ele>
        <time>2024-01-20T15:32:49Z</time>
      </trkpt>
      <trkpt lat="43.46531" lon="1.65794">
        <ele>187</ele>
        <time>2024-01-20T15:32:50Z</time>
      </trkpt>
      <trkpt lat="43.46533" lon="1.65794">
        <ele>187</ele>
        <time>2024-01-20T15:32:51Z</time>
      </trkpt>
      <trkpt lat="43.46535" lon="1.65793">
        <ele>187</ele>
        <time>2024-01-20T15:32:52Z</time>
      </trkpt>
      <trkpt lat="43.46537" lon="1.65793">
        <ele>187</ele>
        <time>2024-01-20T15:32:53Z</time>
      </trkpt>
      <trkpt lat="43.4654" lon="1.65793">
        <ele>187</ele>
        <time>2024-01-20T15:32:54Z</time>
      </trkpt>
      <trkpt lat="43.46542" lon="1.65793">
        <ele>187</ele>
        <time>2024-01-20T15:32:55Z</time>
      </trkpt>
      <trkpt lat="43.46544" lon="1.65793">
        <ele>187</ele>
        <time>2024-01-20T15:32:56Z</time>
      </trkpt>
      <trkpt lat="43.46547" lon="1.65794">
        <ele>187</ele>
        <time>2024-01-20T15:32:57Z</time>
      </trkpt>
      <trkpt lat="43.46549" lon="1.65794">
        <ele>186</ele>
        <time>2024-01-20T15:32:58Z</time>
      </trkpt>
      <trkpt lat="43.46553" lon="1.65794">
        <ele>186</ele>
        <time>2024-01-20T15:32:59Z</time>
      </trkpt>
      <trkpt lat="43.46555" lon="1.65794">
        <ele>186</ele>
        <time>2024-01-20T15:33:00Z</time>
      </trkpt>
      <trkpt lat="43.46557" lon="1.65794">
        <ele>186</ele>
        <time>2024-01-20T15:33:01Z</time>
      </trkpt>
      <trkpt lat="43.4656" lon="1.65794">
        <ele>186</ele>
        <time>2024-01-20T15:33:02Z</time>
      </trkpt>
      <trkpt lat="43.46563" lon="1.65793">
        <ele>186</ele>
        <time>2024-01-20T15:33:03Z</time>
      </trkpt>
      <trkpt lat="43.46566" lon="1.65792">
        <ele>186</ele>
        <time>2024-01-20T15:33:04Z</time>
      </trkpt>
      <trkpt lat="43.46569" lon="1.65792">
        <ele>186</ele>
        <time>2024-01-20T15:33:05Z</time>
      </trkpt>
      <trkpt lat="43.46571" lon="1.65793">
        <ele>186</ele>
        <time>2024-01-20T15:33:06Z</time>
      </trkpt>
      <trkpt lat="43.46574" lon="1.65793">
        <ele>185</ele>
        <time>2024-01-20T15:33:07Z</time>
      </trkpt>
      <trkpt lat="43.46577" lon="1.65793">
        <ele>185</ele>
        <time>2024-01-20T15:33:08Z</time>
      </trkpt>
      <trkpt lat="43.46581" lon="1.65793">
        <ele>185</ele>
        <time>2024-01-20T15:33:09Z</time>
      </trkpt>
      <trkpt lat="43.46584" lon="1.65794">
        <ele>185</ele>
        <time>2024-01-20T15:33:10Z</time>
      </trkpt>
      <trkpt lat="43.46588" lon="1.65794">
        <ele>183</ele>
        <time>2024-01-20T15:33:11Z</time>
      </trkpt>
      <trkpt lat="43.46591" lon="1.65793">
        <ele>183</ele>
        <time>2024-01-20T15:33:12Z</time>
      </trkpt>
      <trkpt lat="43.46594" lon="1.65793">
        <ele>183</ele>
        <time>2024-01-20T15:33:13Z</time>
      </trkpt>
      <trkpt lat="43.46597" lon="1.65792">
        <ele>183</ele>
        <time>2024-01-20T15:33:14Z</time>
      </trkpt>
      <trkpt lat="43.466" lon="1.65792">
        <ele>183</ele>
        <time>2024-01-20T15:33:15Z</time>
      </trkpt>
      <trkpt lat="43.46603" lon="1.65792">
        <ele>183</ele>
        <time>2024-01-20T15:33:16Z</time>
      </trkpt>
      <trkpt lat="43.46606" lon="1.65791">
        <ele>183</ele>
        <time>2024-01-20T15:33:17Z</time>
      </trkpt>
      <trkpt lat="43.4661" lon="1.65791">
        <ele>183</ele>
        <time>2024-01-20T15:33:18Z</time>
      </trkpt>
      <trkpt lat="43.46612" lon="1.65791">
        <ele>183</ele>
        <time>2024-01-20T15:33:19Z</time>
      </trkpt>
      <trkpt lat="43.46615" lon="1.65791">
        <ele>183</ele>
        <time>2024-01-20T15:33:20Z</time>
      </trkpt>
      <trkpt lat="43.46617" lon="1.65791">
        <ele>183</ele>
        <time>2024-01-20T15:33:21Z</time>
      </trkpt>
      <trkpt lat="43.4662" lon="1.65791">
        <ele>182</ele>
        <time>2024-01-20T15:33:22Z</time>
      </trkpt>
      <trkpt lat="43.46623" lon="1.65791">
        <ele>182</ele>
        <time>2024-01-20T15:33:23Z</time>
      </trkpt>
      <trkpt lat="43.46626" lon="1.6579">
        <ele>182</ele>
        <time>2024-01-20T15:33:24Z</time>
      </trkpt>
      <trkpt lat="43.46628" lon="1.65789">
        <ele>182</ele>
        <time>2024-01-20T15:33:25Z</time>
      </trkpt>
      <trkpt lat="43.46632" lon="1.65789">
        <ele>182</ele>
        <time>2024-01-20T15:33:26Z</time>
      </trkpt>
      <trkpt lat="43.46634" lon="1.65789">
        <ele>181</ele>
        <time>2024-01-20T15:33:27Z</time>
      </trkpt>
      <trkpt lat="43.46637" lon="1.65788">
        <ele>181</ele>
        <time>2024-01-20T15:33:28Z</time>
      </trkpt>
      <trkpt lat="43.46639" lon="1.65788">
        <ele>182</ele>
        <time>2024-01-20T15:33:29Z</time>
      </trkpt>
      <trkpt lat="43.46642" lon="1.65788">
        <ele>182</ele>
        <time>2024-01-20T15:33:30Z</time>
      </trkpt>
      <trkpt lat="43.46645" lon="1.65787">
        <ele>182</ele>
        <time>2024-01-20T15:33:31Z</time>
      </trkpt>
      <trkpt lat="43.46648" lon="1.65787">
        <ele>182</ele>
        <time>2024-01-20T15:33:32Z</time>
      </trkpt>
      <trkpt lat="43.46652" lon="1.65787">
        <ele>182</ele>
        <time>2024-01-20T15:33:33Z</time>
      </trkpt>
      <trkpt lat="43.46654" lon="1.65787">
        <ele>181</ele>
        <time>2024-01-20T15:33:34Z</time>
      </trkpt>
      <trkpt lat="43.46657" lon="1.65787">
        <ele>181</ele>
        <time>2024-01-20T15:33:35Z</time>
      </trkpt>
      <trkpt lat="43.46659" lon="1.65787">
        <ele>181</ele>
        <time>2024-01-20T15:33:36Z</time>
      </trkpt>
      <trkpt lat="43.46663" lon="1.65787">
        <ele>181</ele>
        <time>2024-01-20T15:33:37Z</time>
      </trkpt>
      <trkpt lat="43.46665" lon="1.65787">
        <ele>180</ele>
        <time>2024-01-20T15:33:38Z</time>
      </trkpt>
      <trkpt lat="43.46667" lon="1.65787">
        <ele>180</ele>
        <time>2024-01-20T15:33:39Z</time>
      </trkpt>
      <trkpt lat="43.4667" lon="1.65787">
        <ele>180</ele>
        <time>2024-01-20T15:33:40Z</time>
      </trkpt>
      <trkpt lat="43.46673" lon="1.65787">
        <ele>180</ele>
        <time>2024-01-20T15:33:41Z</time>
      </trkpt>
      <trkpt lat="43.46677" lon="1.65787">
        <ele>180</ele>
        <time>2024-01-20T15:33:42Z</time>
      </trkpt>
      <trkpt lat="43.46679" lon="1.65787">
        <ele>180</ele>
        <time>2024-01-20T15:33:43Z</time>
      </trkpt>
      <trkpt lat="43.46682" lon="1.65787">
        <ele>180</ele>
        <time>2024-01-20T15:33:44Z</time>
      </trkpt>
      <trkpt lat="43.46685" lon="1.65786">
        <ele>180</ele>
        <time>2024-01-20T15:33:45Z</time>
      </trkpt>
      <trkpt lat="43.46687" lon="1.65786">
        <ele>180</ele>
        <time>2024-01-20T15:33:46Z</time>
      </trkpt>
      <trkpt lat="43.4669" lon="1.65786">
        <ele>179</ele>
        <time>2024-01-20T15:33:47Z</time>
      </trkpt>
      <trkpt lat="43.46693" lon="1.65785">
        <ele>179</ele>
        <time>2024-01-20T15:33:48Z</time>
      </trkpt>
      <trkpt lat="43.46696" lon="1.65785">
        <ele>179</ele>
        <time>2024-01-20T15:33:49Z</time>
      </trkpt>
      <trkpt lat="43.46699" lon="1.65785">
        <ele>179</ele>
        <time>2024-01-20T15:33:50Z</time>
      </trkpt>
      <trkpt lat="43.46702" lon="1.65785">
        <ele>179</ele>
        <time>2024-01-20T15:33:51Z</time>
      </trkpt>
      <trkpt lat="43.46704" lon="1.65784">
        <ele>179</ele>
        <time>2024-01-20T15:33:52Z</time>
      </trkpt>
      <trkpt lat="43.46707" lon="1.65784">
        <ele>179</ele>
        <time>2024-01-20T15:33:53Z</time>
      </trkpt>
      <trkpt lat="43.46709" lon="1.65783">
        <ele>179</ele>
        <time>2024-01-20T15:33:54Z</time>
      </trkpt>
      <trkpt lat="43.46712" lon="1.65783">
        <ele>179</ele>
        <time>2024-01-20T15:33:55Z</time>
      </trkpt>
      <trkpt lat="43.46715" lon="1.65783">
        <ele>179</ele>
        <time>2024-01-20T15:33:56Z</time>
      </trkpt>
      <trkpt lat="43.46716" lon="1.65783">
        <ele>179</ele>
        <time>2024-01-20T15:33:57Z</time>
      </trkpt>
      <trkpt lat="43.46719" lon="1.65784">
        <ele>179</ele>
        <time>2024-01-20T15:33:58Z</time>
      </trkpt>
      <trkpt lat="43.46721" lon="1.65784">
        <ele>179</ele>
        <time>2024-01-20T15:33:59Z</time>
      </trkpt>
      <trkpt lat="43.46725" lon="1.65783">
        <ele>179</ele>
        <time>2024-01-20T15:34:00Z</time>
      </trkpt>
      <trkpt lat="43.46727" lon="1.65783">
        <ele>179</ele>
        <time>2024-01-20T15:34:01Z</time>
      </trkpt>
      <trkpt lat="43.4673" lon="1.65782">
        <ele>179</ele>
        <time>2024-01-20T15:34:02Z</time>
      </trkpt>
      <trkpt lat="43.46733" lon="1.6578">
        <ele>179</ele>
        <time>2024-01-20T15:34:03Z</time>
      </trkpt>
      <trkpt lat="43.46735" lon="1.65778">
        <ele>179</ele>
        <time>2024-01-20T15:34:04Z</time>
      </trkpt>
      <trkpt lat="43.46737" lon="1.65775">
        <ele>179</ele>
        <time>2024-01-20T15:34:05Z</time>
      </trkpt>
      <trkpt lat="43.46738" lon="1.65772">
        <ele>179</ele>
        <time>2024-01-20T15:34:06Z</time>
      </trkpt>
      <trkpt lat="43.46739" lon="1.65768">
        <ele>179</ele>
        <time>2024-01-20T15:34:07Z</time>
      </trkpt>
      <trkpt lat="43.4674" lon="1.65765">
        <ele>179</ele>
        <time>2024-01-20T15:34:08Z</time>
      </trkpt>
      <trkpt lat="43.46741" lon="1.65762">
        <ele>179</ele>
        <time>2024-01-20T15:34:09Z</time>
      </trkpt>
      <trkpt lat="43.46741" lon="1.65758">
        <ele>179</ele>
        <time>2024-01-20T15:34:10Z</time>
      </trkpt>
      <trkpt lat="43.46743" lon="1.65755">
        <ele>179</ele>
        <time>2024-01-20T15:34:11Z</time>
      </trkpt>
      <trkpt lat="43.46744" lon="1.65752">
        <ele>179</ele>
        <time>2024-01-20T15:34:12Z</time>
      </trkpt>
      <trkpt lat="43.46744" lon="1.65749">
        <ele>179</ele>
        <time>2024-01-20T15:34:13Z</time>
      </trkpt>
      <trkpt lat="43.46745" lon="1.65746">
        <ele>179</ele>
        <time>2024-01-20T15:34:14Z</time>
      </trkpt>
      <trkpt lat="43.46746" lon="1.65741">
        <ele>179</ele>
        <time>2024-01-20T15:34:15Z</time>
      </trkpt>
      <trkpt lat="43.46747" lon="1.6574">
        <ele>179</ele>
        <time>2024-01-20T15:34:16Z</time>
      </trkpt>
      <trkpt lat="43.46747" lon="1.65736">
        <ele>179</ele>
        <time>2024-01-20T15:34:17Z</time>
      </trkpt>
      <trkpt lat="43.46748" lon="1.65733">
        <ele>179</ele>
        <time>2024-01-20T15:34:18Z</time>
      </trkpt>
      <trkpt lat="43.46748" lon="1.6573">
        <ele>179</ele>
        <time>2024-01-20T15:34:19Z</time>
      </trkpt>
      <trkpt lat="43.46749" lon="1.65725">
        <ele>179</ele>
        <time>2024-01-20T15:34:20Z</time>
      </trkpt>
      <trkpt lat="43.46749" lon="1.65723">
        <ele>179</ele>
        <time>2024-01-20T15:34:21Z</time>
      </trkpt>
      <trkpt lat="43.46749" lon="1.65718">
        <ele>179</ele>
        <time>2024-01-20T15:34:22Z</time>
      </trkpt>
      <trkpt lat="43.46749" lon="1.65717">
        <ele>179</ele>
        <time>2024-01-20T15:34:23Z</time>
      </trkpt>
      <trkpt lat="43.4675" lon="1.65713">
        <ele>179</ele>
        <time>2024-01-20T15:34:24Z</time>
      </trkpt>
      <trkpt lat="43.4675" lon="1.6571">
        <ele>179</ele>
        <time>2024-01-20T15:34:25Z</time>
      </trkpt>
      <trkpt lat="43.4675" lon="1.65707">
        <ele>179</ele>
        <time>2024-01-20T15:34:26Z</time>
      </trkpt>
      <trkpt lat="43.4675" lon="1.65703">
        <ele>179</ele>
        <time>2024-01-20T15:34:27Z</time>
      </trkpt>
      <trkpt lat="43.4675" lon="1.65699">
        <ele>179</ele>
        <time>2024-01-20T15:34:28Z</time>
      </trkpt>
      <trkpt lat="43.4675" lon="1.65694">
        <ele>179</ele>
        <time>2024-01-20T15:34:29Z</time>
      </trkpt>
      <trkpt lat="43.4675" lon="1.65692">
        <ele>179</ele>
        <time>2024-01-20T15:34:30Z</time>
      </trkpt>
      <trkpt lat="43.4675" lon="1.65689">
        <ele>179</ele>
        <time>2024-01-20T15:34:31Z</time>
      </trkpt>
      <trkpt lat="43.4675" lon="1.65685">
        <ele>179</ele>
        <time>2024-01-20T15:34:32Z</time>
      </trkpt>
      <trkpt lat="43.4675" lon="1.65682">
        <ele>179</ele>
        <time>2024-01-20T15:34:33Z</time>
      </trkpt>
      <trkpt lat="43.46749" lon="1.65677">
        <ele>179</ele>
        <time>2024-01-20T15:34:34Z</time>
      </trkpt>
      <trkpt lat="43.46749" lon="1.65675">
        <ele>179</ele>
        <time>2024-01-20T15:34:35Z</time>
      </trkpt>
      <trkpt lat="43.46749" lon="1.65672">
        <ele>179</ele>
        <time>2024-01-20T15:34:36Z</time>
      </trkpt>
      <trkpt lat="43.46749" lon="1.65669">
        <ele>179</ele>
        <time>2024-01-20T15:34:37Z</time>
      </trkpt>
      <trkpt lat="43.46749" lon="1.65665">
        <ele>179</ele>
        <time>2024-01-20T15:34:38Z</time>
      </trkpt>
      <trkpt lat="43.46749" lon="1.65662">
        <ele>179</ele>
        <time>2024-01-20T15:34:39Z</time>
      </trkpt>
      <trkpt lat="43.46748" lon="1.65657">
        <ele>179</ele>
        <time>2024-01-20T15:34:40Z</time>
      </trkpt>
      <trkpt lat="43.46748" lon="1.65655">
        <ele>179</ele>
        <time>2024-01-20T15:34:41Z</time>
      </trkpt>
      <trkpt lat="43.46748" lon="1.6565">
        <ele>179</ele>
        <time>2024-01-20T15:34:42Z</time>
      </trkpt>
      <trkpt lat="43.46748" lon="1.65648">
        <ele>179</ele>
        <time>2024-01-20T15:34:43Z</time>
      </trkpt>
      <trkpt lat="43.46748" lon="1.65645">
        <ele>179</ele>
        <time>2024-01-20T15:34:44Z</time>
      </trkpt>
      <trkpt lat="43.46747" lon="1.65641">
        <ele>179</ele>
        <time>2024-01-20T15:34:45Z</time>
      </trkpt>
      <trkpt lat="43.46747" lon="1.65638">
        <ele>179</ele>
        <time>2024-01-20T15:34:46Z</time>
      </trkpt>
      <trkpt lat="43.46747" lon="1.65634">
        <ele>179</ele>
        <time>2024-01-20T15:34:47Z</time>
      </trkpt>
      <trkpt lat="43.46747" lon="1.6563">
        <ele>179</ele>
        <time>2024-01-20T15:34:48Z</time>
      </trkpt>
      <trkpt lat="43.46747" lon="1.65627">
        <ele>179</ele>
        <time>2024-01-20T15:34:49Z</time>
      </trkpt>
      <trkpt lat="43.46747" lon="1.65623">
        <ele>179</ele>
        <time>2024-01-20T15:34:50Z</time>
      </trkpt>
      <trkpt lat="43.46747" lon="1.65619">
        <ele>179</ele>
        <time>2024-01-20T15:34:51Z</time>
      </trkpt>
      <trkpt lat="43.46747" lon="1.65616">
        <ele>179</ele>
        <time>2024-01-20T15:34:52Z</time>
      </trkpt>
      <trkpt lat="43.46747" lon="1.6561">
        <ele>179</ele>
        <time>2024-01-20T15:34:53Z</time>
      </trkpt>
      <trkpt lat="43.46747" lon="1.65609">
        <ele>179</ele>
        <time>2024-01-20T15:34:54Z</time>
      </trkpt>
      <trkpt lat="43.46747" lon="1.65605">
        <ele>179</ele>
        <time>2024-01-20T15:34:55Z</time>
      </trkpt>
      <trkpt lat="43.46747" lon="1.65602">
        <ele>179</ele>
        <time>2024-01-20T15:34:56Z</time>
      </trkpt>
      <trkpt lat="43.46747" lon="1.65598">
        <ele>179</ele>
        <time>2024-01-20T15:34:57Z</time>
      </trkpt>
      <trkpt lat="43.46747" lon="1.65595">
        <ele>179</ele>
        <time>2024-01-20T15:34:58Z</time>
      </trkpt>
      <trkpt lat="43.46747" lon="1.65592">
        <ele>179</ele>
        <time>2024-01-20T15:34:59Z</time>
      </trkpt>
      <trkpt lat="43.46747" lon="1.65588">
        <ele>179</ele>
        <time>2024-01-20T15:35:00Z</time>
      </trkpt>
      <trkpt lat="43.46747" lon="1.65585">
        <ele>179</ele>
        <time>2024-01-20T15:35:01Z</time>
      </trkpt>
      <trkpt lat="43.46747" lon="1.65582">
        <ele>179</ele>
        <time>2024-01-20T15:35:02Z</time>
      </trkpt>
      <trkpt lat="43.46747" lon="1.65578">
        <ele>179</ele>
        <time>2024-01-20T15:35:03Z</time>
      </trkpt>
      <trkpt lat="43.46747" lon="1.65574">
        <ele>179</ele>
        <time>2024-01-20T15:35:04Z</time>
      </trkpt>
      <trkpt lat="43.46747" lon="1.65571">
        <ele>179</ele>
        <time>2024-01-20T15:35:05Z</time>
      </trkpt>
      <trkpt lat="43.46747" lon="1.65568">
        <ele>179</ele>
        <time>2024-01-20T15:35:06Z</time>
      </trkpt>
      <trkpt lat="43.46747" lon="1.65564">
        <ele>179</ele>
        <time>2024-01-20T15:35:07Z</time>
      </trkpt>
      <trkpt lat="43.46747" lon="1.65561">
        <ele>179</ele>
        <time>2024-01-20T15:35:08Z</time>
      </trkpt>
      <trkpt lat="43.46747" lon="1.65557">
        <ele>178</ele>
        <time>2024-01-20T15:35:09Z</time>
      </trkpt>
      <trkpt lat="43.46747" lon="1.65553">
        <ele>177</ele>
        <time>2024-01-20T15:35:10Z</time>
      </trkpt>
      <trkpt lat="43.46747" lon="1.6555">
        <ele>177</ele>
        <time>2024-01-20T15:35:11Z</time>
      </trkpt>
      <trkpt lat="43.46747" lon="1.65545">
        <ele>177</ele>
        <time>2024-01-20T15:35:12Z</time>
      </trkpt>
      <trkpt lat="43.46747" lon="1.65543">
        <ele>177</ele>
        <time>2024-01-20T15:35:13Z</time>
      </trkpt>
      <trkpt lat="43.46747" lon="1.65539">
        <ele>177</ele>
        <time>2024-01-20T15:35:14Z</time>
      </trkpt>
      <trkpt lat="43.46747" lon="1.65536">
        <ele>177</ele>
        <time>2024-01-20T15:35:15Z</time>
      </trkpt>
      <trkpt lat="43.46747" lon="1.65532">
        <ele>177</ele>
        <time>2024-01-20T15:35:16Z</time>
      </trkpt>
      <trkpt lat="43.46747" lon="1.65529">
        <ele>177</ele>
        <time>2024-01-20T15:35:17Z</time>
      </trkpt>
      <trkpt lat="43.46747" lon="1.65526">
        <ele>177</ele>
        <time>2024-01-20T15:35:18Z</time>
      </trkpt>
      <trkpt lat="43.46746" lon="1.6552">
        <ele>177</ele>
        <time>2024-01-20T15:35:19Z</time>
      </trkpt>
      <trkpt lat="43.46746" lon="1.65519">
        <ele>177</ele>
        <time>2024-01-20T15:35:20Z</time>
      </trkpt>
      <trkpt lat="43.46746" lon="1.65515">
        <ele>177</ele>
        <time>2024-01-20T15:35:21Z</time>
      </trkpt>
      <trkpt lat="43.46746" lon="1.65512">
        <ele>178</ele>
        <time>2024-01-20T15:35:22Z</time>
      </trkpt>
      <trkpt lat="43.46746" lon="1.65508">
        <ele>178</ele>
        <time>2024-01-20T15:35:23Z</time>
      </trkpt>
      <trkpt lat="43.46747" lon="1.65505">
        <ele>178</ele>
        <time>2024-01-20T15:35:24Z</time>
      </trkpt>
      <trkpt lat="43.46747" lon="1.65501">
        <ele>178</ele>
        <time>2024-01-20T15:35:25Z</time>
      </trkpt>
      <trkpt lat="43.46746" lon="1.65498">
        <ele>178</ele>
        <time>2024-01-20T15:35:26Z</time>
      </trkpt>
      <trkpt lat="43.46746" lon="1.65494">
        <ele>178</ele>
        <time>2024-01-20T15:35:27Z</time>
      </trkpt>
      <trkpt lat="43.46746" lon="1.6549">
        <ele>178</ele>
        <time>2024-01-20T15:35:28Z</time>
      </trkpt>
      <trkpt lat="43.46746" lon="1.65486">
        <ele>178</ele>
        <time>2024-01-20T15:35:29Z</time>
      </trkpt>
      <trkpt lat="43.46746" lon="1.65483">
        <ele>178</ele>
        <time>2024-01-20T15:35:30Z</time>
      </trkpt>
      <trkpt lat="43.46745" lon="1.65477">
        <ele>178</ele>
        <time>2024-01-20T15:35:31Z</time>
      </trkpt>
      <trkpt lat="43.46745" lon="1.65475">
        <ele>178</ele>
        <time>2024-01-20T15:35:32Z</time>
      </trkpt>
      <trkpt lat="43.46745" lon="1.65471">
        <ele>178</ele>
        <time>2024-01-20T15:35:33Z</time>
      </trkpt>
      <trkpt lat="43.46745" lon="1.65467">
        <ele>178</ele>
        <time>2024-01-20T15:35:34Z</time>
      </trkpt>
      <trkpt lat="43.46745" lon="1.65463">
        <ele>178</ele>
        <time>2024-01-20T15:35:35Z</time>
      </trkpt>
      <trkpt lat="43.46745" lon="1.65459">
        <ele>178</ele>
        <time>2024-01-20T15:35:36Z</time>
      </trkpt>
      <trkpt lat="43.46744" lon="1.65456">
        <ele>178</ele>
        <time>2024-01-20T15:35:37Z</time>
      </trkpt>
      <trkpt lat="43.46744" lon="1.6545">
        <ele>178</ele>
        <time>2024-01-20T15:35:38Z</time>
      </trkpt>
      <trkpt lat="43.46744" lon="1.65448">
        <ele>178</ele>
        <time>2024-01-20T15:35:39Z</time>
      </trkpt>
      <trkpt lat="43.46744" lon="1.65444">
        <ele>178</ele>
        <time>2024-01-20T15:35:40Z</time>
      </trkpt>
      <trkpt lat="43.46745" lon="1.6544">
        <ele>178</ele>
        <time>2024-01-20T15:35:41Z</time>
      </trkpt>
      <trkpt lat="43.46747" lon="1.65437">
        <ele>178</ele>
        <time>2024-01-20T15:35:42Z</time>
      </trkpt>
      <trkpt lat="43.46749" lon="1.65434">
        <ele>178</ele>
        <time>2024-01-20T15:35:43Z</time>
      </trkpt>
      <trkpt lat="43.46751" lon="1.65432">
        <ele>178</ele>
        <time>2024-01-20T15:35:44Z</time>
      </trkpt>
      <trkpt lat="43.46753" lon="1.65431">
        <ele>178</ele>
        <time>2024-01-20T15:35:45Z</time>
      </trkpt>
      <trkpt lat="43.46756" lon="1.6543">
        <ele>179</ele>
        <time>2024-01-20T15:35:46Z</time>
      </trkpt>
      <trkpt lat="43.46758" lon="1.65429">
        <ele>179</ele>
        <time>2024-01-20T15:35:47Z</time>
      </trkpt>
      <trkpt lat="43.4676" lon="1.65427">
        <ele>179</ele>
        <time>2024-01-20T15:35:48Z</time>
      </trkpt>
      <trkpt lat="43.46762" lon="1.65426">
        <ele>179</ele>
        <time>2024-01-20T15:35:49Z</time>
      </trkpt>
      <trkpt lat="43.46764" lon="1.65422">
        <ele>179</ele>
        <time>2024-01-20T15:35:50Z</time>
      </trkpt>
      <trkpt lat="43.46764" lon="1.6542">
        <ele>179</ele>
        <time>2024-01-20T15:35:51Z</time>
      </trkpt>
      <trkpt lat="43.46763" lon="1.65417">
        <ele>179</ele>
        <time>2024-01-20T15:35:52Z</time>
      </trkpt>
      <trkpt lat="43.46762" lon="1.65414">
        <ele>179</ele>
        <time>2024-01-20T15:35:53Z</time>
      </trkpt>
      <trkpt lat="43.46761" lon="1.65411">
        <ele>179</ele>
        <time>2024-01-20T15:35:54Z</time>
      </trkpt>
      <trkpt lat="43.46761" lon="1.65408">
        <ele>179</ele>
        <time>2024-01-20T15:35:55Z</time>
      </trkpt>
      <trkpt lat="43.4676" lon="1.65404">
        <ele>179</ele>
        <time>2024-01-20T15:35:56Z</time>
      </trkpt>
      <trkpt lat="43.46759" lon="1.654">
        <ele>179</ele>
        <time>2024-01-20T15:35:57Z</time>
      </trkpt>
      <trkpt lat="43.46758" lon="1.65398">
        <ele>179</ele>
        <time>2024-01-20T15:35:58Z</time>
      </trkpt>
      <trkpt lat="43.46757" lon="1.65395">
        <ele>179</ele>
        <time>2024-01-20T15:35:59Z</time>
      </trkpt>
      <trkpt lat="43.46756" lon="1.65392">
        <ele>179</ele>
        <time>2024-01-20T15:36:00Z</time>
      </trkpt>
      <trkpt lat="43.46755" lon="1.65389">
        <ele>179</ele>
        <time>2024-01-20T15:36:01Z</time>
      </trkpt>
      <trkpt lat="43.46754" lon="1.65385">
        <ele>179</ele>
        <time>2024-01-20T15:36:02Z</time>
      </trkpt>
      <trkpt lat="43.46753" lon="1.65382">
        <ele>179</ele>
        <time>2024-01-20T15:36:03Z</time>
      </trkpt>
      <trkpt lat="43.46752" lon="1.65378">
        <ele>179</ele>
        <time>2024-01-20T15:36:04Z</time>
      </trkpt>
      <trkpt lat="43.46751" lon="1.65375">
        <ele>179</ele>
        <time>2024-01-20T15:36:05Z</time>
      </trkpt>
      <trkpt lat="43.4675" lon="1.65372">
        <ele>179</ele>
        <time>2024-01-20T15:36:06Z</time>
      </trkpt>
      <trkpt lat="43.46749" lon="1.65368">
        <ele>179</ele>
        <time>2024-01-20T15:36:07Z</time>
      </trkpt>
      <trkpt lat="43.46747" lon="1.65365">
        <ele>179</ele>
        <time>2024-01-20T15:36:08Z</time>
      </trkpt>
      <trkpt lat="43.46746" lon="1.65362">
        <ele>179</ele>
        <time>2024-01-20T15:36:09Z</time>
      </trkpt>
      <trkpt lat="43.46745" lon="1.65358">
        <ele>178</ele>
        <time>2024-01-20T15:36:10Z</time>
      </trkpt>
      <trkpt lat="43.46745" lon="1.65355">
        <ele>178</ele>
        <time>2024-01-20T15:36:11Z</time>
      </trkpt>
      <trkpt lat="43.46744" lon="1.65352">
        <ele>178</ele>
        <time>2024-01-20T15:36:12Z</time>
      </trkpt>
      <trkpt lat="43.46743" lon="1.65349">
        <ele>178</ele>
        <time>2024-01-20T15:36:13Z</time>
      </trkpt>
      <trkpt lat="43.46742" lon="1.65346">
        <ele>178</ele>
        <time>2024-01-20T15:36:14Z</time>
      </trkpt>
      <trkpt lat="43.46741" lon="1.65342">
        <ele>178</ele>
        <time>2024-01-20T15:36:15Z</time>
      </trkpt>
      <trkpt lat="43.46741" lon="1.65339">
        <ele>178</ele>
        <time>2024-01-20T15:36:16Z</time>
      </trkpt>
      <trkpt lat="43.46739" lon="1.65333">
        <ele>178</ele>
        <time>2024-01-20T15:36:17Z</time>
      </trkpt>
      <trkpt lat="43.46739" lon="1.65332">
        <ele>178</ele>
        <time>2024-01-20T15:36:18Z</time>
      </trkpt>
      <trkpt lat="43.46739" lon="1.65328">
        <ele>178</ele>
        <time>2024-01-20T15:36:19Z</time>
      </trkpt>
      <trkpt lat="43.46739" lon="1.65325">
        <ele>178</ele>
        <time>2024-01-20T15:36:20Z</time>
      </trkpt>
      <trkpt lat="43.46739" lon="1.65322">
        <ele>178</ele>
        <time>2024-01-20T15:36:21Z</time>
      </trkpt>
      <trkpt lat="43.46739" lon="1.65318">
        <ele>178</ele>
        <time>2024-01-20T15:36:22Z</time>
      </trkpt>
      <trkpt lat="43.46738" lon="1.65315">
        <ele>178</ele>
        <time>2024-01-20T15:36:23Z</time>
      </trkpt>
      <trkpt lat="43.46738" lon="1.65311">
        <ele>178</ele>
        <time>2024-01-20T15:36:24Z</time>
      </trkpt>
      <trkpt lat="43.46738" lon="1.65307">
        <ele>178</ele>
        <time>2024-01-20T15:36:25Z</time>
      </trkpt>
      <trkpt lat="43.46738" lon="1.65304">
        <ele>178</ele>
        <time>2024-01-20T15:36:26Z</time>
      </trkpt>
      <trkpt lat="43.46738" lon="1.65301">
        <ele>178</ele>
        <time>2024-01-20T15:36:27Z</time>
      </trkpt>
      <trkpt lat="43.46737" lon="1.65295">
        <ele>178</ele>
        <time>2024-01-20T15:36:28Z</time>
      </trkpt>
      <trkpt lat="43.46737" lon="1.65294">
        <ele>177</ele>
        <time>2024-01-20T15:36:29Z</time>
      </trkpt>
      <trkpt lat="43.46737" lon="1.6529">
        <ele>177</ele>
        <time>2024-01-20T15:36:30Z</time>
      </trkpt>
      <trkpt lat="43.46737" lon="1.65287">
        <ele>177</ele>
        <time>2024-01-20T15:36:31Z</time>
      </trkpt>
      <trkpt lat="43.46738" lon="1.65284">
        <ele>177</ele>
        <time>2024-01-20T15:36:32Z</time>
      </trkpt>
      <trkpt lat="43.46738" lon="1.6528">
        <ele>177</ele>
        <time>2024-01-20T15:36:33Z</time>
      </trkpt>
      <trkpt lat="43.46737" lon="1.65276">
        <ele>178</ele>
        <time>2024-01-20T15:36:34Z</time>
      </trkpt>
      <trkpt lat="43.46737" lon="1.65273">
        <ele>178</ele>
        <time>2024-01-20T15:36:35Z</time>
      </trkpt>
      <trkpt lat="43.46737" lon="1.65268">
        <ele>178</ele>
        <time>2024-01-20T15:36:36Z</time>
      </trkpt>
      <trkpt lat="43.46737" lon="1.65266">
        <ele>178</ele>
        <time>2024-01-20T15:36:37Z</time>
      </trkpt>
      <trkpt lat="43.46737" lon="1.65263">
        <ele>178</ele>
        <time>2024-01-20T15:36:38Z</time>
      </trkpt>
      <trkpt lat="43.46737" lon="1.65259">
        <ele>178</ele>
        <time>2024-01-20T15:36:39Z</time>
      </trkpt>
      <trkpt lat="43.46737" lon="1.65256">
        <ele>177</ele>
        <time>2024-01-20T15:36:40Z</time>
      </trkpt>
      <trkpt lat="43.46737" lon="1.65252">
        <ele>177</ele>
        <time>2024-01-20T15:36:41Z</time>
      </trkpt>
      <trkpt lat="43.46736" lon="1.65249">
        <ele>177</ele>
        <time>2024-01-20T15:36:42Z</time>
      </trkpt>
      <trkpt lat="43.46736" lon="1.65245">
        <ele>177</ele>
        <time>2024-01-20T15:36:43Z</time>
      </trkpt>
      <trkpt lat="43.46735" lon="1.65242">
        <ele>177</ele>
        <time>2024-01-20T15:36:44Z</time>
      </trkpt>
      <trkpt lat="43.46735" lon="1.65239">
        <ele>177</ele>
        <time>2024-01-20T15:36:45Z</time>
      </trkpt>
      <trkpt lat="43.46734" lon="1.65235">
        <ele>177</ele>
        <time>2024-01-20T15:36:46Z</time>
      </trkpt>
      <trkpt lat="43.46734" lon="1.6523">
        <ele>177</ele>
        <time>2024-01-20T15:36:47Z</time>
      </trkpt>
      <trkpt lat="43.46734" lon="1.65228">
        <ele>177</ele>
        <time>2024-01-20T15:36:48Z</time>
      </trkpt>
      <trkpt lat="43.46733" lon="1.65224">
        <ele>177</ele>
        <time>2024-01-20T15:36:49Z</time>
      </trkpt>
      <trkpt lat="43.46733" lon="1.65221">
        <ele>178</ele>
        <time>2024-01-20T15:36:50Z</time>
      </trkpt>
      <trkpt lat="43.46733" lon="1.65217">
        <ele>178</ele>
        <time>2024-01-20T15:36:51Z</time>
      </trkpt>
      <trkpt lat="43.46732" lon="1.65214">
        <ele>178</ele>
        <time>2024-01-20T15:36:52Z</time>
      </trkpt>
      <trkpt lat="43.46731" lon="1.6521">
        <ele>178</ele>
        <time>2024-01-20T15:36:53Z</time>
      </trkpt>
      <trkpt lat="43.46731" lon="1.65207">
        <ele>178</ele>
        <time>2024-01-20T15:36:54Z</time>
      </trkpt>
      <trkpt lat="43.46731" lon="1.65204">
        <ele>178</ele>
        <time>2024-01-20T15:36:55Z</time>
      </trkpt>
      <trkpt lat="43.4673" lon="1.65199">
        <ele>178</ele>
        <time>2024-01-20T15:36:56Z</time>
      </trkpt>
      <trkpt lat="43.46729" lon="1.65197">
        <ele>178</ele>
        <time>2024-01-20T15:36:57Z</time>
      </trkpt>
      <trkpt lat="43.46728" lon="1.65192">
        <ele>178</ele>
        <time>2024-01-20T15:36:58Z</time>
      </trkpt>
      <trkpt lat="43.46727" lon="1.65191">
        <ele>178</ele>
        <time>2024-01-20T15:36:59Z</time>
      </trkpt>
      <trkpt lat="43.46727" lon="1.65187">
        <ele>178</ele>
        <time>2024-01-20T15:37:00Z</time>
      </trkpt>
      <trkpt lat="43.46726" lon="1.65184">
        <ele>178</ele>
        <time>2024-01-20T15:37:01Z</time>
      </trkpt>
      <trkpt lat="43.46725" lon="1.65181">
        <ele>178</ele>
        <time>2024-01-20T15:37:02Z</time>
      </trkpt>
      <trkpt lat="43.46725" lon="1.65177">
        <ele>178</ele>
        <time>2024-01-20T15:37:03Z</time>
      </trkpt>
      <trkpt lat="43.46724" lon="1.65174">
        <ele>178</ele>
        <time>2024-01-20T15:37:04Z</time>
      </trkpt>
      <trkpt lat="43.46723" lon="1.65171">
        <ele>178</ele>
        <time>2024-01-20T15:37:05Z</time>
      </trkpt>
      <trkpt lat="43.46722" lon="1.65166">
        <ele>178</ele>
        <time>2024-01-20T15:37:06Z</time>
      </trkpt>
      <trkpt lat="43.46721" lon="1.65164">
        <ele>178</ele>
        <time>2024-01-20T15:37:07Z</time>
      </trkpt>
      <trkpt lat="43.46721" lon="1.65161">
        <ele>178</ele>
        <time>2024-01-20T15:37:08Z</time>
      </trkpt>
      <trkpt lat="43.4672" lon="1.65157">
        <ele>178</ele>
        <time>2024-01-20T15:37:09Z</time>
      </trkpt>
      <trkpt lat="43.46719" lon="1.65154">
        <ele>178</ele>
        <time>2024-01-20T15:37:10Z</time>
      </trkpt>
      <trkpt lat="43.46718" lon="1.65151">
        <ele>178</ele>
        <time>2024-01-20T15:37:11Z</time>
      </trkpt>
      <trkpt lat="43.46718" lon="1.65148">
        <ele>178</ele>
        <time>2024-01-20T15:37:12Z</time>
      </trkpt>
      <trkpt lat="43.46717" lon="1.65145">
        <ele>178</ele>
        <time>2024-01-20T15:37:13Z</time>
      </trkpt>
      <trkpt lat="43.46716" lon="1.65142">
        <ele>178</ele>
        <time>2024-01-20T15:37:14Z</time>
      </trkpt>
      <trkpt lat="43.46716" lon="1.65138">
        <ele>178</ele>
        <time>2024-01-20T15:37:15Z</time>
      </trkpt>
      <trkpt lat="43.46715" lon="1.65133">
        <ele>178</ele>
        <time>2024-01-20T15:37:16Z</time>
      </trkpt>
      <trkpt lat="43.46714" lon="1.65131">
        <ele>178</ele>
        <time>2024-01-20T15:37:17Z</time>
      </trkpt>
      <trkpt lat="43.46713" lon="1.65128">
        <ele>178</ele>
        <time>2024-01-20T15:37:18Z</time>
      </trkpt>
      <trkpt lat="43.46713" lon="1.65124">
        <ele>177</ele>
        <time>2024-01-20T15:37:19Z</time>
      </trkpt>
      <trkpt lat="43.46712" lon="1.6512">
        <ele>177</ele>
        <time>2024-01-20T15:37:20Z</time>
      </trkpt>
      <trkpt lat="43.46711" lon="1.65117">
        <ele>177</ele>
        <time>2024-01-20T15:37:21Z</time>
      </trkpt>
      <trkpt lat="43.4671" lon="1.65114">
        <ele>177</ele>
        <time>2024-01-20T15:37:22Z</time>
      </trkpt>
      <trkpt lat="43.4671" lon="1.6511">
        <ele>177</ele>
        <time>2024-01-20T15:37:23Z</time>
      </trkpt>
      <trkpt lat="43.46709" lon="1.65107">
        <ele>178</ele>
        <time>2024-01-20T15:37:24Z</time>
      </trkpt>
      <trkpt lat="43.46708" lon="1.65103">
        <ele>178</ele>
        <time>2024-01-20T15:37:25Z</time>
      </trkpt>
      <trkpt lat="43.46707" lon="1.65101">
        <ele>178</ele>
        <time>2024-01-20T15:37:26Z</time>
      </trkpt>
      <trkpt lat="43.46707" lon="1.65098">
        <ele>178</ele>
        <time>2024-01-20T15:37:27Z</time>
      </trkpt>
      <trkpt lat="43.46706" lon="1.65094">
        <ele>178</ele>
        <time>2024-01-20T15:37:28Z</time>
      </trkpt>
      <trkpt lat="43.46705" lon="1.65091">
        <ele>177</ele>
        <time>2024-01-20T15:37:29Z</time>
      </trkpt>
      <trkpt lat="43.46704" lon="1.65088">
        <ele>177</ele>
        <time>2024-01-20T15:37:30Z</time>
      </trkpt>
      <trkpt lat="43.46703" lon="1.65085">
        <ele>177</ele>
        <time>2024-01-20T15:37:31Z</time>
      </trkpt>
      <trkpt lat="43.46702" lon="1.65081">
        <ele>177</ele>
        <time>2024-01-20T15:37:32Z</time>
      </trkpt>
      <trkpt lat="43.46702" lon="1.65078">
        <ele>177</ele>
        <time>2024-01-20T15:37:33Z</time>
      </trkpt>
      <trkpt lat="43.46701" lon="1.65075">
        <ele>177</ele>
        <time>2024-01-20T15:37:34Z</time>
      </trkpt>
      <trkpt lat="43.467" lon="1.65072">
        <ele>177</ele>
        <time>2024-01-20T15:37:35Z</time>
      </trkpt>
      <trkpt lat="43.46699" lon="1.65067">
        <ele>177</ele>
        <time>2024-01-20T15:37:36Z</time>
      </trkpt>
      <trkpt lat="43.46698" lon="1.65066">
        <ele>178</ele>
        <time>2024-01-20T15:37:37Z</time>
      </trkpt>
      <trkpt lat="43.46698" lon="1.65063">
        <ele>178</ele>
        <time>2024-01-20T15:37:38Z</time>
      </trkpt>
      <trkpt lat="43.46697" lon="1.6506">
        <ele>178</ele>
        <time>2024-01-20T15:37:39Z</time>
      </trkpt>
      <trkpt lat="43.46696" lon="1.65056">
        <ele>178</ele>
        <time>2024-01-20T15:37:40Z</time>
      </trkpt>
      <trkpt lat="43.46695" lon="1.65053">
        <ele>178</ele>
        <time>2024-01-20T15:37:41Z</time>
      </trkpt>
      <trkpt lat="43.46695" lon="1.65049">
        <ele>178</ele>
        <time>2024-01-20T15:37:42Z</time>
      </trkpt>
      <trkpt lat="43.46694" lon="1.65045">
        <ele>178</ele>
        <time>2024-01-20T15:37:43Z</time>
      </trkpt>
      <trkpt lat="43.46693" lon="1.6504">
        <ele>178</ele>
        <time>2024-01-20T15:37:44Z</time>
      </trkpt>
      <trkpt lat="43.46692" lon="1.65038">
        <ele>178</ele>
        <time>2024-01-20T15:37:45Z</time>
      </trkpt>
      <trkpt lat="43.46692" lon="1.65034">
        <ele>178</ele>
        <time>2024-01-20T15:37:46Z</time>
      </trkpt>
      <trkpt lat="43.46691" lon="1.65031">
        <ele>178</ele>
        <time>2024-01-20T15:37:47Z</time>
      </trkpt>
      <trkpt lat="43.4669" lon="1.65027">
        <ele>178</ele>
        <time>2024-01-20T15:37:48Z</time>
      </trkpt>
      <trkpt lat="43.46689" lon="1.65024">
        <ele>178</ele>
        <time>2024-01-20T15:37:49Z</time>
      </trkpt>
      <trkpt lat="43.46689" lon="1.65021">
        <ele>177</ele>
        <time>2024-01-20T15:37:50Z</time>
      </trkpt>
      <trkpt lat="43.46688" lon="1.65017">
        <ele>177</ele>
        <time>2024-01-20T15:37:51Z</time>
      </trkpt>
      <trkpt lat="43.46687" lon="1.65013">
        <ele>177</ele>
        <time>2024-01-20T15:37:52Z</time>
      </trkpt>
      <trkpt lat="43.46686" lon="1.6501">
        <ele>177</ele>
        <time>2024-01-20T15:37:53Z</time>
      </trkpt>
      <trkpt lat="43.46686" lon="1.65006">
        <ele>177</ele>
        <time>2024-01-20T15:37:54Z</time>
      </trkpt>
      <trkpt lat="43.46684" lon="1.65001">
        <ele>177</ele>
        <time>2024-01-20T15:37:55Z</time>
      </trkpt>
      <trkpt lat="43.46684" lon="1.65">
        <ele>177</ele>
        <time>2024-01-20T15:37:56Z</time>
      </trkpt>
      <trkpt lat="43.46683" lon="1.64997">
        <ele>176</ele>
        <time>2024-01-20T15:37:57Z</time>
      </trkpt>
      <trkpt lat="43.46682" lon="1.64993">
        <ele>176</ele>
        <time>2024-01-20T15:37:58Z</time>
      </trkpt>
      <trkpt lat="43.46681" lon="1.6499">
        <ele>177</ele>
        <time>2024-01-20T15:37:59Z</time>
      </trkpt>
      <trkpt lat="43.4668" lon="1.64987">
        <ele>177</ele>
        <time>2024-01-20T15:38:00Z</time>
      </trkpt>
      <trkpt lat="43.46678" lon="1.64984">
        <ele>177</ele>
        <time>2024-01-20T15:38:01Z</time>
      </trkpt>
      <trkpt lat="43.46677" lon="1.64982">
        <ele>177</ele>
        <time>2024-01-20T15:38:02Z</time>
      </trkpt>
      <trkpt lat="43.46675" lon="1.64979">
        <ele>177</ele>
        <time>2024-01-20T15:38:03Z</time>
      </trkpt>
      <trkpt lat="43.46673" lon="1.64976">
        <ele>177</ele>
        <time>2024-01-20T15:38:04Z</time>
      </trkpt>
      <trkpt lat="43.46671" lon="1.64974">
        <ele>177</ele>
        <time>2024-01-20T15:38:05Z</time>
      </trkpt>
      <trkpt lat="43.46669" lon="1.64972">
        <ele>177</ele>
        <time>2024-01-20T15:38:06Z</time>
      </trkpt>
      <trkpt lat="43.46667" lon="1.64969">
        <ele>176</ele>
        <time>2024-01-20T15:38:07Z</time>
      </trkpt>
      <trkpt lat="43.46665" lon="1.64967">
        <ele>176</ele>
        <time>2024-01-20T15:38:08Z</time>
      </trkpt>
      <trkpt lat="43.46663" lon="1.64964">
        <ele>176</ele>
        <time>2024-01-20T15:38:09Z</time>
      </trkpt>
      <trkpt lat="43.46661" lon="1.64962">
        <ele>176</ele>
        <time>2024-01-20T15:38:10Z</time>
      </trkpt>
      <trkpt lat="43.46659" lon="1.64959">
        <ele>176</ele>
        <time>2024-01-20T15:38:11Z</time>
      </trkpt>
      <trkpt lat="43.46658" lon="1.64957">
        <ele>176</ele>
        <time>2024-01-20T15:38:12Z</time>
      </trkpt>
      <trkpt lat="43.46656" lon="1.64954">
        <ele>176</ele>
        <time>2024-01-20T15:38:13Z</time>
      </trkpt>
      <trkpt lat="43.46653" lon="1.64951">
        <ele>176</ele>
        <time>2024-01-20T15:38:14Z</time>
      </trkpt>
      <trkpt lat="43.46652" lon="1.64949">
        <ele>176</ele>
        <time>2024-01-20T15:38:15Z</time>
      </trkpt>
      <trkpt lat="43.4665" lon="1.64947">
        <ele>176</ele>
        <time>2024-01-20T15:38:16Z</time>
      </trkpt>
      <trkpt lat="43.46648" lon="1.64944">
        <ele>176</ele>
        <time>2024-01-20T15:38:17Z</time>
      </trkpt>
      <trkpt lat="43.46647" lon="1.64942">
        <ele>176</ele>
        <time>2024-01-20T15:38:18Z</time>
      </trkpt>
      <trkpt lat="43.46645" lon="1.6494">
        <ele>176</ele>
        <time>2024-01-20T15:38:19Z</time>
      </trkpt>
      <trkpt lat="43.46644" lon="1.64937">
        <ele>176</ele>
        <time>2024-01-20T15:38:20Z</time>
      </trkpt>
      <trkpt lat="43.46643" lon="1.64935">
        <ele>176</ele>
        <time>2024-01-20T15:38:21Z</time>
      </trkpt>
      <trkpt lat="43.4664" lon="1.64932">
        <ele>176</ele>
        <time>2024-01-20T15:38:22Z</time>
      </trkpt>
      <trkpt lat="43.4664" lon="1.6493">
        <ele>176</ele>
        <time>2024-01-20T15:38:23Z</time>
      </trkpt>
      <trkpt lat="43.46638" lon="1.64927">
        <ele>176</ele>
        <time>2024-01-20T15:38:24Z</time>
      </trkpt>
      <trkpt lat="43.46637" lon="1.64925">
        <ele>176</ele>
        <time>2024-01-20T15:38:25Z</time>
      </trkpt>
      <trkpt lat="43.46636" lon="1.64922">
        <ele>176</ele>
        <time>2024-01-20T15:38:26Z</time>
      </trkpt>
      <trkpt lat="43.46634" lon="1.64919">
        <ele>176</ele>
        <time>2024-01-20T15:38:27Z</time>
      </trkpt>
      <trkpt lat="43.46633" lon="1.64916">
        <ele>176</ele>
        <time>2024-01-20T15:38:28Z</time>
      </trkpt>
      <trkpt lat="43.46632" lon="1.64913">
        <ele>176</ele>
        <time>2024-01-20T15:38:29Z</time>
      </trkpt>
      <trkpt lat="43.4663" lon="1.6491">
        <ele>176</ele>
        <time>2024-01-20T15:38:30Z</time>
      </trkpt>
      <trkpt lat="43.46629" lon="1.64907">
        <ele>176</ele>
        <time>2024-01-20T15:38:31Z</time>
      </trkpt>
      <trkpt lat="43.46628" lon="1.64905">
        <ele>176</ele>
        <time>2024-01-20T15:38:32Z</time>
      </trkpt>
      <trkpt lat="43.46626" lon="1.64902">
        <ele>176</ele>
        <time>2024-01-20T15:38:33Z</time>
      </trkpt>
      <trkpt lat="43.46625" lon="1.64899">
        <ele>176</ele>
        <time>2024-01-20T15:38:34Z</time>
      </trkpt>
      <trkpt lat="43.46623" lon="1.64895">
        <ele>176</ele>
        <time>2024-01-20T15:38:35Z</time>
      </trkpt>
      <trkpt lat="43.46622" lon="1.64894">
        <ele>176</ele>
        <time>2024-01-20T15:38:36Z</time>
      </trkpt>
      <trkpt lat="43.4662" lon="1.64892">
        <ele>176</ele>
        <time>2024-01-20T15:38:37Z</time>
      </trkpt>
      <trkpt lat="43.46618" lon="1.6489">
        <ele>176</ele>
        <time>2024-01-20T15:38:38Z</time>
      </trkpt>
      <trkpt lat="43.46617" lon="1.64887">
        <ele>176</ele>
        <time>2024-01-20T15:38:39Z</time>
      </trkpt>
      <trkpt lat="43.46616" lon="1.64885">
        <ele>176</ele>
        <time>2024-01-20T15:38:40Z</time>
      </trkpt>
      <trkpt lat="43.46614" lon="1.64883">
        <ele>176</ele>
        <time>2024-01-20T15:38:41Z</time>
      </trkpt>
      <trkpt lat="43.46613" lon="1.6488">
        <ele>176</ele>
        <time>2024-01-20T15:38:42Z</time>
      </trkpt>
      <trkpt lat="43.46612" lon="1.64878">
        <ele>176</ele>
        <time>2024-01-20T15:38:43Z</time>
      </trkpt>
      <trkpt lat="43.4661" lon="1.64876">
        <ele>176</ele>
        <time>2024-01-20T15:38:44Z</time>
      </trkpt>
      <trkpt lat="43.46609" lon="1.64874">
        <ele>176</ele>
        <time>2024-01-20T15:38:45Z</time>
      </trkpt>
      <trkpt lat="43.46607" lon="1.64871">
        <ele>177</ele>
        <time>2024-01-20T15:38:46Z</time>
      </trkpt>
      <trkpt lat="43.46606" lon="1.64869">
        <ele>177</ele>
        <time>2024-01-20T15:38:47Z</time>
      </trkpt>
      <trkpt lat="43.46604" lon="1.64867">
        <ele>176</ele>
        <time>2024-01-20T15:38:48Z</time>
      </trkpt>
      <trkpt lat="43.46602" lon="1.64865">
        <ele>176</ele>
        <time>2024-01-20T15:38:49Z</time>
      </trkpt>
      <trkpt lat="43.46601" lon="1.64862">
        <ele>176</ele>
        <time>2024-01-20T15:38:50Z</time>
      </trkpt>
      <trkpt lat="43.466" lon="1.6486">
        <ele>176</ele>
        <time>2024-01-20T15:38:51Z</time>
      </trkpt>
      <trkpt lat="43.46599" lon="1.64857">
        <ele>176</ele>
        <time>2024-01-20T15:38:52Z</time>
      </trkpt>
      <trkpt lat="43.46597" lon="1.64855">
        <ele>176</ele>
        <time>2024-01-20T15:38:53Z</time>
      </trkpt>
      <trkpt lat="43.46597" lon="1.64855">
        <ele>176</ele>
        <time>2024-01-20T15:38:54Z</time>
      </trkpt>
      <trkpt lat="43.46595" lon="1.64851">
        <ele>176</ele>
        <time>2024-01-20T15:38:55Z</time>
      </trkpt>
      <trkpt lat="43.46594" lon="1.64849">
        <ele>176</ele>
        <time>2024-01-20T15:38:56Z</time>
      </trkpt>
      <trkpt lat="43.46592" lon="1.64847">
        <ele>176</ele>
        <time>2024-01-20T15:38:57Z</time>
      </trkpt>
      <trkpt lat="43.46591" lon="1.64844">
        <ele>176</ele>
        <time>2024-01-20T15:38:58Z</time>
      </trkpt>
      <trkpt lat="43.4659" lon="1.64841">
        <ele>176</ele>
        <time>2024-01-20T15:38:59Z</time>
      </trkpt>
      <trkpt lat="43.46589" lon="1.64839">
        <ele>176</ele>
        <time>2024-01-20T15:39:00Z</time>
      </trkpt>
      <trkpt lat="43.46588" lon="1.64836">
        <ele>177</ele>
        <time>2024-01-20T15:39:01Z</time>
      </trkpt>
      <trkpt lat="43.46587" lon="1.64833">
        <ele>177</ele>
        <time>2024-01-20T15:39:02Z</time>
      </trkpt>
      <trkpt lat="43.46585" lon="1.64831">
        <ele>177</ele>
        <time>2024-01-20T15:39:03Z</time>
      </trkpt>
      <trkpt lat="43.46583" lon="1.64828">
        <ele>177</ele>
        <time>2024-01-20T15:39:04Z</time>
      </trkpt>
      <trkpt lat="43.46582" lon="1.64824">
        <ele>177</ele>
        <time>2024-01-20T15:39:05Z</time>
      </trkpt>
      <trkpt lat="43.46581" lon="1.64819">
        <ele>177</ele>
        <time>2024-01-20T15:39:06Z</time>
      </trkpt>
      <trkpt lat="43.4658" lon="1.64818">
        <ele>176</ele>
        <time>2024-01-20T15:39:07Z</time>
      </trkpt>
      <trkpt lat="43.46579" lon="1.64814">
        <ele>176</ele>
        <time>2024-01-20T15:39:08Z</time>
      </trkpt>
      <trkpt lat="43.46578" lon="1.6481">
        <ele>176</ele>
        <time>2024-01-20T15:39:09Z</time>
      </trkpt>
      <trkpt lat="43.46578" lon="1.64807">
        <ele>176</ele>
        <time>2024-01-20T15:39:10Z</time>
      </trkpt>
      <trkpt lat="43.46577" lon="1.64803">
        <ele>176</ele>
        <time>2024-01-20T15:39:11Z</time>
      </trkpt>
      <trkpt lat="43.46577" lon="1.64799">
        <ele>176</ele>
        <time>2024-01-20T15:39:12Z</time>
      </trkpt>
      <trkpt lat="43.46576" lon="1.64795">
        <ele>176</ele>
        <time>2024-01-20T15:39:13Z</time>
      </trkpt>
      <trkpt lat="43.46575" lon="1.64792">
        <ele>176</ele>
        <time>2024-01-20T15:39:14Z</time>
      </trkpt>
      <trkpt lat="43.46574" lon="1.64788">
        <ele>176</ele>
        <time>2024-01-20T15:39:15Z</time>
      </trkpt>
      <trkpt lat="43.46574" lon="1.64784">
        <ele>176</ele>
        <time>2024-01-20T15:39:16Z</time>
      </trkpt>
      <trkpt lat="43.46573" lon="1.64779">
        <ele>176</ele>
        <time>2024-01-20T15:39:17Z</time>
      </trkpt>
      <trkpt lat="43.46572" lon="1.64777">
        <ele>175</ele>
        <time>2024-01-20T15:39:18Z</time>
      </trkpt>
      <trkpt lat="43.46571" lon="1.64771">
        <ele>175</ele>
        <time>2024-01-20T15:39:19Z</time>
      </trkpt>
      <trkpt lat="43.46571" lon="1.64769">
        <ele>175</ele>
        <time>2024-01-20T15:39:20Z</time>
      </trkpt>
      <trkpt lat="43.4657" lon="1.64766">
        <ele>175</ele>
        <time>2024-01-20T15:39:21Z</time>
      </trkpt>
      <trkpt lat="43.4657" lon="1.64763">
        <ele>175</ele>
        <time>2024-01-20T15:39:22Z</time>
      </trkpt>
      <trkpt lat="43.46569" lon="1.64759">
        <ele>175</ele>
        <time>2024-01-20T15:39:23Z</time>
      </trkpt>
      <trkpt lat="43.46569" lon="1.64756">
        <ele>175</ele>
        <time>2024-01-20T15:39:24Z</time>
      </trkpt>
      <trkpt lat="43.46568" lon="1.64752">
        <ele>175</ele>
        <time>2024-01-20T15:39:25Z</time>
      </trkpt>
      <trkpt lat="43.46567" lon="1.64749">
        <ele>175</ele>
        <time>2024-01-20T15:39:26Z</time>
      </trkpt>
      <trkpt lat="43.46567" lon="1.64745">
        <ele>175</ele>
        <time>2024-01-20T15:39:27Z</time>
      </trkpt>
      <trkpt lat="43.46566" lon="1.64742">
        <ele>175</ele>
        <time>2024-01-20T15:39:28Z</time>
      </trkpt>
      <trkpt lat="43.46565" lon="1.64739">
        <ele>176</ele>
        <time>2024-01-20T15:39:29Z</time>
      </trkpt>
      <trkpt lat="43.46564" lon="1.64735">
        <ele>176</ele>
        <time>2024-01-20T15:39:30Z</time>
      </trkpt>
      <trkpt lat="43.46564" lon="1.64732">
        <ele>176</ele>
        <time>2024-01-20T15:39:31Z</time>
      </trkpt>
      <trkpt lat="43.46563" lon="1.64729">
        <ele>176</ele>
        <time>2024-01-20T15:39:32Z</time>
      </trkpt>
      <trkpt lat="43.46562" lon="1.64725">
        <ele>175</ele>
        <time>2024-01-20T15:39:33Z</time>
      </trkpt>
      <trkpt lat="43.46562" lon="1.64722">
        <ele>175</ele>
        <time>2024-01-20T15:39:34Z</time>
      </trkpt>
      <trkpt lat="43.46561" lon="1.64715">
        <ele>175</ele>
        <time>2024-01-20T15:39:35Z</time>
      </trkpt>
      <trkpt lat="43.4656" lon="1.64711">
        <ele>175</ele>
        <time>2024-01-20T15:39:37Z</time>
      </trkpt>
      <trkpt lat="43.46559" lon="1.64706">
        <ele>175</ele>
        <time>2024-01-20T15:39:38Z</time>
      </trkpt>
      <trkpt lat="43.46559" lon="1.64704">
        <ele>175</ele>
        <time>2024-01-20T15:39:39Z</time>
      </trkpt>
      <trkpt lat="43.46558" lon="1.64701">
        <ele>175</ele>
        <time>2024-01-20T15:39:40Z</time>
      </trkpt>
      <trkpt lat="43.46558" lon="1.64698">
        <ele>175</ele>
        <time>2024-01-20T15:39:41Z</time>
      </trkpt>
      <trkpt lat="43.46557" lon="1.64695">
        <ele>175</ele>
        <time>2024-01-20T15:39:42Z</time>
      </trkpt>
      <trkpt lat="43.46556" lon="1.64692">
        <ele>175</ele>
        <time>2024-01-20T15:39:43Z</time>
      </trkpt>
      <trkpt lat="43.46556" lon="1.64688">
        <ele>175</ele>
        <time>2024-01-20T15:39:44Z</time>
      </trkpt>
      <trkpt lat="43.46555" lon="1.64685">
        <ele>175</ele>
        <time>2024-01-20T15:39:45Z</time>
      </trkpt>
      <trkpt lat="43.46554" lon="1.64682">
        <ele>175</ele>
        <time>2024-01-20T15:39:46Z</time>
      </trkpt>
      <trkpt lat="43.46553" lon="1.64679">
        <ele>175</ele>
        <time>2024-01-20T15:39:47Z</time>
      </trkpt>
      <trkpt lat="43.46553" lon="1.64676">
        <ele>175</ele>
        <time>2024-01-20T15:39:48Z</time>
      </trkpt>
      <trkpt lat="43.46552" lon="1.64673">
        <ele>175</ele>
        <time>2024-01-20T15:39:49Z</time>
      </trkpt>
      <trkpt lat="43.46551" lon="1.64669">
        <ele>176</ele>
        <time>2024-01-20T15:39:50Z</time>
      </trkpt>
      <trkpt lat="43.4655" lon="1.64666">
        <ele>176</ele>
        <time>2024-01-20T15:39:51Z</time>
      </trkpt>
      <trkpt lat="43.46549" lon="1.64663">
        <ele>175</ele>
        <time>2024-01-20T15:39:52Z</time>
      </trkpt>
      <trkpt lat="43.46548" lon="1.6466">
        <ele>175</ele>
        <time>2024-01-20T15:39:53Z</time>
      </trkpt>
      <trkpt lat="43.46547" lon="1.64656">
        <ele>175</ele>
        <time>2024-01-20T15:39:54Z</time>
      </trkpt>
      <trkpt lat="43.46546" lon="1.64653">
        <ele>175</ele>
        <time>2024-01-20T15:39:55Z</time>
      </trkpt>
      <trkpt lat="43.46546" lon="1.6465">
        <ele>175</ele>
        <time>2024-01-20T15:39:56Z</time>
      </trkpt>
      <trkpt lat="43.46545" lon="1.64647">
        <ele>175</ele>
        <time>2024-01-20T15:39:57Z</time>
      </trkpt>
      <trkpt lat="43.46544" lon="1.64644">
        <ele>176</ele>
        <time>2024-01-20T15:39:58Z</time>
      </trkpt>
      <trkpt lat="43.46543" lon="1.6464">
        <ele>176</ele>
        <time>2024-01-20T15:39:59Z</time>
      </trkpt>
      <trkpt lat="43.46542" lon="1.64638">
        <ele>176</ele>
        <time>2024-01-20T15:40:00Z</time>
      </trkpt>
      <trkpt lat="43.46541" lon="1.64634">
        <ele>176</ele>
        <time>2024-01-20T15:40:01Z</time>
      </trkpt>
      <trkpt lat="43.4654" lon="1.64631">
        <ele>176</ele>
        <time>2024-01-20T15:40:02Z</time>
      </trkpt>
      <trkpt lat="43.46539" lon="1.64628">
        <ele>175</ele>
        <time>2024-01-20T15:40:03Z</time>
      </trkpt>
      <trkpt lat="43.46538" lon="1.64625">
        <ele>175</ele>
        <time>2024-01-20T15:40:04Z</time>
      </trkpt>
      <trkpt lat="43.46537" lon="1.64621">
        <ele>175</ele>
        <time>2024-01-20T15:40:05Z</time>
      </trkpt>
      <trkpt lat="43.46536" lon="1.64618">
        <ele>175</ele>
        <time>2024-01-20T15:40:06Z</time>
      </trkpt>
      <trkpt lat="43.46535" lon="1.64615">
        <ele>175</ele>
        <time>2024-01-20T15:40:07Z</time>
      </trkpt>
      <trkpt lat="43.46534" lon="1.64611">
        <ele>175</ele>
        <time>2024-01-20T15:40:08Z</time>
      </trkpt>
      <trkpt lat="43.46533" lon="1.64608">
        <ele>175</ele>
        <time>2024-01-20T15:40:09Z</time>
      </trkpt>
      <trkpt lat="43.46532" lon="1.64605">
        <ele>175</ele>
        <time>2024-01-20T15:40:10Z</time>
      </trkpt>
      <trkpt lat="43.46531" lon="1.64602">
        <ele>175</ele>
        <time>2024-01-20T15:40:11Z</time>
      </trkpt>
      <trkpt lat="43.4653" lon="1.64599">
        <ele>175</ele>
        <time>2024-01-20T15:40:12Z</time>
      </trkpt>
      <trkpt lat="43.46529" lon="1.64596">
        <ele>175</ele>
        <time>2024-01-20T15:40:13Z</time>
      </trkpt>
      <trkpt lat="43.46528" lon="1.64593">
        <ele>175</ele>
        <time>2024-01-20T15:40:14Z</time>
      </trkpt>
      <trkpt lat="43.46526" lon="1.6459">
        <ele>175</ele>
        <time>2024-01-20T15:40:15Z</time>
      </trkpt>
      <trkpt lat="43.46525" lon="1.64585">
        <ele>175</ele>
        <time>2024-01-20T15:40:16Z</time>
      </trkpt>
      <trkpt lat="43.46524" lon="1.64583">
        <ele>175</ele>
        <time>2024-01-20T15:40:17Z</time>
      </trkpt>
      <trkpt lat="43.46523" lon="1.6458">
        <ele>175</ele>
        <time>2024-01-20T15:40:18Z</time>
      </trkpt>
      <trkpt lat="43.46522" lon="1.64577">
        <ele>175</ele>
        <time>2024-01-20T15:40:19Z</time>
      </trkpt>
      <trkpt lat="43.46521" lon="1.64573">
        <ele>175</ele>
        <time>2024-01-20T15:40:20Z</time>
      </trkpt>
      <trkpt lat="43.4652" lon="1.6457">
        <ele>175</ele>
        <time>2024-01-20T15:40:21Z</time>
      </trkpt>
      <trkpt lat="43.46518" lon="1.64566">
        <ele>175</ele>
        <time>2024-01-20T15:40:22Z</time>
      </trkpt>
      <trkpt lat="43.46518" lon="1.64564">
        <ele>175</ele>
        <time>2024-01-20T15:40:23Z</time>
      </trkpt>
      <trkpt lat="43.46517" lon="1.64561">
        <ele>175</ele>
        <time>2024-01-20T15:40:24Z</time>
      </trkpt>
      <trkpt lat="43.46516" lon="1.64558">
        <ele>175</ele>
        <time>2024-01-20T15:40:25Z</time>
      </trkpt>
      <trkpt lat="43.46515" lon="1.64555">
        <ele>175</ele>
        <time>2024-01-20T15:40:26Z</time>
      </trkpt>
      <trkpt lat="43.46514" lon="1.64552">
        <ele>175</ele>
        <time>2024-01-20T15:40:27Z</time>
      </trkpt>
      <trkpt lat="43.46513" lon="1.64548">
        <ele>175</ele>
        <time>2024-01-20T15:40:28Z</time>
      </trkpt>
      <trkpt lat="43.46512" lon="1.64543">
        <ele>175</ele>
        <time>2024-01-20T15:40:29Z</time>
      </trkpt>
      <trkpt lat="43.46511" lon="1.64542">
        <ele>175</ele>
        <time>2024-01-20T15:40:30Z</time>
      </trkpt>
      <trkpt lat="43.4651" lon="1.64539">
        <ele>175</ele>
        <time>2024-01-20T15:40:31Z</time>
      </trkpt>
      <trkpt lat="43.46509" lon="1.64536">
        <ele>175</ele>
        <time>2024-01-20T15:40:32Z</time>
      </trkpt>
      <trkpt lat="43.46508" lon="1.64533">
        <ele>175</ele>
        <time>2024-01-20T15:40:33Z</time>
      </trkpt>
      <trkpt lat="43.46507" lon="1.64529">
        <ele>175</ele>
        <time>2024-01-20T15:40:34Z</time>
      </trkpt>
      <trkpt lat="43.46506" lon="1.64526">
        <ele>175</ele>
        <time>2024-01-20T15:40:35Z</time>
      </trkpt>
      <trkpt lat="43.46505" lon="1.64523">
        <ele>175</ele>
        <time>2024-01-20T15:40:36Z</time>
      </trkpt>
      <trkpt lat="43.46505" lon="1.64519">
        <ele>175</ele>
        <time>2024-01-20T15:40:37Z</time>
      </trkpt>
      <trkpt lat="43.46503" lon="1.64514">
        <ele>175</ele>
        <time>2024-01-20T15:40:38Z</time>
      </trkpt>
      <trkpt lat="43.46503" lon="1.64513">
        <ele>174</ele>
        <time>2024-01-20T15:40:39Z</time>
      </trkpt>
      <trkpt lat="43.46502" lon="1.64509">
        <ele>174</ele>
        <time>2024-01-20T15:40:40Z</time>
      </trkpt>
      <trkpt lat="43.46502" lon="1.64506">
        <ele>175</ele>
        <time>2024-01-20T15:40:41Z</time>
      </trkpt>
      <trkpt lat="43.46501" lon="1.64502">
        <ele>175</ele>
        <time>2024-01-20T15:40:42Z</time>
      </trkpt>
      <trkpt lat="43.46501" lon="1.64499">
        <ele>175</ele>
        <time>2024-01-20T15:40:43Z</time>
      </trkpt>
      <trkpt lat="43.46501" lon="1.64496">
        <ele>175</ele>
        <time>2024-01-20T15:40:44Z</time>
      </trkpt>
      <trkpt lat="43.465" lon="1.64492">
        <ele>175</ele>
        <time>2024-01-20T15:40:45Z</time>
      </trkpt>
      <trkpt lat="43.465" lon="1.64488">
        <ele>175</ele>
        <time>2024-01-20T15:40:46Z</time>
      </trkpt>
      <trkpt lat="43.46499" lon="1.64485">
        <ele>175</ele>
        <time>2024-01-20T15:40:47Z</time>
      </trkpt>
      <trkpt lat="43.46499" lon="1.64481">
        <ele>175</ele>
        <time>2024-01-20T15:40:48Z</time>
      </trkpt>
      <trkpt lat="43.46499" lon="1.64478">
        <ele>175</ele>
        <time>2024-01-20T15:40:49Z</time>
      </trkpt>
      <trkpt lat="43.46499" lon="1.64474">
        <ele>175</ele>
        <time>2024-01-20T15:40:50Z</time>
      </trkpt>
      <trkpt lat="43.46499" lon="1.64471">
        <ele>175</ele>
        <time>2024-01-20T15:40:51Z</time>
      </trkpt>
      <trkpt lat="43.46498" lon="1.64468">
        <ele>175</ele>
        <time>2024-01-20T15:40:52Z</time>
      </trkpt>
      <trkpt lat="43.46498" lon="1.64464">
        <ele>175</ele>
        <time>2024-01-20T15:40:53Z</time>
      </trkpt>
      <trkpt lat="43.46497" lon="1.64459">
        <ele>175</ele>
        <time>2024-01-20T15:40:54Z</time>
      </trkpt>
      <trkpt lat="43.46497" lon="1.64457">
        <ele>175</ele>
        <time>2024-01-20T15:40:55Z</time>
      </trkpt>
      <trkpt lat="43.46497" lon="1.64453">
        <ele>175</ele>
        <time>2024-01-20T15:40:56Z</time>
      </trkpt>
      <trkpt lat="43.46497" lon="1.64451">
        <ele>176</ele>
        <time>2024-01-20T15:40:57Z</time>
      </trkpt>
      <trkpt lat="43.46496" lon="1.64448">
        <ele>176</ele>
        <time>2024-01-20T15:40:58Z</time>
      </trkpt>
      <trkpt lat="43.46496" lon="1.64444">
        <ele>176</ele>
        <time>2024-01-20T15:40:59Z</time>
      </trkpt>
      <trkpt lat="43.46496" lon="1.64441">
        <ele>176</ele>
        <time>2024-01-20T15:41:00Z</time>
      </trkpt>
      <trkpt lat="43.46495" lon="1.64438">
        <ele>176</ele>
        <time>2024-01-20T15:41:01Z</time>
      </trkpt>
      <trkpt lat="43.46495" lon="1.64435">
        <ele>176</ele>
        <time>2024-01-20T15:41:02Z</time>
      </trkpt>
      <trkpt lat="43.46495" lon="1.64432">
        <ele>176</ele>
        <time>2024-01-20T15:41:03Z</time>
      </trkpt>
      <trkpt lat="43.46494" lon="1.64428">
        <ele>176</ele>
        <time>2024-01-20T15:41:04Z</time>
      </trkpt>
      <trkpt lat="43.46494" lon="1.64425">
        <ele>176</ele>
        <time>2024-01-20T15:41:05Z</time>
      </trkpt>
      <trkpt lat="43.46494" lon="1.64421">
        <ele>176</ele>
        <time>2024-01-20T15:41:06Z</time>
      </trkpt>
      <trkpt lat="43.46494" lon="1.64418">
        <ele>176</ele>
        <time>2024-01-20T15:41:07Z</time>
      </trkpt>
      <trkpt lat="43.46493" lon="1.64415">
        <ele>176</ele>
        <time>2024-01-20T15:41:08Z</time>
      </trkpt>
      <trkpt lat="43.46493" lon="1.64411">
        <ele>176</ele>
        <time>2024-01-20T15:41:09Z</time>
      </trkpt>
      <trkpt lat="43.46492" lon="1.64408">
        <ele>177</ele>
        <time>2024-01-20T15:41:10Z</time>
      </trkpt>
      <trkpt lat="43.46492" lon="1.64405">
        <ele>177</ele>
        <time>2024-01-20T15:41:11Z</time>
      </trkpt>
      <trkpt lat="43.46491" lon="1.64401">
        <ele>176</ele>
        <time>2024-01-20T15:41:12Z</time>
      </trkpt>
      <trkpt lat="43.46491" lon="1.64398">
        <ele>176</ele>
        <time>2024-01-20T15:41:13Z</time>
      </trkpt>
      <trkpt lat="43.46491" lon="1.64394">
        <ele>176</ele>
        <time>2024-01-20T15:41:14Z</time>
      </trkpt>
      <trkpt lat="43.4649" lon="1.64391">
        <ele>176</ele>
        <time>2024-01-20T15:41:15Z</time>
      </trkpt>
      <trkpt lat="43.4649" lon="1.64386">
        <ele>176</ele>
        <time>2024-01-20T15:41:16Z</time>
      </trkpt>
      <trkpt lat="43.46489" lon="1.64384">
        <ele>176</ele>
        <time>2024-01-20T15:41:17Z</time>
      </trkpt>
      <trkpt lat="43.46489" lon="1.64381">
        <ele>176</ele>
        <time>2024-01-20T15:41:18Z</time>
      </trkpt>
      <trkpt lat="43.46489" lon="1.64378">
        <ele>176</ele>
        <time>2024-01-20T15:41:19Z</time>
      </trkpt>
      <trkpt lat="43.46489" lon="1.64374">
        <ele>176</ele>
        <time>2024-01-20T15:41:20Z</time>
      </trkpt>
      <trkpt lat="43.46489" lon="1.64371">
        <ele>176</ele>
        <time>2024-01-20T15:41:21Z</time>
      </trkpt>
      <trkpt lat="43.46489" lon="1.64368">
        <ele>176</ele>
        <time>2024-01-20T15:41:22Z</time>
      </trkpt>
      <trkpt lat="43.46488" lon="1.64365">
        <ele>176</ele>
        <time>2024-01-20T15:41:23Z</time>
      </trkpt>
      <trkpt lat="43.46488" lon="1.64362">
        <ele>176</ele>
        <time>2024-01-20T15:41:24Z</time>
      </trkpt>
      <trkpt lat="43.46488" lon="1.64359">
        <ele>176</ele>
        <time>2024-01-20T15:41:25Z</time>
      </trkpt>
      <trkpt lat="43.46487" lon="1.64355">
        <ele>176</ele>
        <time>2024-01-20T15:41:26Z</time>
      </trkpt>
      <trkpt lat="43.46487" lon="1.64352">
        <ele>176</ele>
        <time>2024-01-20T15:41:27Z</time>
      </trkpt>
      <trkpt lat="43.46486" lon="1.64349">
        <ele>176</ele>
        <time>2024-01-20T15:41:28Z</time>
      </trkpt>
      <trkpt lat="43.46486" lon="1.64346">
        <ele>176</ele>
        <time>2024-01-20T15:41:29Z</time>
      </trkpt>
      <trkpt lat="43.46486" lon="1.64342">
        <ele>176</ele>
        <time>2024-01-20T15:41:30Z</time>
      </trkpt>
      <trkpt lat="43.46485" lon="1.64339">
        <ele>176</ele>
        <time>2024-01-20T15:41:31Z</time>
      </trkpt>
      <trkpt lat="43.46485" lon="1.64334">
        <ele>176</ele>
        <time>2024-01-20T15:41:32Z</time>
      </trkpt>
      <trkpt lat="43.46484" lon="1.64332">
        <ele>176</ele>
        <time>2024-01-20T15:41:33Z</time>
      </trkpt>
      <trkpt lat="43.46484" lon="1.64328">
        <ele>176</ele>
        <time>2024-01-20T15:41:34Z</time>
      </trkpt>
      <trkpt lat="43.46483" lon="1.64326">
        <ele>176</ele>
        <time>2024-01-20T15:41:35Z</time>
      </trkpt>
      <trkpt lat="43.46483" lon="1.64323">
        <ele>176</ele>
        <time>2024-01-20T15:41:36Z</time>
      </trkpt>
      <trkpt lat="43.46482" lon="1.64319">
        <ele>176</ele>
        <time>2024-01-20T15:41:37Z</time>
      </trkpt>
      <trkpt lat="43.46482" lon="1.64317">
        <ele>176</ele>
        <time>2024-01-20T15:41:38Z</time>
      </trkpt>
      <trkpt lat="43.46482" lon="1.64314">
        <ele>176</ele>
        <time>2024-01-20T15:41:39Z</time>
      </trkpt>
      <trkpt lat="43.46482" lon="1.64311">
        <ele>176</ele>
        <time>2024-01-20T15:41:40Z</time>
      </trkpt>
      <trkpt lat="43.46482" lon="1.64308">
        <ele>176</ele>
        <time>2024-01-20T15:41:41Z</time>
      </trkpt>
      <trkpt lat="43.46481" lon="1.64305">
        <ele>176</ele>
        <time>2024-01-20T15:41:42Z</time>
      </trkpt>
      <trkpt lat="43.46481" lon="1.64302">
        <ele>176</ele>
        <time>2024-01-20T15:41:43Z</time>
      </trkpt>
      <trkpt lat="43.4648" lon="1.64299">
        <ele>176</ele>
        <time>2024-01-20T15:41:44Z</time>
      </trkpt>
      <trkpt lat="43.4648" lon="1.64295">
        <ele>176</ele>
        <time>2024-01-20T15:41:45Z</time>
      </trkpt>
      <trkpt lat="43.46479" lon="1.64292">
        <ele>176</ele>
        <time>2024-01-20T15:41:46Z</time>
      </trkpt>
      <trkpt lat="43.46479" lon="1.64288">
        <ele>176</ele>
        <time>2024-01-20T15:41:47Z</time>
      </trkpt>
      <trkpt lat="43.46478" lon="1.64285">
        <ele>176</ele>
        <time>2024-01-20T15:41:48Z</time>
      </trkpt>
      <trkpt lat="43.46478" lon="1.64282">
        <ele>176</ele>
        <time>2024-01-20T15:41:49Z</time>
      </trkpt>
      <trkpt lat="43.46477" lon="1.64279">
        <ele>175</ele>
        <time>2024-01-20T15:41:50Z</time>
      </trkpt>
      <trkpt lat="43.46477" lon="1.64274">
        <ele>175</ele>
        <time>2024-01-20T15:41:51Z</time>
      </trkpt>
      <trkpt lat="43.46476" lon="1.64272">
        <ele>175</ele>
        <time>2024-01-20T15:41:52Z</time>
      </trkpt>
      <trkpt lat="43.46476" lon="1.64268">
        <ele>175</ele>
        <time>2024-01-20T15:41:53Z</time>
      </trkpt>
      <trkpt lat="43.46476" lon="1.64265">
        <ele>175</ele>
        <time>2024-01-20T15:41:54Z</time>
      </trkpt>
      <trkpt lat="43.46476" lon="1.64261">
        <ele>175</ele>
        <time>2024-01-20T15:41:55Z</time>
      </trkpt>
      <trkpt lat="43.46476" lon="1.64258">
        <ele>175</ele>
        <time>2024-01-20T15:41:56Z</time>
      </trkpt>
      <trkpt lat="43.46476" lon="1.64254">
        <ele>175</ele>
        <time>2024-01-20T15:41:57Z</time>
      </trkpt>
      <trkpt lat="43.46475" lon="1.64249">
        <ele>175</ele>
        <time>2024-01-20T15:41:58Z</time>
      </trkpt>
      <trkpt lat="43.46475" lon="1.64247">
        <ele>175</ele>
        <time>2024-01-20T15:41:59Z</time>
      </trkpt>
      <trkpt lat="43.46475" lon="1.64244">
        <ele>174</ele>
        <time>2024-01-20T15:42:00Z</time>
      </trkpt>
      <trkpt lat="43.46475" lon="1.6424">
        <ele>174</ele>
        <time>2024-01-20T15:42:01Z</time>
      </trkpt>
      <trkpt lat="43.46475" lon="1.64237">
        <ele>174</ele>
        <time>2024-01-20T15:42:02Z</time>
      </trkpt>
      <trkpt lat="43.46475" lon="1.64233">
        <ele>173</ele>
        <time>2024-01-20T15:42:03Z</time>
      </trkpt>
      <trkpt lat="43.46475" lon="1.6423">
        <ele>173</ele>
        <time>2024-01-20T15:42:04Z</time>
      </trkpt>
      <trkpt lat="43.46474" lon="1.64227">
        <ele>173</ele>
        <time>2024-01-20T15:42:05Z</time>
      </trkpt>
      <trkpt lat="43.46474" lon="1.64223">
        <ele>173</ele>
        <time>2024-01-20T15:42:06Z</time>
      </trkpt>
      <trkpt lat="43.46474" lon="1.6422">
        <ele>173</ele>
        <time>2024-01-20T15:42:07Z</time>
      </trkpt>
      <trkpt lat="43.46474" lon="1.64217">
        <ele>173</ele>
        <time>2024-01-20T15:42:08Z</time>
      </trkpt>
      <trkpt lat="43.46474" lon="1.64213">
        <ele>173</ele>
        <time>2024-01-20T15:42:09Z</time>
      </trkpt>
      <trkpt lat="43.46473" lon="1.64208">
        <ele>173</ele>
        <time>2024-01-20T15:42:10Z</time>
      </trkpt>
      <trkpt lat="43.46473" lon="1.64206">
        <ele>174</ele>
        <time>2024-01-20T15:42:11Z</time>
      </trkpt>
      <trkpt lat="43.46473" lon="1.64203">
        <ele>174</ele>
        <time>2024-01-20T15:42:12Z</time>
      </trkpt>
      <trkpt lat="43.46472" lon="1.64199">
        <ele>174</ele>
        <time>2024-01-20T15:42:13Z</time>
      </trkpt>
      <trkpt lat="43.46472" lon="1.64196">
        <ele>174</ele>
        <time>2024-01-20T15:42:14Z</time>
      </trkpt>
      <trkpt lat="43.46472" lon="1.64192">
        <ele>174</ele>
        <time>2024-01-20T15:42:15Z</time>
      </trkpt>
      <trkpt lat="43.46472" lon="1.64187">
        <ele>174</ele>
        <time>2024-01-20T15:42:16Z</time>
      </trkpt>
      <trkpt lat="43.46472" lon="1.64186">
        <ele>174</ele>
        <time>2024-01-20T15:42:17Z</time>
      </trkpt>
      <trkpt lat="43.46472" lon="1.6418">
        <ele>174</ele>
        <time>2024-01-20T15:42:18Z</time>
      </trkpt>
      <trkpt lat="43.46471" lon="1.64178">
        <ele>174</ele>
        <time>2024-01-20T15:42:19Z</time>
      </trkpt>
      <trkpt lat="43.46471" lon="1.64175">
        <ele>174</ele>
        <time>2024-01-20T15:42:20Z</time>
      </trkpt>
      <trkpt lat="43.46471" lon="1.64171">
        <ele>174</ele>
        <time>2024-01-20T15:42:21Z</time>
      </trkpt>
      <trkpt lat="43.46471" lon="1.64168">
        <ele>174</ele>
        <time>2024-01-20T15:42:22Z</time>
      </trkpt>
      <trkpt lat="43.46471" lon="1.64164">
        <ele>174</ele>
        <time>2024-01-20T15:42:23Z</time>
      </trkpt>
      <trkpt lat="43.46471" lon="1.64161">
        <ele>174</ele>
        <time>2024-01-20T15:42:24Z</time>
      </trkpt>
      <trkpt lat="43.46471" lon="1.64157">
        <ele>174</ele>
        <time>2024-01-20T15:42:25Z</time>
      </trkpt>
      <trkpt lat="43.4647" lon="1.64154">
        <ele>174</ele>
        <time>2024-01-20T15:42:26Z</time>
      </trkpt>
      <trkpt lat="43.4647" lon="1.6415">
        <ele>174</ele>
        <time>2024-01-20T15:42:27Z</time>
      </trkpt>
      <trkpt lat="43.4647" lon="1.64147">
        <ele>174</ele>
        <time>2024-01-20T15:42:28Z</time>
      </trkpt>
      <trkpt lat="43.4647" lon="1.64142">
        <ele>174</ele>
        <time>2024-01-20T15:42:29Z</time>
      </trkpt>
      <trkpt lat="43.4647" lon="1.64141">
        <ele>174</ele>
        <time>2024-01-20T15:42:30Z</time>
      </trkpt>
      <trkpt lat="43.46469" lon="1.64137">
        <ele>174</ele>
        <time>2024-01-20T15:42:31Z</time>
      </trkpt>
      <trkpt lat="43.46469" lon="1.64134">
        <ele>174</ele>
        <time>2024-01-20T15:42:32Z</time>
      </trkpt>
      <trkpt lat="43.46469" lon="1.6413">
        <ele>174</ele>
        <time>2024-01-20T15:42:33Z</time>
      </trkpt>
      <trkpt lat="43.46469" lon="1.64127">
        <ele>174</ele>
        <time>2024-01-20T15:42:34Z</time>
      </trkpt>
      <trkpt lat="43.46469" lon="1.64124">
        <ele>174</ele>
        <time>2024-01-20T15:42:35Z</time>
      </trkpt>
      <trkpt lat="43.46468" lon="1.6412">
        <ele>174</ele>
        <time>2024-01-20T15:42:36Z</time>
      </trkpt>
      <trkpt lat="43.46468" lon="1.64116">
        <ele>174</ele>
        <time>2024-01-20T15:42:37Z</time>
      </trkpt>
      <trkpt lat="43.46468" lon="1.64111">
        <ele>174</ele>
        <time>2024-01-20T15:42:38Z</time>
      </trkpt>
      <trkpt lat="43.46468" lon="1.64109">
        <ele>174</ele>
        <time>2024-01-20T15:42:39Z</time>
      </trkpt>
      <trkpt lat="43.46467" lon="1.64105">
        <ele>174</ele>
        <time>2024-01-20T15:42:40Z</time>
      </trkpt>
      <trkpt lat="43.46467" lon="1.64102">
        <ele>174</ele>
        <time>2024-01-20T15:42:41Z</time>
      </trkpt>
      <trkpt lat="43.46467" lon="1.64098">
        <ele>174</ele>
        <time>2024-01-20T15:42:42Z</time>
      </trkpt>
      <trkpt lat="43.46466" lon="1.64095">
        <ele>174</ele>
        <time>2024-01-20T15:42:43Z</time>
      </trkpt>
      <trkpt lat="43.46466" lon="1.64091">
        <ele>174</ele>
        <time>2024-01-20T15:42:44Z</time>
      </trkpt>
      <trkpt lat="43.46466" lon="1.64088">
        <ele>174</ele>
        <time>2024-01-20T15:42:45Z</time>
      </trkpt>
      <trkpt lat="43.46466" lon="1.64085">
        <ele>174</ele>
        <time>2024-01-20T15:42:46Z</time>
      </trkpt>
      <trkpt lat="43.46465" lon="1.64082">
        <ele>174</ele>
        <time>2024-01-20T15:42:47Z</time>
      </trkpt>
      <trkpt lat="43.46465" lon="1.64079">
        <ele>174</ele>
        <time>2024-01-20T15:42:48Z</time>
      </trkpt>
      <trkpt lat="43.46465" lon="1.64076">
        <ele>174</ele>
        <time>2024-01-20T15:42:49Z</time>
      </trkpt>
      <trkpt lat="43.46464" lon="1.64073">
        <ele>174</ele>
        <time>2024-01-20T15:42:50Z</time>
      </trkpt>
      <trkpt lat="43.46464" lon="1.64069">
        <ele>174</ele>
        <time>2024-01-20T15:42:51Z</time>
      </trkpt>
      <trkpt lat="43.46464" lon="1.64066">
        <ele>174</ele>
        <time>2024-01-20T15:42:52Z</time>
      </trkpt>
      <trkpt lat="43.46463" lon="1.64062">
        <ele>174</ele>
        <time>2024-01-20T15:42:53Z</time>
      </trkpt>
      <trkpt lat="43.46463" lon="1.64059">
        <ele>174</ele>
        <time>2024-01-20T15:42:54Z</time>
      </trkpt>
      <trkpt lat="43.46462" lon="1.64055">
        <ele>174</ele>
        <time>2024-01-20T15:42:55Z</time>
      </trkpt>
      <trkpt lat="43.46462" lon="1.64052">
        <ele>174</ele>
        <time>2024-01-20T15:42:56Z</time>
      </trkpt>
      <trkpt lat="43.46461" lon="1.64049">
        <ele>174</ele>
        <time>2024-01-20T15:42:57Z</time>
      </trkpt>
      <trkpt lat="43.46461" lon="1.64044">
        <ele>174</ele>
        <time>2024-01-20T15:42:58Z</time>
      </trkpt>
      <trkpt lat="43.46461" lon="1.64042">
        <ele>174</ele>
        <time>2024-01-20T15:42:59Z</time>
      </trkpt>
      <trkpt lat="43.4646" lon="1.64039">
        <ele>174</ele>
        <time>2024-01-20T15:43:00Z</time>
      </trkpt>
      <trkpt lat="43.4646" lon="1.64036">
        <ele>174</ele>
        <time>2024-01-20T15:43:01Z</time>
      </trkpt>
      <trkpt lat="43.46459" lon="1.64032">
        <ele>174</ele>
        <time>2024-01-20T15:43:02Z</time>
      </trkpt>
      <trkpt lat="43.46458" lon="1.64029">
        <ele>174</ele>
        <time>2024-01-20T15:43:03Z</time>
      </trkpt>
      <trkpt lat="43.46458" lon="1.64026">
        <ele>174</ele>
        <time>2024-01-20T15:43:04Z</time>
      </trkpt>
      <trkpt lat="43.46457" lon="1.64022">
        <ele>174</ele>
        <time>2024-01-20T15:43:05Z</time>
      </trkpt>
      <trkpt lat="43.46456" lon="1.64019">
        <ele>174</ele>
        <time>2024-01-20T15:43:06Z</time>
      </trkpt>
      <trkpt lat="43.46456" lon="1.64014">
        <ele>174</ele>
        <time>2024-01-20T15:43:07Z</time>
      </trkpt>
      <trkpt lat="43.46455" lon="1.64013">
        <ele>174</ele>
        <time>2024-01-20T15:43:08Z</time>
      </trkpt>
      <trkpt lat="43.46454" lon="1.6401">
        <ele>174</ele>
        <time>2024-01-20T15:43:09Z</time>
      </trkpt>
      <trkpt lat="43.46454" lon="1.64006">
        <ele>174</ele>
        <time>2024-01-20T15:43:10Z</time>
      </trkpt>
      <trkpt lat="43.46453" lon="1.64003">
        <ele>174</ele>
        <time>2024-01-20T15:43:11Z</time>
      </trkpt>
      <trkpt lat="43.46452" lon="1.64">
        <ele>174</ele>
        <time>2024-01-20T15:43:12Z</time>
      </trkpt>
      <trkpt lat="43.46451" lon="1.63997">
        <ele>174</ele>
        <time>2024-01-20T15:43:13Z</time>
      </trkpt>
      <trkpt lat="43.4645" lon="1.63994">
        <ele>174</ele>
        <time>2024-01-20T15:43:14Z</time>
      </trkpt>
      <trkpt lat="43.46449" lon="1.6399">
        <ele>174</ele>
        <time>2024-01-20T15:43:15Z</time>
      </trkpt>
      <trkpt lat="43.46447" lon="1.63987">
        <ele>174</ele>
        <time>2024-01-20T15:43:16Z</time>
      </trkpt>
      <trkpt lat="43.46446" lon="1.63984">
        <ele>174</ele>
        <time>2024-01-20T15:43:17Z</time>
      </trkpt>
      <trkpt lat="43.46444" lon="1.63979">
        <ele>174</ele>
        <time>2024-01-20T15:43:18Z</time>
      </trkpt>
      <trkpt lat="43.46444" lon="1.63978">
        <ele>174</ele>
        <time>2024-01-20T15:43:19Z</time>
      </trkpt>
      <trkpt lat="43.46442" lon="1.63975">
        <ele>174</ele>
        <time>2024-01-20T15:43:20Z</time>
      </trkpt>
      <trkpt lat="43.46441" lon="1.63972">
        <ele>174</ele>
        <time>2024-01-20T15:43:21Z</time>
      </trkpt>
      <trkpt lat="43.4644" lon="1.63969">
        <ele>174</ele>
        <time>2024-01-20T15:43:22Z</time>
      </trkpt>
      <trkpt lat="43.46438" lon="1.63966">
        <ele>174</ele>
        <time>2024-01-20T15:43:23Z</time>
      </trkpt>
      <trkpt lat="43.46437" lon="1.63963">
        <ele>173</ele>
        <time>2024-01-20T15:43:24Z</time>
      </trkpt>
      <trkpt lat="43.46436" lon="1.6396">
        <ele>173</ele>
        <time>2024-01-20T15:43:25Z</time>
      </trkpt>
      <trkpt lat="43.46434" lon="1.63956">
        <ele>173</ele>
        <time>2024-01-20T15:43:26Z</time>
      </trkpt>
      <trkpt lat="43.46433" lon="1.63955">
        <ele>173</ele>
        <time>2024-01-20T15:43:27Z</time>
      </trkpt>
      <trkpt lat="43.46432" lon="1.63952">
        <ele>173</ele>
        <time>2024-01-20T15:43:28Z</time>
      </trkpt>
      <trkpt lat="43.4643" lon="1.63949">
        <ele>173</ele>
        <time>2024-01-20T15:43:29Z</time>
      </trkpt>
      <trkpt lat="43.46429" lon="1.63946">
        <ele>173</ele>
        <time>2024-01-20T15:43:30Z</time>
      </trkpt>
      <trkpt lat="43.46427" lon="1.63944">
        <ele>173</ele>
        <time>2024-01-20T15:43:31Z</time>
      </trkpt>
      <trkpt lat="43.46426" lon="1.63941">
        <ele>173</ele>
        <time>2024-01-20T15:43:32Z</time>
      </trkpt>
      <trkpt lat="43.46425" lon="1.63938">
        <ele>173</ele>
        <time>2024-01-20T15:43:33Z</time>
      </trkpt>
      <trkpt lat="43.46423" lon="1.63935">
        <ele>173</ele>
        <time>2024-01-20T15:43:34Z</time>
      </trkpt>
      <trkpt lat="43.46422" lon="1.63932">
        <ele>173</ele>
        <time>2024-01-20T15:43:35Z</time>
      </trkpt>
      <trkpt lat="43.46421" lon="1.63929">
        <ele>173</ele>
        <time>2024-01-20T15:43:36Z</time>
      </trkpt>
      <trkpt lat="43.4642" lon="1.63926">
        <ele>173</ele>
        <time>2024-01-20T15:43:37Z</time>
      </trkpt>
      <trkpt lat="43.46418" lon="1.63922">
        <ele>173</ele>
        <time>2024-01-20T15:43:38Z</time>
      </trkpt>
      <trkpt lat="43.46417" lon="1.6392">
        <ele>173</ele>
        <time>2024-01-20T15:43:39Z</time>
      </trkpt>
      <trkpt lat="43.46415" lon="1.63918">
        <ele>173</ele>
        <time>2024-01-20T15:43:40Z</time>
      </trkpt>
      <trkpt lat="43.46414" lon="1.63915">
        <ele>173</ele>
        <time>2024-01-20T15:43:41Z</time>
      </trkpt>
      <trkpt lat="43.46413" lon="1.63912">
        <ele>174</ele>
        <time>2024-01-20T15:43:42Z</time>
      </trkpt>
      <trkpt lat="43.46411" lon="1.63909">
        <ele>174</ele>
        <time>2024-01-20T15:43:43Z</time>
      </trkpt>
      <trkpt lat="43.4641" lon="1.63907">
        <ele>174</ele>
        <time>2024-01-20T15:43:44Z</time>
      </trkpt>
      <trkpt lat="43.46408" lon="1.63903">
        <ele>174</ele>
        <time>2024-01-20T15:43:45Z</time>
      </trkpt>
      <trkpt lat="43.46408" lon="1.63902">
        <ele>174</ele>
        <time>2024-01-20T15:43:46Z</time>
      </trkpt>
      <trkpt lat="43.46406" lon="1.63899">
        <ele>174</ele>
        <time>2024-01-20T15:43:47Z</time>
      </trkpt>
      <trkpt lat="43.46405" lon="1.63896">
        <ele>174</ele>
        <time>2024-01-20T15:43:48Z</time>
      </trkpt>
      <trkpt lat="43.46403" lon="1.63894">
        <ele>174</ele>
        <time>2024-01-20T15:43:49Z</time>
      </trkpt>
      <trkpt lat="43.46402" lon="1.63891">
        <ele>174</ele>
        <time>2024-01-20T15:43:50Z</time>
      </trkpt>
      <trkpt lat="43.46399" lon="1.63887">
        <ele>174</ele>
        <time>2024-01-20T15:43:51Z</time>
      </trkpt>
      <trkpt lat="43.46399" lon="1.63886">
        <ele>174</ele>
        <time>2024-01-20T15:43:52Z</time>
      </trkpt>
      <trkpt lat="43.46397" lon="1.63884">
        <ele>174</ele>
        <time>2024-01-20T15:43:53Z</time>
      </trkpt>
      <trkpt lat="43.46396" lon="1.63881">
        <ele>174</ele>
        <time>2024-01-20T15:43:54Z</time>
      </trkpt>
      <trkpt lat="43.46394" lon="1.63878">
        <ele>174</ele>
        <time>2024-01-20T15:43:55Z</time>
      </trkpt>
      <trkpt lat="43.46393" lon="1.63876">
        <ele>174</ele>
        <time>2024-01-20T15:43:56Z</time>
      </trkpt>
      <trkpt lat="43.46391" lon="1.63873">
        <ele>174</ele>
        <time>2024-01-20T15:43:57Z</time>
      </trkpt>
      <trkpt lat="43.4639" lon="1.6387">
        <ele>174</ele>
        <time>2024-01-20T15:43:58Z</time>
      </trkpt>
      <trkpt lat="43.46388" lon="1.63866">
        <ele>174</ele>
        <time>2024-01-20T15:43:59Z</time>
      </trkpt>
      <trkpt lat="43.46387" lon="1.63865">
        <ele>174</ele>
        <time>2024-01-20T15:44:00Z</time>
      </trkpt>
      <trkpt lat="43.46385" lon="1.63861">
        <ele>174</ele>
        <time>2024-01-20T15:44:01Z</time>
      </trkpt>
      <trkpt lat="43.46384" lon="1.6386">
        <ele>174</ele>
        <time>2024-01-20T15:44:02Z</time>
      </trkpt>
      <trkpt lat="43.46383" lon="1.63857">
        <ele>174</ele>
        <time>2024-01-20T15:44:03Z</time>
      </trkpt>
      <trkpt lat="43.46381" lon="1.63853">
        <ele>174</ele>
        <time>2024-01-20T15:44:04Z</time>
      </trkpt>
      <trkpt lat="43.4638" lon="1.63852">
        <ele>174</ele>
        <time>2024-01-20T15:44:05Z</time>
      </trkpt>
      <trkpt lat="43.46379" lon="1.63849">
        <ele>174</ele>
        <time>2024-01-20T15:44:06Z</time>
      </trkpt>
      <trkpt lat="43.46378" lon="1.63847">
        <ele>174</ele>
        <time>2024-01-20T15:44:07Z</time>
      </trkpt>
      <trkpt lat="43.46376" lon="1.63844">
        <ele>174</ele>
        <time>2024-01-20T15:44:08Z</time>
      </trkpt>
      <trkpt lat="43.46375" lon="1.63841">
        <ele>174</ele>
        <time>2024-01-20T15:44:09Z</time>
      </trkpt>
      <trkpt lat="43.46374" lon="1.63838">
        <ele>174</ele>
        <time>2024-01-20T15:44:10Z</time>
      </trkpt>
      <trkpt lat="43.46372" lon="1.63836">
        <ele>174</ele>
        <time>2024-01-20T15:44:11Z</time>
      </trkpt>
      <trkpt lat="43.46371" lon="1.63833">
        <ele>174</ele>
        <time>2024-01-20T15:44:12Z</time>
      </trkpt>
      <trkpt lat="43.4637" lon="1.6383">
        <ele>174</ele>
        <time>2024-01-20T15:44:13Z</time>
      </trkpt>
      <trkpt lat="43.46369" lon="1.63827">
        <ele>174</ele>
        <time>2024-01-20T15:44:14Z</time>
      </trkpt>
      <trkpt lat="43.46367" lon="1.63824">
        <ele>174</ele>
        <time>2024-01-20T15:44:15Z</time>
      </trkpt>
      <trkpt lat="43.46366" lon="1.63822">
        <ele>174</ele>
        <time>2024-01-20T15:44:16Z</time>
      </trkpt>
      <trkpt lat="43.46365" lon="1.63819">
        <ele>174</ele>
        <time>2024-01-20T15:44:17Z</time>
      </trkpt>
      <trkpt lat="43.46364" lon="1.63816">
        <ele>174</ele>
        <time>2024-01-20T15:44:18Z</time>
      </trkpt>
      <trkpt lat="43.46363" lon="1.63813">
        <ele>174</ele>
        <time>2024-01-20T15:44:19Z</time>
      </trkpt>
      <trkpt lat="43.46361" lon="1.63809">
        <ele>174</ele>
        <time>2024-01-20T15:44:20Z</time>
      </trkpt>
      <trkpt lat="43.46361" lon="1.63807">
        <ele>174</ele>
        <time>2024-01-20T15:44:21Z</time>
      </trkpt>
      <trkpt lat="43.46359" lon="1.63804">
        <ele>174</ele>
        <time>2024-01-20T15:44:22Z</time>
      </trkpt>
      <trkpt lat="43.46357" lon="1.638">
        <ele>174</ele>
        <time>2024-01-20T15:44:23Z</time>
      </trkpt>
      <trkpt lat="43.46357" lon="1.63799">
        <ele>174</ele>
        <time>2024-01-20T15:44:24Z</time>
      </trkpt>
      <trkpt lat="43.46356" lon="1.63796">
        <ele>174</ele>
        <time>2024-01-20T15:44:25Z</time>
      </trkpt>
      <trkpt lat="43.46355" lon="1.63793">
        <ele>174</ele>
        <time>2024-01-20T15:44:26Z</time>
      </trkpt>
      <trkpt lat="43.46354" lon="1.6379">
        <ele>174</ele>
        <time>2024-01-20T15:44:27Z</time>
      </trkpt>
      <trkpt lat="43.46352" lon="1.63787">
        <ele>174</ele>
        <time>2024-01-20T15:44:28Z</time>
      </trkpt>
      <trkpt lat="43.46351" lon="1.63785">
        <ele>174</ele>
        <time>2024-01-20T15:44:29Z</time>
      </trkpt>
      <trkpt lat="43.4635" lon="1.63782">
        <ele>174</ele>
        <time>2024-01-20T15:44:30Z</time>
      </trkpt>
      <trkpt lat="43.46349" lon="1.63779">
        <ele>174</ele>
        <time>2024-01-20T15:44:31Z</time>
      </trkpt>
      <trkpt lat="43.46347" lon="1.63776">
        <ele>174</ele>
        <time>2024-01-20T15:44:32Z</time>
      </trkpt>
      <trkpt lat="43.46346" lon="1.63773">
        <ele>174</ele>
        <time>2024-01-20T15:44:33Z</time>
      </trkpt>
      <trkpt lat="43.46345" lon="1.6377">
        <ele>174</ele>
        <time>2024-01-20T15:44:34Z</time>
      </trkpt>
      <trkpt lat="43.46343" lon="1.63766">
        <ele>174</ele>
        <time>2024-01-20T15:44:35Z</time>
      </trkpt>
      <trkpt lat="43.46342" lon="1.63765">
        <ele>174</ele>
        <time>2024-01-20T15:44:36Z</time>
      </trkpt>
      <trkpt lat="43.46341" lon="1.63762">
        <ele>174</ele>
        <time>2024-01-20T15:44:37Z</time>
      </trkpt>
      <trkpt lat="43.4634" lon="1.63759">
        <ele>174</ele>
        <time>2024-01-20T15:44:38Z</time>
      </trkpt>
      <trkpt lat="43.46339" lon="1.63756">
        <ele>174</ele>
        <time>2024-01-20T15:44:39Z</time>
      </trkpt>
      <trkpt lat="43.46338" lon="1.63753">
        <ele>174</ele>
        <time>2024-01-20T15:44:40Z</time>
      </trkpt>
      <trkpt lat="43.46337" lon="1.63751">
        <ele>174</ele>
        <time>2024-01-20T15:44:41Z</time>
      </trkpt>
      <trkpt lat="43.46336" lon="1.63748">
        <ele>174</ele>
        <time>2024-01-20T15:44:42Z</time>
      </trkpt>
      <trkpt lat="43.46335" lon="1.63745">
        <ele>174</ele>
        <time>2024-01-20T15:44:43Z</time>
      </trkpt>
      <trkpt lat="43.46334" lon="1.63742">
        <ele>174</ele>
        <time>2024-01-20T15:44:44Z</time>
      </trkpt>
      <trkpt lat="43.46333" lon="1.63739">
        <ele>174</ele>
        <time>2024-01-20T15:44:45Z</time>
      </trkpt>
      <trkpt lat="43.46333" lon="1.63736">
        <ele>174</ele>
        <time>2024-01-20T15:44:46Z</time>
      </trkpt>
      <trkpt lat="43.46332" lon="1.63733">
        <ele>174</ele>
        <time>2024-01-20T15:44:47Z</time>
      </trkpt>
      <trkpt lat="43.46331" lon="1.63729">
        <ele>174</ele>
        <time>2024-01-20T15:44:48Z</time>
      </trkpt>
      <trkpt lat="43.46331" lon="1.63726">
        <ele>174</ele>
        <time>2024-01-20T15:44:49Z</time>
      </trkpt>
      <trkpt lat="43.4633" lon="1.63723">
        <ele>174</ele>
        <time>2024-01-20T15:44:50Z</time>
      </trkpt>
      <trkpt lat="43.4633" lon="1.6372">
        <ele>174</ele>
        <time>2024-01-20T15:44:51Z</time>
      </trkpt>
      <trkpt lat="43.4633" lon="1.63717">
        <ele>174</ele>
        <time>2024-01-20T15:44:52Z</time>
      </trkpt>
      <trkpt lat="43.4633" lon="1.63713">
        <ele>174</ele>
        <time>2024-01-20T15:44:53Z</time>
      </trkpt>
      <trkpt lat="43.46329" lon="1.6371">
        <ele>174</ele>
        <time>2024-01-20T15:44:54Z</time>
      </trkpt>
      <trkpt lat="43.46329" lon="1.63707">
        <ele>174</ele>
        <time>2024-01-20T15:44:55Z</time>
      </trkpt>
      <trkpt lat="43.46329" lon="1.63703">
        <ele>174</ele>
        <time>2024-01-20T15:44:56Z</time>
      </trkpt>
      <trkpt lat="43.46328" lon="1.637">
        <ele>174</ele>
        <time>2024-01-20T15:44:57Z</time>
      </trkpt>
      <trkpt lat="43.46328" lon="1.63697">
        <ele>174</ele>
        <time>2024-01-20T15:44:58Z</time>
      </trkpt>
      <trkpt lat="43.46327" lon="1.63693">
        <ele>174</ele>
        <time>2024-01-20T15:44:59Z</time>
      </trkpt>
      <trkpt lat="43.46327" lon="1.6369">
        <ele>174</ele>
        <time>2024-01-20T15:45:00Z</time>
      </trkpt>
      <trkpt lat="43.46326" lon="1.63687">
        <ele>174</ele>
        <time>2024-01-20T15:45:01Z</time>
      </trkpt>
      <trkpt lat="43.46325" lon="1.63684">
        <ele>174</ele>
        <time>2024-01-20T15:45:02Z</time>
      </trkpt>
      <trkpt lat="43.46324" lon="1.6368">
        <ele>174</ele>
        <time>2024-01-20T15:45:03Z</time>
      </trkpt>
      <trkpt lat="43.46324" lon="1.63677">
        <ele>174</ele>
        <time>2024-01-20T15:45:04Z</time>
      </trkpt>
      <trkpt lat="43.46323" lon="1.63673">
        <ele>174</ele>
        <time>2024-01-20T15:45:05Z</time>
      </trkpt>
      <trkpt lat="43.46322" lon="1.6367">
        <ele>174</ele>
        <time>2024-01-20T15:45:06Z</time>
      </trkpt>
      <trkpt lat="43.46321" lon="1.63667">
        <ele>174</ele>
        <time>2024-01-20T15:45:07Z</time>
      </trkpt>
      <trkpt lat="43.46321" lon="1.63663">
        <ele>174</ele>
        <time>2024-01-20T15:45:08Z</time>
      </trkpt>
      <trkpt lat="43.4632" lon="1.6366">
        <ele>174</ele>
        <time>2024-01-20T15:45:09Z</time>
      </trkpt>
      <trkpt lat="43.46319" lon="1.63657">
        <ele>175</ele>
        <time>2024-01-20T15:45:10Z</time>
      </trkpt>
      <trkpt lat="43.46318" lon="1.63654">
        <ele>175</ele>
        <time>2024-01-20T15:45:11Z</time>
      </trkpt>
      <trkpt lat="43.46317" lon="1.63651">
        <ele>174</ele>
        <time>2024-01-20T15:45:12Z</time>
      </trkpt>
      <trkpt lat="43.46316" lon="1.63648">
        <ele>174</ele>
        <time>2024-01-20T15:45:13Z</time>
      </trkpt>
      <trkpt lat="43.46314" lon="1.63645">
        <ele>173</ele>
        <time>2024-01-20T15:45:14Z</time>
      </trkpt>
      <trkpt lat="43.46313" lon="1.63643">
        <ele>173</ele>
        <time>2024-01-20T15:45:15Z</time>
      </trkpt>
      <trkpt lat="43.46312" lon="1.6364">
        <ele>173</ele>
        <time>2024-01-20T15:45:16Z</time>
      </trkpt>
      <trkpt lat="43.46311" lon="1.63637">
        <ele>173</ele>
        <time>2024-01-20T15:45:17Z</time>
      </trkpt>
      <trkpt lat="43.46309" lon="1.63635">
        <ele>173</ele>
        <time>2024-01-20T15:45:18Z</time>
      </trkpt>
      <trkpt lat="43.46308" lon="1.63632">
        <ele>173</ele>
        <time>2024-01-20T15:45:19Z</time>
      </trkpt>
      <trkpt lat="43.46305" lon="1.63628">
        <ele>173</ele>
        <time>2024-01-20T15:45:20Z</time>
      </trkpt>
      <trkpt lat="43.46305" lon="1.63627">
        <ele>172</ele>
        <time>2024-01-20T15:45:21Z</time>
      </trkpt>
      <trkpt lat="43.46303" lon="1.63624">
        <ele>172</ele>
        <time>2024-01-20T15:45:22Z</time>
      </trkpt>
      <trkpt lat="43.46302" lon="1.63621">
        <ele>172</ele>
        <time>2024-01-20T15:45:23Z</time>
      </trkpt>
      <trkpt lat="43.463" lon="1.63618">
        <ele>172</ele>
        <time>2024-01-20T15:45:24Z</time>
      </trkpt>
      <trkpt lat="43.46299" lon="1.63615">
        <ele>172</ele>
        <time>2024-01-20T15:45:25Z</time>
      </trkpt>
      <trkpt lat="43.46297" lon="1.63612">
        <ele>171</ele>
        <time>2024-01-20T15:45:26Z</time>
      </trkpt>
      <trkpt lat="43.46296" lon="1.63609">
        <ele>171</ele>
        <time>2024-01-20T15:45:27Z</time>
      </trkpt>
      <trkpt lat="43.46295" lon="1.63605">
        <ele>171</ele>
        <time>2024-01-20T15:45:28Z</time>
      </trkpt>
      <trkpt lat="43.46293" lon="1.63602">
        <ele>171</ele>
        <time>2024-01-20T15:45:29Z</time>
      </trkpt>
      <trkpt lat="43.46292" lon="1.63599">
        <ele>171</ele>
        <time>2024-01-20T15:45:30Z</time>
      </trkpt>
      <trkpt lat="43.4629" lon="1.63596">
        <ele>171</ele>
        <time>2024-01-20T15:45:31Z</time>
      </trkpt>
      <trkpt lat="43.46289" lon="1.63593">
        <ele>170</ele>
        <time>2024-01-20T15:45:32Z</time>
      </trkpt>
      <trkpt lat="43.46287" lon="1.6359">
        <ele>170</ele>
        <time>2024-01-20T15:45:33Z</time>
      </trkpt>
      <trkpt lat="43.46286" lon="1.63587">
        <ele>170</ele>
        <time>2024-01-20T15:45:34Z</time>
      </trkpt>
      <trkpt lat="43.46284" lon="1.63584">
        <ele>170</ele>
        <time>2024-01-20T15:45:35Z</time>
      </trkpt>
      <trkpt lat="43.46283" lon="1.63581">
        <ele>170</ele>
        <time>2024-01-20T15:45:36Z</time>
      </trkpt>
      <trkpt lat="43.46281" lon="1.63578">
        <ele>170</ele>
        <time>2024-01-20T15:45:37Z</time>
      </trkpt>
      <trkpt lat="43.46279" lon="1.63575">
        <ele>170</ele>
        <time>2024-01-20T15:45:38Z</time>
      </trkpt>
      <trkpt lat="43.46277" lon="1.63571">
        <ele>170</ele>
        <time>2024-01-20T15:45:39Z</time>
      </trkpt>
      <trkpt lat="43.46276" lon="1.63569">
        <ele>170</ele>
        <time>2024-01-20T15:45:40Z</time>
      </trkpt>
      <trkpt lat="43.46275" lon="1.63566">
        <ele>170</ele>
        <time>2024-01-20T15:45:41Z</time>
      </trkpt>
      <trkpt lat="43.46273" lon="1.63563">
        <ele>170</ele>
        <time>2024-01-20T15:45:42Z</time>
      </trkpt>
      <trkpt lat="43.46272" lon="1.6356">
        <ele>169</ele>
        <time>2024-01-20T15:45:43Z</time>
      </trkpt>
      <trkpt lat="43.4627" lon="1.63557">
        <ele>169</ele>
        <time>2024-01-20T15:45:44Z</time>
      </trkpt>
      <trkpt lat="43.46269" lon="1.63554">
        <ele>169</ele>
        <time>2024-01-20T15:45:45Z</time>
      </trkpt>
      <trkpt lat="43.46267" lon="1.63551">
        <ele>169</ele>
        <time>2024-01-20T15:45:46Z</time>
      </trkpt>
      <trkpt lat="43.46266" lon="1.63548">
        <ele>169</ele>
        <time>2024-01-20T15:45:47Z</time>
      </trkpt>
      <trkpt lat="43.46264" lon="1.63545">
        <ele>169</ele>
        <time>2024-01-20T15:45:48Z</time>
      </trkpt>
      <trkpt lat="43.46262" lon="1.63541">
        <ele>169</ele>
        <time>2024-01-20T15:45:49Z</time>
      </trkpt>
      <trkpt lat="43.46261" lon="1.63539">
        <ele>169</ele>
        <time>2024-01-20T15:45:50Z</time>
      </trkpt>
      <trkpt lat="43.4626" lon="1.63536">
        <ele>169</ele>
        <time>2024-01-20T15:45:51Z</time>
      </trkpt>
      <trkpt lat="43.46258" lon="1.63533">
        <ele>169</ele>
        <time>2024-01-20T15:45:52Z</time>
      </trkpt>
      <trkpt lat="43.46257" lon="1.6353">
        <ele>169</ele>
        <time>2024-01-20T15:45:53Z</time>
      </trkpt>
      <trkpt lat="43.46256" lon="1.63527">
        <ele>169</ele>
        <time>2024-01-20T15:45:54Z</time>
      </trkpt>
      <trkpt lat="43.46254" lon="1.63524">
        <ele>169</ele>
        <time>2024-01-20T15:45:55Z</time>
      </trkpt>
      <trkpt lat="43.46253" lon="1.63521">
        <ele>169</ele>
        <time>2024-01-20T15:45:56Z</time>
      </trkpt>
      <trkpt lat="43.46251" lon="1.63518">
        <ele>169</ele>
        <time>2024-01-20T15:45:57Z</time>
      </trkpt>
      <trkpt lat="43.46249" lon="1.63513">
        <ele>169</ele>
        <time>2024-01-20T15:45:58Z</time>
      </trkpt>
      <trkpt lat="43.46249" lon="1.63512">
        <ele>169</ele>
        <time>2024-01-20T15:45:59Z</time>
      </trkpt>
      <trkpt lat="43.46247" lon="1.63507">
        <ele>169</ele>
        <time>2024-01-20T15:46:00Z</time>
      </trkpt>
      <trkpt lat="43.46246" lon="1.63506">
        <ele>169</ele>
        <time>2024-01-20T15:46:01Z</time>
      </trkpt>
      <trkpt lat="43.46245" lon="1.63503">
        <ele>169</ele>
        <time>2024-01-20T15:46:02Z</time>
      </trkpt>
      <trkpt lat="43.46244" lon="1.635">
        <ele>169</ele>
        <time>2024-01-20T15:46:03Z</time>
      </trkpt>
      <trkpt lat="43.46243" lon="1.63497">
        <ele>169</ele>
        <time>2024-01-20T15:46:04Z</time>
      </trkpt>
      <trkpt lat="43.46242" lon="1.63492">
        <ele>169</ele>
        <time>2024-01-20T15:46:05Z</time>
      </trkpt>
      <trkpt lat="43.46241" lon="1.6349">
        <ele>169</ele>
        <time>2024-01-20T15:46:06Z</time>
      </trkpt>
      <trkpt lat="43.4624" lon="1.63487">
        <ele>169</ele>
        <time>2024-01-20T15:46:07Z</time>
      </trkpt>
      <trkpt lat="43.46239" lon="1.63484">
        <ele>169</ele>
        <time>2024-01-20T15:46:08Z</time>
      </trkpt>
      <trkpt lat="43.46238" lon="1.6348">
        <ele>169</ele>
        <time>2024-01-20T15:46:09Z</time>
      </trkpt>
      <trkpt lat="43.46237" lon="1.63477">
        <ele>169</ele>
        <time>2024-01-20T15:46:10Z</time>
      </trkpt>
      <trkpt lat="43.46236" lon="1.63473">
        <ele>169</ele>
        <time>2024-01-20T15:46:11Z</time>
      </trkpt>
      <trkpt lat="43.46235" lon="1.63468">
        <ele>169</ele>
        <time>2024-01-20T15:46:12Z</time>
      </trkpt>
      <trkpt lat="43.46235" lon="1.63466">
        <ele>168</ele>
        <time>2024-01-20T15:46:13Z</time>
      </trkpt>
      <trkpt lat="43.46234" lon="1.63463">
        <ele>169</ele>
        <time>2024-01-20T15:46:14Z</time>
      </trkpt>
      <trkpt lat="43.46234" lon="1.6346">
        <ele>169</ele>
        <time>2024-01-20T15:46:15Z</time>
      </trkpt>
      <trkpt lat="43.46233" lon="1.63456">
        <ele>169</ele>
        <time>2024-01-20T15:46:16Z</time>
      </trkpt>
      <trkpt lat="43.46232" lon="1.6345">
        <ele>169</ele>
        <time>2024-01-20T15:46:17Z</time>
      </trkpt>
      <trkpt lat="43.46232" lon="1.63448">
        <ele>169</ele>
        <time>2024-01-20T15:46:18Z</time>
      </trkpt>
      <trkpt lat="43.46231" lon="1.63445">
        <ele>169</ele>
        <time>2024-01-20T15:46:19Z</time>
      </trkpt>
      <trkpt lat="43.4623" lon="1.63439">
        <ele>169</ele>
        <time>2024-01-20T15:46:20Z</time>
      </trkpt>
      <trkpt lat="43.46229" lon="1.63438">
        <ele>169</ele>
        <time>2024-01-20T15:46:21Z</time>
      </trkpt>
      <trkpt lat="43.46228" lon="1.63434">
        <ele>169</ele>
        <time>2024-01-20T15:46:22Z</time>
      </trkpt>
      <trkpt lat="43.46228" lon="1.63431">
        <ele>169</ele>
        <time>2024-01-20T15:46:23Z</time>
      </trkpt>
      <trkpt lat="43.46227" lon="1.63427">
        <ele>169</ele>
        <time>2024-01-20T15:46:24Z</time>
      </trkpt>
      <trkpt lat="43.46226" lon="1.63424">
        <ele>169</ele>
        <time>2024-01-20T15:46:25Z</time>
      </trkpt>
      <trkpt lat="43.46225" lon="1.63421">
        <ele>168</ele>
        <time>2024-01-20T15:46:26Z</time>
      </trkpt>
      <trkpt lat="43.46225" lon="1.63417">
        <ele>168</ele>
        <time>2024-01-20T15:46:27Z</time>
      </trkpt>
      <trkpt lat="43.46224" lon="1.63413">
        <ele>168</ele>
        <time>2024-01-20T15:46:28Z</time>
      </trkpt>
      <trkpt lat="43.46223" lon="1.63408">
        <ele>168</ele>
        <time>2024-01-20T15:46:29Z</time>
      </trkpt>
      <trkpt lat="43.46223" lon="1.63407">
        <ele>168</ele>
        <time>2024-01-20T15:46:30Z</time>
      </trkpt>
      <trkpt lat="43.46222" lon="1.63403">
        <ele>168</ele>
        <time>2024-01-20T15:46:31Z</time>
      </trkpt>
      <trkpt lat="43.46221" lon="1.634">
        <ele>168</ele>
        <time>2024-01-20T15:46:32Z</time>
      </trkpt>
      <trkpt lat="43.4622" lon="1.63397">
        <ele>168</ele>
        <time>2024-01-20T15:46:33Z</time>
      </trkpt>
      <trkpt lat="43.4622" lon="1.63393">
        <ele>168</ele>
        <time>2024-01-20T15:46:34Z</time>
      </trkpt>
      <trkpt lat="43.46219" lon="1.6339">
        <ele>168</ele>
        <time>2024-01-20T15:46:35Z</time>
      </trkpt>
      <trkpt lat="43.46218" lon="1.63384">
        <ele>168</ele>
        <time>2024-01-20T15:46:36Z</time>
      </trkpt>
      <trkpt lat="43.46218" lon="1.63383">
        <ele>168</ele>
        <time>2024-01-20T15:46:37Z</time>
      </trkpt>
      <trkpt lat="43.46217" lon="1.63379">
        <ele>168</ele>
        <time>2024-01-20T15:46:38Z</time>
      </trkpt>
      <trkpt lat="43.46216" lon="1.63374">
        <ele>168</ele>
        <time>2024-01-20T15:46:39Z</time>
      </trkpt>
      <trkpt lat="43.46216" lon="1.63373">
        <ele>168</ele>
        <time>2024-01-20T15:46:40Z</time>
      </trkpt>
      <trkpt lat="43.46214" lon="1.63368">
        <ele>168</ele>
        <time>2024-01-20T15:46:41Z</time>
      </trkpt>
      <trkpt lat="43.46214" lon="1.63366">
        <ele>169</ele>
        <time>2024-01-20T15:46:42Z</time>
      </trkpt>
      <trkpt lat="43.46213" lon="1.63363">
        <ele>169</ele>
        <time>2024-01-20T15:46:43Z</time>
      </trkpt>
      <trkpt lat="43.46212" lon="1.63359">
        <ele>169</ele>
        <time>2024-01-20T15:46:44Z</time>
      </trkpt>
      <trkpt lat="43.46212" lon="1.63356">
        <ele>168</ele>
        <time>2024-01-20T15:46:45Z</time>
      </trkpt>
      <trkpt lat="43.46211" lon="1.63353">
        <ele>168</ele>
        <time>2024-01-20T15:46:46Z</time>
      </trkpt>
      <trkpt lat="43.4621" lon="1.63349">
        <ele>168</ele>
        <time>2024-01-20T15:46:47Z</time>
      </trkpt>
      <trkpt lat="43.46209" lon="1.63346">
        <ele>168</ele>
        <time>2024-01-20T15:46:48Z</time>
      </trkpt>
      <trkpt lat="43.46209" lon="1.63343">
        <ele>168</ele>
        <time>2024-01-20T15:46:49Z</time>
      </trkpt>
      <trkpt lat="43.46208" lon="1.63339">
        <ele>168</ele>
        <time>2024-01-20T15:46:50Z</time>
      </trkpt>
      <trkpt lat="43.46207" lon="1.63336">
        <ele>168</ele>
        <time>2024-01-20T15:46:51Z</time>
      </trkpt>
      <trkpt lat="43.46207" lon="1.63332">
        <ele>168</ele>
        <time>2024-01-20T15:46:52Z</time>
      </trkpt>
      <trkpt lat="43.46206" lon="1.63329">
        <ele>168</ele>
        <time>2024-01-20T15:46:53Z</time>
      </trkpt>
      <trkpt lat="43.46206" lon="1.63325">
        <ele>168</ele>
        <time>2024-01-20T15:46:54Z</time>
      </trkpt>
      <trkpt lat="43.46205" lon="1.6332">
        <ele>168</ele>
        <time>2024-01-20T15:46:55Z</time>
      </trkpt>
      <trkpt lat="43.46205" lon="1.63319">
        <ele>168</ele>
        <time>2024-01-20T15:46:56Z</time>
      </trkpt>
      <trkpt lat="43.46204" lon="1.63315">
        <ele>168</ele>
        <time>2024-01-20T15:46:57Z</time>
      </trkpt>
      <trkpt lat="43.46203" lon="1.6331">
        <ele>168</ele>
        <time>2024-01-20T15:46:58Z</time>
      </trkpt>
      <trkpt lat="43.46203" lon="1.63309">
        <ele>168</ele>
        <time>2024-01-20T15:46:59Z</time>
      </trkpt>
      <trkpt lat="43.46202" lon="1.63305">
        <ele>168</ele>
        <time>2024-01-20T15:47:00Z</time>
      </trkpt>
      <trkpt lat="43.46202" lon="1.63302">
        <ele>168</ele>
        <time>2024-01-20T15:47:01Z</time>
      </trkpt>
      <trkpt lat="43.46201" lon="1.63299">
        <ele>168</ele>
        <time>2024-01-20T15:47:02Z</time>
      </trkpt>
      <trkpt lat="43.46201" lon="1.63295">
        <ele>168</ele>
        <time>2024-01-20T15:47:03Z</time>
      </trkpt>
      <trkpt lat="43.462" lon="1.63292">
        <ele>168</ele>
        <time>2024-01-20T15:47:04Z</time>
      </trkpt>
      <trkpt lat="43.46199" lon="1.63286">
        <ele>168</ele>
        <time>2024-01-20T15:47:05Z</time>
      </trkpt>
      <trkpt lat="43.46199" lon="1.63284">
        <ele>168</ele>
        <time>2024-01-20T15:47:06Z</time>
      </trkpt>
      <trkpt lat="43.46199" lon="1.63281">
        <ele>168</ele>
        <time>2024-01-20T15:47:07Z</time>
      </trkpt>
      <trkpt lat="43.46198" lon="1.63278">
        <ele>168</ele>
        <time>2024-01-20T15:47:08Z</time>
      </trkpt>
      <trkpt lat="43.46198" lon="1.63275">
        <ele>167</ele>
        <time>2024-01-20T15:47:09Z</time>
      </trkpt>
      <trkpt lat="43.46197" lon="1.63271">
        <ele>167</ele>
        <time>2024-01-20T15:47:10Z</time>
      </trkpt>
      <trkpt lat="43.46197" lon="1.63268">
        <ele>167</ele>
        <time>2024-01-20T15:47:11Z</time>
      </trkpt>
      <trkpt lat="43.46196" lon="1.63265">
        <ele>167</ele>
        <time>2024-01-20T15:47:12Z</time>
      </trkpt>
      <trkpt lat="43.46196" lon="1.63261">
        <ele>167</ele>
        <time>2024-01-20T15:47:13Z</time>
      </trkpt>
      <trkpt lat="43.46195" lon="1.63256">
        <ele>167</ele>
        <time>2024-01-20T15:47:14Z</time>
      </trkpt>
      <trkpt lat="43.46195" lon="1.63255">
        <ele>167</ele>
        <time>2024-01-20T15:47:15Z</time>
      </trkpt>
      <trkpt lat="43.46195" lon="1.63251">
        <ele>167</ele>
        <time>2024-01-20T15:47:16Z</time>
      </trkpt>
      <trkpt lat="43.46194" lon="1.63248">
        <ele>167</ele>
        <time>2024-01-20T15:47:17Z</time>
      </trkpt>
      <trkpt lat="43.46194" lon="1.63243">
        <ele>167</ele>
        <time>2024-01-20T15:47:18Z</time>
      </trkpt>
      <trkpt lat="43.46194" lon="1.63241">
        <ele>167</ele>
        <time>2024-01-20T15:47:19Z</time>
      </trkpt>
      <trkpt lat="43.46193" lon="1.63238">
        <ele>167</ele>
        <time>2024-01-20T15:47:20Z</time>
      </trkpt>
      <trkpt lat="43.46193" lon="1.63234">
        <ele>167</ele>
        <time>2024-01-20T15:47:21Z</time>
      </trkpt>
      <trkpt lat="43.46193" lon="1.63231">
        <ele>167</ele>
        <time>2024-01-20T15:47:22Z</time>
      </trkpt>
      <trkpt lat="43.46192" lon="1.63228">
        <ele>167</ele>
        <time>2024-01-20T15:47:23Z</time>
      </trkpt>
      <trkpt lat="43.46192" lon="1.63224">
        <ele>167</ele>
        <time>2024-01-20T15:47:24Z</time>
      </trkpt>
      <trkpt lat="43.46191" lon="1.63221">
        <ele>167</ele>
        <time>2024-01-20T15:47:25Z</time>
      </trkpt>
      <trkpt lat="43.46191" lon="1.63217">
        <ele>167</ele>
        <time>2024-01-20T15:47:26Z</time>
      </trkpt>
      <trkpt lat="43.4619" lon="1.63214">
        <ele>167</ele>
        <time>2024-01-20T15:47:27Z</time>
      </trkpt>
      <trkpt lat="43.46189" lon="1.6321">
        <ele>167</ele>
        <time>2024-01-20T15:47:28Z</time>
      </trkpt>
      <trkpt lat="43.46189" lon="1.63207">
        <ele>168</ele>
        <time>2024-01-20T15:47:29Z</time>
      </trkpt>
      <trkpt lat="43.46189" lon="1.63203">
        <ele>168</ele>
        <time>2024-01-20T15:47:30Z</time>
      </trkpt>
      <trkpt lat="43.46188" lon="1.632">
        <ele>168</ele>
        <time>2024-01-20T15:47:31Z</time>
      </trkpt>
      <trkpt lat="43.46188" lon="1.63196">
        <ele>168</ele>
        <time>2024-01-20T15:47:32Z</time>
      </trkpt>
      <trkpt lat="43.46187" lon="1.63191">
        <ele>168</ele>
        <time>2024-01-20T15:47:33Z</time>
      </trkpt>
      <trkpt lat="43.46187" lon="1.6319">
        <ele>167</ele>
        <time>2024-01-20T15:47:34Z</time>
      </trkpt>
      <trkpt lat="43.46186" lon="1.63184">
        <ele>167</ele>
        <time>2024-01-20T15:47:35Z</time>
      </trkpt>
      <trkpt lat="43.46186" lon="1.63183">
        <ele>168</ele>
        <time>2024-01-20T15:47:36Z</time>
      </trkpt>
      <trkpt lat="43.46186" lon="1.63179">
        <ele>168</ele>
        <time>2024-01-20T15:47:37Z</time>
      </trkpt>
      <trkpt lat="43.46185" lon="1.63174">
        <ele>168</ele>
        <time>2024-01-20T15:47:38Z</time>
      </trkpt>
      <trkpt lat="43.46185" lon="1.63172">
        <ele>168</ele>
        <time>2024-01-20T15:47:39Z</time>
      </trkpt>
      <trkpt lat="43.46185" lon="1.63169">
        <ele>168</ele>
        <time>2024-01-20T15:47:40Z</time>
      </trkpt>
      <trkpt lat="43.46184" lon="1.63165">
        <ele>168</ele>
        <time>2024-01-20T15:47:41Z</time>
      </trkpt>
      <trkpt lat="43.46184" lon="1.63162">
        <ele>168</ele>
        <time>2024-01-20T15:47:42Z</time>
      </trkpt>
      <trkpt lat="43.46183" lon="1.63158">
        <ele>168</ele>
        <time>2024-01-20T15:47:43Z</time>
      </trkpt>
      <trkpt lat="43.46183" lon="1.63155">
        <ele>168</ele>
        <time>2024-01-20T15:47:44Z</time>
      </trkpt>
      <trkpt lat="43.46182" lon="1.63152">
        <ele>168</ele>
        <time>2024-01-20T15:47:45Z</time>
      </trkpt>
      <trkpt lat="43.46182" lon="1.63148">
        <ele>168</ele>
        <time>2024-01-20T15:47:46Z</time>
      </trkpt>
      <trkpt lat="43.46182" lon="1.63145">
        <ele>168</ele>
        <time>2024-01-20T15:47:47Z</time>
      </trkpt>
      <trkpt lat="43.46181" lon="1.63142">
        <ele>168</ele>
        <time>2024-01-20T15:47:48Z</time>
      </trkpt>
      <trkpt lat="43.46181" lon="1.63138">
        <ele>168</ele>
        <time>2024-01-20T15:47:49Z</time>
      </trkpt>
      <trkpt lat="43.46181" lon="1.63135">
        <ele>168</ele>
        <time>2024-01-20T15:47:50Z</time>
      </trkpt>
      <trkpt lat="43.4618" lon="1.63131">
        <ele>168</ele>
        <time>2024-01-20T15:47:51Z</time>
      </trkpt>
      <trkpt lat="43.46179" lon="1.63127">
        <ele>168</ele>
        <time>2024-01-20T15:47:52Z</time>
      </trkpt>
      <trkpt lat="43.46179" lon="1.63125">
        <ele>168</ele>
        <time>2024-01-20T15:47:53Z</time>
      </trkpt>
      <trkpt lat="43.46178" lon="1.63121">
        <ele>168</ele>
        <time>2024-01-20T15:47:54Z</time>
      </trkpt>
      <trkpt lat="43.46178" lon="1.63118">
        <ele>168</ele>
        <time>2024-01-20T15:47:55Z</time>
      </trkpt>
      <trkpt lat="43.46178" lon="1.63114">
        <ele>168</ele>
        <time>2024-01-20T15:47:56Z</time>
      </trkpt>
      <trkpt lat="43.46177" lon="1.63111">
        <ele>168</ele>
        <time>2024-01-20T15:47:57Z</time>
      </trkpt>
      <trkpt lat="43.46177" lon="1.63106">
        <ele>168</ele>
        <time>2024-01-20T15:47:58Z</time>
      </trkpt>
      <trkpt lat="43.46177" lon="1.63104">
        <ele>168</ele>
        <time>2024-01-20T15:47:59Z</time>
      </trkpt>
      <trkpt lat="43.46176" lon="1.631">
        <ele>168</ele>
        <time>2024-01-20T15:48:00Z</time>
      </trkpt>
      <trkpt lat="43.46176" lon="1.63097">
        <ele>168</ele>
        <time>2024-01-20T15:48:01Z</time>
      </trkpt>
      <trkpt lat="43.46176" lon="1.63093">
        <ele>168</ele>
        <time>2024-01-20T15:48:02Z</time>
      </trkpt>
      <trkpt lat="43.46175" lon="1.6309">
        <ele>168</ele>
        <time>2024-01-20T15:48:03Z</time>
      </trkpt>
      <trkpt lat="43.46175" lon="1.63086">
        <ele>168</ele>
        <time>2024-01-20T15:48:04Z</time>
      </trkpt>
      <trkpt lat="43.46174" lon="1.63083">
        <ele>167</ele>
        <time>2024-01-20T15:48:05Z</time>
      </trkpt>
      <trkpt lat="43.46174" lon="1.6308">
        <ele>167</ele>
        <time>2024-01-20T15:48:06Z</time>
      </trkpt>
      <trkpt lat="43.46173" lon="1.63075">
        <ele>167</ele>
        <time>2024-01-20T15:48:07Z</time>
      </trkpt>
      <trkpt lat="43.46173" lon="1.63073">
        <ele>167</ele>
        <time>2024-01-20T15:48:08Z</time>
      </trkpt>
      <trkpt lat="43.46173" lon="1.63069">
        <ele>168</ele>
        <time>2024-01-20T15:48:09Z</time>
      </trkpt>
      <trkpt lat="43.46173" lon="1.63066">
        <ele>168</ele>
        <time>2024-01-20T15:48:10Z</time>
      </trkpt>
      <trkpt lat="43.46172" lon="1.6306">
        <ele>168</ele>
        <time>2024-01-20T15:48:11Z</time>
      </trkpt>
      <trkpt lat="43.46172" lon="1.63059">
        <ele>168</ele>
        <time>2024-01-20T15:48:12Z</time>
      </trkpt>
      <trkpt lat="43.46172" lon="1.63055">
        <ele>168</ele>
        <time>2024-01-20T15:48:13Z</time>
      </trkpt>
      <trkpt lat="43.46172" lon="1.63052">
        <ele>168</ele>
        <time>2024-01-20T15:48:14Z</time>
      </trkpt>
      <trkpt lat="43.46171" lon="1.63049">
        <ele>168</ele>
        <time>2024-01-20T15:48:15Z</time>
      </trkpt>
      <trkpt lat="43.46171" lon="1.63045">
        <ele>168</ele>
        <time>2024-01-20T15:48:16Z</time>
      </trkpt>
      <trkpt lat="43.46171" lon="1.63042">
        <ele>168</ele>
        <time>2024-01-20T15:48:17Z</time>
      </trkpt>
      <trkpt lat="43.46171" lon="1.63037">
        <ele>168</ele>
        <time>2024-01-20T15:48:18Z</time>
      </trkpt>
      <trkpt lat="43.46171" lon="1.63035">
        <ele>168</ele>
        <time>2024-01-20T15:48:19Z</time>
      </trkpt>
      <trkpt lat="43.4617" lon="1.63031">
        <ele>168</ele>
        <time>2024-01-20T15:48:20Z</time>
      </trkpt>
      <trkpt lat="43.4617" lon="1.63028">
        <ele>168</ele>
        <time>2024-01-20T15:48:21Z</time>
      </trkpt>
      <trkpt lat="43.4617" lon="1.63025">
        <ele>168</ele>
        <time>2024-01-20T15:48:22Z</time>
      </trkpt>
      <trkpt lat="43.4617" lon="1.63021">
        <ele>168</ele>
        <time>2024-01-20T15:48:23Z</time>
      </trkpt>
      <trkpt lat="43.46169" lon="1.63018">
        <ele>168</ele>
        <time>2024-01-20T15:48:24Z</time>
      </trkpt>
      <trkpt lat="43.46169" lon="1.63015">
        <ele>168</ele>
        <time>2024-01-20T15:48:25Z</time>
      </trkpt>
      <trkpt lat="43.46169" lon="1.63012">
        <ele>168</ele>
        <time>2024-01-20T15:48:26Z</time>
      </trkpt>
      <trkpt lat="43.46168" lon="1.63008">
        <ele>168</ele>
        <time>2024-01-20T15:48:27Z</time>
      </trkpt>
      <trkpt lat="43.46168" lon="1.63005">
        <ele>168</ele>
        <time>2024-01-20T15:48:28Z</time>
      </trkpt>
      <trkpt lat="43.46168" lon="1.63001">
        <ele>168</ele>
        <time>2024-01-20T15:48:29Z</time>
      </trkpt>
      <trkpt lat="43.46168" lon="1.62997">
        <ele>168</ele>
        <time>2024-01-20T15:48:30Z</time>
      </trkpt>
      <trkpt lat="43.46168" lon="1.62995">
        <ele>168</ele>
        <time>2024-01-20T15:48:31Z</time>
      </trkpt>
      <trkpt lat="43.46167" lon="1.62991">
        <ele>168</ele>
        <time>2024-01-20T15:48:32Z</time>
      </trkpt>
      <trkpt lat="43.46167" lon="1.62988">
        <ele>168</ele>
        <time>2024-01-20T15:48:33Z</time>
      </trkpt>
      <trkpt lat="43.46167" lon="1.62984">
        <ele>169</ele>
        <time>2024-01-20T15:48:34Z</time>
      </trkpt>
      <trkpt lat="43.46166" lon="1.62981">
        <ele>169</ele>
        <time>2024-01-20T15:48:35Z</time>
      </trkpt>
      <trkpt lat="43.46166" lon="1.62978">
        <ele>168</ele>
        <time>2024-01-20T15:48:36Z</time>
      </trkpt>
      <trkpt lat="43.46166" lon="1.62975">
        <ele>168</ele>
        <time>2024-01-20T15:48:37Z</time>
      </trkpt>
      <trkpt lat="43.46166" lon="1.62969">
        <ele>168</ele>
        <time>2024-01-20T15:48:38Z</time>
      </trkpt>
      <trkpt lat="43.46166" lon="1.62968">
        <ele>169</ele>
        <time>2024-01-20T15:48:39Z</time>
      </trkpt>
      <trkpt lat="43.46166" lon="1.62963">
        <ele>169</ele>
        <time>2024-01-20T15:48:40Z</time>
      </trkpt>
      <trkpt lat="43.46166" lon="1.62961">
        <ele>169</ele>
        <time>2024-01-20T15:48:41Z</time>
      </trkpt>
      <trkpt lat="43.46165" lon="1.62957">
        <ele>169</ele>
        <time>2024-01-20T15:48:42Z</time>
      </trkpt>
      <trkpt lat="43.46165" lon="1.62954">
        <ele>169</ele>
        <time>2024-01-20T15:48:43Z</time>
      </trkpt>
      <trkpt lat="43.46165" lon="1.62951">
        <ele>169</ele>
        <time>2024-01-20T15:48:44Z</time>
      </trkpt>
      <trkpt lat="43.46164" lon="1.62947">
        <ele>169</ele>
        <time>2024-01-20T15:48:45Z</time>
      </trkpt>
      <trkpt lat="43.46164" lon="1.62944">
        <ele>169</ele>
        <time>2024-01-20T15:48:46Z</time>
      </trkpt>
      <trkpt lat="43.46164" lon="1.62939">
        <ele>169</ele>
        <time>2024-01-20T15:48:47Z</time>
      </trkpt>
      <trkpt lat="43.46164" lon="1.62937">
        <ele>169</ele>
        <time>2024-01-20T15:48:48Z</time>
      </trkpt>
      <trkpt lat="43.46164" lon="1.62932">
        <ele>169</ele>
        <time>2024-01-20T15:48:49Z</time>
      </trkpt>
      <trkpt lat="43.46163" lon="1.62931">
        <ele>169</ele>
        <time>2024-01-20T15:48:50Z</time>
      </trkpt>
      <trkpt lat="43.46163" lon="1.62928">
        <ele>169</ele>
        <time>2024-01-20T15:48:51Z</time>
      </trkpt>
      <trkpt lat="43.46163" lon="1.62924">
        <ele>169</ele>
        <time>2024-01-20T15:48:52Z</time>
      </trkpt>
      <trkpt lat="43.46162" lon="1.62921">
        <ele>169</ele>
        <time>2024-01-20T15:48:53Z</time>
      </trkpt>
      <trkpt lat="43.46162" lon="1.62918">
        <ele>169</ele>
        <time>2024-01-20T15:48:54Z</time>
      </trkpt>
      <trkpt lat="43.46162" lon="1.62914">
        <ele>169</ele>
        <time>2024-01-20T15:48:55Z</time>
      </trkpt>
      <trkpt lat="43.46162" lon="1.62911">
        <ele>169</ele>
        <time>2024-01-20T15:48:56Z</time>
      </trkpt>
      <trkpt lat="43.46161" lon="1.62907">
        <ele>169</ele>
        <time>2024-01-20T15:48:57Z</time>
      </trkpt>
      <trkpt lat="43.46161" lon="1.62902">
        <ele>169</ele>
        <time>2024-01-20T15:48:58Z</time>
      </trkpt>
      <trkpt lat="43.46161" lon="1.629">
        <ele>169</ele>
        <time>2024-01-20T15:48:59Z</time>
      </trkpt>
      <trkpt lat="43.4616" lon="1.62897">
        <ele>169</ele>
        <time>2024-01-20T15:49:00Z</time>
      </trkpt>
      <trkpt lat="43.4616" lon="1.62893">
        <ele>169</ele>
        <time>2024-01-20T15:49:01Z</time>
      </trkpt>
      <trkpt lat="43.4616" lon="1.6289">
        <ele>169</ele>
        <time>2024-01-20T15:49:02Z</time>
      </trkpt>
      <trkpt lat="43.4616" lon="1.62886">
        <ele>169</ele>
        <time>2024-01-20T15:49:03Z</time>
      </trkpt>
      <trkpt lat="43.4616" lon="1.62883">
        <ele>169</ele>
        <time>2024-01-20T15:49:04Z</time>
      </trkpt>
      <trkpt lat="43.4616" lon="1.6288">
        <ele>169</ele>
        <time>2024-01-20T15:49:05Z</time>
      </trkpt>
      <trkpt lat="43.4616" lon="1.62876">
        <ele>169</ele>
        <time>2024-01-20T15:49:06Z</time>
      </trkpt>
      <trkpt lat="43.46159" lon="1.62873">
        <ele>169</ele>
        <time>2024-01-20T15:49:07Z</time>
      </trkpt>
      <trkpt lat="43.46159" lon="1.62868">
        <ele>169</ele>
        <time>2024-01-20T15:49:08Z</time>
      </trkpt>
      <trkpt lat="43.46159" lon="1.62866">
        <ele>169</ele>
        <time>2024-01-20T15:49:09Z</time>
      </trkpt>
      <trkpt lat="43.46159" lon="1.62863">
        <ele>169</ele>
        <time>2024-01-20T15:49:10Z</time>
      </trkpt>
      <trkpt lat="43.46159" lon="1.62859">
        <ele>169</ele>
        <time>2024-01-20T15:49:11Z</time>
      </trkpt>
      <trkpt lat="43.46159" lon="1.62856">
        <ele>169</ele>
        <time>2024-01-20T15:49:12Z</time>
      </trkpt>
      <trkpt lat="43.46159" lon="1.62853">
        <ele>169</ele>
        <time>2024-01-20T15:49:13Z</time>
      </trkpt>
      <trkpt lat="43.46158" lon="1.62849">
        <ele>169</ele>
        <time>2024-01-20T15:49:14Z</time>
      </trkpt>
      <trkpt lat="43.46158" lon="1.62846">
        <ele>169</ele>
        <time>2024-01-20T15:49:15Z</time>
      </trkpt>
      <trkpt lat="43.46158" lon="1.62842">
        <ele>169</ele>
        <time>2024-01-20T15:49:16Z</time>
      </trkpt>
      <trkpt lat="43.46158" lon="1.62839">
        <ele>169</ele>
        <time>2024-01-20T15:49:17Z</time>
      </trkpt>
      <trkpt lat="43.46157" lon="1.62836">
        <ele>169</ele>
        <time>2024-01-20T15:49:18Z</time>
      </trkpt>
      <trkpt lat="43.46157" lon="1.62831">
        <ele>169</ele>
        <time>2024-01-20T15:49:19Z</time>
      </trkpt>
      <trkpt lat="43.46157" lon="1.62829">
        <ele>169</ele>
        <time>2024-01-20T15:49:20Z</time>
      </trkpt>
      <trkpt lat="43.46156" lon="1.62826">
        <ele>169</ele>
        <time>2024-01-20T15:49:21Z</time>
      </trkpt>
      <trkpt lat="43.46156" lon="1.62822">
        <ele>169</ele>
        <time>2024-01-20T15:49:22Z</time>
      </trkpt>
      <trkpt lat="43.46155" lon="1.62819">
        <ele>169</ele>
        <time>2024-01-20T15:49:23Z</time>
      </trkpt>
      <trkpt lat="43.46155" lon="1.62816">
        <ele>169</ele>
        <time>2024-01-20T15:49:24Z</time>
      </trkpt>
      <trkpt lat="43.46154" lon="1.62813">
        <ele>169</ele>
        <time>2024-01-20T15:49:25Z</time>
      </trkpt>
      <trkpt lat="43.46154" lon="1.6281">
        <ele>169</ele>
        <time>2024-01-20T15:49:26Z</time>
      </trkpt>
      <trkpt lat="43.46153" lon="1.62807">
        <ele>169</ele>
        <time>2024-01-20T15:49:28Z</time>
      </trkpt>
      <trkpt lat="43.46153" lon="1.62807">
        <ele>169</ele>
        <time>2024-01-20T15:49:29Z</time>
      </trkpt>
      <trkpt lat="43.46152" lon="1.62803">
        <ele>169</ele>
        <time>2024-01-20T15:49:30Z</time>
      </trkpt>
      <trkpt lat="43.46152" lon="1.62803">
        <ele>169</ele>
        <time>2024-01-20T15:49:31Z</time>
      </trkpt>
      <trkpt lat="43.46151" lon="1.62799">
        <ele>169</ele>
        <time>2024-01-20T15:49:32Z</time>
      </trkpt>
      <trkpt lat="43.46151" lon="1.62799">
        <ele>169</ele>
        <time>2024-01-20T15:49:33Z</time>
      </trkpt>
      <trkpt lat="43.4615" lon="1.62796">
        <ele>170</ele>
        <time>2024-01-20T15:49:34Z</time>
      </trkpt>
      <trkpt lat="43.46149" lon="1.62792">
        <ele>171</ele>
        <time>2024-01-20T15:49:36Z</time>
      </trkpt>
      <trkpt lat="43.46149" lon="1.62792">
        <ele>171</ele>
        <time>2024-01-20T15:49:37Z</time>
      </trkpt>
      <trkpt lat="43.46148" lon="1.62789">
        <ele>171</ele>
        <time>2024-01-20T15:49:38Z</time>
      </trkpt>
      <trkpt lat="43.46148" lon="1.62789">
        <ele>170</ele>
        <time>2024-01-20T15:49:39Z</time>
      </trkpt>
      <trkpt lat="43.46147" lon="1.62785">
        <ele>170</ele>
        <time>2024-01-20T15:49:40Z</time>
      </trkpt>
      <trkpt lat="43.46147" lon="1.62785">
        <ele>170</ele>
        <time>2024-01-20T15:49:41Z</time>
      </trkpt>
      <trkpt lat="43.46146" lon="1.62782">
        <ele>170</ele>
        <time>2024-01-20T15:49:42Z</time>
      </trkpt>
      <trkpt lat="43.46146" lon="1.62782">
        <ele>170</ele>
        <time>2024-01-20T15:49:43Z</time>
      </trkpt>
      <trkpt lat="43.46145" lon="1.62778">
        <ele>170</ele>
        <time>2024-01-20T15:49:44Z</time>
      </trkpt>
      <trkpt lat="43.46145" lon="1.62778">
        <ele>170</ele>
        <time>2024-01-20T15:49:45Z</time>
      </trkpt>
      <trkpt lat="43.46144" lon="1.62775">
        <ele>170</ele>
        <time>2024-01-20T15:49:46Z</time>
      </trkpt>
      <trkpt lat="43.46144" lon="1.62775">
        <ele>170</ele>
        <time>2024-01-20T15:49:47Z</time>
      </trkpt>
      <trkpt lat="43.46143" lon="1.62772">
        <ele>170</ele>
        <time>2024-01-20T15:49:48Z</time>
      </trkpt>
      <trkpt lat="43.46143" lon="1.62772">
        <ele>170</ele>
        <time>2024-01-20T15:49:49Z</time>
      </trkpt>
      <trkpt lat="43.46142" lon="1.62768">
        <ele>170</ele>
        <time>2024-01-20T15:49:50Z</time>
      </trkpt>
      <trkpt lat="43.46142" lon="1.62768">
        <ele>171</ele>
        <time>2024-01-20T15:49:51Z</time>
      </trkpt>
      <trkpt lat="43.46141" lon="1.62764">
        <ele>171</ele>
        <time>2024-01-20T15:49:52Z</time>
      </trkpt>
      <trkpt lat="43.46141" lon="1.62764">
        <ele>170</ele>
        <time>2024-01-20T15:49:53Z</time>
      </trkpt>
      <trkpt lat="43.4614" lon="1.62761">
        <ele>170</ele>
        <time>2024-01-20T15:49:54Z</time>
      </trkpt>
      <trkpt lat="43.46139" lon="1.62759">
        <ele>170</ele>
        <time>2024-01-20T15:49:55Z</time>
      </trkpt>
      <trkpt lat="43.46139" lon="1.62759">
        <ele>171</ele>
        <time>2024-01-20T15:49:56Z</time>
      </trkpt>
      <trkpt lat="43.46138" lon="1.62755">
        <ele>171</ele>
        <time>2024-01-20T15:49:57Z</time>
      </trkpt>
      <trkpt lat="43.46138" lon="1.62755">
        <ele>171</ele>
        <time>2024-01-20T15:49:58Z</time>
      </trkpt>
      <trkpt lat="43.46136" lon="1.6275">
        <ele>171</ele>
        <time>2024-01-20T15:49:59Z</time>
      </trkpt>
      <trkpt lat="43.46135" lon="1.62748">
        <ele>171</ele>
        <time>2024-01-20T15:50:00Z</time>
      </trkpt>
      <trkpt lat="43.46133" lon="1.62745">
        <ele>171</ele>
        <time>2024-01-20T15:50:01Z</time>
      </trkpt>
      <trkpt lat="43.46132" lon="1.62742">
        <ele>171</ele>
        <time>2024-01-20T15:50:02Z</time>
      </trkpt>
      <trkpt lat="43.46131" lon="1.62739">
        <ele>171</ele>
        <time>2024-01-20T15:50:03Z</time>
      </trkpt>
      <trkpt lat="43.4613" lon="1.62736">
        <ele>171</ele>
        <time>2024-01-20T15:50:04Z</time>
      </trkpt>
      <trkpt lat="43.46128" lon="1.62733">
        <ele>171</ele>
        <time>2024-01-20T15:50:05Z</time>
      </trkpt>
      <trkpt lat="43.46128" lon="1.62733">
        <ele>171</ele>
        <time>2024-01-20T15:50:06Z</time>
      </trkpt>
      <trkpt lat="43.46126" lon="1.62729">
        <ele>171</ele>
        <time>2024-01-20T15:50:07Z</time>
      </trkpt>
      <trkpt lat="43.46126" lon="1.62729">
        <ele>171</ele>
        <time>2024-01-20T15:50:08Z</time>
      </trkpt>
      <trkpt lat="43.46124" lon="1.62726">
        <ele>171</ele>
        <time>2024-01-20T15:50:09Z</time>
      </trkpt>
      <trkpt lat="43.46124" lon="1.62726">
        <ele>171</ele>
        <time>2024-01-20T15:50:10Z</time>
      </trkpt>
      <trkpt lat="43.46121" lon="1.62723">
        <ele>171</ele>
        <time>2024-01-20T15:50:11Z</time>
      </trkpt>
      <trkpt lat="43.46121" lon="1.62723">
        <ele>171</ele>
        <time>2024-01-20T15:50:12Z</time>
      </trkpt>
      <trkpt lat="43.46119" lon="1.6272">
        <ele>171</ele>
        <time>2024-01-20T15:50:13Z</time>
      </trkpt>
      <trkpt lat="43.46119" lon="1.6272">
        <ele>171</ele>
        <time>2024-01-20T15:50:14Z</time>
      </trkpt>
      <trkpt lat="43.46117" lon="1.62718">
        <ele>171</ele>
        <time>2024-01-20T15:50:15Z</time>
      </trkpt>
      <trkpt lat="43.46117" lon="1.62718">
        <ele>171</ele>
        <time>2024-01-20T15:50:16Z</time>
      </trkpt>
      <trkpt lat="43.46114" lon="1.62715">
        <ele>171</ele>
        <time>2024-01-20T15:50:17Z</time>
      </trkpt>
      <trkpt lat="43.46114" lon="1.62715">
        <ele>171</ele>
        <time>2024-01-20T15:50:18Z</time>
      </trkpt>
      <trkpt lat="43.46112" lon="1.62713">
        <ele>171</ele>
        <time>2024-01-20T15:50:19Z</time>
      </trkpt>
      <trkpt lat="43.46112" lon="1.62713">
        <ele>171</ele>
        <time>2024-01-20T15:50:20Z</time>
      </trkpt>
      <trkpt lat="43.46109" lon="1.6271">
        <ele>171</ele>
        <time>2024-01-20T15:50:21Z</time>
      </trkpt>
      <trkpt lat="43.46109" lon="1.6271">
        <ele>171</ele>
        <time>2024-01-20T15:50:22Z</time>
      </trkpt>
      <trkpt lat="43.46107" lon="1.62708">
        <ele>171</ele>
        <time>2024-01-20T15:50:23Z</time>
      </trkpt>
      <trkpt lat="43.46106" lon="1.62707">
        <ele>171</ele>
        <time>2024-01-20T15:50:24Z</time>
      </trkpt>
      <trkpt lat="43.46106" lon="1.62707">
        <ele>171</ele>
        <time>2024-01-20T15:50:25Z</time>
      </trkpt>
      <trkpt lat="43.46103" lon="1.62704">
        <ele>171</ele>
        <time>2024-01-20T15:50:26Z</time>
      </trkpt>
      <trkpt lat="43.46103" lon="1.62704">
        <ele>171</ele>
        <time>2024-01-20T15:50:27Z</time>
      </trkpt>
      <trkpt lat="43.461" lon="1.62702">
        <ele>172</ele>
        <time>2024-01-20T15:50:28Z</time>
      </trkpt>
      <trkpt lat="43.461" lon="1.62702">
        <ele>172</ele>
        <time>2024-01-20T15:50:29Z</time>
      </trkpt>
      <trkpt lat="43.46098" lon="1.627">
        <ele>172</ele>
        <time>2024-01-20T15:50:30Z</time>
      </trkpt>
      <trkpt lat="43.46098" lon="1.627">
        <ele>172</ele>
        <time>2024-01-20T15:50:31Z</time>
      </trkpt>
      <trkpt lat="43.46095" lon="1.62697">
        <ele>172</ele>
        <time>2024-01-20T15:50:32Z</time>
      </trkpt>
      <trkpt lat="43.46095" lon="1.62697">
        <ele>172</ele>
        <time>2024-01-20T15:50:33Z</time>
      </trkpt>
      <trkpt lat="43.46094" lon="1.62695">
        <ele>173</ele>
        <time>2024-01-20T15:50:34Z</time>
      </trkpt>
      <trkpt lat="43.46094" lon="1.62695">
        <ele>173</ele>
        <time>2024-01-20T15:50:35Z</time>
      </trkpt>
      <trkpt lat="43.46092" lon="1.62692">
        <ele>173</ele>
        <time>2024-01-20T15:50:36Z</time>
      </trkpt>
      <trkpt lat="43.46092" lon="1.62692">
        <ele>173</ele>
        <time>2024-01-20T15:50:37Z</time>
      </trkpt>
      <trkpt lat="43.46091" lon="1.62689">
        <ele>173</ele>
        <time>2024-01-20T15:50:38Z</time>
      </trkpt>
      <trkpt lat="43.46091" lon="1.62689">
        <ele>174</ele>
        <time>2024-01-20T15:50:39Z</time>
      </trkpt>
      <trkpt lat="43.46089" lon="1.62686">
        <ele>174</ele>
        <time>2024-01-20T15:50:40Z</time>
      </trkpt>
      <trkpt lat="43.46089" lon="1.62686">
        <ele>174</ele>
        <time>2024-01-20T15:50:41Z</time>
      </trkpt>
      <trkpt lat="43.46088" lon="1.62682">
        <ele>174</ele>
        <time>2024-01-20T15:50:42Z</time>
      </trkpt>
      <trkpt lat="43.46087" lon="1.62679">
        <ele>175</ele>
        <time>2024-01-20T15:50:44Z</time>
      </trkpt>
      <trkpt lat="43.46087" lon="1.62679">
        <ele>175</ele>
        <time>2024-01-20T15:50:45Z</time>
      </trkpt>
      <trkpt lat="43.46086" lon="1.62675">
        <ele>175</ele>
        <time>2024-01-20T15:50:46Z</time>
      </trkpt>
      <trkpt lat="43.46086" lon="1.62675">
        <ele>176</ele>
        <time>2024-01-20T15:50:47Z</time>
      </trkpt>
      <trkpt lat="43.46085" lon="1.62671">
        <ele>176</ele>
        <time>2024-01-20T15:50:48Z</time>
      </trkpt>
      <trkpt lat="43.46085" lon="1.62671">
        <ele>177</ele>
        <time>2024-01-20T15:50:49Z</time>
      </trkpt>
      <trkpt lat="43.46085" lon="1.62668">
        <ele>177</ele>
        <time>2024-01-20T15:50:50Z</time>
      </trkpt>
      <trkpt lat="43.46085" lon="1.62668">
        <ele>177</ele>
        <time>2024-01-20T15:50:51Z</time>
      </trkpt>
      <trkpt lat="43.46084" lon="1.62664">
        <ele>177</ele>
        <time>2024-01-20T15:50:52Z</time>
      </trkpt>
      <trkpt lat="43.46084" lon="1.62664">
        <ele>177</ele>
        <time>2024-01-20T15:50:53Z</time>
      </trkpt>
      <trkpt lat="43.46084" lon="1.62661">
        <ele>177</ele>
        <time>2024-01-20T15:50:54Z</time>
      </trkpt>
      <trkpt lat="43.46084" lon="1.62661">
        <ele>177</ele>
        <time>2024-01-20T15:50:55Z</time>
      </trkpt>
      <trkpt lat="43.46084" lon="1.62657">
        <ele>177</ele>
        <time>2024-01-20T15:50:56Z</time>
      </trkpt>
      <trkpt lat="43.46084" lon="1.62657">
        <ele>177</ele>
        <time>2024-01-20T15:50:57Z</time>
      </trkpt>
      <trkpt lat="43.46084" lon="1.62654">
        <ele>177</ele>
        <time>2024-01-20T15:50:58Z</time>
      </trkpt>
      <trkpt lat="43.46084" lon="1.62654">
        <ele>177</ele>
        <time>2024-01-20T15:50:59Z</time>
      </trkpt>
      <trkpt lat="43.46084" lon="1.6265">
        <ele>177</ele>
        <time>2024-01-20T15:51:00Z</time>
      </trkpt>
      <trkpt lat="43.46084" lon="1.6265">
        <ele>177</ele>
        <time>2024-01-20T15:51:01Z</time>
      </trkpt>
      <trkpt lat="43.46084" lon="1.62646">
        <ele>177</ele>
        <time>2024-01-20T15:51:02Z</time>
      </trkpt>
      <trkpt lat="43.46084" lon="1.62646">
        <ele>177</ele>
        <time>2024-01-20T15:51:03Z</time>
      </trkpt>
      <trkpt lat="43.46084" lon="1.62642">
        <ele>177</ele>
        <time>2024-01-20T15:51:04Z</time>
      </trkpt>
      <trkpt lat="43.46084" lon="1.62642">
        <ele>177</ele>
        <time>2024-01-20T15:51:05Z</time>
      </trkpt>
      <trkpt lat="43.46084" lon="1.62639">
        <ele>178</ele>
        <time>2024-01-20T15:51:06Z</time>
      </trkpt>
      <trkpt lat="43.46084" lon="1.62639">
        <ele>178</ele>
        <time>2024-01-20T15:51:07Z</time>
      </trkpt>
      <trkpt lat="43.46084" lon="1.62635">
        <ele>178</ele>
        <time>2024-01-20T15:51:08Z</time>
      </trkpt>
      <trkpt lat="43.46084" lon="1.62635">
        <ele>178</ele>
        <time>2024-01-20T15:51:09Z</time>
      </trkpt>
      <trkpt lat="43.46083" lon="1.62632">
        <ele>178</ele>
        <time>2024-01-20T15:51:10Z</time>
      </trkpt>
      <trkpt lat="43.46083" lon="1.62632">
        <ele>178</ele>
        <time>2024-01-20T15:51:11Z</time>
      </trkpt>
      <trkpt lat="43.46083" lon="1.62628">
        <ele>178</ele>
        <time>2024-01-20T15:51:12Z</time>
      </trkpt>
      <trkpt lat="43.46083" lon="1.62628">
        <ele>179</ele>
        <time>2024-01-20T15:51:13Z</time>
      </trkpt>
      <trkpt lat="43.46083" lon="1.62625">
        <ele>179</ele>
        <time>2024-01-20T15:51:14Z</time>
      </trkpt>
      <trkpt lat="43.46083" lon="1.62625">
        <ele>179</ele>
        <time>2024-01-20T15:51:15Z</time>
      </trkpt>
      <trkpt lat="43.46084" lon="1.62621">
        <ele>179</ele>
        <time>2024-01-20T15:51:16Z</time>
      </trkpt>
      <trkpt lat="43.46084" lon="1.62621">
        <ele>179</ele>
        <time>2024-01-20T15:51:17Z</time>
      </trkpt>
      <trkpt lat="43.46084" lon="1.62617">
        <ele>179</ele>
        <time>2024-01-20T15:51:18Z</time>
      </trkpt>
      <trkpt lat="43.46084" lon="1.62617">
        <ele>180</ele>
        <time>2024-01-20T15:51:19Z</time>
      </trkpt>
      <trkpt lat="43.46084" lon="1.62613">
        <ele>180</ele>
        <time>2024-01-20T15:51:20Z</time>
      </trkpt>
      <trkpt lat="43.46084" lon="1.6261">
        <ele>180</ele>
        <time>2024-01-20T15:51:22Z</time>
      </trkpt>
      <trkpt lat="43.46084" lon="1.6261">
        <ele>180</ele>
        <time>2024-01-20T15:51:23Z</time>
      </trkpt>
      <trkpt lat="43.46083" lon="1.62607">
        <ele>180</ele>
        <time>2024-01-20T15:51:24Z</time>
      </trkpt>
      <trkpt lat="43.46083" lon="1.62607">
        <ele>181</ele>
        <time>2024-01-20T15:51:25Z</time>
      </trkpt>
      <trkpt lat="43.46083" lon="1.62604">
        <ele>181</ele>
        <time>2024-01-20T15:51:26Z</time>
      </trkpt>
      <trkpt lat="43.46083" lon="1.62604">
        <ele>181</ele>
        <time>2024-01-20T15:51:27Z</time>
      </trkpt>
      <trkpt lat="43.46082" lon="1.626">
        <ele>181</ele>
        <time>2024-01-20T15:51:28Z</time>
      </trkpt>
      <trkpt lat="43.46081" lon="1.62597">
        <ele>182</ele>
        <time>2024-01-20T15:51:30Z</time>
      </trkpt>
      <trkpt lat="43.46081" lon="1.62597">
        <ele>182</ele>
        <time>2024-01-20T15:51:31Z</time>
      </trkpt>
      <trkpt lat="43.46081" lon="1.62594">
        <ele>182</ele>
        <time>2024-01-20T15:51:32Z</time>
      </trkpt>
      <trkpt lat="43.46081" lon="1.62594">
        <ele>182</ele>
        <time>2024-01-20T15:51:33Z</time>
      </trkpt>
      <trkpt lat="43.46081" lon="1.62591">
        <ele>182</ele>
        <time>2024-01-20T15:51:34Z</time>
      </trkpt>
      <trkpt lat="43.46081" lon="1.62591">
        <ele>182</ele>
        <time>2024-01-20T15:51:35Z</time>
      </trkpt>
      <trkpt lat="43.4608" lon="1.62587">
        <ele>182</ele>
        <time>2024-01-20T15:51:36Z</time>
      </trkpt>
      <trkpt lat="43.4608" lon="1.62587">
        <ele>182</ele>
        <time>2024-01-20T15:51:37Z</time>
      </trkpt>
      <trkpt lat="43.46079" lon="1.62584">
        <ele>182</ele>
        <time>2024-01-20T15:51:38Z</time>
      </trkpt>
      <trkpt lat="43.46079" lon="1.62584">
        <ele>182</ele>
        <time>2024-01-20T15:51:39Z</time>
      </trkpt>
      <trkpt lat="43.46078" lon="1.62581">
        <ele>182</ele>
        <time>2024-01-20T15:51:40Z</time>
      </trkpt>
      <trkpt lat="43.46078" lon="1.62581">
        <ele>182</ele>
        <time>2024-01-20T15:51:41Z</time>
      </trkpt>
      <trkpt lat="43.46077" lon="1.62577">
        <ele>182</ele>
        <time>2024-01-20T15:51:42Z</time>
      </trkpt>
      <trkpt lat="43.46077" lon="1.62577">
        <ele>182</ele>
        <time>2024-01-20T15:51:43Z</time>
      </trkpt>
      <trkpt lat="43.46077" lon="1.62572">
        <ele>183</ele>
        <time>2024-01-20T15:51:44Z</time>
      </trkpt>
      <trkpt lat="43.46077" lon="1.62572">
        <ele>183</ele>
        <time>2024-01-20T15:51:45Z</time>
      </trkpt>
      <trkpt lat="43.46076" lon="1.62568">
        <ele>183</ele>
        <time>2024-01-20T15:51:46Z</time>
      </trkpt>
      <trkpt lat="43.46076" lon="1.62568">
        <ele>183</ele>
        <time>2024-01-20T15:51:47Z</time>
      </trkpt>
      <trkpt lat="43.46075" lon="1.62564">
        <ele>183</ele>
        <time>2024-01-20T15:51:48Z</time>
      </trkpt>
      <trkpt lat="43.46075" lon="1.62564">
        <ele>183</ele>
        <time>2024-01-20T15:51:49Z</time>
      </trkpt>
      <trkpt lat="43.46074" lon="1.6256">
        <ele>183</ele>
        <time>2024-01-20T15:51:50Z</time>
      </trkpt>
      <trkpt lat="43.46074" lon="1.6256">
        <ele>183</ele>
        <time>2024-01-20T15:51:51Z</time>
      </trkpt>
      <trkpt lat="43.46073" lon="1.62556">
        <ele>184</ele>
        <time>2024-01-20T15:51:52Z</time>
      </trkpt>
      <trkpt lat="43.46073" lon="1.62556">
        <ele>184</ele>
        <time>2024-01-20T15:51:53Z</time>
      </trkpt>
      <trkpt lat="43.46071" lon="1.62552">
        <ele>183</ele>
        <time>2024-01-20T15:51:54Z</time>
      </trkpt>
      <trkpt lat="43.46071" lon="1.62552">
        <ele>183</ele>
        <time>2024-01-20T15:51:55Z</time>
      </trkpt>
      <trkpt lat="43.4607" lon="1.62548">
        <ele>183</ele>
        <time>2024-01-20T15:51:56Z</time>
      </trkpt>
      <trkpt lat="43.4607" lon="1.62548">
        <ele>183</ele>
        <time>2024-01-20T15:51:57Z</time>
      </trkpt>
      <trkpt lat="43.46069" lon="1.62545">
        <ele>184</ele>
        <time>2024-01-20T15:51:58Z</time>
      </trkpt>
      <trkpt lat="43.46068" lon="1.62541">
        <ele>184</ele>
        <time>2024-01-20T15:52:00Z</time>
      </trkpt>
      <trkpt lat="43.46068" lon="1.62541">
        <ele>184</ele>
        <time>2024-01-20T15:52:01Z</time>
      </trkpt>
      <trkpt lat="43.46067" lon="1.62538">
        <ele>184</ele>
        <time>2024-01-20T15:52:02Z</time>
      </trkpt>
      <trkpt lat="43.46067" lon="1.62538">
        <ele>184</ele>
        <time>2024-01-20T15:52:03Z</time>
      </trkpt>
      <trkpt lat="43.46066" lon="1.62534">
        <ele>185</ele>
        <time>2024-01-20T15:52:04Z</time>
      </trkpt>
      <trkpt lat="43.46066" lon="1.62534">
        <ele>185</ele>
        <time>2024-01-20T15:52:05Z</time>
      </trkpt>
      <trkpt lat="43.46065" lon="1.62531">
        <ele>185</ele>
        <time>2024-01-20T15:52:06Z</time>
      </trkpt>
      <trkpt lat="43.46065" lon="1.62531">
        <ele>186</ele>
        <time>2024-01-20T15:52:07Z</time>
      </trkpt>
      <trkpt lat="43.46064" lon="1.62526">
        <ele>186</ele>
        <time>2024-01-20T15:52:08Z</time>
      </trkpt>
      <trkpt lat="43.46064" lon="1.62526">
        <ele>186</ele>
        <time>2024-01-20T15:52:09Z</time>
      </trkpt>
      <trkpt lat="43.46063" lon="1.62523">
        <ele>186</ele>
        <time>2024-01-20T15:52:10Z</time>
      </trkpt>
      <trkpt lat="43.46063" lon="1.62523">
        <ele>186</ele>
        <time>2024-01-20T15:52:11Z</time>
      </trkpt>
      <trkpt lat="43.46061" lon="1.62519">
        <ele>186</ele>
        <time>2024-01-20T15:52:12Z</time>
      </trkpt>
      <trkpt lat="43.46061" lon="1.62519">
        <ele>186</ele>
        <time>2024-01-20T15:52:13Z</time>
      </trkpt>
      <trkpt lat="43.4606" lon="1.62515">
        <ele>186</ele>
        <time>2024-01-20T15:52:14Z</time>
      </trkpt>
      <trkpt lat="43.4606" lon="1.62515">
        <ele>187</ele>
        <time>2024-01-20T15:52:15Z</time>
      </trkpt>
      <trkpt lat="43.4606" lon="1.62512">
        <ele>187</ele>
        <time>2024-01-20T15:52:16Z</time>
      </trkpt>
      <trkpt lat="43.4606" lon="1.62512">
        <ele>188</ele>
        <time>2024-01-20T15:52:17Z</time>
      </trkpt>
      <trkpt lat="43.46059" lon="1.62509">
        <ele>188</ele>
        <time>2024-01-20T15:52:18Z</time>
      </trkpt>
      <trkpt lat="43.46059" lon="1.62509">
        <ele>188</ele>
        <time>2024-01-20T15:52:19Z</time>
      </trkpt>
      <trkpt lat="43.46057" lon="1.62506">
        <ele>188</ele>
        <time>2024-01-20T15:52:20Z</time>
      </trkpt>
      <trkpt lat="43.46057" lon="1.62506">
        <ele>188</ele>
        <time>2024-01-20T15:52:21Z</time>
      </trkpt>
      <trkpt lat="43.46056" lon="1.62503">
        <ele>188</ele>
        <time>2024-01-20T15:52:22Z</time>
      </trkpt>
      <trkpt lat="43.46056" lon="1.62503">
        <ele>189</ele>
        <time>2024-01-20T15:52:23Z</time>
      </trkpt>
      <trkpt lat="43.46055" lon="1.62499">
        <ele>189</ele>
        <time>2024-01-20T15:52:24Z</time>
      </trkpt>
      <trkpt lat="43.46055" lon="1.62499">
        <ele>189</ele>
        <time>2024-01-20T15:52:25Z</time>
      </trkpt>
      <trkpt lat="43.46053" lon="1.62496">
        <ele>189</ele>
        <time>2024-01-20T15:52:26Z</time>
      </trkpt>
      <trkpt lat="43.46053" lon="1.62496">
        <ele>189</ele>
        <time>2024-01-20T15:52:27Z</time>
      </trkpt>
      <trkpt lat="43.46053" lon="1.62494">
        <ele>189</ele>
        <time>2024-01-20T15:52:28Z</time>
      </trkpt>
      <trkpt lat="43.46053" lon="1.62494">
        <ele>189</ele>
        <time>2024-01-20T15:52:29Z</time>
      </trkpt>
      <trkpt lat="43.46052" lon="1.6249">
        <ele>189</ele>
        <time>2024-01-20T15:52:30Z</time>
      </trkpt>
      <trkpt lat="43.46051" lon="1.62488">
        <ele>190</ele>
        <time>2024-01-20T15:52:32Z</time>
      </trkpt>
      <trkpt lat="43.46051" lon="1.62488">
        <ele>190</ele>
        <time>2024-01-20T15:52:33Z</time>
      </trkpt>
      <trkpt lat="43.4605" lon="1.62485">
        <ele>190</ele>
        <time>2024-01-20T15:52:34Z</time>
      </trkpt>
      <trkpt lat="43.4605" lon="1.62485">
        <ele>190</ele>
        <time>2024-01-20T15:52:35Z</time>
      </trkpt>
      <trkpt lat="43.46048" lon="1.62482">
        <ele>191</ele>
        <time>2024-01-20T15:52:36Z</time>
      </trkpt>
      <trkpt lat="43.46047" lon="1.6248">
        <ele>191</ele>
        <time>2024-01-20T15:52:38Z</time>
      </trkpt>
      <trkpt lat="43.46047" lon="1.6248">
        <ele>191</ele>
        <time>2024-01-20T15:52:39Z</time>
      </trkpt>
      <trkpt lat="43.46046" lon="1.62477">
        <ele>192</ele>
        <time>2024-01-20T15:52:40Z</time>
      </trkpt>
      <trkpt lat="43.46046" lon="1.62477">
        <ele>193</ele>
        <time>2024-01-20T15:52:41Z</time>
      </trkpt>
      <trkpt lat="43.46045" lon="1.62473">
        <ele>193</ele>
        <time>2024-01-20T15:52:42Z</time>
      </trkpt>
      <trkpt lat="43.46045" lon="1.62473">
        <ele>193</ele>
        <time>2024-01-20T15:52:43Z</time>
      </trkpt>
      <trkpt lat="43.46044" lon="1.6247">
        <ele>193</ele>
        <time>2024-01-20T15:52:44Z</time>
      </trkpt>
      <trkpt lat="43.46044" lon="1.6247">
        <ele>193</ele>
        <time>2024-01-20T15:52:45Z</time>
      </trkpt>
      <trkpt lat="43.46043" lon="1.62467">
        <ele>193</ele>
        <time>2024-01-20T15:52:46Z</time>
      </trkpt>
      <trkpt lat="43.46043" lon="1.62467">
        <ele>194</ele>
        <time>2024-01-20T15:52:47Z</time>
      </trkpt>
      <trkpt lat="43.46042" lon="1.62465">
        <ele>194</ele>
        <time>2024-01-20T15:52:48Z</time>
      </trkpt>
      <trkpt lat="43.46042" lon="1.62465">
        <ele>194</ele>
        <time>2024-01-20T15:52:49Z</time>
      </trkpt>
      <trkpt lat="43.46041" lon="1.62462">
        <ele>194</ele>
        <time>2024-01-20T15:52:50Z</time>
      </trkpt>
      <trkpt lat="43.46041" lon="1.62462">
        <ele>195</ele>
        <time>2024-01-20T15:52:51Z</time>
      </trkpt>
      <trkpt lat="43.46041" lon="1.62458">
        <ele>195</ele>
        <time>2024-01-20T15:52:52Z</time>
      </trkpt>
      <trkpt lat="43.46041" lon="1.62458">
        <ele>195</ele>
        <time>2024-01-20T15:52:53Z</time>
      </trkpt>
      <trkpt lat="43.4604" lon="1.62455">
        <ele>195</ele>
        <time>2024-01-20T15:52:54Z</time>
      </trkpt>
      <trkpt lat="43.4604" lon="1.62455">
        <ele>195</ele>
        <time>2024-01-20T15:52:55Z</time>
      </trkpt>
      <trkpt lat="43.46039" lon="1.62452">
        <ele>195</ele>
        <time>2024-01-20T15:52:56Z</time>
      </trkpt>
      <trkpt lat="43.46039" lon="1.62452">
        <ele>195</ele>
        <time>2024-01-20T15:52:57Z</time>
      </trkpt>
      <trkpt lat="43.46038" lon="1.62448">
        <ele>195</ele>
        <time>2024-01-20T15:52:58Z</time>
      </trkpt>
      <trkpt lat="43.46038" lon="1.62448">
        <ele>195</ele>
        <time>2024-01-20T15:52:59Z</time>
      </trkpt>
      <trkpt lat="43.46037" lon="1.62446">
        <ele>196</ele>
        <time>2024-01-20T15:53:00Z</time>
      </trkpt>
      <trkpt lat="43.46037" lon="1.62446">
        <ele>196</ele>
        <time>2024-01-20T15:53:01Z</time>
      </trkpt>
      <trkpt lat="43.46037" lon="1.62443">
        <ele>197</ele>
        <time>2024-01-20T15:53:02Z</time>
      </trkpt>
      <trkpt lat="43.46037" lon="1.62443">
        <ele>197</ele>
        <time>2024-01-20T15:53:03Z</time>
      </trkpt>
      <trkpt lat="43.46036" lon="1.6244">
        <ele>197</ele>
        <time>2024-01-20T15:53:04Z</time>
      </trkpt>
      <trkpt lat="43.46035" lon="1.62436">
        <ele>197</ele>
        <time>2024-01-20T15:53:05Z</time>
      </trkpt>
      <trkpt lat="43.46035" lon="1.62436">
        <ele>197</ele>
        <time>2024-01-20T15:53:06Z</time>
      </trkpt>
      <trkpt lat="43.46035" lon="1.62436">
        <ele>198</ele>
        <time>2024-01-20T15:53:07Z</time>
      </trkpt>
      <trkpt lat="43.46035" lon="1.62436">
        <ele>198</ele>
        <time>2024-01-20T15:53:08Z</time>
      </trkpt>
      <trkpt lat="43.46035" lon="1.62436">
        <ele>198</ele>
        <time>2024-01-20T15:53:09Z</time>
      </trkpt>
      <trkpt lat="43.46034" lon="1.62433">
        <ele>198</ele>
        <time>2024-01-20T15:53:10Z</time>
      </trkpt>
      <trkpt lat="43.46034" lon="1.62433">
        <ele>198</ele>
        <time>2024-01-20T15:53:11Z</time>
      </trkpt>
      <trkpt lat="43.46033" lon="1.6243">
        <ele>199</ele>
        <time>2024-01-20T15:53:12Z</time>
      </trkpt>
      <trkpt lat="43.46033" lon="1.6243">
        <ele>199</ele>
        <time>2024-01-20T15:53:13Z</time>
      </trkpt>
      <trkpt lat="43.46032" lon="1.62427">
        <ele>200</ele>
        <time>2024-01-20T15:53:14Z</time>
      </trkpt>
      <trkpt lat="43.46031" lon="1.62424">
        <ele>200</ele>
        <time>2024-01-20T15:53:16Z</time>
      </trkpt>
      <trkpt lat="43.46031" lon="1.62424">
        <ele>200</ele>
        <time>2024-01-20T15:53:17Z</time>
      </trkpt>
      <trkpt lat="43.46029" lon="1.62421">
        <ele>200</ele>
        <time>2024-01-20T15:53:18Z</time>
      </trkpt>
      <trkpt lat="43.46029" lon="1.62421">
        <ele>201</ele>
        <time>2024-01-20T15:53:19Z</time>
      </trkpt>
      <trkpt lat="43.46028" lon="1.62418">
        <ele>201</ele>
        <time>2024-01-20T15:53:20Z</time>
      </trkpt>
      <trkpt lat="43.46028" lon="1.62418">
        <ele>201</ele>
        <time>2024-01-20T15:53:21Z</time>
      </trkpt>
      <trkpt lat="43.46026" lon="1.62416">
        <ele>201</ele>
        <time>2024-01-20T15:53:22Z</time>
      </trkpt>
      <trkpt lat="43.46026" lon="1.62416">
        <ele>201</ele>
        <time>2024-01-20T15:53:23Z</time>
      </trkpt>
      <trkpt lat="43.46024" lon="1.62413">
        <ele>201</ele>
        <time>2024-01-20T15:53:24Z</time>
      </trkpt>
      <trkpt lat="43.46024" lon="1.62413">
        <ele>201</ele>
        <time>2024-01-20T15:53:25Z</time>
      </trkpt>
      <trkpt lat="43.46023" lon="1.62411">
        <ele>201</ele>
        <time>2024-01-20T15:53:26Z</time>
      </trkpt>
      <trkpt lat="43.46023" lon="1.62411">
        <ele>202</ele>
        <time>2024-01-20T15:53:27Z</time>
      </trkpt>
      <trkpt lat="43.46021" lon="1.62409">
        <ele>202</ele>
        <time>2024-01-20T15:53:28Z</time>
      </trkpt>
      <trkpt lat="43.46021" lon="1.62409">
        <ele>202</ele>
        <time>2024-01-20T15:53:29Z</time>
      </trkpt>
      <trkpt lat="43.46019" lon="1.62407">
        <ele>202</ele>
        <time>2024-01-20T15:53:30Z</time>
      </trkpt>
      <trkpt lat="43.46019" lon="1.62407">
        <ele>202</ele>
        <time>2024-01-20T15:53:31Z</time>
      </trkpt>
      <trkpt lat="43.46018" lon="1.62404">
        <ele>203</ele>
        <time>2024-01-20T15:53:32Z</time>
      </trkpt>
      <trkpt lat="43.46018" lon="1.62404">
        <ele>203</ele>
        <time>2024-01-20T15:53:33Z</time>
      </trkpt>
      <trkpt lat="43.46017" lon="1.62401">
        <ele>203</ele>
        <time>2024-01-20T15:53:34Z</time>
      </trkpt>
      <trkpt lat="43.46017" lon="1.62401">
        <ele>203</ele>
        <time>2024-01-20T15:53:35Z</time>
      </trkpt>
      <trkpt lat="43.46016" lon="1.62399">
        <ele>203</ele>
        <time>2024-01-20T15:53:36Z</time>
      </trkpt>
      <trkpt lat="43.46016" lon="1.62399">
        <ele>204</ele>
        <time>2024-01-20T15:53:37Z</time>
      </trkpt>
      <trkpt lat="43.46015" lon="1.62396">
        <ele>204</ele>
        <time>2024-01-20T15:53:38Z</time>
      </trkpt>
      <trkpt lat="43.46015" lon="1.62396">
        <ele>204</ele>
        <time>2024-01-20T15:53:39Z</time>
      </trkpt>
      <trkpt lat="43.46013" lon="1.62393">
        <ele>205</ele>
        <time>2024-01-20T15:53:40Z</time>
      </trkpt>
      <trkpt lat="43.46013" lon="1.62393">
        <ele>205</ele>
        <time>2024-01-20T15:53:41Z</time>
      </trkpt>
      <trkpt lat="43.46012" lon="1.62391">
        <ele>205</ele>
        <time>2024-01-20T15:53:42Z</time>
      </trkpt>
      <trkpt lat="43.46012" lon="1.62391">
        <ele>206</ele>
        <time>2024-01-20T15:53:43Z</time>
      </trkpt>
      <trkpt lat="43.4601" lon="1.62388">
        <ele>206</ele>
        <time>2024-01-20T15:53:44Z</time>
      </trkpt>
      <trkpt lat="43.4601" lon="1.62388">
        <ele>207</ele>
        <time>2024-01-20T15:53:45Z</time>
      </trkpt>
      <trkpt lat="43.46009" lon="1.62385">
        <ele>207</ele>
        <time>2024-01-20T15:53:46Z</time>
      </trkpt>
      <trkpt lat="43.46009" lon="1.62385">
        <ele>207</ele>
        <time>2024-01-20T15:53:47Z</time>
      </trkpt>
      <trkpt lat="43.46008" lon="1.62382">
        <ele>207</ele>
        <time>2024-01-20T15:53:48Z</time>
      </trkpt>
      <trkpt lat="43.46008" lon="1.62382">
        <ele>207</ele>
        <time>2024-01-20T15:53:49Z</time>
      </trkpt>
      <trkpt lat="43.46006" lon="1.62379">
        <ele>207</ele>
        <time>2024-01-20T15:53:50Z</time>
      </trkpt>
      <trkpt lat="43.46006" lon="1.62379">
        <ele>207</ele>
        <time>2024-01-20T15:53:51Z</time>
      </trkpt>
      <trkpt lat="43.46004" lon="1.62376">
        <ele>207</ele>
        <time>2024-01-20T15:53:52Z</time>
      </trkpt>
      <trkpt lat="43.46003" lon="1.62373">
        <ele>207</ele>
        <time>2024-01-20T15:53:54Z</time>
      </trkpt>
      <trkpt lat="43.46003" lon="1.62373">
        <ele>207</ele>
        <time>2024-01-20T15:53:55Z</time>
      </trkpt>
      <trkpt lat="43.46001" lon="1.6237">
        <ele>207</ele>
        <time>2024-01-20T15:53:56Z</time>
      </trkpt>
      <trkpt lat="43.46001" lon="1.6237">
        <ele>207</ele>
        <time>2024-01-20T15:53:57Z</time>
      </trkpt>
      <trkpt lat="43.45999" lon="1.62367">
        <ele>207</ele>
        <time>2024-01-20T15:53:58Z</time>
      </trkpt>
      <trkpt lat="43.45997" lon="1.62363">
        <ele>207</ele>
        <time>2024-01-20T15:54:00Z</time>
      </trkpt>
      <trkpt lat="43.45997" lon="1.62363">
        <ele>207</ele>
        <time>2024-01-20T15:54:01Z</time>
      </trkpt>
      <trkpt lat="43.45996" lon="1.6236">
        <ele>208</ele>
        <time>2024-01-20T15:54:02Z</time>
      </trkpt>
      <trkpt lat="43.45996" lon="1.6236">
        <ele>208</ele>
        <time>2024-01-20T15:54:03Z</time>
      </trkpt>
      <trkpt lat="43.45994" lon="1.62357">
        <ele>209</ele>
        <time>2024-01-20T15:54:04Z</time>
      </trkpt>
      <trkpt lat="43.45994" lon="1.62357">
        <ele>209</ele>
        <time>2024-01-20T15:54:05Z</time>
      </trkpt>
      <trkpt lat="43.45993" lon="1.62354">
        <ele>209</ele>
        <time>2024-01-20T15:54:06Z</time>
      </trkpt>
      <trkpt lat="43.45993" lon="1.62354">
        <ele>209</ele>
        <time>2024-01-20T15:54:07Z</time>
      </trkpt>
      <trkpt lat="43.45992" lon="1.62351">
        <ele>209</ele>
        <time>2024-01-20T15:54:08Z</time>
      </trkpt>
      <trkpt lat="43.45992" lon="1.62351">
        <ele>209</ele>
        <time>2024-01-20T15:54:09Z</time>
      </trkpt>
      <trkpt lat="43.4599" lon="1.62348">
        <ele>209</ele>
        <time>2024-01-20T15:54:10Z</time>
      </trkpt>
      <trkpt lat="43.45989" lon="1.62345">
        <ele>209</ele>
        <time>2024-01-20T15:54:11Z</time>
      </trkpt>
      <trkpt lat="43.45988" lon="1.62341">
        <ele>209</ele>
        <time>2024-01-20T15:54:12Z</time>
      </trkpt>
      <trkpt lat="43.45987" lon="1.6234">
        <ele>209</ele>
        <time>2024-01-20T15:54:13Z</time>
      </trkpt>
      <trkpt lat="43.45986" lon="1.62338">
        <ele>209</ele>
        <time>2024-01-20T15:54:14Z</time>
      </trkpt>
      <trkpt lat="43.45984" lon="1.62335">
        <ele>210</ele>
        <time>2024-01-20T15:54:15Z</time>
      </trkpt>
      <trkpt lat="43.45983" lon="1.62333">
        <ele>210</ele>
        <time>2024-01-20T15:54:16Z</time>
      </trkpt>
      <trkpt lat="43.45982" lon="1.6233">
        <ele>210</ele>
        <time>2024-01-20T15:54:17Z</time>
      </trkpt>
      <trkpt lat="43.45981" lon="1.62327">
        <ele>210</ele>
        <time>2024-01-20T15:54:18Z</time>
      </trkpt>
      <trkpt lat="43.4598" lon="1.62324">
        <ele>210</ele>
        <time>2024-01-20T15:54:19Z</time>
      </trkpt>
      <trkpt lat="43.45979" lon="1.62321">
        <ele>210</ele>
        <time>2024-01-20T15:54:20Z</time>
      </trkpt>
      <trkpt lat="43.45977" lon="1.62319">
        <ele>210</ele>
        <time>2024-01-20T15:54:21Z</time>
      </trkpt>
      <trkpt lat="43.45976" lon="1.62316">
        <ele>210</ele>
        <time>2024-01-20T15:54:22Z</time>
      </trkpt>
      <trkpt lat="43.45974" lon="1.62313">
        <ele>210</ele>
        <time>2024-01-20T15:54:23Z</time>
      </trkpt>
      <trkpt lat="43.45973" lon="1.6231">
        <ele>210</ele>
        <time>2024-01-20T15:54:24Z</time>
      </trkpt>
      <trkpt lat="43.45972" lon="1.62307">
        <ele>210</ele>
        <time>2024-01-20T15:54:25Z</time>
      </trkpt>
      <trkpt lat="43.45971" lon="1.62303">
        <ele>210</ele>
        <time>2024-01-20T15:54:26Z</time>
      </trkpt>
      <trkpt lat="43.4597" lon="1.623">
        <ele>210</ele>
        <time>2024-01-20T15:54:27Z</time>
      </trkpt>
      <trkpt lat="43.45969" lon="1.62297">
        <ele>210</ele>
        <time>2024-01-20T15:54:28Z</time>
      </trkpt>
      <trkpt lat="43.45968" lon="1.62294">
        <ele>210</ele>
        <time>2024-01-20T15:54:29Z</time>
      </trkpt>
      <trkpt lat="43.45968" lon="1.62294">
        <ele>210</ele>
        <time>2024-01-20T15:54:30Z</time>
      </trkpt>
      <trkpt lat="43.45968" lon="1.62294">
        <ele>210</ele>
        <time>2024-01-20T15:54:32Z</time>
      </trkpt>
      <trkpt lat="43.45968" lon="1.62294">
        <ele>210</ele>
        <time>2024-01-20T15:54:33Z</time>
      </trkpt>
      <trkpt lat="43.45968" lon="1.62294">
        <ele>210</ele>
        <time>2024-01-20T15:54:34Z</time>
      </trkpt>
      <trkpt lat="43.45968" lon="1.62294">
        <ele>210</ele>
        <time>2024-01-20T15:54:35Z</time>
      </trkpt>
      <trkpt lat="43.45966" lon="1.62294">
        <ele>210</ele>
        <time>2024-01-20T15:54:36Z</time>
      </trkpt>
    </trkseg>
  </trk>
</gpx>